<?xml version="1.0" encoding="UTF-8" standalone="no" ?>
<gpx xmlns="http://www.topografix.com/GPX/1/1" xmlns:xsi="http://www.w3.org/2001/XMLSchema-instance" xsi:schemaLocation="http://www.topografix.com/GPX/1/1 http://www.topografix.com/GPX/1/1/gpx.xsd" version="1.1" creator="VisuGPX - https://www.visugpx.com">
  <metadata>
    <name>Du haut de Layoule</name>
    <desc><![CDATA[Trail 11 km et 200m dénivelé.
Départ camping de Layoule]]></desc>
  </metadata>
  <trk>
    <name><![CDATA[Move]]></name>
    <trkseg>
      <trkpt lat="44.35776" lon="2.59601">
        <ele>535.40002441406</ele>
        <time>2018-09-12T15:00:01.000Z</time>
      </trkpt>
      <trkpt lat="44.35776" lon="2.59605">
        <ele>536</ele>
        <time>2018-09-12T15:00:03.000Z</time>
      </trkpt>
      <trkpt lat="44.35774" lon="2.59607">
        <ele>536</ele>
        <time>2018-09-12T15:00:04.000Z</time>
      </trkpt>
      <trkpt lat="44.35773" lon="2.59611">
        <ele>536</ele>
        <time>2018-09-12T15:00:05.000Z</time>
      </trkpt>
      <trkpt lat="44.35771" lon="2.59614">
        <ele>536</ele>
        <time>2018-09-12T15:00:06.000Z</time>
      </trkpt>
      <trkpt lat="44.35769" lon="2.59617">
        <ele>536</ele>
        <time>2018-09-12T15:00:07.000Z</time>
      </trkpt>
      <trkpt lat="44.35767" lon="2.5962">
        <ele>536</ele>
        <time>2018-09-12T15:00:08.000Z</time>
      </trkpt>
      <trkpt lat="44.35766" lon="2.59623">
        <ele>536</ele>
        <time>2018-09-12T15:00:09.000Z</time>
      </trkpt>
      <trkpt lat="44.35764" lon="2.59626">
        <ele>536</ele>
        <time>2018-09-12T15:00:10.000Z</time>
      </trkpt>
      <trkpt lat="44.35762" lon="2.59629">
        <ele>537</ele>
        <time>2018-09-12T15:00:11.000Z</time>
      </trkpt>
      <trkpt lat="44.3576" lon="2.59631">
        <ele>537</ele>
        <time>2018-09-12T15:00:12.000Z</time>
      </trkpt>
      <trkpt lat="44.35758" lon="2.59634">
        <ele>537</ele>
        <time>2018-09-12T15:00:13.000Z</time>
      </trkpt>
      <trkpt lat="44.35756" lon="2.59637">
        <ele>537</ele>
        <time>2018-09-12T15:00:14.000Z</time>
      </trkpt>
      <trkpt lat="44.35754" lon="2.5964">
        <ele>537</ele>
        <time>2018-09-12T15:00:15.000Z</time>
      </trkpt>
      <trkpt lat="44.35752" lon="2.59643">
        <ele>537</ele>
        <time>2018-09-12T15:00:16.000Z</time>
      </trkpt>
      <trkpt lat="44.35749" lon="2.59646">
        <ele>537</ele>
        <time>2018-09-12T15:00:17.000Z</time>
      </trkpt>
      <trkpt lat="44.35747" lon="2.59649">
        <ele>537</ele>
        <time>2018-09-12T15:00:18.000Z</time>
      </trkpt>
      <trkpt lat="44.35745" lon="2.59652">
        <ele>537</ele>
        <time>2018-09-12T15:00:19.000Z</time>
      </trkpt>
      <trkpt lat="44.35743" lon="2.59655">
        <ele>537</ele>
        <time>2018-09-12T15:00:20.000Z</time>
      </trkpt>
      <trkpt lat="44.35741" lon="2.59658">
        <ele>537</ele>
        <time>2018-09-12T15:00:21.000Z</time>
      </trkpt>
      <trkpt lat="44.35739" lon="2.5966">
        <ele>537</ele>
        <time>2018-09-12T15:00:22.000Z</time>
      </trkpt>
      <trkpt lat="44.35737" lon="2.59663">
        <ele>537</ele>
        <time>2018-09-12T15:00:23.000Z</time>
      </trkpt>
      <trkpt lat="44.35735" lon="2.59666">
        <ele>537</ele>
        <time>2018-09-12T15:00:24.000Z</time>
      </trkpt>
      <trkpt lat="44.35732" lon="2.59669">
        <ele>537</ele>
        <time>2018-09-12T15:00:25.000Z</time>
      </trkpt>
      <trkpt lat="44.3573" lon="2.59672">
        <ele>537</ele>
        <time>2018-09-12T15:00:26.000Z</time>
      </trkpt>
      <trkpt lat="44.35728" lon="2.59675">
        <ele>537</ele>
        <time>2018-09-12T15:00:27.000Z</time>
      </trkpt>
      <trkpt lat="44.35725" lon="2.59678">
        <ele>537</ele>
        <time>2018-09-12T15:00:28.000Z</time>
      </trkpt>
      <trkpt lat="44.35723" lon="2.5968">
        <ele>537</ele>
        <time>2018-09-12T15:00:29.000Z</time>
      </trkpt>
      <trkpt lat="44.35721" lon="2.59683">
        <ele>537</ele>
        <time>2018-09-12T15:00:30.000Z</time>
      </trkpt>
      <trkpt lat="44.35719" lon="2.59686">
        <ele>537</ele>
        <time>2018-09-12T15:00:31.000Z</time>
      </trkpt>
      <trkpt lat="44.35717" lon="2.59689">
        <ele>537</ele>
        <time>2018-09-12T15:00:32.000Z</time>
      </trkpt>
      <trkpt lat="44.35715" lon="2.59691">
        <ele>537.05504016159</ele>
        <time>2018-09-12T15:00:33.000Z</time>
      </trkpt>
      <trkpt lat="44.35713" lon="2.59694">
        <ele>537.97247404763</ele>
        <time>2018-09-12T15:00:34.000Z</time>
      </trkpt>
      <trkpt lat="44.35711" lon="2.59697">
        <ele>538</ele>
        <time>2018-09-12T15:00:35.000Z</time>
      </trkpt>
      <trkpt lat="44.35709" lon="2.597">
        <ele>538</ele>
        <time>2018-09-12T15:00:36.000Z</time>
      </trkpt>
      <trkpt lat="44.35707" lon="2.59703">
        <ele>538</ele>
        <time>2018-09-12T15:00:37.000Z</time>
      </trkpt>
      <trkpt lat="44.35705" lon="2.59706">
        <ele>538</ele>
        <time>2018-09-12T15:00:38.000Z</time>
      </trkpt>
      <trkpt lat="44.35702" lon="2.59709">
        <ele>538</ele>
        <time>2018-09-12T15:00:39.000Z</time>
      </trkpt>
      <trkpt lat="44.35701" lon="2.59712">
        <ele>538</ele>
        <time>2018-09-12T15:00:40.000Z</time>
      </trkpt>
      <trkpt lat="44.35698" lon="2.59715">
        <ele>538</ele>
        <time>2018-09-12T15:00:41.000Z</time>
      </trkpt>
      <trkpt lat="44.35696" lon="2.59718">
        <ele>538</ele>
        <time>2018-09-12T15:00:42.000Z</time>
      </trkpt>
      <trkpt lat="44.35694" lon="2.59721">
        <ele>538</ele>
        <time>2018-09-12T15:00:43.000Z</time>
      </trkpt>
      <trkpt lat="44.35692" lon="2.59724">
        <ele>538</ele>
        <time>2018-09-12T15:00:44.000Z</time>
      </trkpt>
      <trkpt lat="44.3569" lon="2.59727">
        <ele>538.05824675648</ele>
        <time>2018-09-12T15:00:45.000Z</time>
      </trkpt>
      <trkpt lat="44.35688" lon="2.5973">
        <ele>539</ele>
        <time>2018-09-12T15:00:46.000Z</time>
      </trkpt>
      <trkpt lat="44.35686" lon="2.59733">
        <ele>539</ele>
        <time>2018-09-12T15:00:47.000Z</time>
      </trkpt>
      <trkpt lat="44.35684" lon="2.59737">
        <ele>539</ele>
        <time>2018-09-12T15:00:48.000Z</time>
      </trkpt>
      <trkpt lat="44.35682" lon="2.5974">
        <ele>539</ele>
        <time>2018-09-12T15:00:49.000Z</time>
      </trkpt>
      <trkpt lat="44.3568" lon="2.59743">
        <ele>539</ele>
        <time>2018-09-12T15:00:50.000Z</time>
      </trkpt>
      <trkpt lat="44.35678" lon="2.59746">
        <ele>539</ele>
        <time>2018-09-12T15:00:51.000Z</time>
      </trkpt>
      <trkpt lat="44.35676" lon="2.59749">
        <ele>539</ele>
        <time>2018-09-12T15:00:52.000Z</time>
      </trkpt>
      <trkpt lat="44.35674" lon="2.59751">
        <ele>538.94286306396</ele>
        <time>2018-09-12T15:00:53.000Z</time>
      </trkpt>
      <trkpt lat="44.35672" lon="2.59753">
        <ele>538</ele>
        <time>2018-09-12T15:00:54.000Z</time>
      </trkpt>
      <trkpt lat="44.35669" lon="2.59754">
        <ele>538</ele>
        <time>2018-09-12T15:00:55.000Z</time>
      </trkpt>
      <trkpt lat="44.35666" lon="2.59755">
        <ele>538</ele>
        <time>2018-09-12T15:00:56.000Z</time>
      </trkpt>
      <trkpt lat="44.35663" lon="2.59755">
        <ele>538</ele>
        <time>2018-09-12T15:00:57.000Z</time>
      </trkpt>
      <trkpt lat="44.35661" lon="2.59754">
        <ele>538</ele>
        <time>2018-09-12T15:00:58.000Z</time>
      </trkpt>
      <trkpt lat="44.35658" lon="2.59752">
        <ele>538</ele>
        <time>2018-09-12T15:00:59.000Z</time>
      </trkpt>
      <trkpt lat="44.35656" lon="2.5975">
        <ele>538</ele>
        <time>2018-09-12T15:01:00.000Z</time>
      </trkpt>
      <trkpt lat="44.35654" lon="2.59747">
        <ele>538</ele>
        <time>2018-09-12T15:01:01.000Z</time>
      </trkpt>
      <trkpt lat="44.35652" lon="2.59744">
        <ele>538</ele>
        <time>2018-09-12T15:01:02.000Z</time>
      </trkpt>
      <trkpt lat="44.35651" lon="2.5974">
        <ele>538</ele>
        <time>2018-09-12T15:01:03.000Z</time>
      </trkpt>
      <trkpt lat="44.3565" lon="2.59736">
        <ele>537.94494874174</ele>
        <time>2018-09-12T15:01:04.000Z</time>
      </trkpt>
      <trkpt lat="44.35648" lon="2.59732">
        <ele>537.02752562913</ele>
        <time>2018-09-12T15:01:05.000Z</time>
      </trkpt>
      <trkpt lat="44.35648" lon="2.59728">
        <ele>537</ele>
        <time>2018-09-12T15:01:06.000Z</time>
      </trkpt>
      <trkpt lat="44.35647" lon="2.59724">
        <ele>537</ele>
        <time>2018-09-12T15:01:07.000Z</time>
      </trkpt>
      <trkpt lat="44.35646" lon="2.5972">
        <ele>537</ele>
        <time>2018-09-12T15:01:08.000Z</time>
      </trkpt>
      <trkpt lat="44.35645" lon="2.59716">
        <ele>537</ele>
        <time>2018-09-12T15:01:09.000Z</time>
      </trkpt>
      <trkpt lat="44.35645" lon="2.59712">
        <ele>537</ele>
        <time>2018-09-12T15:01:10.000Z</time>
      </trkpt>
      <trkpt lat="44.35645" lon="2.59708">
        <ele>538</ele>
        <time>2018-09-12T15:01:11.000Z</time>
      </trkpt>
      <trkpt lat="44.35645" lon="2.59704">
        <ele>538</ele>
        <time>2018-09-12T15:01:12.000Z</time>
      </trkpt>
      <trkpt lat="44.35644" lon="2.597">
        <ele>538</ele>
        <time>2018-09-12T15:01:13.000Z</time>
      </trkpt>
      <trkpt lat="44.35644" lon="2.59696">
        <ele>538</ele>
        <time>2018-09-12T15:01:14.000Z</time>
      </trkpt>
      <trkpt lat="44.35644" lon="2.59693">
        <ele>538</ele>
        <time>2018-09-12T15:01:15.000Z</time>
      </trkpt>
      <trkpt lat="44.35644" lon="2.5969">
        <ele>538</ele>
        <time>2018-09-12T15:01:16.000Z</time>
      </trkpt>
      <trkpt lat="44.35644" lon="2.59687">
        <ele>538</ele>
        <time>2018-09-12T15:01:17.000Z</time>
      </trkpt>
      <trkpt lat="44.35644" lon="2.59683">
        <ele>538</ele>
        <time>2018-09-12T15:01:18.000Z</time>
      </trkpt>
      <trkpt lat="44.35645" lon="2.59679">
        <ele>538</ele>
        <time>2018-09-12T15:01:19.000Z</time>
      </trkpt>
      <trkpt lat="44.35644" lon="2.59676">
        <ele>538</ele>
        <time>2018-09-12T15:01:20.000Z</time>
      </trkpt>
      <trkpt lat="44.35644" lon="2.59672">
        <ele>538</ele>
        <time>2018-09-12T15:01:21.000Z</time>
      </trkpt>
      <trkpt lat="44.35643" lon="2.59668">
        <ele>538</ele>
        <time>2018-09-12T15:01:22.000Z</time>
      </trkpt>
      <trkpt lat="44.35642" lon="2.59664">
        <ele>538</ele>
        <time>2018-09-12T15:01:23.000Z</time>
      </trkpt>
      <trkpt lat="44.35642" lon="2.59659">
        <ele>538</ele>
        <time>2018-09-12T15:01:24.000Z</time>
      </trkpt>
      <trkpt lat="44.35641" lon="2.59655">
        <ele>538</ele>
        <time>2018-09-12T15:01:25.000Z</time>
      </trkpt>
      <trkpt lat="44.35641" lon="2.59651">
        <ele>537.95744255926</ele>
        <time>2018-09-12T15:01:26.000Z</time>
      </trkpt>
      <trkpt lat="44.35641" lon="2.59646">
        <ele>537.2482275298</ele>
        <time>2018-09-12T15:01:27.000Z</time>
      </trkpt>
      <trkpt lat="44.35641" lon="2.59642">
        <ele>537</ele>
        <time>2018-09-12T15:01:28.000Z</time>
      </trkpt>
      <trkpt lat="44.3564" lon="2.59637">
        <ele>537</ele>
        <time>2018-09-12T15:01:29.000Z</time>
      </trkpt>
      <trkpt lat="44.3564" lon="2.59633">
        <ele>537</ele>
        <time>2018-09-12T15:01:30.000Z</time>
      </trkpt>
      <trkpt lat="44.35639" lon="2.59628">
        <ele>537</ele>
        <time>2018-09-12T15:01:31.000Z</time>
      </trkpt>
      <trkpt lat="44.35639" lon="2.59624">
        <ele>537</ele>
        <time>2018-09-12T15:01:32.000Z</time>
      </trkpt>
      <trkpt lat="44.35638" lon="2.59619">
        <ele>537</ele>
        <time>2018-09-12T15:01:33.000Z</time>
      </trkpt>
      <trkpt lat="44.35638" lon="2.59615">
        <ele>537</ele>
        <time>2018-09-12T15:01:34.000Z</time>
      </trkpt>
      <trkpt lat="44.35638" lon="2.5961">
        <ele>537</ele>
        <time>2018-09-12T15:01:35.000Z</time>
      </trkpt>
      <trkpt lat="44.35638" lon="2.59605">
        <ele>537</ele>
        <time>2018-09-12T15:01:36.000Z</time>
      </trkpt>
      <trkpt lat="44.35638" lon="2.59601">
        <ele>537</ele>
        <time>2018-09-12T15:01:37.000Z</time>
      </trkpt>
      <trkpt lat="44.35637" lon="2.59596">
        <ele>537</ele>
        <time>2018-09-12T15:01:38.000Z</time>
      </trkpt>
      <trkpt lat="44.35637" lon="2.59592">
        <ele>537</ele>
        <time>2018-09-12T15:01:39.000Z</time>
      </trkpt>
      <trkpt lat="44.35636" lon="2.59587">
        <ele>537</ele>
        <time>2018-09-12T15:01:40.000Z</time>
      </trkpt>
      <trkpt lat="44.35636" lon="2.59583">
        <ele>537</ele>
        <time>2018-09-12T15:01:41.000Z</time>
      </trkpt>
      <trkpt lat="44.35635" lon="2.59578">
        <ele>537</ele>
        <time>2018-09-12T15:01:42.000Z</time>
      </trkpt>
      <trkpt lat="44.35635" lon="2.59574">
        <ele>537</ele>
        <time>2018-09-12T15:01:43.000Z</time>
      </trkpt>
      <trkpt lat="44.35634" lon="2.5957">
        <ele>537</ele>
        <time>2018-09-12T15:01:44.000Z</time>
      </trkpt>
      <trkpt lat="44.35634" lon="2.59565">
        <ele>537</ele>
        <time>2018-09-12T15:01:45.000Z</time>
      </trkpt>
      <trkpt lat="44.35633" lon="2.59561">
        <ele>537</ele>
        <time>2018-09-12T15:01:46.000Z</time>
      </trkpt>
      <trkpt lat="44.35633" lon="2.59556">
        <ele>537</ele>
        <time>2018-09-12T15:01:47.000Z</time>
      </trkpt>
      <trkpt lat="44.35632" lon="2.59552">
        <ele>537</ele>
        <time>2018-09-12T15:01:48.000Z</time>
      </trkpt>
      <trkpt lat="44.35631" lon="2.59548">
        <ele>537</ele>
        <time>2018-09-12T15:01:49.000Z</time>
      </trkpt>
      <trkpt lat="44.35631" lon="2.59544">
        <ele>537</ele>
        <time>2018-09-12T15:01:50.000Z</time>
      </trkpt>
      <trkpt lat="44.3563" lon="2.59539">
        <ele>537</ele>
        <time>2018-09-12T15:01:51.000Z</time>
      </trkpt>
      <trkpt lat="44.35629" lon="2.59535">
        <ele>537</ele>
        <time>2018-09-12T15:01:52.000Z</time>
      </trkpt>
      <trkpt lat="44.35629" lon="2.59531">
        <ele>537</ele>
        <time>2018-09-12T15:01:53.000Z</time>
      </trkpt>
      <trkpt lat="44.35628" lon="2.59527">
        <ele>537</ele>
        <time>2018-09-12T15:01:54.000Z</time>
      </trkpt>
      <trkpt lat="44.35627" lon="2.59523">
        <ele>537</ele>
        <time>2018-09-12T15:01:55.000Z</time>
      </trkpt>
      <trkpt lat="44.35626" lon="2.59519">
        <ele>537</ele>
        <time>2018-09-12T15:01:56.000Z</time>
      </trkpt>
      <trkpt lat="44.35626" lon="2.59515">
        <ele>537</ele>
        <time>2018-09-12T15:01:57.000Z</time>
      </trkpt>
      <trkpt lat="44.35625" lon="2.59511">
        <ele>537</ele>
        <time>2018-09-12T15:01:58.000Z</time>
      </trkpt>
      <trkpt lat="44.35624" lon="2.59507">
        <ele>537</ele>
        <time>2018-09-12T15:01:59.000Z</time>
      </trkpt>
      <trkpt lat="44.35623" lon="2.59503">
        <ele>537</ele>
        <time>2018-09-12T15:02:00.000Z</time>
      </trkpt>
      <trkpt lat="44.35622" lon="2.59498">
        <ele>537</ele>
        <time>2018-09-12T15:02:01.000Z</time>
      </trkpt>
      <trkpt lat="44.35621" lon="2.59494">
        <ele>537</ele>
        <time>2018-09-12T15:02:02.000Z</time>
      </trkpt>
      <trkpt lat="44.3562" lon="2.5949">
        <ele>537</ele>
        <time>2018-09-12T15:02:03.000Z</time>
      </trkpt>
      <trkpt lat="44.35619" lon="2.59486">
        <ele>537</ele>
        <time>2018-09-12T15:02:04.000Z</time>
      </trkpt>
      <trkpt lat="44.35618" lon="2.59481">
        <ele>537</ele>
        <time>2018-09-12T15:02:05.000Z</time>
      </trkpt>
      <trkpt lat="44.35617" lon="2.59477">
        <ele>537</ele>
        <time>2018-09-12T15:02:06.000Z</time>
      </trkpt>
      <trkpt lat="44.35617" lon="2.59473">
        <ele>537</ele>
        <time>2018-09-12T15:02:07.000Z</time>
      </trkpt>
      <trkpt lat="44.35616" lon="2.59469">
        <ele>537</ele>
        <time>2018-09-12T15:02:08.000Z</time>
      </trkpt>
      <trkpt lat="44.35615" lon="2.59464">
        <ele>537</ele>
        <time>2018-09-12T15:02:09.000Z</time>
      </trkpt>
      <trkpt lat="44.35614" lon="2.5946">
        <ele>538</ele>
        <time>2018-09-12T15:02:10.000Z</time>
      </trkpt>
      <trkpt lat="44.35613" lon="2.59455">
        <ele>537.94000563207</ele>
        <time>2018-09-12T15:02:11.000Z</time>
      </trkpt>
      <trkpt lat="44.35612" lon="2.59451">
        <ele>537</ele>
        <time>2018-09-12T15:02:12.000Z</time>
      </trkpt>
      <trkpt lat="44.35611" lon="2.59447">
        <ele>537</ele>
        <time>2018-09-12T15:02:13.000Z</time>
      </trkpt>
      <trkpt lat="44.3561" lon="2.59443">
        <ele>537</ele>
        <time>2018-09-12T15:02:14.000Z</time>
      </trkpt>
      <trkpt lat="44.35609" lon="2.59439">
        <ele>537</ele>
        <time>2018-09-12T15:02:15.000Z</time>
      </trkpt>
      <trkpt lat="44.35608" lon="2.59434">
        <ele>537</ele>
        <time>2018-09-12T15:02:16.000Z</time>
      </trkpt>
      <trkpt lat="44.35607" lon="2.5943">
        <ele>537</ele>
        <time>2018-09-12T15:02:17.000Z</time>
      </trkpt>
      <trkpt lat="44.35605" lon="2.59426">
        <ele>537</ele>
        <time>2018-09-12T15:02:18.000Z</time>
      </trkpt>
      <trkpt lat="44.35604" lon="2.59422">
        <ele>537</ele>
        <time>2018-09-12T15:02:19.000Z</time>
      </trkpt>
      <trkpt lat="44.35603" lon="2.59418">
        <ele>537</ele>
        <time>2018-09-12T15:02:20.000Z</time>
      </trkpt>
      <trkpt lat="44.35601" lon="2.59414">
        <ele>537</ele>
        <time>2018-09-12T15:02:21.000Z</time>
      </trkpt>
      <trkpt lat="44.356" lon="2.5941">
        <ele>537</ele>
        <time>2018-09-12T15:02:22.000Z</time>
      </trkpt>
      <trkpt lat="44.35599" lon="2.59406">
        <ele>537</ele>
        <time>2018-09-12T15:02:23.000Z</time>
      </trkpt>
      <trkpt lat="44.35597" lon="2.59403">
        <ele>537</ele>
        <time>2018-09-12T15:02:24.000Z</time>
      </trkpt>
      <trkpt lat="44.35595" lon="2.59399">
        <ele>537</ele>
        <time>2018-09-12T15:02:25.000Z</time>
      </trkpt>
      <trkpt lat="44.35594" lon="2.59396">
        <ele>536.93999436807</ele>
        <time>2018-09-12T15:02:26.000Z</time>
      </trkpt>
      <trkpt lat="44.35592" lon="2.59392">
        <ele>536.05999436793</ele>
        <time>2018-09-12T15:02:27.000Z</time>
      </trkpt>
      <trkpt lat="44.3559" lon="2.59389">
        <ele>536.94494874174</ele>
        <time>2018-09-12T15:02:28.000Z</time>
      </trkpt>
      <trkpt lat="44.35588" lon="2.59386">
        <ele>536.02752562913</ele>
        <time>2018-09-12T15:02:29.000Z</time>
      </trkpt>
      <trkpt lat="44.35586" lon="2.59382">
        <ele>536</ele>
        <time>2018-09-12T15:02:30.000Z</time>
      </trkpt>
      <trkpt lat="44.35585" lon="2.59379">
        <ele>536</ele>
        <time>2018-09-12T15:02:31.000Z</time>
      </trkpt>
      <trkpt lat="44.35583" lon="2.59375">
        <ele>536</ele>
        <time>2018-09-12T15:02:32.000Z</time>
      </trkpt>
      <trkpt lat="44.35581" lon="2.59372">
        <ele>536</ele>
        <time>2018-09-12T15:02:33.000Z</time>
      </trkpt>
      <trkpt lat="44.35578" lon="2.59368">
        <ele>536</ele>
        <time>2018-09-12T15:02:34.000Z</time>
      </trkpt>
      <trkpt lat="44.35576" lon="2.59365">
        <ele>536</ele>
        <time>2018-09-12T15:02:35.000Z</time>
      </trkpt>
      <trkpt lat="44.35574" lon="2.59361">
        <ele>535</ele>
        <time>2018-09-12T15:02:36.000Z</time>
      </trkpt>
      <trkpt lat="44.35572" lon="2.59358">
        <ele>535</ele>
        <time>2018-09-12T15:02:37.000Z</time>
      </trkpt>
      <trkpt lat="44.3557" lon="2.59355">
        <ele>534.95918394002</ele>
        <time>2018-09-12T15:02:38.000Z</time>
      </trkpt>
      <trkpt lat="44.35568" lon="2.59352">
        <ele>534</ele>
        <time>2018-09-12T15:02:39.000Z</time>
      </trkpt>
      <trkpt lat="44.35566" lon="2.59349">
        <ele>534</ele>
        <time>2018-09-12T15:02:40.000Z</time>
      </trkpt>
      <trkpt lat="44.35564" lon="2.59345">
        <ele>534</ele>
        <time>2018-09-12T15:02:41.000Z</time>
      </trkpt>
      <trkpt lat="44.35561" lon="2.59342">
        <ele>534</ele>
        <time>2018-09-12T15:02:42.000Z</time>
      </trkpt>
      <trkpt lat="44.35559" lon="2.59338">
        <ele>534</ele>
        <time>2018-09-12T15:02:43.000Z</time>
      </trkpt>
      <trkpt lat="44.35557" lon="2.59335">
        <ele>534</ele>
        <time>2018-09-12T15:02:44.000Z</time>
      </trkpt>
      <trkpt lat="44.35554" lon="2.59332">
        <ele>533.95890831302</ele>
        <time>2018-09-12T15:02:45.000Z</time>
      </trkpt>
      <trkpt lat="44.35552" lon="2.59328">
        <ele>533.27397380372</ele>
        <time>2018-09-12T15:02:46.000Z</time>
      </trkpt>
      <trkpt lat="44.35549" lon="2.59325">
        <ele>533</ele>
        <time>2018-09-12T15:02:47.000Z</time>
      </trkpt>
      <trkpt lat="44.35546" lon="2.59322">
        <ele>533</ele>
        <time>2018-09-12T15:02:48.000Z</time>
      </trkpt>
      <trkpt lat="44.35544" lon="2.5932">
        <ele>533</ele>
        <time>2018-09-12T15:02:49.000Z</time>
      </trkpt>
      <trkpt lat="44.35541" lon="2.59318">
        <ele>533</ele>
        <time>2018-09-12T15:02:50.000Z</time>
      </trkpt>
      <trkpt lat="44.35538" lon="2.59315">
        <ele>533</ele>
        <time>2018-09-12T15:02:51.000Z</time>
      </trkpt>
      <trkpt lat="44.35535" lon="2.59312">
        <ele>533</ele>
        <time>2018-09-12T15:02:52.000Z</time>
      </trkpt>
      <trkpt lat="44.35532" lon="2.59309">
        <ele>533</ele>
        <time>2018-09-12T15:02:53.000Z</time>
      </trkpt>
      <trkpt lat="44.3553" lon="2.59307">
        <ele>533</ele>
        <time>2018-09-12T15:02:54.000Z</time>
      </trkpt>
      <trkpt lat="44.35527" lon="2.59305">
        <ele>533.05356571429</ele>
        <time>2018-09-12T15:02:55.000Z</time>
      </trkpt>
      <trkpt lat="44.35525" lon="2.59303">
        <ele>533.94642285714</ele>
        <time>2018-09-12T15:02:56.000Z</time>
      </trkpt>
      <trkpt lat="44.35521" lon="2.59302">
        <ele>534</ele>
        <time>2018-09-12T15:02:57.000Z</time>
      </trkpt>
      <trkpt lat="44.35518" lon="2.59301">
        <ele>534</ele>
        <time>2018-09-12T15:02:58.000Z</time>
      </trkpt>
      <trkpt lat="44.35515" lon="2.59299">
        <ele>533.97916</ele>
        <time>2018-09-12T15:02:59.000Z</time>
      </trkpt>
      <trkpt lat="44.35513" lon="2.59298">
        <ele>533</ele>
        <time>2018-09-12T15:03:00.000Z</time>
      </trkpt>
      <trkpt lat="44.3551" lon="2.59297">
        <ele>533</ele>
        <time>2018-09-12T15:03:01.000Z</time>
      </trkpt>
      <trkpt lat="44.35507" lon="2.59296">
        <ele>533</ele>
        <time>2018-09-12T15:03:02.000Z</time>
      </trkpt>
      <trkpt lat="44.35505" lon="2.59295">
        <ele>533</ele>
        <time>2018-09-12T15:03:03.000Z</time>
      </trkpt>
      <trkpt lat="44.35501" lon="2.59294">
        <ele>533</ele>
        <time>2018-09-12T15:03:04.000Z</time>
      </trkpt>
      <trkpt lat="44.35499" lon="2.59294">
        <ele>533.05356571429</ele>
        <time>2018-09-12T15:03:05.000Z</time>
      </trkpt>
      <trkpt lat="44.35496" lon="2.59294">
        <ele>533.94642285714</ele>
        <time>2018-09-12T15:03:06.000Z</time>
      </trkpt>
      <trkpt lat="44.35492" lon="2.59294">
        <ele>534</ele>
        <time>2018-09-12T15:03:07.000Z</time>
      </trkpt>
      <trkpt lat="44.35489" lon="2.59295">
        <ele>534</ele>
        <time>2018-09-12T15:03:08.000Z</time>
      </trkpt>
      <trkpt lat="44.35486" lon="2.59295">
        <ele>534</ele>
        <time>2018-09-12T15:03:09.000Z</time>
      </trkpt>
      <trkpt lat="44.35484" lon="2.59296">
        <ele>534</ele>
        <time>2018-09-12T15:03:10.000Z</time>
      </trkpt>
      <trkpt lat="44.35481" lon="2.59298">
        <ele>534</ele>
        <time>2018-09-12T15:03:11.000Z</time>
      </trkpt>
      <trkpt lat="44.35478" lon="2.593">
        <ele>534</ele>
        <time>2018-09-12T15:03:12.000Z</time>
      </trkpt>
      <trkpt lat="44.35476" lon="2.59302">
        <ele>534</ele>
        <time>2018-09-12T15:03:13.000Z</time>
      </trkpt>
      <trkpt lat="44.35473" lon="2.59304">
        <ele>534</ele>
        <time>2018-09-12T15:03:14.000Z</time>
      </trkpt>
      <trkpt lat="44.35471" lon="2.59306">
        <ele>534</ele>
        <time>2018-09-12T15:03:15.000Z</time>
      </trkpt>
      <trkpt lat="44.35468" lon="2.59308">
        <ele>534</ele>
        <time>2018-09-12T15:03:16.000Z</time>
      </trkpt>
      <trkpt lat="44.35466" lon="2.59311">
        <ele>534</ele>
        <time>2018-09-12T15:03:17.000Z</time>
      </trkpt>
      <trkpt lat="44.35464" lon="2.59313">
        <ele>534</ele>
        <time>2018-09-12T15:03:18.000Z</time>
      </trkpt>
      <trkpt lat="44.35461" lon="2.59315">
        <ele>534</ele>
        <time>2018-09-12T15:03:19.000Z</time>
      </trkpt>
      <trkpt lat="44.35459" lon="2.59317">
        <ele>534.05769846154</ele>
        <time>2018-09-12T15:03:20.000Z</time>
      </trkpt>
      <trkpt lat="44.35456" lon="2.59319">
        <ele>535</ele>
        <time>2018-09-12T15:03:21.000Z</time>
      </trkpt>
      <trkpt lat="44.35454" lon="2.59321">
        <ele>535</ele>
        <time>2018-09-12T15:03:22.000Z</time>
      </trkpt>
      <trkpt lat="44.35451" lon="2.59324">
        <ele>535</ele>
        <time>2018-09-12T15:03:23.000Z</time>
      </trkpt>
      <trkpt lat="44.35448" lon="2.59326">
        <ele>535</ele>
        <time>2018-09-12T15:03:24.000Z</time>
      </trkpt>
      <trkpt lat="44.35446" lon="2.59328">
        <ele>535</ele>
        <time>2018-09-12T15:03:25.000Z</time>
      </trkpt>
      <trkpt lat="44.35443" lon="2.5933">
        <ele>535</ele>
        <time>2018-09-12T15:03:26.000Z</time>
      </trkpt>
      <trkpt lat="44.35441" lon="2.59332">
        <ele>535</ele>
        <time>2018-09-12T15:03:27.000Z</time>
      </trkpt>
      <trkpt lat="44.35438" lon="2.59334">
        <ele>535</ele>
        <time>2018-09-12T15:03:28.000Z</time>
      </trkpt>
      <trkpt lat="44.35435" lon="2.59337">
        <ele>536</ele>
        <time>2018-09-12T15:03:29.000Z</time>
      </trkpt>
      <trkpt lat="44.35433" lon="2.59339">
        <ele>536</ele>
        <time>2018-09-12T15:03:30.000Z</time>
      </trkpt>
      <trkpt lat="44.3543" lon="2.59342">
        <ele>536</ele>
        <time>2018-09-12T15:03:31.000Z</time>
      </trkpt>
      <trkpt lat="44.35428" lon="2.59345">
        <ele>536</ele>
        <time>2018-09-12T15:03:32.000Z</time>
      </trkpt>
      <trkpt lat="44.35425" lon="2.59347">
        <ele>536</ele>
        <time>2018-09-12T15:03:33.000Z</time>
      </trkpt>
      <trkpt lat="44.35423" lon="2.59349">
        <ele>536</ele>
        <time>2018-09-12T15:03:34.000Z</time>
      </trkpt>
      <trkpt lat="44.35421" lon="2.59351">
        <ele>536</ele>
        <time>2018-09-12T15:03:35.000Z</time>
      </trkpt>
      <trkpt lat="44.35418" lon="2.59354">
        <ele>536</ele>
        <time>2018-09-12T15:03:36.000Z</time>
      </trkpt>
      <trkpt lat="44.35415" lon="2.59356">
        <ele>537</ele>
        <time>2018-09-12T15:03:37.000Z</time>
      </trkpt>
      <trkpt lat="44.35413" lon="2.59359">
        <ele>537</ele>
        <time>2018-09-12T15:03:38.000Z</time>
      </trkpt>
      <trkpt lat="44.35411" lon="2.59361">
        <ele>537</ele>
        <time>2018-09-12T15:03:39.000Z</time>
      </trkpt>
      <trkpt lat="44.35408" lon="2.59364">
        <ele>537</ele>
        <time>2018-09-12T15:03:40.000Z</time>
      </trkpt>
      <trkpt lat="44.35406" lon="2.59367">
        <ele>537.05999436793</ele>
        <time>2018-09-12T15:03:41.000Z</time>
      </trkpt>
      <trkpt lat="44.35404" lon="2.59369">
        <ele>538</ele>
        <time>2018-09-12T15:03:42.000Z</time>
      </trkpt>
      <trkpt lat="44.35402" lon="2.59372">
        <ele>538</ele>
        <time>2018-09-12T15:03:43.000Z</time>
      </trkpt>
      <trkpt lat="44.35399" lon="2.59375">
        <ele>538</ele>
        <time>2018-09-12T15:03:44.000Z</time>
      </trkpt>
      <trkpt lat="44.35397" lon="2.59378">
        <ele>538</ele>
        <time>2018-09-12T15:03:45.000Z</time>
      </trkpt>
      <trkpt lat="44.35395" lon="2.59381">
        <ele>538</ele>
        <time>2018-09-12T15:03:46.000Z</time>
      </trkpt>
      <trkpt lat="44.35392" lon="2.59384">
        <ele>538</ele>
        <time>2018-09-12T15:03:47.000Z</time>
      </trkpt>
      <trkpt lat="44.3539" lon="2.59386">
        <ele>538</ele>
        <time>2018-09-12T15:03:48.000Z</time>
      </trkpt>
      <trkpt lat="44.35388" lon="2.59389">
        <ele>538</ele>
        <time>2018-09-12T15:03:49.000Z</time>
      </trkpt>
      <trkpt lat="44.35386" lon="2.59392">
        <ele>538</ele>
        <time>2018-09-12T15:03:50.000Z</time>
      </trkpt>
      <trkpt lat="44.35384" lon="2.59395">
        <ele>538</ele>
        <time>2018-09-12T15:03:51.000Z</time>
      </trkpt>
      <trkpt lat="44.35382" lon="2.59398">
        <ele>538</ele>
        <time>2018-09-12T15:03:52.000Z</time>
      </trkpt>
      <trkpt lat="44.3538" lon="2.594">
        <ele>538</ele>
        <time>2018-09-12T15:03:53.000Z</time>
      </trkpt>
      <trkpt lat="44.35377" lon="2.59403">
        <ele>538</ele>
        <time>2018-09-12T15:03:54.000Z</time>
      </trkpt>
      <trkpt lat="44.35375" lon="2.59405">
        <ele>538</ele>
        <time>2018-09-12T15:03:55.000Z</time>
      </trkpt>
      <trkpt lat="44.35373" lon="2.59408">
        <ele>538</ele>
        <time>2018-09-12T15:03:56.000Z</time>
      </trkpt>
      <trkpt lat="44.35371" lon="2.5941">
        <ele>539</ele>
        <time>2018-09-12T15:03:57.000Z</time>
      </trkpt>
      <trkpt lat="44.35368" lon="2.59413">
        <ele>539</ele>
        <time>2018-09-12T15:03:58.000Z</time>
      </trkpt>
      <trkpt lat="44.35366" lon="2.59416">
        <ele>539</ele>
        <time>2018-09-12T15:03:59.000Z</time>
      </trkpt>
      <trkpt lat="44.35364" lon="2.59419">
        <ele>539</ele>
        <time>2018-09-12T15:04:00.000Z</time>
      </trkpt>
      <trkpt lat="44.35361" lon="2.59421">
        <ele>539</ele>
        <time>2018-09-12T15:04:01.000Z</time>
      </trkpt>
      <trkpt lat="44.35359" lon="2.59424">
        <ele>539</ele>
        <time>2018-09-12T15:04:02.000Z</time>
      </trkpt>
      <trkpt lat="44.35356" lon="2.59427">
        <ele>539</ele>
        <time>2018-09-12T15:04:03.000Z</time>
      </trkpt>
      <trkpt lat="44.35354" lon="2.5943">
        <ele>539</ele>
        <time>2018-09-12T15:04:04.000Z</time>
      </trkpt>
      <trkpt lat="44.35352" lon="2.59433">
        <ele>539</ele>
        <time>2018-09-12T15:04:05.000Z</time>
      </trkpt>
      <trkpt lat="44.35349" lon="2.59436">
        <ele>539</ele>
        <time>2018-09-12T15:04:06.000Z</time>
      </trkpt>
      <trkpt lat="44.35347" lon="2.59439">
        <ele>539</ele>
        <time>2018-09-12T15:04:07.000Z</time>
      </trkpt>
      <trkpt lat="44.35345" lon="2.59442">
        <ele>539</ele>
        <time>2018-09-12T15:04:08.000Z</time>
      </trkpt>
      <trkpt lat="44.35343" lon="2.59445">
        <ele>539</ele>
        <time>2018-09-12T15:04:09.000Z</time>
      </trkpt>
      <trkpt lat="44.35341" lon="2.59448">
        <ele>539</ele>
        <time>2018-09-12T15:04:10.000Z</time>
      </trkpt>
      <trkpt lat="44.35338" lon="2.59451">
        <ele>539</ele>
        <time>2018-09-12T15:04:11.000Z</time>
      </trkpt>
      <trkpt lat="44.35336" lon="2.59454">
        <ele>539</ele>
        <time>2018-09-12T15:04:12.000Z</time>
      </trkpt>
      <trkpt lat="44.35333" lon="2.59457">
        <ele>539</ele>
        <time>2018-09-12T15:04:13.000Z</time>
      </trkpt>
      <trkpt lat="44.35331" lon="2.59459">
        <ele>538.93999436807</ele>
        <time>2018-09-12T15:04:14.000Z</time>
      </trkpt>
      <trkpt lat="44.35329" lon="2.59462">
        <ele>538</ele>
        <time>2018-09-12T15:04:15.000Z</time>
      </trkpt>
      <trkpt lat="44.35326" lon="2.59464">
        <ele>538</ele>
        <time>2018-09-12T15:04:16.000Z</time>
      </trkpt>
      <trkpt lat="44.35323" lon="2.59467">
        <ele>538</ele>
        <time>2018-09-12T15:04:17.000Z</time>
      </trkpt>
      <trkpt lat="44.35321" lon="2.5947">
        <ele>538</ele>
        <time>2018-09-12T15:04:18.000Z</time>
      </trkpt>
      <trkpt lat="44.35319" lon="2.59472">
        <ele>538</ele>
        <time>2018-09-12T15:04:19.000Z</time>
      </trkpt>
      <trkpt lat="44.35317" lon="2.59475">
        <ele>538</ele>
        <time>2018-09-12T15:04:20.000Z</time>
      </trkpt>
      <trkpt lat="44.35314" lon="2.59478">
        <ele>538</ele>
        <time>2018-09-12T15:04:21.000Z</time>
      </trkpt>
      <trkpt lat="44.35312" lon="2.5948">
        <ele>538</ele>
        <time>2018-09-12T15:04:22.000Z</time>
      </trkpt>
      <trkpt lat="44.3531" lon="2.59483">
        <ele>538</ele>
        <time>2018-09-12T15:04:23.000Z</time>
      </trkpt>
      <trkpt lat="44.35308" lon="2.59485">
        <ele>538</ele>
        <time>2018-09-12T15:04:24.000Z</time>
      </trkpt>
      <trkpt lat="44.35306" lon="2.59488">
        <ele>538</ele>
        <time>2018-09-12T15:04:25.000Z</time>
      </trkpt>
      <trkpt lat="44.35303" lon="2.5949">
        <ele>538</ele>
        <time>2018-09-12T15:04:26.000Z</time>
      </trkpt>
      <trkpt lat="44.35301" lon="2.59493">
        <ele>538</ele>
        <time>2018-09-12T15:04:27.000Z</time>
      </trkpt>
      <trkpt lat="44.35298" lon="2.59496">
        <ele>537.93999436807</ele>
        <time>2018-09-12T15:04:28.000Z</time>
      </trkpt>
      <trkpt lat="44.35296" lon="2.59498">
        <ele>537</ele>
        <time>2018-09-12T15:04:29.000Z</time>
      </trkpt>
      <trkpt lat="44.35293" lon="2.59501">
        <ele>537</ele>
        <time>2018-09-12T15:04:30.000Z</time>
      </trkpt>
      <trkpt lat="44.35291" lon="2.59504">
        <ele>537</ele>
        <time>2018-09-12T15:04:31.000Z</time>
      </trkpt>
      <trkpt lat="44.35289" lon="2.59506">
        <ele>537</ele>
        <time>2018-09-12T15:04:32.000Z</time>
      </trkpt>
      <trkpt lat="44.35287" lon="2.5951">
        <ele>537</ele>
        <time>2018-09-12T15:04:33.000Z</time>
      </trkpt>
      <trkpt lat="44.35284" lon="2.59513">
        <ele>537</ele>
        <time>2018-09-12T15:04:34.000Z</time>
      </trkpt>
      <trkpt lat="44.35282" lon="2.59516">
        <ele>537</ele>
        <time>2018-09-12T15:04:35.000Z</time>
      </trkpt>
      <trkpt lat="44.3528" lon="2.5952">
        <ele>537</ele>
        <time>2018-09-12T15:04:36.000Z</time>
      </trkpt>
      <trkpt lat="44.35277" lon="2.59523">
        <ele>537</ele>
        <time>2018-09-12T15:04:37.000Z</time>
      </trkpt>
      <trkpt lat="44.35274" lon="2.59526">
        <ele>537</ele>
        <time>2018-09-12T15:04:38.000Z</time>
      </trkpt>
      <trkpt lat="44.35272" lon="2.59529">
        <ele>537</ele>
        <time>2018-09-12T15:04:39.000Z</time>
      </trkpt>
      <trkpt lat="44.35269" lon="2.59532">
        <ele>537</ele>
        <time>2018-09-12T15:04:40.000Z</time>
      </trkpt>
      <trkpt lat="44.35267" lon="2.59534">
        <ele>537</ele>
        <time>2018-09-12T15:04:41.000Z</time>
      </trkpt>
      <trkpt lat="44.35264" lon="2.59537">
        <ele>537</ele>
        <time>2018-09-12T15:04:42.000Z</time>
      </trkpt>
      <trkpt lat="44.35262" lon="2.5954">
        <ele>537</ele>
        <time>2018-09-12T15:04:43.000Z</time>
      </trkpt>
      <trkpt lat="44.35261" lon="2.59543">
        <ele>537</ele>
        <time>2018-09-12T15:04:44.000Z</time>
      </trkpt>
      <trkpt lat="44.35259" lon="2.59547">
        <ele>537</ele>
        <time>2018-09-12T15:04:45.000Z</time>
      </trkpt>
      <trkpt lat="44.35257" lon="2.59549">
        <ele>537</ele>
        <time>2018-09-12T15:04:46.000Z</time>
      </trkpt>
      <trkpt lat="44.35255" lon="2.59553">
        <ele>537</ele>
        <time>2018-09-12T15:04:47.000Z</time>
      </trkpt>
      <trkpt lat="44.35254" lon="2.59556">
        <ele>537</ele>
        <time>2018-09-12T15:04:48.000Z</time>
      </trkpt>
      <trkpt lat="44.35252" lon="2.59559">
        <ele>537</ele>
        <time>2018-09-12T15:04:49.000Z</time>
      </trkpt>
      <trkpt lat="44.35249" lon="2.59562">
        <ele>537</ele>
        <time>2018-09-12T15:04:50.000Z</time>
      </trkpt>
      <trkpt lat="44.35248" lon="2.59566">
        <ele>537.94000563207</ele>
        <time>2018-09-12T15:04:51.000Z</time>
      </trkpt>
      <trkpt lat="44.35245" lon="2.59569">
        <ele>537</ele>
        <time>2018-09-12T15:04:52.000Z</time>
      </trkpt>
      <trkpt lat="44.35243" lon="2.59572">
        <ele>537</ele>
        <time>2018-09-12T15:04:53.000Z</time>
      </trkpt>
      <trkpt lat="44.35241" lon="2.59575">
        <ele>537</ele>
        <time>2018-09-12T15:04:54.000Z</time>
      </trkpt>
      <trkpt lat="44.35239" lon="2.59578">
        <ele>537</ele>
        <time>2018-09-12T15:04:55.000Z</time>
      </trkpt>
      <trkpt lat="44.35237" lon="2.59582">
        <ele>537.03614829437</ele>
        <time>2018-09-12T15:04:56.000Z</time>
      </trkpt>
      <trkpt lat="44.35235" lon="2.59585">
        <ele>537.63855561039</ele>
        <time>2018-09-12T15:04:57.000Z</time>
      </trkpt>
      <trkpt lat="44.35232" lon="2.59588">
        <ele>538</ele>
        <time>2018-09-12T15:04:58.000Z</time>
      </trkpt>
      <trkpt lat="44.3523" lon="2.59591">
        <ele>538</ele>
        <time>2018-09-12T15:04:59.000Z</time>
      </trkpt>
      <trkpt lat="44.35228" lon="2.59595">
        <ele>538</ele>
        <time>2018-09-12T15:05:00.000Z</time>
      </trkpt>
      <trkpt lat="44.35226" lon="2.59598">
        <ele>538</ele>
        <time>2018-09-12T15:05:01.000Z</time>
      </trkpt>
      <trkpt lat="44.35223" lon="2.59601">
        <ele>538</ele>
        <time>2018-09-12T15:05:02.000Z</time>
      </trkpt>
      <trkpt lat="44.35219" lon="2.59604">
        <ele>538</ele>
        <time>2018-09-12T15:05:03.000Z</time>
      </trkpt>
      <trkpt lat="44.35216" lon="2.59607">
        <ele>538</ele>
        <time>2018-09-12T15:05:04.000Z</time>
      </trkpt>
      <trkpt lat="44.35214" lon="2.5961">
        <ele>538</ele>
        <time>2018-09-12T15:05:05.000Z</time>
      </trkpt>
      <trkpt lat="44.35211" lon="2.59613">
        <ele>538</ele>
        <time>2018-09-12T15:05:06.000Z</time>
      </trkpt>
      <trkpt lat="44.35206" lon="2.59619">
        <ele>538</ele>
        <time>2018-09-12T15:05:08.000Z</time>
      </trkpt>
      <trkpt lat="44.35204" lon="2.59622">
        <ele>538</ele>
        <time>2018-09-12T15:05:09.000Z</time>
      </trkpt>
      <trkpt lat="44.35202" lon="2.59625">
        <ele>538</ele>
        <time>2018-09-12T15:05:10.000Z</time>
      </trkpt>
      <trkpt lat="44.35199" lon="2.59627">
        <ele>538</ele>
        <time>2018-09-12T15:05:11.000Z</time>
      </trkpt>
      <trkpt lat="44.35197" lon="2.5963">
        <ele>538</ele>
        <time>2018-09-12T15:05:12.000Z</time>
      </trkpt>
      <trkpt lat="44.35194" lon="2.59632">
        <ele>538</ele>
        <time>2018-09-12T15:05:13.000Z</time>
      </trkpt>
      <trkpt lat="44.35191" lon="2.59635">
        <ele>538</ele>
        <time>2018-09-12T15:05:14.000Z</time>
      </trkpt>
      <trkpt lat="44.35189" lon="2.59638">
        <ele>538</ele>
        <time>2018-09-12T15:05:15.000Z</time>
      </trkpt>
      <trkpt lat="44.35186" lon="2.59641">
        <ele>538</ele>
        <time>2018-09-12T15:05:16.000Z</time>
      </trkpt>
      <trkpt lat="44.35183" lon="2.59643">
        <ele>538</ele>
        <time>2018-09-12T15:05:17.000Z</time>
      </trkpt>
      <trkpt lat="44.35181" lon="2.59646">
        <ele>538</ele>
        <time>2018-09-12T15:05:18.000Z</time>
      </trkpt>
      <trkpt lat="44.35178" lon="2.59648">
        <ele>538</ele>
        <time>2018-09-12T15:05:19.000Z</time>
      </trkpt>
      <trkpt lat="44.35175" lon="2.59651">
        <ele>538</ele>
        <time>2018-09-12T15:05:20.000Z</time>
      </trkpt>
      <trkpt lat="44.35173" lon="2.59654">
        <ele>538</ele>
        <time>2018-09-12T15:05:21.000Z</time>
      </trkpt>
      <trkpt lat="44.35171" lon="2.59657">
        <ele>538</ele>
        <time>2018-09-12T15:05:22.000Z</time>
      </trkpt>
      <trkpt lat="44.35169" lon="2.59659">
        <ele>538</ele>
        <time>2018-09-12T15:05:23.000Z</time>
      </trkpt>
      <trkpt lat="44.35166" lon="2.59663">
        <ele>538</ele>
        <time>2018-09-12T15:05:24.000Z</time>
      </trkpt>
      <trkpt lat="44.35164" lon="2.59666">
        <ele>538</ele>
        <time>2018-09-12T15:05:25.000Z</time>
      </trkpt>
      <trkpt lat="44.35161" lon="2.59669">
        <ele>538</ele>
        <time>2018-09-12T15:05:26.000Z</time>
      </trkpt>
      <trkpt lat="44.35159" lon="2.59671">
        <ele>538</ele>
        <time>2018-09-12T15:05:27.000Z</time>
      </trkpt>
      <trkpt lat="44.35156" lon="2.59674">
        <ele>538</ele>
        <time>2018-09-12T15:05:28.000Z</time>
      </trkpt>
      <trkpt lat="44.35154" lon="2.59677">
        <ele>538</ele>
        <time>2018-09-12T15:05:29.000Z</time>
      </trkpt>
      <trkpt lat="44.35151" lon="2.5968">
        <ele>538</ele>
        <time>2018-09-12T15:05:30.000Z</time>
      </trkpt>
      <trkpt lat="44.35149" lon="2.59683">
        <ele>538</ele>
        <time>2018-09-12T15:05:31.000Z</time>
      </trkpt>
      <trkpt lat="44.35146" lon="2.59686">
        <ele>538</ele>
        <time>2018-09-12T15:05:32.000Z</time>
      </trkpt>
      <trkpt lat="44.35144" lon="2.59688">
        <ele>538</ele>
        <time>2018-09-12T15:05:33.000Z</time>
      </trkpt>
      <trkpt lat="44.35142" lon="2.59691">
        <ele>537.93999436807</ele>
        <time>2018-09-12T15:05:34.000Z</time>
      </trkpt>
      <trkpt lat="44.35139" lon="2.59693">
        <ele>537</ele>
        <time>2018-09-12T15:05:35.000Z</time>
      </trkpt>
      <trkpt lat="44.35137" lon="2.59695">
        <ele>537</ele>
        <time>2018-09-12T15:05:36.000Z</time>
      </trkpt>
      <trkpt lat="44.35135" lon="2.59698">
        <ele>537</ele>
        <time>2018-09-12T15:05:37.000Z</time>
      </trkpt>
      <trkpt lat="44.35132" lon="2.59701">
        <ele>537</ele>
        <time>2018-09-12T15:05:38.000Z</time>
      </trkpt>
      <trkpt lat="44.35129" lon="2.59704">
        <ele>536.94000563207</ele>
        <time>2018-09-12T15:05:39.000Z</time>
      </trkpt>
      <trkpt lat="44.35127" lon="2.59707">
        <ele>536</ele>
        <time>2018-09-12T15:05:40.000Z</time>
      </trkpt>
      <trkpt lat="44.35125" lon="2.5971">
        <ele>536</ele>
        <time>2018-09-12T15:05:41.000Z</time>
      </trkpt>
      <trkpt lat="44.35122" lon="2.59712">
        <ele>536</ele>
        <time>2018-09-12T15:05:42.000Z</time>
      </trkpt>
      <trkpt lat="44.3512" lon="2.59714">
        <ele>536</ele>
        <time>2018-09-12T15:05:43.000Z</time>
      </trkpt>
      <trkpt lat="44.35118" lon="2.59717">
        <ele>536</ele>
        <time>2018-09-12T15:05:44.000Z</time>
      </trkpt>
      <trkpt lat="44.35115" lon="2.5972">
        <ele>536</ele>
        <time>2018-09-12T15:05:45.000Z</time>
      </trkpt>
      <trkpt lat="44.35113" lon="2.59723">
        <ele>536</ele>
        <time>2018-09-12T15:05:46.000Z</time>
      </trkpt>
      <trkpt lat="44.3511" lon="2.59726">
        <ele>536</ele>
        <time>2018-09-12T15:05:47.000Z</time>
      </trkpt>
      <trkpt lat="44.35108" lon="2.59728">
        <ele>536</ele>
        <time>2018-09-12T15:05:48.000Z</time>
      </trkpt>
      <trkpt lat="44.35105" lon="2.5973">
        <ele>536</ele>
        <time>2018-09-12T15:05:49.000Z</time>
      </trkpt>
      <trkpt lat="44.35103" lon="2.59733">
        <ele>536</ele>
        <time>2018-09-12T15:05:50.000Z</time>
      </trkpt>
      <trkpt lat="44.35101" lon="2.59735">
        <ele>536</ele>
        <time>2018-09-12T15:05:51.000Z</time>
      </trkpt>
      <trkpt lat="44.35098" lon="2.59738">
        <ele>536</ele>
        <time>2018-09-12T15:05:52.000Z</time>
      </trkpt>
      <trkpt lat="44.35095" lon="2.5974">
        <ele>536</ele>
        <time>2018-09-12T15:05:53.000Z</time>
      </trkpt>
      <trkpt lat="44.35092" lon="2.59742">
        <ele>536</ele>
        <time>2018-09-12T15:05:54.000Z</time>
      </trkpt>
      <trkpt lat="44.3509" lon="2.59744">
        <ele>535.94175324352</ele>
        <time>2018-09-12T15:05:55.000Z</time>
      </trkpt>
      <trkpt lat="44.35087" lon="2.59746">
        <ele>535</ele>
        <time>2018-09-12T15:05:56.000Z</time>
      </trkpt>
      <trkpt lat="44.35084" lon="2.59749">
        <ele>535</ele>
        <time>2018-09-12T15:05:57.000Z</time>
      </trkpt>
      <trkpt lat="44.35081" lon="2.59751">
        <ele>535</ele>
        <time>2018-09-12T15:05:58.000Z</time>
      </trkpt>
      <trkpt lat="44.35078" lon="2.59752">
        <ele>535</ele>
        <time>2018-09-12T15:05:59.000Z</time>
      </trkpt>
      <trkpt lat="44.35075" lon="2.59754">
        <ele>535</ele>
        <time>2018-09-12T15:06:00.000Z</time>
      </trkpt>
      <trkpt lat="44.35072" lon="2.59755">
        <ele>535</ele>
        <time>2018-09-12T15:06:01.000Z</time>
      </trkpt>
      <trkpt lat="44.35069" lon="2.59756">
        <ele>535</ele>
        <time>2018-09-12T15:06:02.000Z</time>
      </trkpt>
      <trkpt lat="44.35066" lon="2.59758">
        <ele>535</ele>
        <time>2018-09-12T15:06:03.000Z</time>
      </trkpt>
      <trkpt lat="44.35063" lon="2.59759">
        <ele>535</ele>
        <time>2018-09-12T15:06:04.000Z</time>
      </trkpt>
      <trkpt lat="44.3506" lon="2.59761">
        <ele>535</ele>
        <time>2018-09-12T15:06:05.000Z</time>
      </trkpt>
      <trkpt lat="44.35057" lon="2.59763">
        <ele>535</ele>
        <time>2018-09-12T15:06:06.000Z</time>
      </trkpt>
      <trkpt lat="44.35055" lon="2.59763">
        <ele>535</ele>
        <time>2018-09-12T15:06:07.000Z</time>
      </trkpt>
      <trkpt lat="44.35052" lon="2.59764">
        <ele>535</ele>
        <time>2018-09-12T15:06:08.000Z</time>
      </trkpt>
      <trkpt lat="44.35049" lon="2.59765">
        <ele>535</ele>
        <time>2018-09-12T15:06:09.000Z</time>
      </trkpt>
      <trkpt lat="44.35046" lon="2.59766">
        <ele>535</ele>
        <time>2018-09-12T15:06:10.000Z</time>
      </trkpt>
      <trkpt lat="44.35043" lon="2.59767">
        <ele>535.05881762395</ele>
        <time>2018-09-12T15:06:11.000Z</time>
      </trkpt>
      <trkpt lat="44.3504" lon="2.59768">
        <ele>536</ele>
        <time>2018-09-12T15:06:12.000Z</time>
      </trkpt>
      <trkpt lat="44.35038" lon="2.59769">
        <ele>536</ele>
        <time>2018-09-12T15:06:13.000Z</time>
      </trkpt>
      <trkpt lat="44.35035" lon="2.5977">
        <ele>536</ele>
        <time>2018-09-12T15:06:14.000Z</time>
      </trkpt>
      <trkpt lat="44.35033" lon="2.59771">
        <ele>536</ele>
        <time>2018-09-12T15:06:15.000Z</time>
      </trkpt>
      <trkpt lat="44.3503" lon="2.59771">
        <ele>536</ele>
        <time>2018-09-12T15:06:16.000Z</time>
      </trkpt>
      <trkpt lat="44.35026" lon="2.59772">
        <ele>536</ele>
        <time>2018-09-12T15:06:17.000Z</time>
      </trkpt>
      <trkpt lat="44.35023" lon="2.59772">
        <ele>536</ele>
        <time>2018-09-12T15:06:18.000Z</time>
      </trkpt>
      <trkpt lat="44.35019" lon="2.59773">
        <ele>536</ele>
        <time>2018-09-12T15:06:19.000Z</time>
      </trkpt>
      <trkpt lat="44.35016" lon="2.59773">
        <ele>536</ele>
        <time>2018-09-12T15:06:20.000Z</time>
      </trkpt>
      <trkpt lat="44.35013" lon="2.59773">
        <ele>536</ele>
        <time>2018-09-12T15:06:21.000Z</time>
      </trkpt>
      <trkpt lat="44.3501" lon="2.59774">
        <ele>536</ele>
        <time>2018-09-12T15:06:22.000Z</time>
      </trkpt>
      <trkpt lat="44.35007" lon="2.59774">
        <ele>536</ele>
        <time>2018-09-12T15:06:23.000Z</time>
      </trkpt>
      <trkpt lat="44.35004" lon="2.59773">
        <ele>536</ele>
        <time>2018-09-12T15:06:24.000Z</time>
      </trkpt>
      <trkpt lat="44.35002" lon="2.59772">
        <ele>536</ele>
        <time>2018-09-12T15:06:25.000Z</time>
      </trkpt>
      <trkpt lat="44.34999" lon="2.5977">
        <ele>536</ele>
        <time>2018-09-12T15:06:26.000Z</time>
      </trkpt>
      <trkpt lat="44.34997" lon="2.59769">
        <ele>536</ele>
        <time>2018-09-12T15:06:27.000Z</time>
      </trkpt>
      <trkpt lat="44.34995" lon="2.59767">
        <ele>536</ele>
        <time>2018-09-12T15:06:28.000Z</time>
      </trkpt>
      <trkpt lat="44.34993" lon="2.59765">
        <ele>536</ele>
        <time>2018-09-12T15:06:29.000Z</time>
      </trkpt>
      <trkpt lat="44.3499" lon="2.59762">
        <ele>536</ele>
        <time>2018-09-12T15:06:30.000Z</time>
      </trkpt>
      <trkpt lat="44.34988" lon="2.59759">
        <ele>536</ele>
        <time>2018-09-12T15:06:31.000Z</time>
      </trkpt>
      <trkpt lat="44.34985" lon="2.59756">
        <ele>536</ele>
        <time>2018-09-12T15:06:32.000Z</time>
      </trkpt>
      <trkpt lat="44.34983" lon="2.59753">
        <ele>536</ele>
        <time>2018-09-12T15:06:33.000Z</time>
      </trkpt>
      <trkpt lat="44.34981" lon="2.59749">
        <ele>535.05714842988</ele>
        <time>2018-09-12T15:06:34.000Z</time>
      </trkpt>
      <trkpt lat="44.34978" lon="2.59746">
        <ele>536</ele>
        <time>2018-09-12T15:06:35.000Z</time>
      </trkpt>
      <trkpt lat="44.34976" lon="2.59744">
        <ele>536</ele>
        <time>2018-09-12T15:06:36.000Z</time>
      </trkpt>
      <trkpt lat="44.34974" lon="2.5974">
        <ele>536</ele>
        <time>2018-09-12T15:06:37.000Z</time>
      </trkpt>
      <trkpt lat="44.34972" lon="2.59737">
        <ele>536</ele>
        <time>2018-09-12T15:06:38.000Z</time>
      </trkpt>
      <trkpt lat="44.3497" lon="2.59733">
        <ele>536</ele>
        <time>2018-09-12T15:06:39.000Z</time>
      </trkpt>
      <trkpt lat="44.34969" lon="2.5973">
        <ele>536</ele>
        <time>2018-09-12T15:06:40.000Z</time>
      </trkpt>
      <trkpt lat="44.34967" lon="2.59727">
        <ele>536</ele>
        <time>2018-09-12T15:06:41.000Z</time>
      </trkpt>
      <trkpt lat="44.34965" lon="2.59724">
        <ele>536</ele>
        <time>2018-09-12T15:06:42.000Z</time>
      </trkpt>
      <trkpt lat="44.34962" lon="2.59721">
        <ele>536.05999436793</ele>
        <time>2018-09-12T15:06:43.000Z</time>
      </trkpt>
      <trkpt lat="44.3496" lon="2.59717">
        <ele>537</ele>
        <time>2018-09-12T15:06:44.000Z</time>
      </trkpt>
      <trkpt lat="44.34959" lon="2.59714">
        <ele>537</ele>
        <time>2018-09-12T15:06:45.000Z</time>
      </trkpt>
      <trkpt lat="44.34957" lon="2.59711">
        <ele>537</ele>
        <time>2018-09-12T15:06:46.000Z</time>
      </trkpt>
      <trkpt lat="44.34956" lon="2.59707">
        <ele>537</ele>
        <time>2018-09-12T15:06:47.000Z</time>
      </trkpt>
      <trkpt lat="44.34954" lon="2.59704">
        <ele>537</ele>
        <time>2018-09-12T15:06:48.000Z</time>
      </trkpt>
      <trkpt lat="44.34953" lon="2.59701">
        <ele>537</ele>
        <time>2018-09-12T15:06:49.000Z</time>
      </trkpt>
      <trkpt lat="44.34952" lon="2.59697">
        <ele>537</ele>
        <time>2018-09-12T15:06:50.000Z</time>
      </trkpt>
      <trkpt lat="44.3495" lon="2.59695">
        <ele>537</ele>
        <time>2018-09-12T15:06:51.000Z</time>
      </trkpt>
      <trkpt lat="44.34949" lon="2.59691">
        <ele>537</ele>
        <time>2018-09-12T15:06:52.000Z</time>
      </trkpt>
      <trkpt lat="44.34947" lon="2.59688">
        <ele>538</ele>
        <time>2018-09-12T15:06:53.000Z</time>
      </trkpt>
      <trkpt lat="44.34946" lon="2.59684">
        <ele>538</ele>
        <time>2018-09-12T15:06:54.000Z</time>
      </trkpt>
      <trkpt lat="44.34944" lon="2.59681">
        <ele>538</ele>
        <time>2018-09-12T15:06:55.000Z</time>
      </trkpt>
      <trkpt lat="44.34943" lon="2.59677">
        <ele>538</ele>
        <time>2018-09-12T15:06:56.000Z</time>
      </trkpt>
      <trkpt lat="44.34941" lon="2.59673">
        <ele>538</ele>
        <time>2018-09-12T15:06:57.000Z</time>
      </trkpt>
      <trkpt lat="44.34939" lon="2.59669">
        <ele>538</ele>
        <time>2018-09-12T15:06:58.000Z</time>
      </trkpt>
      <trkpt lat="44.34938" lon="2.59665">
        <ele>538</ele>
        <time>2018-09-12T15:06:59.000Z</time>
      </trkpt>
      <trkpt lat="44.34936" lon="2.59662">
        <ele>538.05825845978</ele>
        <time>2018-09-12T15:07:00.000Z</time>
      </trkpt>
      <trkpt lat="44.34935" lon="2.59659">
        <ele>539</ele>
        <time>2018-09-12T15:07:01.000Z</time>
      </trkpt>
      <trkpt lat="44.34934" lon="2.59655">
        <ele>539</ele>
        <time>2018-09-12T15:07:02.000Z</time>
      </trkpt>
      <trkpt lat="44.34932" lon="2.59651">
        <ele>539</ele>
        <time>2018-09-12T15:07:03.000Z</time>
      </trkpt>
      <trkpt lat="44.34931" lon="2.59647">
        <ele>539</ele>
        <time>2018-09-12T15:07:04.000Z</time>
      </trkpt>
      <trkpt lat="44.34931" lon="2.59643">
        <ele>539.04411294118</ele>
        <time>2018-09-12T15:07:05.000Z</time>
      </trkpt>
      <trkpt lat="44.3493" lon="2.59638">
        <ele>539.77940705882</ele>
        <time>2018-09-12T15:07:06.000Z</time>
      </trkpt>
      <trkpt lat="44.34929" lon="2.59634">
        <ele>540</ele>
        <time>2018-09-12T15:07:07.000Z</time>
      </trkpt>
      <trkpt lat="44.34928" lon="2.5963">
        <ele>540</ele>
        <time>2018-09-12T15:07:08.000Z</time>
      </trkpt>
      <trkpt lat="44.34924" lon="2.59617">
        <ele>540</ele>
        <time>2018-09-12T15:07:11.000Z</time>
      </trkpt>
      <trkpt lat="44.34921" lon="2.59609">
        <ele>540</ele>
        <time>2018-09-12T15:07:13.000Z</time>
      </trkpt>
      <trkpt lat="44.3492" lon="2.59605">
        <ele>540.06000563193</ele>
        <time>2018-09-12T15:07:14.000Z</time>
      </trkpt>
      <trkpt lat="44.3492" lon="2.59601">
        <ele>541</ele>
        <time>2018-09-12T15:07:15.000Z</time>
      </trkpt>
      <trkpt lat="44.34917" lon="2.59588">
        <ele>541</ele>
        <time>2018-09-12T15:07:18.000Z</time>
      </trkpt>
      <trkpt lat="44.34916" lon="2.59573">
        <ele>541</ele>
        <time>2018-09-12T15:07:22.000Z</time>
      </trkpt>
      <trkpt lat="44.34915" lon="2.5957">
        <ele>541</ele>
        <time>2018-09-12T15:07:23.000Z</time>
      </trkpt>
      <trkpt lat="44.34914" lon="2.59566">
        <ele>541</ele>
        <time>2018-09-12T15:07:24.000Z</time>
      </trkpt>
      <trkpt lat="44.34912" lon="2.59553">
        <ele>542</ele>
        <time>2018-09-12T15:07:27.000Z</time>
      </trkpt>
      <trkpt lat="44.34911" lon="2.59549">
        <ele>542</ele>
        <time>2018-09-12T15:07:28.000Z</time>
      </trkpt>
      <trkpt lat="44.34908" lon="2.5954">
        <ele>542</ele>
        <time>2018-09-12T15:07:30.000Z</time>
      </trkpt>
      <trkpt lat="44.34905" lon="2.59526">
        <ele>542</ele>
        <time>2018-09-12T15:07:33.000Z</time>
      </trkpt>
      <trkpt lat="44.34905" lon="2.59514">
        <ele>542</ele>
        <time>2018-09-12T15:07:36.000Z</time>
      </trkpt>
      <trkpt lat="44.34905" lon="2.5951">
        <ele>542</ele>
        <time>2018-09-12T15:07:37.000Z</time>
      </trkpt>
      <trkpt lat="44.34905" lon="2.59506">
        <ele>542</ele>
        <time>2018-09-12T15:07:38.000Z</time>
      </trkpt>
      <trkpt lat="44.34906" lon="2.59503">
        <ele>542</ele>
        <time>2018-09-12T15:07:39.000Z</time>
      </trkpt>
      <trkpt lat="44.34904" lon="2.5949">
        <ele>542</ele>
        <time>2018-09-12T15:07:42.000Z</time>
      </trkpt>
      <trkpt lat="44.34903" lon="2.59485">
        <ele>542</ele>
        <time>2018-09-12T15:07:43.000Z</time>
      </trkpt>
      <trkpt lat="44.34903" lon="2.59477">
        <ele>542</ele>
        <time>2018-09-12T15:07:45.000Z</time>
      </trkpt>
      <trkpt lat="44.34901" lon="2.59463">
        <ele>542</ele>
        <time>2018-09-12T15:07:48.000Z</time>
      </trkpt>
      <trkpt lat="44.349" lon="2.5945">
        <ele>542</ele>
        <time>2018-09-12T15:07:51.000Z</time>
      </trkpt>
      <trkpt lat="44.349" lon="2.59433">
        <ele>542</ele>
        <time>2018-09-12T15:07:55.000Z</time>
      </trkpt>
      <trkpt lat="44.349" lon="2.59419">
        <ele>542</ele>
        <time>2018-09-12T15:07:58.000Z</time>
      </trkpt>
      <trkpt lat="44.34899" lon="2.5941">
        <ele>541.05505125826</ele>
        <time>2018-09-12T15:08:00.000Z</time>
      </trkpt>
      <trkpt lat="44.34899" lon="2.59406">
        <ele>541.97247437087</ele>
        <time>2018-09-12T15:08:01.000Z</time>
      </trkpt>
      <trkpt lat="44.34899" lon="2.59391">
        <ele>542</ele>
        <time>2018-09-12T15:08:04.000Z</time>
      </trkpt>
      <trkpt lat="44.34899" lon="2.59375">
        <ele>541</ele>
        <time>2018-09-12T15:08:08.000Z</time>
      </trkpt>
      <trkpt lat="44.34899" lon="2.59361">
        <ele>541</ele>
        <time>2018-09-12T15:08:11.000Z</time>
      </trkpt>
      <trkpt lat="44.34901" lon="2.59347">
        <ele>541</ele>
        <time>2018-09-12T15:08:14.000Z</time>
      </trkpt>
      <trkpt lat="44.34903" lon="2.59334">
        <ele>541</ele>
        <time>2018-09-12T15:08:17.000Z</time>
      </trkpt>
      <trkpt lat="44.34909" lon="2.59321">
        <ele>541</ele>
        <time>2018-09-12T15:08:20.000Z</time>
      </trkpt>
      <trkpt lat="44.34914" lon="2.5931">
        <ele>541</ele>
        <time>2018-09-12T15:08:23.000Z</time>
      </trkpt>
      <trkpt lat="44.34919" lon="2.59298">
        <ele>541</ele>
        <time>2018-09-12T15:08:26.000Z</time>
      </trkpt>
      <trkpt lat="44.34923" lon="2.59285">
        <ele>541</ele>
        <time>2018-09-12T15:08:29.000Z</time>
      </trkpt>
      <trkpt lat="44.34927" lon="2.59273">
        <ele>541</ele>
        <time>2018-09-12T15:08:32.000Z</time>
      </trkpt>
      <trkpt lat="44.34928" lon="2.59259">
        <ele>540</ele>
        <time>2018-09-12T15:08:35.000Z</time>
      </trkpt>
      <trkpt lat="44.34933" lon="2.59245">
        <ele>540</ele>
        <time>2018-09-12T15:08:39.000Z</time>
      </trkpt>
      <trkpt lat="44.34936" lon="2.59232">
        <ele>540</ele>
        <time>2018-09-12T15:08:42.000Z</time>
      </trkpt>
      <trkpt lat="44.34939" lon="2.59219">
        <ele>540</ele>
        <time>2018-09-12T15:08:45.000Z</time>
      </trkpt>
      <trkpt lat="44.34941" lon="2.59207">
        <ele>540</ele>
        <time>2018-09-12T15:08:48.000Z</time>
      </trkpt>
      <trkpt lat="44.34945" lon="2.59194">
        <ele>540</ele>
        <time>2018-09-12T15:08:51.000Z</time>
      </trkpt>
      <trkpt lat="44.3495" lon="2.59181">
        <ele>539</ele>
        <time>2018-09-12T15:08:54.000Z</time>
      </trkpt>
      <trkpt lat="44.34954" lon="2.59169">
        <ele>539</ele>
        <time>2018-09-12T15:08:57.000Z</time>
      </trkpt>
      <trkpt lat="44.34955" lon="2.59165">
        <ele>538</ele>
        <time>2018-09-12T15:08:58.000Z</time>
      </trkpt>
      <trkpt lat="44.34957" lon="2.59156">
        <ele>538</ele>
        <time>2018-09-12T15:09:00.000Z</time>
      </trkpt>
      <trkpt lat="44.34958" lon="2.59151">
        <ele>538</ele>
        <time>2018-09-12T15:09:01.000Z</time>
      </trkpt>
      <trkpt lat="44.34959" lon="2.59147">
        <ele>538</ele>
        <time>2018-09-12T15:09:02.000Z</time>
      </trkpt>
      <trkpt lat="44.34961" lon="2.59143">
        <ele>538</ele>
        <time>2018-09-12T15:09:03.000Z</time>
      </trkpt>
      <trkpt lat="44.34962" lon="2.59139">
        <ele>538</ele>
        <time>2018-09-12T15:09:04.000Z</time>
      </trkpt>
      <trkpt lat="44.34964" lon="2.59135">
        <ele>538</ele>
        <time>2018-09-12T15:09:05.000Z</time>
      </trkpt>
      <trkpt lat="44.34966" lon="2.59131">
        <ele>538</ele>
        <time>2018-09-12T15:09:06.000Z</time>
      </trkpt>
      <trkpt lat="44.34967" lon="2.59127">
        <ele>537</ele>
        <time>2018-09-12T15:09:07.000Z</time>
      </trkpt>
      <trkpt lat="44.34968" lon="2.59123">
        <ele>537</ele>
        <time>2018-09-12T15:09:08.000Z</time>
      </trkpt>
      <trkpt lat="44.34969" lon="2.59118">
        <ele>537.04081659309</ele>
        <time>2018-09-12T15:09:09.000Z</time>
      </trkpt>
      <trkpt lat="44.34971" lon="2.5911">
        <ele>538</ele>
        <time>2018-09-12T15:09:11.000Z</time>
      </trkpt>
      <trkpt lat="44.34972" lon="2.59106">
        <ele>538</ele>
        <time>2018-09-12T15:09:12.000Z</time>
      </trkpt>
      <trkpt lat="44.34973" lon="2.59103">
        <ele>538</ele>
        <time>2018-09-12T15:09:13.000Z</time>
      </trkpt>
      <trkpt lat="44.34974" lon="2.591">
        <ele>538</ele>
        <time>2018-09-12T15:09:14.000Z</time>
      </trkpt>
      <trkpt lat="44.34976" lon="2.59096">
        <ele>538</ele>
        <time>2018-09-12T15:09:15.000Z</time>
      </trkpt>
      <trkpt lat="44.34977" lon="2.59093">
        <ele>538</ele>
        <time>2018-09-12T15:09:16.000Z</time>
      </trkpt>
      <trkpt lat="44.3498" lon="2.59085">
        <ele>538</ele>
        <time>2018-09-12T15:09:18.000Z</time>
      </trkpt>
      <trkpt lat="44.34987" lon="2.59073">
        <ele>538</ele>
        <time>2018-09-12T15:09:22.000Z</time>
      </trkpt>
      <trkpt lat="44.34993" lon="2.5906">
        <ele>538</ele>
        <time>2018-09-12T15:09:26.000Z</time>
      </trkpt>
      <trkpt lat="44.34999" lon="2.59048">
        <ele>539</ele>
        <time>2018-09-12T15:09:30.000Z</time>
      </trkpt>
      <trkpt lat="44.35004" lon="2.59037">
        <ele>539</ele>
        <time>2018-09-12T15:09:34.000Z</time>
      </trkpt>
      <trkpt lat="44.35012" lon="2.59026">
        <ele>540</ele>
        <time>2018-09-12T15:09:38.000Z</time>
      </trkpt>
      <trkpt lat="44.35021" lon="2.59016">
        <ele>540.94642285714</ele>
        <time>2018-09-12T15:09:42.000Z</time>
      </trkpt>
      <trkpt lat="44.3503" lon="2.59006">
        <ele>541</ele>
        <time>2018-09-12T15:09:46.000Z</time>
      </trkpt>
      <trkpt lat="44.35032" lon="2.59003">
        <ele>541</ele>
        <time>2018-09-12T15:09:47.000Z</time>
      </trkpt>
      <trkpt lat="44.35034" lon="2.59001">
        <ele>541</ele>
        <time>2018-09-12T15:09:48.000Z</time>
      </trkpt>
      <trkpt lat="44.35036" lon="2.58998">
        <ele>541</ele>
        <time>2018-09-12T15:09:49.000Z</time>
      </trkpt>
      <trkpt lat="44.35038" lon="2.58995">
        <ele>541</ele>
        <time>2018-09-12T15:09:50.000Z</time>
      </trkpt>
      <trkpt lat="44.3504" lon="2.58991">
        <ele>541</ele>
        <time>2018-09-12T15:09:51.000Z</time>
      </trkpt>
      <trkpt lat="44.35044" lon="2.58984">
        <ele>542</ele>
        <time>2018-09-12T15:09:53.000Z</time>
      </trkpt>
      <trkpt lat="44.35046" lon="2.5898">
        <ele>542</ele>
        <time>2018-09-12T15:09:54.000Z</time>
      </trkpt>
      <trkpt lat="44.35047" lon="2.58977">
        <ele>542</ele>
        <time>2018-09-12T15:09:55.000Z</time>
      </trkpt>
      <trkpt lat="44.35048" lon="2.58973">
        <ele>542.04379998505</ele>
        <time>2018-09-12T15:09:56.000Z</time>
      </trkpt>
      <trkpt lat="44.35049" lon="2.58969">
        <ele>542.77372187757</ele>
        <time>2018-09-12T15:09:57.000Z</time>
      </trkpt>
      <trkpt lat="44.3505" lon="2.58964">
        <ele>543</ele>
        <time>2018-09-12T15:09:58.000Z</time>
      </trkpt>
      <trkpt lat="44.35051" lon="2.58961">
        <ele>543</ele>
        <time>2018-09-12T15:09:59.000Z</time>
      </trkpt>
      <trkpt lat="44.35052" lon="2.58958">
        <ele>543</ele>
        <time>2018-09-12T15:10:00.000Z</time>
      </trkpt>
      <trkpt lat="44.35053" lon="2.58954">
        <ele>543</ele>
        <time>2018-09-12T15:10:01.000Z</time>
      </trkpt>
      <trkpt lat="44.35054" lon="2.58951">
        <ele>543</ele>
        <time>2018-09-12T15:10:02.000Z</time>
      </trkpt>
      <trkpt lat="44.35055" lon="2.58948">
        <ele>543</ele>
        <time>2018-09-12T15:10:03.000Z</time>
      </trkpt>
      <trkpt lat="44.35056" lon="2.58945">
        <ele>543</ele>
        <time>2018-09-12T15:10:04.000Z</time>
      </trkpt>
      <trkpt lat="44.35058" lon="2.58941">
        <ele>543</ele>
        <time>2018-09-12T15:10:05.000Z</time>
      </trkpt>
      <trkpt lat="44.35059" lon="2.58938">
        <ele>543</ele>
        <time>2018-09-12T15:10:06.000Z</time>
      </trkpt>
      <trkpt lat="44.3506" lon="2.58934">
        <ele>543.05824675648</ele>
        <time>2018-09-12T15:10:07.000Z</time>
      </trkpt>
      <trkpt lat="44.35061" lon="2.5893">
        <ele>544</ele>
        <time>2018-09-12T15:10:08.000Z</time>
      </trkpt>
      <trkpt lat="44.35061" lon="2.58927">
        <ele>544</ele>
        <time>2018-09-12T15:10:09.000Z</time>
      </trkpt>
      <trkpt lat="44.35062" lon="2.58923">
        <ele>544</ele>
        <time>2018-09-12T15:10:10.000Z</time>
      </trkpt>
      <trkpt lat="44.35063" lon="2.5892">
        <ele>544</ele>
        <time>2018-09-12T15:10:11.000Z</time>
      </trkpt>
      <trkpt lat="44.35063" lon="2.58916">
        <ele>544</ele>
        <time>2018-09-12T15:10:12.000Z</time>
      </trkpt>
      <trkpt lat="44.35064" lon="2.58913">
        <ele>544</ele>
        <time>2018-09-12T15:10:13.000Z</time>
      </trkpt>
      <trkpt lat="44.35065" lon="2.58909">
        <ele>544</ele>
        <time>2018-09-12T15:10:14.000Z</time>
      </trkpt>
      <trkpt lat="44.35066" lon="2.58906">
        <ele>544</ele>
        <time>2018-09-12T15:10:15.000Z</time>
      </trkpt>
      <trkpt lat="44.35067" lon="2.58903">
        <ele>544</ele>
        <time>2018-09-12T15:10:16.000Z</time>
      </trkpt>
      <trkpt lat="44.35067" lon="2.58899">
        <ele>544</ele>
        <time>2018-09-12T15:10:17.000Z</time>
      </trkpt>
      <trkpt lat="44.35068" lon="2.58895">
        <ele>544</ele>
        <time>2018-09-12T15:10:18.000Z</time>
      </trkpt>
      <trkpt lat="44.35068" lon="2.58891">
        <ele>544</ele>
        <time>2018-09-12T15:10:19.000Z</time>
      </trkpt>
      <trkpt lat="44.35068" lon="2.58887">
        <ele>544</ele>
        <time>2018-09-12T15:10:20.000Z</time>
      </trkpt>
      <trkpt lat="44.35068" lon="2.58883">
        <ele>544</ele>
        <time>2018-09-12T15:10:21.000Z</time>
      </trkpt>
      <trkpt lat="44.35067" lon="2.58879">
        <ele>544</ele>
        <time>2018-09-12T15:10:22.000Z</time>
      </trkpt>
      <trkpt lat="44.35066" lon="2.58878">
        <ele>544</ele>
        <time>2018-09-12T15:10:23.000Z</time>
      </trkpt>
      <trkpt lat="44.35063" lon="2.58878">
        <ele>544</ele>
        <time>2018-09-12T15:10:24.000Z</time>
      </trkpt>
      <trkpt lat="44.3506" lon="2.5888">
        <ele>544</ele>
        <time>2018-09-12T15:10:26.000Z</time>
      </trkpt>
      <trkpt lat="44.35059" lon="2.58882">
        <ele>544</ele>
        <time>2018-09-12T15:10:27.000Z</time>
      </trkpt>
      <trkpt lat="44.35058" lon="2.58885">
        <ele>544</ele>
        <time>2018-09-12T15:10:28.000Z</time>
      </trkpt>
      <trkpt lat="44.35057" lon="2.58887">
        <ele>544.05404875574</ele>
        <time>2018-09-12T15:10:29.000Z</time>
      </trkpt>
      <trkpt lat="44.35056" lon="2.58889">
        <ele>544.95495744828</ele>
        <time>2018-09-12T15:10:30.000Z</time>
      </trkpt>
      <trkpt lat="44.35055" lon="2.58892">
        <ele>545</ele>
        <time>2018-09-12T15:10:31.000Z</time>
      </trkpt>
      <trkpt lat="44.35053" lon="2.58894">
        <ele>545</ele>
        <time>2018-09-12T15:10:32.000Z</time>
      </trkpt>
      <trkpt lat="44.35051" lon="2.58897">
        <ele>545</ele>
        <time>2018-09-12T15:10:33.000Z</time>
      </trkpt>
      <trkpt lat="44.3505" lon="2.589">
        <ele>545</ele>
        <time>2018-09-12T15:10:34.000Z</time>
      </trkpt>
      <trkpt lat="44.35048" lon="2.58903">
        <ele>545</ele>
        <time>2018-09-12T15:10:35.000Z</time>
      </trkpt>
      <trkpt lat="44.35046" lon="2.58906">
        <ele>545</ele>
        <time>2018-09-12T15:10:36.000Z</time>
      </trkpt>
      <trkpt lat="44.35045" lon="2.58909">
        <ele>545</ele>
        <time>2018-09-12T15:10:37.000Z</time>
      </trkpt>
      <trkpt lat="44.35043" lon="2.58912">
        <ele>545</ele>
        <time>2018-09-12T15:10:38.000Z</time>
      </trkpt>
      <trkpt lat="44.35041" lon="2.58914">
        <ele>545</ele>
        <time>2018-09-12T15:10:39.000Z</time>
      </trkpt>
      <trkpt lat="44.3504" lon="2.58916">
        <ele>545</ele>
        <time>2018-09-12T15:10:40.000Z</time>
      </trkpt>
      <trkpt lat="44.35038" lon="2.58918">
        <ele>545.0505023079</ele>
        <time>2018-09-12T15:10:41.000Z</time>
      </trkpt>
      <trkpt lat="44.35036" lon="2.58921">
        <ele>545.94494874174</ele>
        <time>2018-09-12T15:10:42.000Z</time>
      </trkpt>
      <trkpt lat="44.35035" lon="2.58924">
        <ele>545.02752562913</ele>
        <time>2018-09-12T15:10:43.000Z</time>
      </trkpt>
      <trkpt lat="44.35033" lon="2.58926">
        <ele>545</ele>
        <time>2018-09-12T15:10:44.000Z</time>
      </trkpt>
      <trkpt lat="44.35031" lon="2.58929">
        <ele>545</ele>
        <time>2018-09-12T15:10:45.000Z</time>
      </trkpt>
      <trkpt lat="44.35029" lon="2.58931">
        <ele>545</ele>
        <time>2018-09-12T15:10:46.000Z</time>
      </trkpt>
      <trkpt lat="44.35027" lon="2.58934">
        <ele>545.73118531161</ele>
        <time>2018-09-12T15:10:47.000Z</time>
      </trkpt>
      <trkpt lat="44.35025" lon="2.58937">
        <ele>546</ele>
        <time>2018-09-12T15:10:48.000Z</time>
      </trkpt>
      <trkpt lat="44.35024" lon="2.58939">
        <ele>546</ele>
        <time>2018-09-12T15:10:49.000Z</time>
      </trkpt>
      <trkpt lat="44.35022" lon="2.58941">
        <ele>546</ele>
        <time>2018-09-12T15:10:50.000Z</time>
      </trkpt>
      <trkpt lat="44.3502" lon="2.58943">
        <ele>546</ele>
        <time>2018-09-12T15:10:51.000Z</time>
      </trkpt>
      <trkpt lat="44.35018" lon="2.58945">
        <ele>546</ele>
        <time>2018-09-12T15:10:52.000Z</time>
      </trkpt>
      <trkpt lat="44.35016" lon="2.58947">
        <ele>546</ele>
        <time>2018-09-12T15:10:53.000Z</time>
      </trkpt>
      <trkpt lat="44.35015" lon="2.58949">
        <ele>546.04081605998</ele>
        <time>2018-09-12T15:10:54.000Z</time>
      </trkpt>
      <trkpt lat="44.35013" lon="2.58951">
        <ele>547</ele>
        <time>2018-09-12T15:10:55.000Z</time>
      </trkpt>
      <trkpt lat="44.35012" lon="2.58953">
        <ele>547</ele>
        <time>2018-09-12T15:10:56.000Z</time>
      </trkpt>
      <trkpt lat="44.3501" lon="2.58956">
        <ele>547</ele>
        <time>2018-09-12T15:10:57.000Z</time>
      </trkpt>
      <trkpt lat="44.35008" lon="2.58958">
        <ele>547</ele>
        <time>2018-09-12T15:10:58.000Z</time>
      </trkpt>
      <trkpt lat="44.35006" lon="2.58961">
        <ele>547</ele>
        <time>2018-09-12T15:10:59.000Z</time>
      </trkpt>
      <trkpt lat="44.35004" lon="2.58963">
        <ele>547</ele>
        <time>2018-09-12T15:11:00.000Z</time>
      </trkpt>
      <trkpt lat="44.35002" lon="2.58965">
        <ele>547</ele>
        <time>2018-09-12T15:11:01.000Z</time>
      </trkpt>
      <trkpt lat="44.35" lon="2.58967">
        <ele>547</ele>
        <time>2018-09-12T15:11:02.000Z</time>
      </trkpt>
      <trkpt lat="44.34999" lon="2.58969">
        <ele>547.05999436793</ele>
        <time>2018-09-12T15:11:03.000Z</time>
      </trkpt>
      <trkpt lat="44.34997" lon="2.58971">
        <ele>548</ele>
        <time>2018-09-12T15:11:04.000Z</time>
      </trkpt>
      <trkpt lat="44.34995" lon="2.58973">
        <ele>548</ele>
        <time>2018-09-12T15:11:05.000Z</time>
      </trkpt>
      <trkpt lat="44.34993" lon="2.58976">
        <ele>548</ele>
        <time>2018-09-12T15:11:06.000Z</time>
      </trkpt>
      <trkpt lat="44.34991" lon="2.58977">
        <ele>548</ele>
        <time>2018-09-12T15:11:07.000Z</time>
      </trkpt>
      <trkpt lat="44.34989" lon="2.58979">
        <ele>548</ele>
        <time>2018-09-12T15:11:08.000Z</time>
      </trkpt>
      <trkpt lat="44.34987" lon="2.5898">
        <ele>548.0505023079</ele>
        <time>2018-09-12T15:11:09.000Z</time>
      </trkpt>
      <trkpt lat="44.34986" lon="2.58982">
        <ele>549</ele>
        <time>2018-09-12T15:11:10.000Z</time>
      </trkpt>
      <trkpt lat="44.34984" lon="2.58985">
        <ele>549</ele>
        <time>2018-09-12T15:11:11.000Z</time>
      </trkpt>
      <trkpt lat="44.34982" lon="2.58987">
        <ele>549</ele>
        <time>2018-09-12T15:11:12.000Z</time>
      </trkpt>
      <trkpt lat="44.34981" lon="2.5899">
        <ele>549</ele>
        <time>2018-09-12T15:11:13.000Z</time>
      </trkpt>
      <trkpt lat="44.34979" lon="2.58992">
        <ele>549</ele>
        <time>2018-09-12T15:11:14.000Z</time>
      </trkpt>
      <trkpt lat="44.34978" lon="2.58994">
        <ele>549.05504016159</ele>
        <time>2018-09-12T15:11:15.000Z</time>
      </trkpt>
      <trkpt lat="44.34977" lon="2.58997">
        <ele>549.97247404763</ele>
        <time>2018-09-12T15:11:16.000Z</time>
      </trkpt>
      <trkpt lat="44.34976" lon="2.59">
        <ele>550</ele>
        <time>2018-09-12T15:11:17.000Z</time>
      </trkpt>
      <trkpt lat="44.34973" lon="2.59005">
        <ele>551</ele>
        <time>2018-09-12T15:11:19.000Z</time>
      </trkpt>
      <trkpt lat="44.34973" lon="2.59008">
        <ele>551</ele>
        <time>2018-09-12T15:11:20.000Z</time>
      </trkpt>
      <trkpt lat="44.34971" lon="2.59012">
        <ele>552</ele>
        <time>2018-09-12T15:11:22.000Z</time>
      </trkpt>
      <trkpt lat="44.3497" lon="2.59014">
        <ele>552</ele>
        <time>2018-09-12T15:11:23.000Z</time>
      </trkpt>
      <trkpt lat="44.34969" lon="2.59017">
        <ele>552</ele>
        <time>2018-09-12T15:11:24.000Z</time>
      </trkpt>
      <trkpt lat="44.34967" lon="2.59019">
        <ele>552</ele>
        <time>2018-09-12T15:11:25.000Z</time>
      </trkpt>
      <trkpt lat="44.34966" lon="2.59022">
        <ele>553</ele>
        <time>2018-09-12T15:11:26.000Z</time>
      </trkpt>
      <trkpt lat="44.34965" lon="2.59025">
        <ele>553</ele>
        <time>2018-09-12T15:11:27.000Z</time>
      </trkpt>
      <trkpt lat="44.34964" lon="2.59027">
        <ele>553.05357714286</ele>
        <time>2018-09-12T15:11:28.000Z</time>
      </trkpt>
      <trkpt lat="44.34963" lon="2.59029">
        <ele>553.94643428571</ele>
        <time>2018-09-12T15:11:29.000Z</time>
      </trkpt>
      <trkpt lat="44.34962" lon="2.59032">
        <ele>554</ele>
        <time>2018-09-12T15:11:30.000Z</time>
      </trkpt>
      <trkpt lat="44.3496" lon="2.59034">
        <ele>554</ele>
        <time>2018-09-12T15:11:31.000Z</time>
      </trkpt>
      <trkpt lat="44.34958" lon="2.59037">
        <ele>554</ele>
        <time>2018-09-12T15:11:33.000Z</time>
      </trkpt>
      <trkpt lat="44.34957" lon="2.59039">
        <ele>554.05941171252</ele>
        <time>2018-09-12T15:11:34.000Z</time>
      </trkpt>
      <trkpt lat="44.34956" lon="2.59042">
        <ele>555</ele>
        <time>2018-09-12T15:11:35.000Z</time>
      </trkpt>
      <trkpt lat="44.34955" lon="2.59044">
        <ele>555</ele>
        <time>2018-09-12T15:11:36.000Z</time>
      </trkpt>
      <trkpt lat="44.34954" lon="2.59046">
        <ele>555</ele>
        <time>2018-09-12T15:11:37.000Z</time>
      </trkpt>
      <trkpt lat="44.34952" lon="2.59048">
        <ele>555.06000563193</ele>
        <time>2018-09-12T15:11:38.000Z</time>
      </trkpt>
      <trkpt lat="44.34951" lon="2.59051">
        <ele>556</ele>
        <time>2018-09-12T15:11:39.000Z</time>
      </trkpt>
      <trkpt lat="44.3495" lon="2.59053">
        <ele>556</ele>
        <time>2018-09-12T15:11:40.000Z</time>
      </trkpt>
      <trkpt lat="44.34948" lon="2.59055">
        <ele>556</ele>
        <time>2018-09-12T15:11:41.000Z</time>
      </trkpt>
      <trkpt lat="44.34947" lon="2.59058">
        <ele>556</ele>
        <time>2018-09-12T15:11:42.000Z</time>
      </trkpt>
      <trkpt lat="44.34946" lon="2.5906">
        <ele>557</ele>
        <time>2018-09-12T15:11:43.000Z</time>
      </trkpt>
      <trkpt lat="44.34944" lon="2.59062">
        <ele>557</ele>
        <time>2018-09-12T15:11:44.000Z</time>
      </trkpt>
      <trkpt lat="44.34943" lon="2.59064">
        <ele>557.05768615385</ele>
        <time>2018-09-12T15:11:45.000Z</time>
      </trkpt>
      <trkpt lat="44.34942" lon="2.59066">
        <ele>558</ele>
        <time>2018-09-12T15:11:46.000Z</time>
      </trkpt>
      <trkpt lat="44.3494" lon="2.59069">
        <ele>558</ele>
        <time>2018-09-12T15:11:47.000Z</time>
      </trkpt>
      <trkpt lat="44.34938" lon="2.59072">
        <ele>558</ele>
        <time>2018-09-12T15:11:48.000Z</time>
      </trkpt>
      <trkpt lat="44.34937" lon="2.59074">
        <ele>559</ele>
        <time>2018-09-12T15:11:49.000Z</time>
      </trkpt>
      <trkpt lat="44.34935" lon="2.59076">
        <ele>559</ele>
        <time>2018-09-12T15:11:50.000Z</time>
      </trkpt>
      <trkpt lat="44.34934" lon="2.59078">
        <ele>559</ele>
        <time>2018-09-12T15:11:51.000Z</time>
      </trkpt>
      <trkpt lat="44.34933" lon="2.59081">
        <ele>559.05405966397</ele>
        <time>2018-09-12T15:11:52.000Z</time>
      </trkpt>
      <trkpt lat="44.34932" lon="2.59083">
        <ele>559.95495796769</ele>
        <time>2018-09-12T15:11:53.000Z</time>
      </trkpt>
      <trkpt lat="44.34931" lon="2.59085">
        <ele>560</ele>
        <time>2018-09-12T15:11:54.000Z</time>
      </trkpt>
      <trkpt lat="44.3493" lon="2.59088">
        <ele>560</ele>
        <time>2018-09-12T15:11:55.000Z</time>
      </trkpt>
      <trkpt lat="44.34929" lon="2.5909">
        <ele>561</ele>
        <time>2018-09-12T15:11:56.000Z</time>
      </trkpt>
      <trkpt lat="44.34927" lon="2.59092">
        <ele>561</ele>
        <time>2018-09-12T15:11:57.000Z</time>
      </trkpt>
      <trkpt lat="44.34926" lon="2.59095">
        <ele>561.05357714286</ele>
        <time>2018-09-12T15:11:58.000Z</time>
      </trkpt>
      <trkpt lat="44.34926" lon="2.59097">
        <ele>561.94643428571</ele>
        <time>2018-09-12T15:11:59.000Z</time>
      </trkpt>
      <trkpt lat="44.34925" lon="2.591">
        <ele>562</ele>
        <time>2018-09-12T15:12:00.000Z</time>
      </trkpt>
      <trkpt lat="44.34924" lon="2.59104">
        <ele>562.02344</ele>
        <time>2018-09-12T15:12:02.000Z</time>
      </trkpt>
      <trkpt lat="44.34922" lon="2.59109">
        <ele>563.05769846154</ele>
        <time>2018-09-12T15:12:04.000Z</time>
      </trkpt>
      <trkpt lat="44.34921" lon="2.59111">
        <ele>564</ele>
        <time>2018-09-12T15:12:05.000Z</time>
      </trkpt>
      <trkpt lat="44.34919" lon="2.59113">
        <ele>564</ele>
        <time>2018-09-12T15:12:06.000Z</time>
      </trkpt>
      <trkpt lat="44.34918" lon="2.59114">
        <ele>564.17852968469</ele>
        <time>2018-09-12T15:12:07.000Z</time>
      </trkpt>
      <trkpt lat="44.34918" lon="2.59116">
        <ele>567</ele>
        <time>2018-09-12T15:12:16.000Z</time>
      </trkpt>
      <trkpt lat="44.34917" lon="2.59119">
        <ele>567</ele>
        <time>2018-09-12T15:12:18.000Z</time>
      </trkpt>
      <trkpt lat="44.34916" lon="2.59121">
        <ele>567</ele>
        <time>2018-09-12T15:12:19.000Z</time>
      </trkpt>
      <trkpt lat="44.34915" lon="2.59123">
        <ele>567.06000563193</ele>
        <time>2018-09-12T15:12:20.000Z</time>
      </trkpt>
      <trkpt lat="44.34913" lon="2.59128">
        <ele>568</ele>
        <time>2018-09-12T15:12:22.000Z</time>
      </trkpt>
      <trkpt lat="44.34911" lon="2.59131">
        <ele>569</ele>
        <time>2018-09-12T15:12:24.000Z</time>
      </trkpt>
      <trkpt lat="44.34909" lon="2.59136">
        <ele>569</ele>
        <time>2018-09-12T15:12:26.000Z</time>
      </trkpt>
      <trkpt lat="44.34908" lon="2.59137">
        <ele>569.03093123606</ele>
        <time>2018-09-12T15:12:27.000Z</time>
      </trkpt>
      <trkpt lat="44.34907" lon="2.59139">
        <ele>570</ele>
        <time>2018-09-12T15:12:28.000Z</time>
      </trkpt>
      <trkpt lat="44.34905" lon="2.59144">
        <ele>571</ele>
        <time>2018-09-12T15:12:30.000Z</time>
      </trkpt>
      <trkpt lat="44.34903" lon="2.59148">
        <ele>571</ele>
        <time>2018-09-12T15:12:32.000Z</time>
      </trkpt>
      <trkpt lat="44.34902" lon="2.59149">
        <ele>571</ele>
        <time>2018-09-12T15:12:33.000Z</time>
      </trkpt>
      <trkpt lat="44.349" lon="2.5915">
        <ele>571</ele>
        <time>2018-09-12T15:12:34.000Z</time>
      </trkpt>
      <trkpt lat="44.34898" lon="2.59151">
        <ele>572</ele>
        <time>2018-09-12T15:12:35.000Z</time>
      </trkpt>
      <trkpt lat="44.34896" lon="2.59152">
        <ele>572</ele>
        <time>2018-09-12T15:12:36.000Z</time>
      </trkpt>
      <trkpt lat="44.34895" lon="2.59152">
        <ele>572</ele>
        <time>2018-09-12T15:12:37.000Z</time>
      </trkpt>
      <trkpt lat="44.34893" lon="2.59153">
        <ele>572.05769846154</ele>
        <time>2018-09-12T15:12:38.000Z</time>
      </trkpt>
      <trkpt lat="44.34889" lon="2.59155">
        <ele>573</ele>
        <time>2018-09-12T15:12:40.000Z</time>
      </trkpt>
      <trkpt lat="44.34887" lon="2.59156">
        <ele>574</ele>
        <time>2018-09-12T15:12:42.000Z</time>
      </trkpt>
      <trkpt lat="44.34884" lon="2.59157">
        <ele>574.0309308279</ele>
        <time>2018-09-12T15:12:44.000Z</time>
      </trkpt>
      <trkpt lat="44.34881" lon="2.59157">
        <ele>575</ele>
        <time>2018-09-12T15:12:46.000Z</time>
      </trkpt>
      <trkpt lat="44.34879" lon="2.59157">
        <ele>575</ele>
        <time>2018-09-12T15:12:47.000Z</time>
      </trkpt>
      <trkpt lat="44.34876" lon="2.59158">
        <ele>575.04081659309</ele>
        <time>2018-09-12T15:12:49.000Z</time>
      </trkpt>
      <trkpt lat="44.34873" lon="2.59159">
        <ele>575.0363634248</ele>
        <time>2018-09-12T15:12:51.000Z</time>
      </trkpt>
      <trkpt lat="44.34871" lon="2.5916">
        <ele>576</ele>
        <time>2018-09-12T15:12:52.000Z</time>
      </trkpt>
      <trkpt lat="44.34868" lon="2.5916">
        <ele>576</ele>
        <time>2018-09-12T15:12:53.000Z</time>
      </trkpt>
      <trkpt lat="44.34866" lon="2.59161">
        <ele>577</ele>
        <time>2018-09-12T15:12:54.000Z</time>
      </trkpt>
      <trkpt lat="44.34864" lon="2.59162">
        <ele>577</ele>
        <time>2018-09-12T15:12:55.000Z</time>
      </trkpt>
      <trkpt lat="44.34862" lon="2.59164">
        <ele>577</ele>
        <time>2018-09-12T15:12:56.000Z</time>
      </trkpt>
      <trkpt lat="44.3486" lon="2.59165">
        <ele>577</ele>
        <time>2018-09-12T15:12:57.000Z</time>
      </trkpt>
      <trkpt lat="44.34858" lon="2.59166">
        <ele>577.06000563193</ele>
        <time>2018-09-12T15:12:58.000Z</time>
      </trkpt>
      <trkpt lat="44.34856" lon="2.59167">
        <ele>578</ele>
        <time>2018-09-12T15:12:59.000Z</time>
      </trkpt>
      <trkpt lat="44.34853" lon="2.59168">
        <ele>578</ele>
        <time>2018-09-12T15:13:01.000Z</time>
      </trkpt>
      <trkpt lat="44.34849" lon="2.5917">
        <ele>579</ele>
        <time>2018-09-12T15:13:03.000Z</time>
      </trkpt>
      <trkpt lat="44.34847" lon="2.59173">
        <ele>579.03093123606</ele>
        <time>2018-09-12T15:13:05.000Z</time>
      </trkpt>
      <trkpt lat="44.34844" lon="2.59176">
        <ele>580</ele>
        <time>2018-09-12T15:13:07.000Z</time>
      </trkpt>
      <trkpt lat="44.34841" lon="2.59179">
        <ele>581</ele>
        <time>2018-09-12T15:13:09.000Z</time>
      </trkpt>
      <trkpt lat="44.3484" lon="2.59181">
        <ele>581</ele>
        <time>2018-09-12T15:13:10.000Z</time>
      </trkpt>
      <trkpt lat="44.34838" lon="2.59183">
        <ele>581</ele>
        <time>2018-09-12T15:13:11.000Z</time>
      </trkpt>
      <trkpt lat="44.34837" lon="2.59184">
        <ele>581</ele>
        <time>2018-09-12T15:13:12.000Z</time>
      </trkpt>
      <trkpt lat="44.34835" lon="2.59187">
        <ele>581</ele>
        <time>2018-09-12T15:13:13.000Z</time>
      </trkpt>
      <trkpt lat="44.34834" lon="2.59189">
        <ele>581</ele>
        <time>2018-09-12T15:13:14.000Z</time>
      </trkpt>
      <trkpt lat="44.34831" lon="2.59193">
        <ele>582</ele>
        <time>2018-09-12T15:13:16.000Z</time>
      </trkpt>
      <trkpt lat="44.34829" lon="2.59197">
        <ele>582.05405966397</ele>
        <time>2018-09-12T15:13:18.000Z</time>
      </trkpt>
      <trkpt lat="44.34828" lon="2.59199">
        <ele>582.95495796769</ele>
        <time>2018-09-12T15:13:19.000Z</time>
      </trkpt>
      <trkpt lat="44.34827" lon="2.59201">
        <ele>583</ele>
        <time>2018-09-12T15:13:20.000Z</time>
      </trkpt>
      <trkpt lat="44.34825" lon="2.59204">
        <ele>583.05881762395</ele>
        <time>2018-09-12T15:13:21.000Z</time>
      </trkpt>
      <trkpt lat="44.34824" lon="2.59206">
        <ele>584</ele>
        <time>2018-09-12T15:13:22.000Z</time>
      </trkpt>
      <trkpt lat="44.34822" lon="2.5921">
        <ele>584</ele>
        <time>2018-09-12T15:13:24.000Z</time>
      </trkpt>
      <trkpt lat="44.34821" lon="2.59213">
        <ele>584</ele>
        <time>2018-09-12T15:13:25.000Z</time>
      </trkpt>
      <trkpt lat="44.3482" lon="2.59215">
        <ele>585</ele>
        <time>2018-09-12T15:13:26.000Z</time>
      </trkpt>
      <trkpt lat="44.34818" lon="2.59217">
        <ele>585</ele>
        <time>2018-09-12T15:13:27.000Z</time>
      </trkpt>
      <trkpt lat="44.34816" lon="2.5922">
        <ele>585.05357714286</ele>
        <time>2018-09-12T15:13:28.000Z</time>
      </trkpt>
      <trkpt lat="44.34815" lon="2.59223">
        <ele>585.94643428571</ele>
        <time>2018-09-12T15:13:29.000Z</time>
      </trkpt>
      <trkpt lat="44.34813" lon="2.59225">
        <ele>586</ele>
        <time>2018-09-12T15:13:30.000Z</time>
      </trkpt>
      <trkpt lat="44.34812" lon="2.59227">
        <ele>586</ele>
        <time>2018-09-12T15:13:31.000Z</time>
      </trkpt>
      <trkpt lat="44.3481" lon="2.59229">
        <ele>587</ele>
        <time>2018-09-12T15:13:32.000Z</time>
      </trkpt>
      <trkpt lat="44.34808" lon="2.5923">
        <ele>587</ele>
        <time>2018-09-12T15:13:33.000Z</time>
      </trkpt>
      <trkpt lat="44.34807" lon="2.59233">
        <ele>587.05357714286</ele>
        <time>2018-09-12T15:13:34.000Z</time>
      </trkpt>
      <trkpt lat="44.34806" lon="2.59235">
        <ele>587.94643428571</ele>
        <time>2018-09-12T15:13:35.000Z</time>
      </trkpt>
      <trkpt lat="44.34804" lon="2.59238">
        <ele>588</ele>
        <time>2018-09-12T15:13:36.000Z</time>
      </trkpt>
      <trkpt lat="44.34803" lon="2.5924">
        <ele>588.05824675648</ele>
        <time>2018-09-12T15:13:37.000Z</time>
      </trkpt>
      <trkpt lat="44.34802" lon="2.59243">
        <ele>589</ele>
        <time>2018-09-12T15:13:38.000Z</time>
      </trkpt>
      <trkpt lat="44.34801" lon="2.59245">
        <ele>589</ele>
        <time>2018-09-12T15:13:39.000Z</time>
      </trkpt>
      <trkpt lat="44.34799" lon="2.59249">
        <ele>589.05999436793</ele>
        <time>2018-09-12T15:13:41.000Z</time>
      </trkpt>
      <trkpt lat="44.34797" lon="2.59252">
        <ele>590</ele>
        <time>2018-09-12T15:13:43.000Z</time>
      </trkpt>
      <trkpt lat="44.34796" lon="2.59254">
        <ele>590</ele>
        <time>2018-09-12T15:13:44.000Z</time>
      </trkpt>
      <trkpt lat="44.34795" lon="2.59256">
        <ele>590</ele>
        <time>2018-09-12T15:13:45.000Z</time>
      </trkpt>
      <trkpt lat="44.34793" lon="2.59261">
        <ele>591</ele>
        <time>2018-09-12T15:13:47.000Z</time>
      </trkpt>
      <trkpt lat="44.34791" lon="2.59263">
        <ele>591</ele>
        <time>2018-09-12T15:13:48.000Z</time>
      </trkpt>
      <trkpt lat="44.34789" lon="2.59265">
        <ele>591</ele>
        <time>2018-09-12T15:13:49.000Z</time>
      </trkpt>
      <trkpt lat="44.34787" lon="2.59266">
        <ele>591</ele>
        <time>2018-09-12T15:13:50.000Z</time>
      </trkpt>
      <trkpt lat="44.34785" lon="2.59267">
        <ele>591.54385610348</ele>
        <time>2018-09-12T15:13:51.000Z</time>
      </trkpt>
      <trkpt lat="44.34783" lon="2.59269">
        <ele>592</ele>
        <time>2018-09-12T15:13:52.000Z</time>
      </trkpt>
      <trkpt lat="44.3478" lon="2.59271">
        <ele>592</ele>
        <time>2018-09-12T15:13:54.000Z</time>
      </trkpt>
      <trkpt lat="44.34778" lon="2.59272">
        <ele>592</ele>
        <time>2018-09-12T15:13:55.000Z</time>
      </trkpt>
      <trkpt lat="44.34775" lon="2.59273">
        <ele>592.05608057995</ele>
        <time>2018-09-12T15:13:56.000Z</time>
      </trkpt>
      <trkpt lat="44.34773" lon="2.59274">
        <ele>592.9906572242</ele>
        <time>2018-09-12T15:13:57.000Z</time>
      </trkpt>
      <trkpt lat="44.3477" lon="2.59275">
        <ele>593</ele>
        <time>2018-09-12T15:13:58.000Z</time>
      </trkpt>
      <trkpt lat="44.34768" lon="2.59276">
        <ele>593</ele>
        <time>2018-09-12T15:13:59.000Z</time>
      </trkpt>
      <trkpt lat="44.34766" lon="2.59277">
        <ele>593</ele>
        <time>2018-09-12T15:14:00.000Z</time>
      </trkpt>
      <trkpt lat="44.34763" lon="2.59278">
        <ele>593</ele>
        <time>2018-09-12T15:14:01.000Z</time>
      </trkpt>
      <trkpt lat="44.34761" lon="2.5928">
        <ele>593</ele>
        <time>2018-09-12T15:14:02.000Z</time>
      </trkpt>
      <trkpt lat="44.34759" lon="2.59282">
        <ele>594</ele>
        <time>2018-09-12T15:14:03.000Z</time>
      </trkpt>
      <trkpt lat="44.34757" lon="2.59283">
        <ele>594</ele>
        <time>2018-09-12T15:14:04.000Z</time>
      </trkpt>
      <trkpt lat="44.34755" lon="2.59284">
        <ele>594</ele>
        <time>2018-09-12T15:14:05.000Z</time>
      </trkpt>
      <trkpt lat="44.34753" lon="2.59284">
        <ele>594.05505125826</ele>
        <time>2018-09-12T15:14:06.000Z</time>
      </trkpt>
      <trkpt lat="44.34751" lon="2.59286">
        <ele>595</ele>
        <time>2018-09-12T15:14:08.000Z</time>
      </trkpt>
      <trkpt lat="44.34749" lon="2.59287">
        <ele>595</ele>
        <time>2018-09-12T15:14:09.000Z</time>
      </trkpt>
      <trkpt lat="44.34747" lon="2.59288">
        <ele>595.05825845978</ele>
        <time>2018-09-12T15:14:10.000Z</time>
      </trkpt>
      <trkpt lat="44.34743" lon="2.59291">
        <ele>596</ele>
        <time>2018-09-12T15:14:12.000Z</time>
      </trkpt>
      <trkpt lat="44.34741" lon="2.59292">
        <ele>596</ele>
        <time>2018-09-12T15:14:13.000Z</time>
      </trkpt>
      <trkpt lat="44.34739" lon="2.59294">
        <ele>597</ele>
        <time>2018-09-12T15:14:14.000Z</time>
      </trkpt>
      <trkpt lat="44.34738" lon="2.59295">
        <ele>597</ele>
        <time>2018-09-12T15:14:15.000Z</time>
      </trkpt>
      <trkpt lat="44.34736" lon="2.59297">
        <ele>597.06000563193</ele>
        <time>2018-09-12T15:14:16.000Z</time>
      </trkpt>
      <trkpt lat="44.34735" lon="2.59299">
        <ele>598</ele>
        <time>2018-09-12T15:14:17.000Z</time>
      </trkpt>
      <trkpt lat="44.34733" lon="2.59301">
        <ele>598</ele>
        <time>2018-09-12T15:14:18.000Z</time>
      </trkpt>
      <trkpt lat="44.34731" lon="2.59302">
        <ele>598.05999436793</ele>
        <time>2018-09-12T15:14:19.000Z</time>
      </trkpt>
      <trkpt lat="44.34729" lon="2.59306">
        <ele>599.0505023079</ele>
        <time>2018-09-12T15:14:21.000Z</time>
      </trkpt>
      <trkpt lat="44.34729" lon="2.59309">
        <ele>600</ele>
        <time>2018-09-12T15:14:22.000Z</time>
      </trkpt>
      <trkpt lat="44.34729" lon="2.59311">
        <ele>600</ele>
        <time>2018-09-12T15:14:23.000Z</time>
      </trkpt>
      <trkpt lat="44.34729" lon="2.59314">
        <ele>600</ele>
        <time>2018-09-12T15:14:24.000Z</time>
      </trkpt>
      <trkpt lat="44.34729" lon="2.59317">
        <ele>600.05999436793</ele>
        <time>2018-09-12T15:14:25.000Z</time>
      </trkpt>
      <trkpt lat="44.34728" lon="2.59321">
        <ele>601</ele>
        <time>2018-09-12T15:14:27.000Z</time>
      </trkpt>
      <trkpt lat="44.34729" lon="2.59325">
        <ele>602</ele>
        <time>2018-09-12T15:14:29.000Z</time>
      </trkpt>
      <trkpt lat="44.3473" lon="2.59328">
        <ele>602.05999436793</ele>
        <time>2018-09-12T15:14:31.000Z</time>
      </trkpt>
      <trkpt lat="44.34731" lon="2.59331">
        <ele>603.04081659309</ele>
        <time>2018-09-12T15:14:33.000Z</time>
      </trkpt>
      <trkpt lat="44.34734" lon="2.59335">
        <ele>604</ele>
        <time>2018-09-12T15:14:35.000Z</time>
      </trkpt>
      <trkpt lat="44.34735" lon="2.59338">
        <ele>604.06000563193</ele>
        <time>2018-09-12T15:14:36.000Z</time>
      </trkpt>
      <trkpt lat="44.34737" lon="2.5934">
        <ele>605</ele>
        <time>2018-09-12T15:14:37.000Z</time>
      </trkpt>
      <trkpt lat="44.34738" lon="2.59341">
        <ele>605</ele>
        <time>2018-09-12T15:14:38.000Z</time>
      </trkpt>
      <trkpt lat="44.3474" lon="2.59344">
        <ele>605</ele>
        <time>2018-09-12T15:14:39.000Z</time>
      </trkpt>
      <trkpt lat="44.34741" lon="2.59346">
        <ele>605</ele>
        <time>2018-09-12T15:14:40.000Z</time>
      </trkpt>
      <trkpt lat="44.34742" lon="2.59349">
        <ele>606</ele>
        <time>2018-09-12T15:14:41.000Z</time>
      </trkpt>
      <trkpt lat="44.34744" lon="2.59352">
        <ele>606</ele>
        <time>2018-09-12T15:14:42.000Z</time>
      </trkpt>
      <trkpt lat="44.34745" lon="2.59354">
        <ele>607</ele>
        <time>2018-09-12T15:14:43.000Z</time>
      </trkpt>
      <trkpt lat="44.34746" lon="2.59359">
        <ele>607.02084</ele>
        <time>2018-09-12T15:14:45.000Z</time>
      </trkpt>
      <trkpt lat="44.34748" lon="2.59362">
        <ele>608</ele>
        <time>2018-09-12T15:14:46.000Z</time>
      </trkpt>
      <trkpt lat="44.34748" lon="2.59365">
        <ele>608</ele>
        <time>2018-09-12T15:14:47.000Z</time>
      </trkpt>
      <trkpt lat="44.34749" lon="2.59368">
        <ele>608</ele>
        <time>2018-09-12T15:14:48.000Z</time>
      </trkpt>
      <trkpt lat="44.3475" lon="2.59371">
        <ele>608.05404875574</ele>
        <time>2018-09-12T15:14:49.000Z</time>
      </trkpt>
      <trkpt lat="44.34751" lon="2.59374">
        <ele>608.95495744828</ele>
        <time>2018-09-12T15:14:50.000Z</time>
      </trkpt>
      <trkpt lat="44.34752" lon="2.59377">
        <ele>609</ele>
        <time>2018-09-12T15:14:51.000Z</time>
      </trkpt>
      <trkpt lat="44.34753" lon="2.59381">
        <ele>609.0588294348</ele>
        <time>2018-09-12T15:14:52.000Z</time>
      </trkpt>
      <trkpt lat="44.34755" lon="2.59384">
        <ele>610</ele>
        <time>2018-09-12T15:14:53.000Z</time>
      </trkpt>
      <trkpt lat="44.34755" lon="2.59388">
        <ele>610</ele>
        <time>2018-09-12T15:14:54.000Z</time>
      </trkpt>
      <trkpt lat="44.34755" lon="2.59391">
        <ele>610</ele>
        <time>2018-09-12T15:14:55.000Z</time>
      </trkpt>
      <trkpt lat="44.34756" lon="2.59394">
        <ele>610.06000563193</ele>
        <time>2018-09-12T15:14:56.000Z</time>
      </trkpt>
      <trkpt lat="44.34757" lon="2.59397">
        <ele>611</ele>
        <time>2018-09-12T15:14:57.000Z</time>
      </trkpt>
      <trkpt lat="44.34758" lon="2.594">
        <ele>611</ele>
        <time>2018-09-12T15:14:58.000Z</time>
      </trkpt>
      <trkpt lat="44.34759" lon="2.59405">
        <ele>611.97247404763</ele>
        <time>2018-09-12T15:15:00.000Z</time>
      </trkpt>
      <trkpt lat="44.34759" lon="2.59408">
        <ele>612</ele>
        <time>2018-09-12T15:15:01.000Z</time>
      </trkpt>
      <trkpt lat="44.34759" lon="2.59411">
        <ele>612</ele>
        <time>2018-09-12T15:15:02.000Z</time>
      </trkpt>
      <trkpt lat="44.34759" lon="2.59414">
        <ele>612.05824675648</ele>
        <time>2018-09-12T15:15:03.000Z</time>
      </trkpt>
      <trkpt lat="44.34758" lon="2.59417">
        <ele>613</ele>
        <time>2018-09-12T15:15:04.000Z</time>
      </trkpt>
      <trkpt lat="44.34757" lon="2.59421">
        <ele>613</ele>
        <time>2018-09-12T15:15:05.000Z</time>
      </trkpt>
      <trkpt lat="44.34756" lon="2.59424">
        <ele>613</ele>
        <time>2018-09-12T15:15:06.000Z</time>
      </trkpt>
      <trkpt lat="44.34755" lon="2.59427">
        <ele>614</ele>
        <time>2018-09-12T15:15:07.000Z</time>
      </trkpt>
      <trkpt lat="44.34755" lon="2.5943">
        <ele>614</ele>
        <time>2018-09-12T15:15:08.000Z</time>
      </trkpt>
      <trkpt lat="44.34754" lon="2.59432">
        <ele>614.05999436793</ele>
        <time>2018-09-12T15:15:09.000Z</time>
      </trkpt>
      <trkpt lat="44.34754" lon="2.59435">
        <ele>615</ele>
        <time>2018-09-12T15:15:10.000Z</time>
      </trkpt>
      <trkpt lat="44.34753" lon="2.59438">
        <ele>615</ele>
        <time>2018-09-12T15:15:11.000Z</time>
      </trkpt>
      <trkpt lat="44.34751" lon="2.59441">
        <ele>615</ele>
        <time>2018-09-12T15:15:12.000Z</time>
      </trkpt>
      <trkpt lat="44.3475" lon="2.59444">
        <ele>615.05999436793</ele>
        <time>2018-09-12T15:15:13.000Z</time>
      </trkpt>
      <trkpt lat="44.34749" lon="2.59447">
        <ele>616</ele>
        <time>2018-09-12T15:15:14.000Z</time>
      </trkpt>
      <trkpt lat="44.34747" lon="2.59449">
        <ele>616.055550288</ele>
        <time>2018-09-12T15:15:15.000Z</time>
      </trkpt>
      <trkpt lat="44.34746" lon="2.59452">
        <ele>616.981487188</ele>
        <time>2018-09-12T15:15:16.000Z</time>
      </trkpt>
      <trkpt lat="44.34745" lon="2.59454">
        <ele>617.05999436793</ele>
        <time>2018-09-12T15:15:17.000Z</time>
      </trkpt>
      <trkpt lat="44.34744" lon="2.59456">
        <ele>618</ele>
        <time>2018-09-12T15:15:18.000Z</time>
      </trkpt>
      <trkpt lat="44.34742" lon="2.59459">
        <ele>618</ele>
        <time>2018-09-12T15:15:19.000Z</time>
      </trkpt>
      <trkpt lat="44.34741" lon="2.59461">
        <ele>618.05556082298</ele>
        <time>2018-09-12T15:15:20.000Z</time>
      </trkpt>
      <trkpt lat="44.34739" lon="2.59464">
        <ele>618.9814757751</ele>
        <time>2018-09-12T15:15:21.000Z</time>
      </trkpt>
      <trkpt lat="44.34738" lon="2.59467">
        <ele>619.04580630032</ele>
        <time>2018-09-12T15:15:22.000Z</time>
      </trkpt>
      <trkpt lat="44.34737" lon="2.59471">
        <ele>619.80916321426</ele>
        <time>2018-09-12T15:15:23.000Z</time>
      </trkpt>
      <trkpt lat="44.34736" lon="2.59474">
        <ele>620</ele>
        <time>2018-09-12T15:15:24.000Z</time>
      </trkpt>
      <trkpt lat="44.34735" lon="2.59478">
        <ele>620</ele>
        <time>2018-09-12T15:15:25.000Z</time>
      </trkpt>
      <trkpt lat="44.34734" lon="2.5948">
        <ele>621</ele>
        <time>2018-09-12T15:15:26.000Z</time>
      </trkpt>
      <trkpt lat="44.34732" lon="2.59483">
        <ele>621</ele>
        <time>2018-09-12T15:15:27.000Z</time>
      </trkpt>
      <trkpt lat="44.34731" lon="2.59485">
        <ele>621.05310255771</ele>
        <time>2018-09-12T15:15:28.000Z</time>
      </trkpt>
      <trkpt lat="44.3473" lon="2.59488">
        <ele>621.93805079178</ele>
        <time>2018-09-12T15:15:29.000Z</time>
      </trkpt>
      <trkpt lat="44.34729" lon="2.5949">
        <ele>622</ele>
        <time>2018-09-12T15:15:30.000Z</time>
      </trkpt>
      <trkpt lat="44.34728" lon="2.59493">
        <ele>622.05768615385</ele>
        <time>2018-09-12T15:15:31.000Z</time>
      </trkpt>
      <trkpt lat="44.34727" lon="2.59496">
        <ele>623</ele>
        <time>2018-09-12T15:15:32.000Z</time>
      </trkpt>
      <trkpt lat="44.34726" lon="2.59498">
        <ele>623.05356571429</ele>
        <time>2018-09-12T15:15:33.000Z</time>
      </trkpt>
      <trkpt lat="44.34725" lon="2.59502">
        <ele>623.94642285714</ele>
        <time>2018-09-12T15:15:34.000Z</time>
      </trkpt>
      <trkpt lat="44.34723" lon="2.59505">
        <ele>624</ele>
        <time>2018-09-12T15:15:35.000Z</time>
      </trkpt>
      <trkpt lat="44.34722" lon="2.59508">
        <ele>624</ele>
        <time>2018-09-12T15:15:36.000Z</time>
      </trkpt>
      <trkpt lat="44.3472" lon="2.59511">
        <ele>624.02084</ele>
        <time>2018-09-12T15:15:37.000Z</time>
      </trkpt>
      <trkpt lat="44.34719" lon="2.59514">
        <ele>625</ele>
        <time>2018-09-12T15:15:38.000Z</time>
      </trkpt>
      <trkpt lat="44.34717" lon="2.59518">
        <ele>625</ele>
        <time>2018-09-12T15:15:39.000Z</time>
      </trkpt>
      <trkpt lat="44.34715" lon="2.59521">
        <ele>625.06000563193</ele>
        <time>2018-09-12T15:15:40.000Z</time>
      </trkpt>
      <trkpt lat="44.34713" lon="2.59524">
        <ele>626</ele>
        <time>2018-09-12T15:15:41.000Z</time>
      </trkpt>
      <trkpt lat="44.34711" lon="2.59527">
        <ele>626</ele>
        <time>2018-09-12T15:15:42.000Z</time>
      </trkpt>
      <trkpt lat="44.34709" lon="2.5953">
        <ele>626</ele>
        <time>2018-09-12T15:15:43.000Z</time>
      </trkpt>
      <trkpt lat="44.34708" lon="2.59534">
        <ele>626.75247763161</ele>
        <time>2018-09-12T15:15:44.000Z</time>
      </trkpt>
      <trkpt lat="44.34706" lon="2.59537">
        <ele>627</ele>
        <time>2018-09-12T15:15:45.000Z</time>
      </trkpt>
      <trkpt lat="44.34705" lon="2.59541">
        <ele>627.02082666667</ele>
        <time>2018-09-12T15:15:46.000Z</time>
      </trkpt>
      <trkpt lat="44.34703" lon="2.59545">
        <ele>628</ele>
        <time>2018-09-12T15:15:47.000Z</time>
      </trkpt>
      <trkpt lat="44.34702" lon="2.59549">
        <ele>628</ele>
        <time>2018-09-12T15:15:48.000Z</time>
      </trkpt>
      <trkpt lat="44.34701" lon="2.59553">
        <ele>628</ele>
        <time>2018-09-12T15:15:49.000Z</time>
      </trkpt>
      <trkpt lat="44.347" lon="2.59557">
        <ele>628.05769846154</ele>
        <time>2018-09-12T15:15:50.000Z</time>
      </trkpt>
      <trkpt lat="44.34698" lon="2.5956">
        <ele>629</ele>
        <time>2018-09-12T15:15:51.000Z</time>
      </trkpt>
      <trkpt lat="44.34697" lon="2.59564">
        <ele>629</ele>
        <time>2018-09-12T15:15:52.000Z</time>
      </trkpt>
      <trkpt lat="44.34696" lon="2.59567">
        <ele>629</ele>
        <time>2018-09-12T15:15:53.000Z</time>
      </trkpt>
      <trkpt lat="44.34694" lon="2.5957">
        <ele>629</ele>
        <time>2018-09-12T15:15:54.000Z</time>
      </trkpt>
      <trkpt lat="44.34693" lon="2.59574">
        <ele>629</ele>
        <time>2018-09-12T15:15:55.000Z</time>
      </trkpt>
      <trkpt lat="44.34692" lon="2.59577">
        <ele>629.0309308279</ele>
        <time>2018-09-12T15:15:56.000Z</time>
      </trkpt>
      <trkpt lat="44.34691" lon="2.59581">
        <ele>630</ele>
        <time>2018-09-12T15:15:57.000Z</time>
      </trkpt>
      <trkpt lat="44.3469" lon="2.59585">
        <ele>630</ele>
        <time>2018-09-12T15:15:58.000Z</time>
      </trkpt>
      <trkpt lat="44.34689" lon="2.59589">
        <ele>630</ele>
        <time>2018-09-12T15:15:59.000Z</time>
      </trkpt>
      <trkpt lat="44.34688" lon="2.59593">
        <ele>630</ele>
        <time>2018-09-12T15:16:00.000Z</time>
      </trkpt>
      <trkpt lat="44.34687" lon="2.59597">
        <ele>631</ele>
        <time>2018-09-12T15:16:01.000Z</time>
      </trkpt>
      <trkpt lat="44.34686" lon="2.59601">
        <ele>631</ele>
        <time>2018-09-12T15:16:02.000Z</time>
      </trkpt>
      <trkpt lat="44.34685" lon="2.59605">
        <ele>631</ele>
        <time>2018-09-12T15:16:03.000Z</time>
      </trkpt>
      <trkpt lat="44.34684" lon="2.59609">
        <ele>631</ele>
        <time>2018-09-12T15:16:04.000Z</time>
      </trkpt>
      <trkpt lat="44.34683" lon="2.59613">
        <ele>631</ele>
        <time>2018-09-12T15:16:05.000Z</time>
      </trkpt>
      <trkpt lat="44.34682" lon="2.59617">
        <ele>631</ele>
        <time>2018-09-12T15:16:06.000Z</time>
      </trkpt>
      <trkpt lat="44.34681" lon="2.59621">
        <ele>631</ele>
        <time>2018-09-12T15:16:07.000Z</time>
      </trkpt>
      <trkpt lat="44.3468" lon="2.59625">
        <ele>631</ele>
        <time>2018-09-12T15:16:08.000Z</time>
      </trkpt>
      <trkpt lat="44.34679" lon="2.5963">
        <ele>631</ele>
        <time>2018-09-12T15:16:09.000Z</time>
      </trkpt>
      <trkpt lat="44.34678" lon="2.59634">
        <ele>631</ele>
        <time>2018-09-12T15:16:10.000Z</time>
      </trkpt>
      <trkpt lat="44.34677" lon="2.59638">
        <ele>631</ele>
        <time>2018-09-12T15:16:11.000Z</time>
      </trkpt>
      <trkpt lat="44.34675" lon="2.59642">
        <ele>631</ele>
        <time>2018-09-12T15:16:12.000Z</time>
      </trkpt>
      <trkpt lat="44.34674" lon="2.59646">
        <ele>631.05999436793</ele>
        <time>2018-09-12T15:16:13.000Z</time>
      </trkpt>
      <trkpt lat="44.34673" lon="2.5965">
        <ele>632</ele>
        <time>2018-09-12T15:16:14.000Z</time>
      </trkpt>
      <trkpt lat="44.34672" lon="2.59654">
        <ele>632</ele>
        <time>2018-09-12T15:16:15.000Z</time>
      </trkpt>
      <trkpt lat="44.34671" lon="2.59658">
        <ele>632</ele>
        <time>2018-09-12T15:16:16.000Z</time>
      </trkpt>
      <trkpt lat="44.34669" lon="2.59662">
        <ele>632</ele>
        <time>2018-09-12T15:16:17.000Z</time>
      </trkpt>
      <trkpt lat="44.34668" lon="2.59666">
        <ele>632</ele>
        <time>2018-09-12T15:16:18.000Z</time>
      </trkpt>
      <trkpt lat="44.34667" lon="2.5967">
        <ele>632</ele>
        <time>2018-09-12T15:16:19.000Z</time>
      </trkpt>
      <trkpt lat="44.34666" lon="2.59674">
        <ele>632</ele>
        <time>2018-09-12T15:16:20.000Z</time>
      </trkpt>
      <trkpt lat="44.34664" lon="2.59678">
        <ele>632</ele>
        <time>2018-09-12T15:16:21.000Z</time>
      </trkpt>
      <trkpt lat="44.34663" lon="2.59682">
        <ele>632</ele>
        <time>2018-09-12T15:16:22.000Z</time>
      </trkpt>
      <trkpt lat="44.34662" lon="2.59686">
        <ele>632</ele>
        <time>2018-09-12T15:16:23.000Z</time>
      </trkpt>
      <trkpt lat="44.34661" lon="2.59691">
        <ele>632</ele>
        <time>2018-09-12T15:16:24.000Z</time>
      </trkpt>
      <trkpt lat="44.34659" lon="2.59695">
        <ele>632</ele>
        <time>2018-09-12T15:16:25.000Z</time>
      </trkpt>
      <trkpt lat="44.34658" lon="2.59699">
        <ele>632</ele>
        <time>2018-09-12T15:16:26.000Z</time>
      </trkpt>
      <trkpt lat="44.34657" lon="2.59703">
        <ele>632.05999436793</ele>
        <time>2018-09-12T15:16:27.000Z</time>
      </trkpt>
      <trkpt lat="44.34655" lon="2.59707">
        <ele>633</ele>
        <time>2018-09-12T15:16:28.000Z</time>
      </trkpt>
      <trkpt lat="44.34654" lon="2.59712">
        <ele>633</ele>
        <time>2018-09-12T15:16:29.000Z</time>
      </trkpt>
      <trkpt lat="44.34652" lon="2.59715">
        <ele>633</ele>
        <time>2018-09-12T15:16:30.000Z</time>
      </trkpt>
      <trkpt lat="44.3465" lon="2.59719">
        <ele>633</ele>
        <time>2018-09-12T15:16:31.000Z</time>
      </trkpt>
      <trkpt lat="44.34648" lon="2.59721">
        <ele>633</ele>
        <time>2018-09-12T15:16:32.000Z</time>
      </trkpt>
      <trkpt lat="44.34646" lon="2.59725">
        <ele>633</ele>
        <time>2018-09-12T15:16:33.000Z</time>
      </trkpt>
      <trkpt lat="44.34644" lon="2.59728">
        <ele>633</ele>
        <time>2018-09-12T15:16:34.000Z</time>
      </trkpt>
      <trkpt lat="44.34643" lon="2.59731">
        <ele>633</ele>
        <time>2018-09-12T15:16:35.000Z</time>
      </trkpt>
      <trkpt lat="44.34642" lon="2.59734">
        <ele>633</ele>
        <time>2018-09-12T15:16:36.000Z</time>
      </trkpt>
      <trkpt lat="44.34641" lon="2.59738">
        <ele>633</ele>
        <time>2018-09-12T15:16:37.000Z</time>
      </trkpt>
      <trkpt lat="44.3464" lon="2.59742">
        <ele>633</ele>
        <time>2018-09-12T15:16:38.000Z</time>
      </trkpt>
      <trkpt lat="44.3464" lon="2.59746">
        <ele>633</ele>
        <time>2018-09-12T15:16:39.000Z</time>
      </trkpt>
      <trkpt lat="44.34638" lon="2.59751">
        <ele>633</ele>
        <time>2018-09-12T15:16:40.000Z</time>
      </trkpt>
      <trkpt lat="44.34637" lon="2.59755">
        <ele>633</ele>
        <time>2018-09-12T15:16:41.000Z</time>
      </trkpt>
      <trkpt lat="44.34635" lon="2.59759">
        <ele>633</ele>
        <time>2018-09-12T15:16:42.000Z</time>
      </trkpt>
      <trkpt lat="44.34634" lon="2.59763">
        <ele>634</ele>
        <time>2018-09-12T15:16:43.000Z</time>
      </trkpt>
      <trkpt lat="44.34633" lon="2.59767">
        <ele>634</ele>
        <time>2018-09-12T15:16:44.000Z</time>
      </trkpt>
      <trkpt lat="44.34631" lon="2.59771">
        <ele>634</ele>
        <time>2018-09-12T15:16:45.000Z</time>
      </trkpt>
      <trkpt lat="44.3463" lon="2.59774">
        <ele>634</ele>
        <time>2018-09-12T15:16:46.000Z</time>
      </trkpt>
      <trkpt lat="44.34629" lon="2.59778">
        <ele>634</ele>
        <time>2018-09-12T15:16:47.000Z</time>
      </trkpt>
      <trkpt lat="44.34628" lon="2.59782">
        <ele>634</ele>
        <time>2018-09-12T15:16:48.000Z</time>
      </trkpt>
      <trkpt lat="44.34627" lon="2.59785">
        <ele>634</ele>
        <time>2018-09-12T15:16:49.000Z</time>
      </trkpt>
      <trkpt lat="44.34625" lon="2.59789">
        <ele>634</ele>
        <time>2018-09-12T15:16:50.000Z</time>
      </trkpt>
      <trkpt lat="44.34624" lon="2.59793">
        <ele>634</ele>
        <time>2018-09-12T15:16:51.000Z</time>
      </trkpt>
      <trkpt lat="44.34622" lon="2.59797">
        <ele>634</ele>
        <time>2018-09-12T15:16:52.000Z</time>
      </trkpt>
      <trkpt lat="44.34621" lon="2.59801">
        <ele>634</ele>
        <time>2018-09-12T15:16:53.000Z</time>
      </trkpt>
      <trkpt lat="44.3462" lon="2.59805">
        <ele>634</ele>
        <time>2018-09-12T15:16:54.000Z</time>
      </trkpt>
      <trkpt lat="44.34618" lon="2.59809">
        <ele>634</ele>
        <time>2018-09-12T15:16:55.000Z</time>
      </trkpt>
      <trkpt lat="44.34617" lon="2.59813">
        <ele>634</ele>
        <time>2018-09-12T15:16:56.000Z</time>
      </trkpt>
      <trkpt lat="44.34616" lon="2.59817">
        <ele>634</ele>
        <time>2018-09-12T15:16:57.000Z</time>
      </trkpt>
      <trkpt lat="44.34615" lon="2.59821">
        <ele>634</ele>
        <time>2018-09-12T15:16:58.000Z</time>
      </trkpt>
      <trkpt lat="44.34614" lon="2.59825">
        <ele>634</ele>
        <time>2018-09-12T15:16:59.000Z</time>
      </trkpt>
      <trkpt lat="44.34612" lon="2.59829">
        <ele>634</ele>
        <time>2018-09-12T15:17:00.000Z</time>
      </trkpt>
      <trkpt lat="44.34611" lon="2.59833">
        <ele>634</ele>
        <time>2018-09-12T15:17:01.000Z</time>
      </trkpt>
      <trkpt lat="44.3461" lon="2.59837">
        <ele>634</ele>
        <time>2018-09-12T15:17:02.000Z</time>
      </trkpt>
      <trkpt lat="44.34608" lon="2.59841">
        <ele>634</ele>
        <time>2018-09-12T15:17:03.000Z</time>
      </trkpt>
      <trkpt lat="44.34607" lon="2.59845">
        <ele>634</ele>
        <time>2018-09-12T15:17:04.000Z</time>
      </trkpt>
      <trkpt lat="44.34606" lon="2.59849">
        <ele>634</ele>
        <time>2018-09-12T15:17:05.000Z</time>
      </trkpt>
      <trkpt lat="44.34604" lon="2.59852">
        <ele>634</ele>
        <time>2018-09-12T15:17:06.000Z</time>
      </trkpt>
      <trkpt lat="44.34603" lon="2.59856">
        <ele>634</ele>
        <time>2018-09-12T15:17:07.000Z</time>
      </trkpt>
      <trkpt lat="44.34602" lon="2.5986">
        <ele>634</ele>
        <time>2018-09-12T15:17:08.000Z</time>
      </trkpt>
      <trkpt lat="44.346" lon="2.59864">
        <ele>634</ele>
        <time>2018-09-12T15:17:09.000Z</time>
      </trkpt>
      <trkpt lat="44.34599" lon="2.59868">
        <ele>634</ele>
        <time>2018-09-12T15:17:10.000Z</time>
      </trkpt>
      <trkpt lat="44.34598" lon="2.59872">
        <ele>634</ele>
        <time>2018-09-12T15:17:11.000Z</time>
      </trkpt>
      <trkpt lat="44.34596" lon="2.59876">
        <ele>634</ele>
        <time>2018-09-12T15:17:12.000Z</time>
      </trkpt>
      <trkpt lat="44.34595" lon="2.5988">
        <ele>634</ele>
        <time>2018-09-12T15:17:13.000Z</time>
      </trkpt>
      <trkpt lat="44.34593" lon="2.59884">
        <ele>634</ele>
        <time>2018-09-12T15:17:14.000Z</time>
      </trkpt>
      <trkpt lat="44.34591" lon="2.59888">
        <ele>634</ele>
        <time>2018-09-12T15:17:15.000Z</time>
      </trkpt>
      <trkpt lat="44.3459" lon="2.59892">
        <ele>634</ele>
        <time>2018-09-12T15:17:16.000Z</time>
      </trkpt>
      <trkpt lat="44.34588" lon="2.59895">
        <ele>634</ele>
        <time>2018-09-12T15:17:17.000Z</time>
      </trkpt>
      <trkpt lat="44.34587" lon="2.59899">
        <ele>634</ele>
        <time>2018-09-12T15:17:18.000Z</time>
      </trkpt>
      <trkpt lat="44.34586" lon="2.59902">
        <ele>634</ele>
        <time>2018-09-12T15:17:19.000Z</time>
      </trkpt>
      <trkpt lat="44.34584" lon="2.59907">
        <ele>634</ele>
        <time>2018-09-12T15:17:20.000Z</time>
      </trkpt>
      <trkpt lat="44.34582" lon="2.5991">
        <ele>634</ele>
        <time>2018-09-12T15:17:21.000Z</time>
      </trkpt>
      <trkpt lat="44.34581" lon="2.59914">
        <ele>634</ele>
        <time>2018-09-12T15:17:22.000Z</time>
      </trkpt>
      <trkpt lat="44.3458" lon="2.59918">
        <ele>634</ele>
        <time>2018-09-12T15:17:23.000Z</time>
      </trkpt>
      <trkpt lat="44.34578" lon="2.59922">
        <ele>634</ele>
        <time>2018-09-12T15:17:24.000Z</time>
      </trkpt>
      <trkpt lat="44.34577" lon="2.59926">
        <ele>634</ele>
        <time>2018-09-12T15:17:25.000Z</time>
      </trkpt>
      <trkpt lat="44.34575" lon="2.5993">
        <ele>634</ele>
        <time>2018-09-12T15:17:26.000Z</time>
      </trkpt>
      <trkpt lat="44.34574" lon="2.59934">
        <ele>634</ele>
        <time>2018-09-12T15:17:27.000Z</time>
      </trkpt>
      <trkpt lat="44.34572" lon="2.59938">
        <ele>634</ele>
        <time>2018-09-12T15:17:28.000Z</time>
      </trkpt>
      <trkpt lat="44.34571" lon="2.59942">
        <ele>634</ele>
        <time>2018-09-12T15:17:29.000Z</time>
      </trkpt>
      <trkpt lat="44.34569" lon="2.59946">
        <ele>634</ele>
        <time>2018-09-12T15:17:30.000Z</time>
      </trkpt>
      <trkpt lat="44.34567" lon="2.5995">
        <ele>634</ele>
        <time>2018-09-12T15:17:31.000Z</time>
      </trkpt>
      <trkpt lat="44.34565" lon="2.59954">
        <ele>634</ele>
        <time>2018-09-12T15:17:32.000Z</time>
      </trkpt>
      <trkpt lat="44.34563" lon="2.59958">
        <ele>634</ele>
        <time>2018-09-12T15:17:33.000Z</time>
      </trkpt>
      <trkpt lat="44.34562" lon="2.59962">
        <ele>634</ele>
        <time>2018-09-12T15:17:34.000Z</time>
      </trkpt>
      <trkpt lat="44.3456" lon="2.59966">
        <ele>634</ele>
        <time>2018-09-12T15:17:35.000Z</time>
      </trkpt>
      <trkpt lat="44.34559" lon="2.59969">
        <ele>634</ele>
        <time>2018-09-12T15:17:36.000Z</time>
      </trkpt>
      <trkpt lat="44.34557" lon="2.59973">
        <ele>634</ele>
        <time>2018-09-12T15:17:37.000Z</time>
      </trkpt>
      <trkpt lat="44.34556" lon="2.59976">
        <ele>634</ele>
        <time>2018-09-12T15:17:38.000Z</time>
      </trkpt>
      <trkpt lat="44.34554" lon="2.5998">
        <ele>634</ele>
        <time>2018-09-12T15:17:39.000Z</time>
      </trkpt>
      <trkpt lat="44.34552" lon="2.59983">
        <ele>634</ele>
        <time>2018-09-12T15:17:40.000Z</time>
      </trkpt>
      <trkpt lat="44.3455" lon="2.59987">
        <ele>634</ele>
        <time>2018-09-12T15:17:41.000Z</time>
      </trkpt>
      <trkpt lat="44.34549" lon="2.59991">
        <ele>634</ele>
        <time>2018-09-12T15:17:42.000Z</time>
      </trkpt>
      <trkpt lat="44.34547" lon="2.59995">
        <ele>634</ele>
        <time>2018-09-12T15:17:43.000Z</time>
      </trkpt>
      <trkpt lat="44.34546" lon="2.59998">
        <ele>633.94642285714</ele>
        <time>2018-09-12T15:17:44.000Z</time>
      </trkpt>
      <trkpt lat="44.34545" lon="2.60002">
        <ele>633.05356571429</ele>
        <time>2018-09-12T15:17:45.000Z</time>
      </trkpt>
      <trkpt lat="44.34543" lon="2.60006">
        <ele>633</ele>
        <time>2018-09-12T15:17:46.000Z</time>
      </trkpt>
      <trkpt lat="44.34541" lon="2.60011">
        <ele>633</ele>
        <time>2018-09-12T15:17:47.000Z</time>
      </trkpt>
      <trkpt lat="44.3454" lon="2.60015">
        <ele>633</ele>
        <time>2018-09-12T15:17:48.000Z</time>
      </trkpt>
      <trkpt lat="44.34538" lon="2.6002">
        <ele>633</ele>
        <time>2018-09-12T15:17:49.000Z</time>
      </trkpt>
      <trkpt lat="44.34537" lon="2.60024">
        <ele>633</ele>
        <time>2018-09-12T15:17:50.000Z</time>
      </trkpt>
      <trkpt lat="44.34535" lon="2.60028">
        <ele>633</ele>
        <time>2018-09-12T15:17:51.000Z</time>
      </trkpt>
      <trkpt lat="44.34533" lon="2.60032">
        <ele>633</ele>
        <time>2018-09-12T15:17:52.000Z</time>
      </trkpt>
      <trkpt lat="44.34532" lon="2.60036">
        <ele>633</ele>
        <time>2018-09-12T15:17:53.000Z</time>
      </trkpt>
      <trkpt lat="44.3453" lon="2.60041">
        <ele>633</ele>
        <time>2018-09-12T15:17:54.000Z</time>
      </trkpt>
      <trkpt lat="44.34529" lon="2.60045">
        <ele>633</ele>
        <time>2018-09-12T15:17:55.000Z</time>
      </trkpt>
      <trkpt lat="44.34527" lon="2.60049">
        <ele>633</ele>
        <time>2018-09-12T15:17:56.000Z</time>
      </trkpt>
      <trkpt lat="44.34526" lon="2.60054">
        <ele>633</ele>
        <time>2018-09-12T15:17:57.000Z</time>
      </trkpt>
      <trkpt lat="44.34525" lon="2.60058">
        <ele>633</ele>
        <time>2018-09-12T15:17:58.000Z</time>
      </trkpt>
      <trkpt lat="44.34524" lon="2.60063">
        <ele>633</ele>
        <time>2018-09-12T15:17:59.000Z</time>
      </trkpt>
      <trkpt lat="44.34523" lon="2.60067">
        <ele>633</ele>
        <time>2018-09-12T15:18:00.000Z</time>
      </trkpt>
      <trkpt lat="44.34522" lon="2.60072">
        <ele>633</ele>
        <time>2018-09-12T15:18:01.000Z</time>
      </trkpt>
      <trkpt lat="44.34521" lon="2.60076">
        <ele>633</ele>
        <time>2018-09-12T15:18:02.000Z</time>
      </trkpt>
      <trkpt lat="44.3452" lon="2.6008">
        <ele>633</ele>
        <time>2018-09-12T15:18:03.000Z</time>
      </trkpt>
      <trkpt lat="44.34519" lon="2.60084">
        <ele>633</ele>
        <time>2018-09-12T15:18:04.000Z</time>
      </trkpt>
      <trkpt lat="44.34518" lon="2.60089">
        <ele>633</ele>
        <time>2018-09-12T15:18:05.000Z</time>
      </trkpt>
      <trkpt lat="44.34517" lon="2.60093">
        <ele>633</ele>
        <time>2018-09-12T15:18:06.000Z</time>
      </trkpt>
      <trkpt lat="44.34516" lon="2.60097">
        <ele>633</ele>
        <time>2018-09-12T15:18:07.000Z</time>
      </trkpt>
      <trkpt lat="44.34515" lon="2.60101">
        <ele>633</ele>
        <time>2018-09-12T15:18:08.000Z</time>
      </trkpt>
      <trkpt lat="44.34514" lon="2.60105">
        <ele>633</ele>
        <time>2018-09-12T15:18:09.000Z</time>
      </trkpt>
      <trkpt lat="44.34513" lon="2.60109">
        <ele>633</ele>
        <time>2018-09-12T15:18:10.000Z</time>
      </trkpt>
      <trkpt lat="44.34512" lon="2.60113">
        <ele>633</ele>
        <time>2018-09-12T15:18:11.000Z</time>
      </trkpt>
      <trkpt lat="44.34511" lon="2.60117">
        <ele>633</ele>
        <time>2018-09-12T15:18:12.000Z</time>
      </trkpt>
      <trkpt lat="44.3451" lon="2.60121">
        <ele>633</ele>
        <time>2018-09-12T15:18:13.000Z</time>
      </trkpt>
      <trkpt lat="44.34509" lon="2.60125">
        <ele>633</ele>
        <time>2018-09-12T15:18:14.000Z</time>
      </trkpt>
      <trkpt lat="44.34508" lon="2.6013">
        <ele>633</ele>
        <time>2018-09-12T15:18:15.000Z</time>
      </trkpt>
      <trkpt lat="44.34507" lon="2.60134">
        <ele>633</ele>
        <time>2018-09-12T15:18:16.000Z</time>
      </trkpt>
      <trkpt lat="44.34505" lon="2.60138">
        <ele>633</ele>
        <time>2018-09-12T15:18:17.000Z</time>
      </trkpt>
      <trkpt lat="44.34504" lon="2.60142">
        <ele>633</ele>
        <time>2018-09-12T15:18:18.000Z</time>
      </trkpt>
      <trkpt lat="44.34503" lon="2.60146">
        <ele>633</ele>
        <time>2018-09-12T15:18:19.000Z</time>
      </trkpt>
      <trkpt lat="44.34501" lon="2.60151">
        <ele>633</ele>
        <time>2018-09-12T15:18:20.000Z</time>
      </trkpt>
      <trkpt lat="44.345" lon="2.60155">
        <ele>633</ele>
        <time>2018-09-12T15:18:21.000Z</time>
      </trkpt>
      <trkpt lat="44.34498" lon="2.60159">
        <ele>633</ele>
        <time>2018-09-12T15:18:22.000Z</time>
      </trkpt>
      <trkpt lat="44.34497" lon="2.60163">
        <ele>633</ele>
        <time>2018-09-12T15:18:23.000Z</time>
      </trkpt>
      <trkpt lat="44.34496" lon="2.60167">
        <ele>633</ele>
        <time>2018-09-12T15:18:24.000Z</time>
      </trkpt>
      <trkpt lat="44.34494" lon="2.60171">
        <ele>633</ele>
        <time>2018-09-12T15:18:25.000Z</time>
      </trkpt>
      <trkpt lat="44.34493" lon="2.60175">
        <ele>633</ele>
        <time>2018-09-12T15:18:26.000Z</time>
      </trkpt>
      <trkpt lat="44.34492" lon="2.60179">
        <ele>633</ele>
        <time>2018-09-12T15:18:27.000Z</time>
      </trkpt>
      <trkpt lat="44.3449" lon="2.60184">
        <ele>633</ele>
        <time>2018-09-12T15:18:28.000Z</time>
      </trkpt>
      <trkpt lat="44.34489" lon="2.60188">
        <ele>633</ele>
        <time>2018-09-12T15:18:29.000Z</time>
      </trkpt>
      <trkpt lat="44.34487" lon="2.60191">
        <ele>633</ele>
        <time>2018-09-12T15:18:30.000Z</time>
      </trkpt>
      <trkpt lat="44.34486" lon="2.60195">
        <ele>633</ele>
        <time>2018-09-12T15:18:31.000Z</time>
      </trkpt>
      <trkpt lat="44.34484" lon="2.60199">
        <ele>633</ele>
        <time>2018-09-12T15:18:32.000Z</time>
      </trkpt>
      <trkpt lat="44.34483" lon="2.60203">
        <ele>633</ele>
        <time>2018-09-12T15:18:33.000Z</time>
      </trkpt>
      <trkpt lat="44.34481" lon="2.60207">
        <ele>633</ele>
        <time>2018-09-12T15:18:34.000Z</time>
      </trkpt>
      <trkpt lat="44.3448" lon="2.60211">
        <ele>633</ele>
        <time>2018-09-12T15:18:35.000Z</time>
      </trkpt>
      <trkpt lat="44.34478" lon="2.60214">
        <ele>633</ele>
        <time>2018-09-12T15:18:36.000Z</time>
      </trkpt>
      <trkpt lat="44.34476" lon="2.60217">
        <ele>632.97692072901</ele>
        <time>2018-09-12T15:18:37.000Z</time>
      </trkpt>
      <trkpt lat="44.34473" lon="2.60218">
        <ele>632.20769374674</ele>
        <time>2018-09-12T15:18:38.000Z</time>
      </trkpt>
      <trkpt lat="44.3447" lon="2.60219">
        <ele>632</ele>
        <time>2018-09-12T15:18:39.000Z</time>
      </trkpt>
      <trkpt lat="44.34467" lon="2.6022">
        <ele>632</ele>
        <time>2018-09-12T15:18:40.000Z</time>
      </trkpt>
      <trkpt lat="44.34465" lon="2.60222">
        <ele>632</ele>
        <time>2018-09-12T15:18:41.000Z</time>
      </trkpt>
      <trkpt lat="44.34462" lon="2.60224">
        <ele>632</ele>
        <time>2018-09-12T15:18:42.000Z</time>
      </trkpt>
      <trkpt lat="44.3446" lon="2.60227">
        <ele>632</ele>
        <time>2018-09-12T15:18:43.000Z</time>
      </trkpt>
      <trkpt lat="44.34457" lon="2.6023">
        <ele>632</ele>
        <time>2018-09-12T15:18:44.000Z</time>
      </trkpt>
      <trkpt lat="44.34455" lon="2.60233">
        <ele>632</ele>
        <time>2018-09-12T15:18:45.000Z</time>
      </trkpt>
      <trkpt lat="44.34453" lon="2.60236">
        <ele>632</ele>
        <time>2018-09-12T15:18:46.000Z</time>
      </trkpt>
      <trkpt lat="44.34451" lon="2.6024">
        <ele>632</ele>
        <time>2018-09-12T15:18:47.000Z</time>
      </trkpt>
      <trkpt lat="44.34449" lon="2.60243">
        <ele>632</ele>
        <time>2018-09-12T15:18:48.000Z</time>
      </trkpt>
      <trkpt lat="44.34447" lon="2.60246">
        <ele>632</ele>
        <time>2018-09-12T15:18:49.000Z</time>
      </trkpt>
      <trkpt lat="44.34445" lon="2.6025">
        <ele>632</ele>
        <time>2018-09-12T15:18:50.000Z</time>
      </trkpt>
      <trkpt lat="44.34443" lon="2.60253">
        <ele>632</ele>
        <time>2018-09-12T15:18:51.000Z</time>
      </trkpt>
      <trkpt lat="44.34441" lon="2.60256">
        <ele>632</ele>
        <time>2018-09-12T15:18:52.000Z</time>
      </trkpt>
      <trkpt lat="44.34439" lon="2.6026">
        <ele>632</ele>
        <time>2018-09-12T15:18:53.000Z</time>
      </trkpt>
      <trkpt lat="44.34437" lon="2.60263">
        <ele>632</ele>
        <time>2018-09-12T15:18:54.000Z</time>
      </trkpt>
      <trkpt lat="44.34435" lon="2.60267">
        <ele>632</ele>
        <time>2018-09-12T15:18:55.000Z</time>
      </trkpt>
      <trkpt lat="44.34432" lon="2.60271">
        <ele>632</ele>
        <time>2018-09-12T15:18:56.000Z</time>
      </trkpt>
      <trkpt lat="44.3443" lon="2.60275">
        <ele>632</ele>
        <time>2018-09-12T15:18:57.000Z</time>
      </trkpt>
      <trkpt lat="44.34429" lon="2.60278">
        <ele>632</ele>
        <time>2018-09-12T15:18:58.000Z</time>
      </trkpt>
      <trkpt lat="44.34427" lon="2.60282">
        <ele>632</ele>
        <time>2018-09-12T15:18:59.000Z</time>
      </trkpt>
      <trkpt lat="44.34425" lon="2.60285">
        <ele>632</ele>
        <time>2018-09-12T15:19:00.000Z</time>
      </trkpt>
      <trkpt lat="44.34423" lon="2.60288">
        <ele>632</ele>
        <time>2018-09-12T15:19:01.000Z</time>
      </trkpt>
      <trkpt lat="44.34421" lon="2.60292">
        <ele>632</ele>
        <time>2018-09-12T15:19:02.000Z</time>
      </trkpt>
      <trkpt lat="44.3442" lon="2.60295">
        <ele>632</ele>
        <time>2018-09-12T15:19:03.000Z</time>
      </trkpt>
      <trkpt lat="44.34418" lon="2.60298">
        <ele>632</ele>
        <time>2018-09-12T15:19:04.000Z</time>
      </trkpt>
      <trkpt lat="44.34416" lon="2.603">
        <ele>632</ele>
        <time>2018-09-12T15:19:05.000Z</time>
      </trkpt>
      <trkpt lat="44.34414" lon="2.60303">
        <ele>632</ele>
        <time>2018-09-12T15:19:06.000Z</time>
      </trkpt>
      <trkpt lat="44.34412" lon="2.60306">
        <ele>632</ele>
        <time>2018-09-12T15:19:07.000Z</time>
      </trkpt>
      <trkpt lat="44.3441" lon="2.6031">
        <ele>632</ele>
        <time>2018-09-12T15:19:08.000Z</time>
      </trkpt>
      <trkpt lat="44.34409" lon="2.60313">
        <ele>632</ele>
        <time>2018-09-12T15:19:09.000Z</time>
      </trkpt>
      <trkpt lat="44.34407" lon="2.60316">
        <ele>632</ele>
        <time>2018-09-12T15:19:10.000Z</time>
      </trkpt>
      <trkpt lat="44.34405" lon="2.60319">
        <ele>632</ele>
        <time>2018-09-12T15:19:11.000Z</time>
      </trkpt>
      <trkpt lat="44.34403" lon="2.60322">
        <ele>632</ele>
        <time>2018-09-12T15:19:12.000Z</time>
      </trkpt>
      <trkpt lat="44.34401" lon="2.60325">
        <ele>632</ele>
        <time>2018-09-12T15:19:13.000Z</time>
      </trkpt>
      <trkpt lat="44.34399" lon="2.60329">
        <ele>632</ele>
        <time>2018-09-12T15:19:14.000Z</time>
      </trkpt>
      <trkpt lat="44.34397" lon="2.60333">
        <ele>632</ele>
        <time>2018-09-12T15:19:15.000Z</time>
      </trkpt>
      <trkpt lat="44.34396" lon="2.60337">
        <ele>632</ele>
        <time>2018-09-12T15:19:16.000Z</time>
      </trkpt>
      <trkpt lat="44.34394" lon="2.60341">
        <ele>632</ele>
        <time>2018-09-12T15:19:17.000Z</time>
      </trkpt>
      <trkpt lat="44.34392" lon="2.60345">
        <ele>632</ele>
        <time>2018-09-12T15:19:18.000Z</time>
      </trkpt>
      <trkpt lat="44.3439" lon="2.60349">
        <ele>632</ele>
        <time>2018-09-12T15:19:19.000Z</time>
      </trkpt>
      <trkpt lat="44.34388" lon="2.60353">
        <ele>632</ele>
        <time>2018-09-12T15:19:20.000Z</time>
      </trkpt>
      <trkpt lat="44.34386" lon="2.60356">
        <ele>632</ele>
        <time>2018-09-12T15:19:21.000Z</time>
      </trkpt>
      <trkpt lat="44.34384" lon="2.6036">
        <ele>632</ele>
        <time>2018-09-12T15:19:22.000Z</time>
      </trkpt>
      <trkpt lat="44.34382" lon="2.60364">
        <ele>632</ele>
        <time>2018-09-12T15:19:23.000Z</time>
      </trkpt>
      <trkpt lat="44.34381" lon="2.60368">
        <ele>632</ele>
        <time>2018-09-12T15:19:24.000Z</time>
      </trkpt>
      <trkpt lat="44.34379" lon="2.60372">
        <ele>632</ele>
        <time>2018-09-12T15:19:25.000Z</time>
      </trkpt>
      <trkpt lat="44.34377" lon="2.60376">
        <ele>632</ele>
        <time>2018-09-12T15:19:26.000Z</time>
      </trkpt>
      <trkpt lat="44.34375" lon="2.6038">
        <ele>632</ele>
        <time>2018-09-12T15:19:27.000Z</time>
      </trkpt>
      <trkpt lat="44.34373" lon="2.60384">
        <ele>632</ele>
        <time>2018-09-12T15:19:28.000Z</time>
      </trkpt>
      <trkpt lat="44.34371" lon="2.60388">
        <ele>632</ele>
        <time>2018-09-12T15:19:29.000Z</time>
      </trkpt>
      <trkpt lat="44.3437" lon="2.60392">
        <ele>632</ele>
        <time>2018-09-12T15:19:30.000Z</time>
      </trkpt>
      <trkpt lat="44.34367" lon="2.60395">
        <ele>632</ele>
        <time>2018-09-12T15:19:31.000Z</time>
      </trkpt>
      <trkpt lat="44.34366" lon="2.60399">
        <ele>632</ele>
        <time>2018-09-12T15:19:32.000Z</time>
      </trkpt>
      <trkpt lat="44.34363" lon="2.60402">
        <ele>632</ele>
        <time>2018-09-12T15:19:33.000Z</time>
      </trkpt>
      <trkpt lat="44.34361" lon="2.60406">
        <ele>632</ele>
        <time>2018-09-12T15:19:34.000Z</time>
      </trkpt>
      <trkpt lat="44.3436" lon="2.60409">
        <ele>632</ele>
        <time>2018-09-12T15:19:35.000Z</time>
      </trkpt>
      <trkpt lat="44.34358" lon="2.60412">
        <ele>632</ele>
        <time>2018-09-12T15:19:36.000Z</time>
      </trkpt>
      <trkpt lat="44.34356" lon="2.60416">
        <ele>632</ele>
        <time>2018-09-12T15:19:37.000Z</time>
      </trkpt>
      <trkpt lat="44.34353" lon="2.60419">
        <ele>632</ele>
        <time>2018-09-12T15:19:38.000Z</time>
      </trkpt>
      <trkpt lat="44.34351" lon="2.60423">
        <ele>632</ele>
        <time>2018-09-12T15:19:39.000Z</time>
      </trkpt>
      <trkpt lat="44.34349" lon="2.60426">
        <ele>632</ele>
        <time>2018-09-12T15:19:40.000Z</time>
      </trkpt>
      <trkpt lat="44.34347" lon="2.60429">
        <ele>632</ele>
        <time>2018-09-12T15:19:41.000Z</time>
      </trkpt>
      <trkpt lat="44.34345" lon="2.60433">
        <ele>632</ele>
        <time>2018-09-12T15:19:42.000Z</time>
      </trkpt>
      <trkpt lat="44.34343" lon="2.60437">
        <ele>632</ele>
        <time>2018-09-12T15:19:43.000Z</time>
      </trkpt>
      <trkpt lat="44.34341" lon="2.60441">
        <ele>632</ele>
        <time>2018-09-12T15:19:44.000Z</time>
      </trkpt>
      <trkpt lat="44.3434" lon="2.60444">
        <ele>632</ele>
        <time>2018-09-12T15:19:45.000Z</time>
      </trkpt>
      <trkpt lat="44.34338" lon="2.60448">
        <ele>632</ele>
        <time>2018-09-12T15:19:46.000Z</time>
      </trkpt>
      <trkpt lat="44.34336" lon="2.60452">
        <ele>632</ele>
        <time>2018-09-12T15:19:47.000Z</time>
      </trkpt>
      <trkpt lat="44.34334" lon="2.60455">
        <ele>632</ele>
        <time>2018-09-12T15:19:48.000Z</time>
      </trkpt>
      <trkpt lat="44.34332" lon="2.60459">
        <ele>632</ele>
        <time>2018-09-12T15:19:49.000Z</time>
      </trkpt>
      <trkpt lat="44.34329" lon="2.60462">
        <ele>632</ele>
        <time>2018-09-12T15:19:50.000Z</time>
      </trkpt>
      <trkpt lat="44.34327" lon="2.60466">
        <ele>632</ele>
        <time>2018-09-12T15:19:51.000Z</time>
      </trkpt>
      <trkpt lat="44.34325" lon="2.60469">
        <ele>632</ele>
        <time>2018-09-12T15:19:52.000Z</time>
      </trkpt>
      <trkpt lat="44.34323" lon="2.60472">
        <ele>632</ele>
        <time>2018-09-12T15:19:53.000Z</time>
      </trkpt>
      <trkpt lat="44.34321" lon="2.60475">
        <ele>632</ele>
        <time>2018-09-12T15:19:54.000Z</time>
      </trkpt>
      <trkpt lat="44.34319" lon="2.60478">
        <ele>631.94286306396</ele>
        <time>2018-09-12T15:19:55.000Z</time>
      </trkpt>
      <trkpt lat="44.34317" lon="2.60482">
        <ele>631</ele>
        <time>2018-09-12T15:19:56.000Z</time>
      </trkpt>
      <trkpt lat="44.34315" lon="2.60487">
        <ele>631</ele>
        <time>2018-09-12T15:19:57.000Z</time>
      </trkpt>
      <trkpt lat="44.34313" lon="2.60491">
        <ele>631.0588294348</ele>
        <time>2018-09-12T15:19:58.000Z</time>
      </trkpt>
      <trkpt lat="44.34312" lon="2.60495">
        <ele>631.95918340691</ele>
        <time>2018-09-12T15:19:59.000Z</time>
      </trkpt>
      <trkpt lat="44.34309" lon="2.60499">
        <ele>631</ele>
        <time>2018-09-12T15:20:00.000Z</time>
      </trkpt>
      <trkpt lat="44.34308" lon="2.60502">
        <ele>631</ele>
        <time>2018-09-12T15:20:01.000Z</time>
      </trkpt>
      <trkpt lat="44.34306" lon="2.60506">
        <ele>631</ele>
        <time>2018-09-12T15:20:02.000Z</time>
      </trkpt>
      <trkpt lat="44.34304" lon="2.6051">
        <ele>631</ele>
        <time>2018-09-12T15:20:03.000Z</time>
      </trkpt>
      <trkpt lat="44.34302" lon="2.60513">
        <ele>631</ele>
        <time>2018-09-12T15:20:04.000Z</time>
      </trkpt>
      <trkpt lat="44.343" lon="2.60516">
        <ele>631</ele>
        <time>2018-09-12T15:20:05.000Z</time>
      </trkpt>
      <trkpt lat="44.34299" lon="2.60519">
        <ele>631</ele>
        <time>2018-09-12T15:20:06.000Z</time>
      </trkpt>
      <trkpt lat="44.34296" lon="2.60523">
        <ele>631</ele>
        <time>2018-09-12T15:20:07.000Z</time>
      </trkpt>
      <trkpt lat="44.34294" lon="2.60527">
        <ele>631</ele>
        <time>2018-09-12T15:20:08.000Z</time>
      </trkpt>
      <trkpt lat="44.34292" lon="2.6053">
        <ele>631</ele>
        <time>2018-09-12T15:20:09.000Z</time>
      </trkpt>
      <trkpt lat="44.3429" lon="2.60534">
        <ele>631</ele>
        <time>2018-09-12T15:20:10.000Z</time>
      </trkpt>
      <trkpt lat="44.34288" lon="2.60538">
        <ele>631</ele>
        <time>2018-09-12T15:20:11.000Z</time>
      </trkpt>
      <trkpt lat="44.34285" lon="2.60542">
        <ele>631</ele>
        <time>2018-09-12T15:20:12.000Z</time>
      </trkpt>
      <trkpt lat="44.34283" lon="2.60545">
        <ele>630.94643428571</ele>
        <time>2018-09-12T15:20:13.000Z</time>
      </trkpt>
      <trkpt lat="44.34281" lon="2.60549">
        <ele>630.05357714286</ele>
        <time>2018-09-12T15:20:14.000Z</time>
      </trkpt>
      <trkpt lat="44.34278" lon="2.60552">
        <ele>630</ele>
        <time>2018-09-12T15:20:15.000Z</time>
      </trkpt>
      <trkpt lat="44.34276" lon="2.60555">
        <ele>630</ele>
        <time>2018-09-12T15:20:16.000Z</time>
      </trkpt>
      <trkpt lat="44.34274" lon="2.60558">
        <ele>630</ele>
        <time>2018-09-12T15:20:17.000Z</time>
      </trkpt>
      <trkpt lat="44.34271" lon="2.60561">
        <ele>630</ele>
        <time>2018-09-12T15:20:18.000Z</time>
      </trkpt>
      <trkpt lat="44.34268" lon="2.60565">
        <ele>630</ele>
        <time>2018-09-12T15:20:19.000Z</time>
      </trkpt>
      <trkpt lat="44.34266" lon="2.60568">
        <ele>629</ele>
        <time>2018-09-12T15:20:20.000Z</time>
      </trkpt>
      <trkpt lat="44.34264" lon="2.60571">
        <ele>629</ele>
        <time>2018-09-12T15:20:21.000Z</time>
      </trkpt>
      <trkpt lat="44.34261" lon="2.60574">
        <ele>629</ele>
        <time>2018-09-12T15:20:22.000Z</time>
      </trkpt>
      <trkpt lat="44.34259" lon="2.60577">
        <ele>629</ele>
        <time>2018-09-12T15:20:23.000Z</time>
      </trkpt>
      <trkpt lat="44.34257" lon="2.6058">
        <ele>629</ele>
        <time>2018-09-12T15:20:24.000Z</time>
      </trkpt>
      <trkpt lat="44.34254" lon="2.60583">
        <ele>628</ele>
        <time>2018-09-12T15:20:25.000Z</time>
      </trkpt>
      <trkpt lat="44.34252" lon="2.60586">
        <ele>628</ele>
        <time>2018-09-12T15:20:26.000Z</time>
      </trkpt>
      <trkpt lat="44.3425" lon="2.6059">
        <ele>628</ele>
        <time>2018-09-12T15:20:27.000Z</time>
      </trkpt>
      <trkpt lat="44.34248" lon="2.60593">
        <ele>627.95521931836</ele>
        <time>2018-09-12T15:20:28.000Z</time>
      </trkpt>
      <trkpt lat="44.34245" lon="2.60597">
        <ele>627.20895422589</ele>
        <time>2018-09-12T15:20:29.000Z</time>
      </trkpt>
      <trkpt lat="44.34243" lon="2.606">
        <ele>627</ele>
        <time>2018-09-12T15:20:30.000Z</time>
      </trkpt>
      <trkpt lat="44.34241" lon="2.60603">
        <ele>627</ele>
        <time>2018-09-12T15:20:31.000Z</time>
      </trkpt>
      <trkpt lat="44.34239" lon="2.60607">
        <ele>627</ele>
        <time>2018-09-12T15:20:32.000Z</time>
      </trkpt>
      <trkpt lat="44.34237" lon="2.6061">
        <ele>627</ele>
        <time>2018-09-12T15:20:33.000Z</time>
      </trkpt>
      <trkpt lat="44.34234" lon="2.60614">
        <ele>627</ele>
        <time>2018-09-12T15:20:34.000Z</time>
      </trkpt>
      <trkpt lat="44.34232" lon="2.60618">
        <ele>627</ele>
        <time>2018-09-12T15:20:35.000Z</time>
      </trkpt>
      <trkpt lat="44.34229" lon="2.60621">
        <ele>627</ele>
        <time>2018-09-12T15:20:36.000Z</time>
      </trkpt>
      <trkpt lat="44.34227" lon="2.60624">
        <ele>626.94000563207</ele>
        <time>2018-09-12T15:20:37.000Z</time>
      </trkpt>
      <trkpt lat="44.34224" lon="2.60628">
        <ele>626</ele>
        <time>2018-09-12T15:20:38.000Z</time>
      </trkpt>
      <trkpt lat="44.34222" lon="2.60631">
        <ele>626</ele>
        <time>2018-09-12T15:20:39.000Z</time>
      </trkpt>
      <trkpt lat="44.3422" lon="2.60634">
        <ele>626</ele>
        <time>2018-09-12T15:20:40.000Z</time>
      </trkpt>
      <trkpt lat="44.34218" lon="2.60637">
        <ele>626</ele>
        <time>2018-09-12T15:20:41.000Z</time>
      </trkpt>
      <trkpt lat="44.34216" lon="2.60641">
        <ele>626</ele>
        <time>2018-09-12T15:20:42.000Z</time>
      </trkpt>
      <trkpt lat="44.34214" lon="2.60644">
        <ele>626</ele>
        <time>2018-09-12T15:20:43.000Z</time>
      </trkpt>
      <trkpt lat="44.34213" lon="2.60648">
        <ele>626</ele>
        <time>2018-09-12T15:20:44.000Z</time>
      </trkpt>
      <trkpt lat="44.34211" lon="2.60652">
        <ele>625</ele>
        <time>2018-09-12T15:20:45.000Z</time>
      </trkpt>
      <trkpt lat="44.3421" lon="2.60656">
        <ele>625</ele>
        <time>2018-09-12T15:20:46.000Z</time>
      </trkpt>
      <trkpt lat="44.34209" lon="2.6066">
        <ele>625</ele>
        <time>2018-09-12T15:20:47.000Z</time>
      </trkpt>
      <trkpt lat="44.34208" lon="2.60664">
        <ele>625</ele>
        <time>2018-09-12T15:20:48.000Z</time>
      </trkpt>
      <trkpt lat="44.34207" lon="2.60668">
        <ele>625</ele>
        <time>2018-09-12T15:20:49.000Z</time>
      </trkpt>
      <trkpt lat="44.34207" lon="2.60673">
        <ele>625</ele>
        <time>2018-09-12T15:20:50.000Z</time>
      </trkpt>
      <trkpt lat="44.34207" lon="2.60678">
        <ele>625</ele>
        <time>2018-09-12T15:20:51.000Z</time>
      </trkpt>
      <trkpt lat="44.34206" lon="2.60682">
        <ele>625</ele>
        <time>2018-09-12T15:20:52.000Z</time>
      </trkpt>
      <trkpt lat="44.34206" lon="2.60687">
        <ele>624.94000563207</ele>
        <time>2018-09-12T15:20:53.000Z</time>
      </trkpt>
      <trkpt lat="44.34206" lon="2.60692">
        <ele>624</ele>
        <time>2018-09-12T15:20:54.000Z</time>
      </trkpt>
      <trkpt lat="44.34205" lon="2.60696">
        <ele>624</ele>
        <time>2018-09-12T15:20:55.000Z</time>
      </trkpt>
      <trkpt lat="44.34204" lon="2.60701">
        <ele>624</ele>
        <time>2018-09-12T15:20:56.000Z</time>
      </trkpt>
      <trkpt lat="44.34203" lon="2.60706">
        <ele>624</ele>
        <time>2018-09-12T15:20:57.000Z</time>
      </trkpt>
      <trkpt lat="44.34202" lon="2.6071">
        <ele>624</ele>
        <time>2018-09-12T15:20:58.000Z</time>
      </trkpt>
      <trkpt lat="44.342" lon="2.60714">
        <ele>624</ele>
        <time>2018-09-12T15:20:59.000Z</time>
      </trkpt>
      <trkpt lat="44.34199" lon="2.60718">
        <ele>624</ele>
        <time>2018-09-12T15:21:00.000Z</time>
      </trkpt>
      <trkpt lat="44.34197" lon="2.60722">
        <ele>624</ele>
        <time>2018-09-12T15:21:01.000Z</time>
      </trkpt>
      <trkpt lat="44.34196" lon="2.60726">
        <ele>624</ele>
        <time>2018-09-12T15:21:02.000Z</time>
      </trkpt>
      <trkpt lat="44.34195" lon="2.60729">
        <ele>624</ele>
        <time>2018-09-12T15:21:03.000Z</time>
      </trkpt>
      <trkpt lat="44.34193" lon="2.60732">
        <ele>624</ele>
        <time>2018-09-12T15:21:04.000Z</time>
      </trkpt>
      <trkpt lat="44.34191" lon="2.60736">
        <ele>624</ele>
        <time>2018-09-12T15:21:05.000Z</time>
      </trkpt>
      <trkpt lat="44.34189" lon="2.60739">
        <ele>624</ele>
        <time>2018-09-12T15:21:06.000Z</time>
      </trkpt>
      <trkpt lat="44.34187" lon="2.60742">
        <ele>624</ele>
        <time>2018-09-12T15:21:07.000Z</time>
      </trkpt>
      <trkpt lat="44.34186" lon="2.60745">
        <ele>623</ele>
        <time>2018-09-12T15:21:08.000Z</time>
      </trkpt>
      <trkpt lat="44.34184" lon="2.60749">
        <ele>623</ele>
        <time>2018-09-12T15:21:09.000Z</time>
      </trkpt>
      <trkpt lat="44.34183" lon="2.60752">
        <ele>623</ele>
        <time>2018-09-12T15:21:10.000Z</time>
      </trkpt>
      <trkpt lat="44.34182" lon="2.60755">
        <ele>623</ele>
        <time>2018-09-12T15:21:11.000Z</time>
      </trkpt>
      <trkpt lat="44.3418" lon="2.60759">
        <ele>623</ele>
        <time>2018-09-12T15:21:12.000Z</time>
      </trkpt>
      <trkpt lat="44.34179" lon="2.60762">
        <ele>623</ele>
        <time>2018-09-12T15:21:13.000Z</time>
      </trkpt>
      <trkpt lat="44.34176" lon="2.60767">
        <ele>623</ele>
        <time>2018-09-12T15:21:14.000Z</time>
      </trkpt>
      <trkpt lat="44.34174" lon="2.60771">
        <ele>623</ele>
        <time>2018-09-12T15:21:15.000Z</time>
      </trkpt>
      <trkpt lat="44.34169" lon="2.60778">
        <ele>622</ele>
        <time>2018-09-12T15:21:17.000Z</time>
      </trkpt>
      <trkpt lat="44.34167" lon="2.60782">
        <ele>622</ele>
        <time>2018-09-12T15:21:18.000Z</time>
      </trkpt>
      <trkpt lat="44.34165" lon="2.60785">
        <ele>622</ele>
        <time>2018-09-12T15:21:19.000Z</time>
      </trkpt>
      <trkpt lat="44.34163" lon="2.60789">
        <ele>622</ele>
        <time>2018-09-12T15:21:20.000Z</time>
      </trkpt>
      <trkpt lat="44.34161" lon="2.60792">
        <ele>622</ele>
        <time>2018-09-12T15:21:21.000Z</time>
      </trkpt>
      <trkpt lat="44.34158" lon="2.60795">
        <ele>621.16521971417</ele>
        <time>2018-09-12T15:21:22.000Z</time>
      </trkpt>
      <trkpt lat="44.34155" lon="2.60799">
        <ele>621</ele>
        <time>2018-09-12T15:21:23.000Z</time>
      </trkpt>
      <trkpt lat="44.34152" lon="2.60803">
        <ele>621</ele>
        <time>2018-09-12T15:21:24.000Z</time>
      </trkpt>
      <trkpt lat="44.3415" lon="2.60806">
        <ele>621</ele>
        <time>2018-09-12T15:21:25.000Z</time>
      </trkpt>
      <trkpt lat="44.34147" lon="2.60809">
        <ele>621</ele>
        <time>2018-09-12T15:21:26.000Z</time>
      </trkpt>
      <trkpt lat="44.34145" lon="2.60813">
        <ele>621</ele>
        <time>2018-09-12T15:21:27.000Z</time>
      </trkpt>
      <trkpt lat="44.34142" lon="2.60816">
        <ele>621</ele>
        <time>2018-09-12T15:21:28.000Z</time>
      </trkpt>
      <trkpt lat="44.34139" lon="2.6082">
        <ele>620</ele>
        <time>2018-09-12T15:21:29.000Z</time>
      </trkpt>
      <trkpt lat="44.34137" lon="2.60823">
        <ele>620</ele>
        <time>2018-09-12T15:21:30.000Z</time>
      </trkpt>
      <trkpt lat="44.34135" lon="2.60826">
        <ele>620</ele>
        <time>2018-09-12T15:21:31.000Z</time>
      </trkpt>
      <trkpt lat="44.34132" lon="2.60829">
        <ele>620</ele>
        <time>2018-09-12T15:21:32.000Z</time>
      </trkpt>
      <trkpt lat="44.3413" lon="2.60832">
        <ele>620</ele>
        <time>2018-09-12T15:21:33.000Z</time>
      </trkpt>
      <trkpt lat="44.34128" lon="2.60834">
        <ele>620</ele>
        <time>2018-09-12T15:21:34.000Z</time>
      </trkpt>
      <trkpt lat="44.34125" lon="2.60836">
        <ele>620</ele>
        <time>2018-09-12T15:21:35.000Z</time>
      </trkpt>
      <trkpt lat="44.34122" lon="2.60838">
        <ele>620</ele>
        <time>2018-09-12T15:21:36.000Z</time>
      </trkpt>
      <trkpt lat="44.34119" lon="2.6084">
        <ele>620</ele>
        <time>2018-09-12T15:21:37.000Z</time>
      </trkpt>
      <trkpt lat="44.34116" lon="2.60842">
        <ele>620</ele>
        <time>2018-09-12T15:21:38.000Z</time>
      </trkpt>
      <trkpt lat="44.34114" lon="2.60845">
        <ele>619.94595124426</ele>
        <time>2018-09-12T15:21:39.000Z</time>
      </trkpt>
      <trkpt lat="44.34111" lon="2.60847">
        <ele>619.04504255172</ele>
        <time>2018-09-12T15:21:40.000Z</time>
      </trkpt>
      <trkpt lat="44.34109" lon="2.6085">
        <ele>619</ele>
        <time>2018-09-12T15:21:41.000Z</time>
      </trkpt>
      <trkpt lat="44.34106" lon="2.60853">
        <ele>619</ele>
        <time>2018-09-12T15:21:42.000Z</time>
      </trkpt>
      <trkpt lat="44.34104" lon="2.60856">
        <ele>619</ele>
        <time>2018-09-12T15:21:43.000Z</time>
      </trkpt>
      <trkpt lat="44.34102" lon="2.60859">
        <ele>619</ele>
        <time>2018-09-12T15:21:44.000Z</time>
      </trkpt>
      <trkpt lat="44.341" lon="2.60861">
        <ele>619</ele>
        <time>2018-09-12T15:21:45.000Z</time>
      </trkpt>
      <trkpt lat="44.34097" lon="2.60864">
        <ele>619</ele>
        <time>2018-09-12T15:21:46.000Z</time>
      </trkpt>
      <trkpt lat="44.34095" lon="2.60866">
        <ele>618.98947694629</ele>
        <time>2018-09-12T15:21:47.000Z</time>
      </trkpt>
      <trkpt lat="44.34092" lon="2.60868">
        <ele>618</ele>
        <time>2018-09-12T15:21:48.000Z</time>
      </trkpt>
      <trkpt lat="44.3409" lon="2.60871">
        <ele>618</ele>
        <time>2018-09-12T15:21:49.000Z</time>
      </trkpt>
      <trkpt lat="44.34087" lon="2.60873">
        <ele>618</ele>
        <time>2018-09-12T15:21:50.000Z</time>
      </trkpt>
      <trkpt lat="44.34085" lon="2.60875">
        <ele>618</ele>
        <time>2018-09-12T15:21:51.000Z</time>
      </trkpt>
      <trkpt lat="44.34083" lon="2.60878">
        <ele>618</ele>
        <time>2018-09-12T15:21:52.000Z</time>
      </trkpt>
      <trkpt lat="44.3408" lon="2.6088">
        <ele>617.94643428571</ele>
        <time>2018-09-12T15:21:53.000Z</time>
      </trkpt>
      <trkpt lat="44.34078" lon="2.60882">
        <ele>617.05357714286</ele>
        <time>2018-09-12T15:21:54.000Z</time>
      </trkpt>
      <trkpt lat="44.34076" lon="2.60884">
        <ele>617</ele>
        <time>2018-09-12T15:21:55.000Z</time>
      </trkpt>
      <trkpt lat="44.34073" lon="2.60887">
        <ele>617</ele>
        <time>2018-09-12T15:21:56.000Z</time>
      </trkpt>
      <trkpt lat="44.34071" lon="2.60889">
        <ele>616.96906876394</ele>
        <time>2018-09-12T15:21:57.000Z</time>
      </trkpt>
      <trkpt lat="44.34068" lon="2.60892">
        <ele>616</ele>
        <time>2018-09-12T15:21:58.000Z</time>
      </trkpt>
      <trkpt lat="44.34066" lon="2.60894">
        <ele>616</ele>
        <time>2018-09-12T15:21:59.000Z</time>
      </trkpt>
      <trkpt lat="44.34063" lon="2.60897">
        <ele>616</ele>
        <time>2018-09-12T15:22:00.000Z</time>
      </trkpt>
      <trkpt lat="44.34061" lon="2.609">
        <ele>616</ele>
        <time>2018-09-12T15:22:01.000Z</time>
      </trkpt>
      <trkpt lat="44.34058" lon="2.60902">
        <ele>616</ele>
        <time>2018-09-12T15:22:02.000Z</time>
      </trkpt>
      <trkpt lat="44.34055" lon="2.60904">
        <ele>615.97656</ele>
        <time>2018-09-12T15:22:03.000Z</time>
      </trkpt>
      <trkpt lat="44.34052" lon="2.60907">
        <ele>615.19531</ele>
        <time>2018-09-12T15:22:04.000Z</time>
      </trkpt>
      <trkpt lat="44.34049" lon="2.6091">
        <ele>615</ele>
        <time>2018-09-12T15:22:05.000Z</time>
      </trkpt>
      <trkpt lat="44.34046" lon="2.60913">
        <ele>615</ele>
        <time>2018-09-12T15:22:06.000Z</time>
      </trkpt>
      <trkpt lat="44.34043" lon="2.60916">
        <ele>614.94000563207</ele>
        <time>2018-09-12T15:22:07.000Z</time>
      </trkpt>
      <trkpt lat="44.3404" lon="2.60919">
        <ele>614</ele>
        <time>2018-09-12T15:22:08.000Z</time>
      </trkpt>
      <trkpt lat="44.34038" lon="2.60921">
        <ele>614</ele>
        <time>2018-09-12T15:22:09.000Z</time>
      </trkpt>
      <trkpt lat="44.34035" lon="2.60924">
        <ele>614</ele>
        <time>2018-09-12T15:22:10.000Z</time>
      </trkpt>
      <trkpt lat="44.34033" lon="2.60926">
        <ele>614</ele>
        <time>2018-09-12T15:22:11.000Z</time>
      </trkpt>
      <trkpt lat="44.3403" lon="2.60928">
        <ele>614</ele>
        <time>2018-09-12T15:22:12.000Z</time>
      </trkpt>
      <trkpt lat="44.34027" lon="2.60931">
        <ele>614</ele>
        <time>2018-09-12T15:22:13.000Z</time>
      </trkpt>
      <trkpt lat="44.34024" lon="2.60933">
        <ele>614</ele>
        <time>2018-09-12T15:22:14.000Z</time>
      </trkpt>
      <trkpt lat="44.34021" lon="2.60935">
        <ele>614</ele>
        <time>2018-09-12T15:22:15.000Z</time>
      </trkpt>
      <trkpt lat="44.34019" lon="2.60937">
        <ele>614</ele>
        <time>2018-09-12T15:22:16.000Z</time>
      </trkpt>
      <trkpt lat="44.34016" lon="2.60938">
        <ele>613</ele>
        <time>2018-09-12T15:22:17.000Z</time>
      </trkpt>
      <trkpt lat="44.34013" lon="2.6094">
        <ele>613</ele>
        <time>2018-09-12T15:22:18.000Z</time>
      </trkpt>
      <trkpt lat="44.34011" lon="2.60942">
        <ele>613</ele>
        <time>2018-09-12T15:22:19.000Z</time>
      </trkpt>
      <trkpt lat="44.34008" lon="2.60944">
        <ele>613</ele>
        <time>2018-09-12T15:22:20.000Z</time>
      </trkpt>
      <trkpt lat="44.34006" lon="2.60946">
        <ele>613</ele>
        <time>2018-09-12T15:22:21.000Z</time>
      </trkpt>
      <trkpt lat="44.34003" lon="2.60948">
        <ele>613</ele>
        <time>2018-09-12T15:22:22.000Z</time>
      </trkpt>
      <trkpt lat="44.34" lon="2.6095">
        <ele>613</ele>
        <time>2018-09-12T15:22:23.000Z</time>
      </trkpt>
      <trkpt lat="44.33997" lon="2.60951">
        <ele>613</ele>
        <time>2018-09-12T15:22:24.000Z</time>
      </trkpt>
      <trkpt lat="44.33994" lon="2.60952">
        <ele>613</ele>
        <time>2018-09-12T15:22:25.000Z</time>
      </trkpt>
      <trkpt lat="44.33991" lon="2.60954">
        <ele>613</ele>
        <time>2018-09-12T15:22:26.000Z</time>
      </trkpt>
      <trkpt lat="44.33988" lon="2.60956">
        <ele>613</ele>
        <time>2018-09-12T15:22:27.000Z</time>
      </trkpt>
      <trkpt lat="44.33985" lon="2.60959">
        <ele>613</ele>
        <time>2018-09-12T15:22:28.000Z</time>
      </trkpt>
      <trkpt lat="44.33982" lon="2.60961">
        <ele>613</ele>
        <time>2018-09-12T15:22:29.000Z</time>
      </trkpt>
      <trkpt lat="44.33979" lon="2.60963">
        <ele>612.94058828748</ele>
        <time>2018-09-12T15:22:30.000Z</time>
      </trkpt>
      <trkpt lat="44.33976" lon="2.60965">
        <ele>612</ele>
        <time>2018-09-12T15:22:31.000Z</time>
      </trkpt>
      <trkpt lat="44.33974" lon="2.60968">
        <ele>612</ele>
        <time>2018-09-12T15:22:32.000Z</time>
      </trkpt>
      <trkpt lat="44.3397" lon="2.60971">
        <ele>612</ele>
        <time>2018-09-12T15:22:33.000Z</time>
      </trkpt>
      <trkpt lat="44.33967" lon="2.60973">
        <ele>612</ele>
        <time>2018-09-12T15:22:34.000Z</time>
      </trkpt>
      <trkpt lat="44.33964" lon="2.60975">
        <ele>612</ele>
        <time>2018-09-12T15:22:35.000Z</time>
      </trkpt>
      <trkpt lat="44.33961" lon="2.60976">
        <ele>612</ele>
        <time>2018-09-12T15:22:36.000Z</time>
      </trkpt>
      <trkpt lat="44.33958" lon="2.60978">
        <ele>612</ele>
        <time>2018-09-12T15:22:37.000Z</time>
      </trkpt>
      <trkpt lat="44.33955" lon="2.6098">
        <ele>612</ele>
        <time>2018-09-12T15:22:38.000Z</time>
      </trkpt>
      <trkpt lat="44.33952" lon="2.60982">
        <ele>612</ele>
        <time>2018-09-12T15:22:39.000Z</time>
      </trkpt>
      <trkpt lat="44.3395" lon="2.60984">
        <ele>611.93999436807</ele>
        <time>2018-09-12T15:22:40.000Z</time>
      </trkpt>
      <trkpt lat="44.33947" lon="2.60986">
        <ele>611</ele>
        <time>2018-09-12T15:22:41.000Z</time>
      </trkpt>
      <trkpt lat="44.33944" lon="2.60989">
        <ele>611</ele>
        <time>2018-09-12T15:22:42.000Z</time>
      </trkpt>
      <trkpt lat="44.33941" lon="2.60992">
        <ele>611</ele>
        <time>2018-09-12T15:22:43.000Z</time>
      </trkpt>
      <trkpt lat="44.33938" lon="2.60994">
        <ele>610.97917333333</ele>
        <time>2018-09-12T15:22:44.000Z</time>
      </trkpt>
      <trkpt lat="44.33935" lon="2.60996">
        <ele>610</ele>
        <time>2018-09-12T15:22:45.000Z</time>
      </trkpt>
      <trkpt lat="44.33932" lon="2.60998">
        <ele>610</ele>
        <time>2018-09-12T15:22:46.000Z</time>
      </trkpt>
      <trkpt lat="44.33929" lon="2.61">
        <ele>610</ele>
        <time>2018-09-12T15:22:47.000Z</time>
      </trkpt>
      <trkpt lat="44.33926" lon="2.61003">
        <ele>610</ele>
        <time>2018-09-12T15:22:48.000Z</time>
      </trkpt>
      <trkpt lat="44.33924" lon="2.61005">
        <ele>610</ele>
        <time>2018-09-12T15:22:49.000Z</time>
      </trkpt>
      <trkpt lat="44.33921" lon="2.61008">
        <ele>609.94594033603</ele>
        <time>2018-09-12T15:22:50.000Z</time>
      </trkpt>
      <trkpt lat="44.33918" lon="2.6101">
        <ele>609.04504203231</ele>
        <time>2018-09-12T15:22:51.000Z</time>
      </trkpt>
      <trkpt lat="44.33916" lon="2.61013">
        <ele>609</ele>
        <time>2018-09-12T15:22:52.000Z</time>
      </trkpt>
      <trkpt lat="44.33914" lon="2.61015">
        <ele>609</ele>
        <time>2018-09-12T15:22:53.000Z</time>
      </trkpt>
      <trkpt lat="44.33911" lon="2.61018">
        <ele>608.95918394002</ele>
        <time>2018-09-12T15:22:54.000Z</time>
      </trkpt>
      <trkpt lat="44.33908" lon="2.6102">
        <ele>608</ele>
        <time>2018-09-12T15:22:55.000Z</time>
      </trkpt>
      <trkpt lat="44.33906" lon="2.61024">
        <ele>608</ele>
        <time>2018-09-12T15:22:56.000Z</time>
      </trkpt>
      <trkpt lat="44.33903" lon="2.61027">
        <ele>608</ele>
        <time>2018-09-12T15:22:57.000Z</time>
      </trkpt>
      <trkpt lat="44.33901" lon="2.61029">
        <ele>607.94058828748</ele>
        <time>2018-09-12T15:22:58.000Z</time>
      </trkpt>
      <trkpt lat="44.33898" lon="2.61031">
        <ele>607</ele>
        <time>2018-09-12T15:22:59.000Z</time>
      </trkpt>
      <trkpt lat="44.33895" lon="2.61034">
        <ele>607</ele>
        <time>2018-09-12T15:23:00.000Z</time>
      </trkpt>
      <trkpt lat="44.33893" lon="2.61036">
        <ele>607</ele>
        <time>2018-09-12T15:23:01.000Z</time>
      </trkpt>
      <trkpt lat="44.3389" lon="2.61038">
        <ele>607</ele>
        <time>2018-09-12T15:23:02.000Z</time>
      </trkpt>
      <trkpt lat="44.33888" lon="2.6104">
        <ele>607</ele>
        <time>2018-09-12T15:23:03.000Z</time>
      </trkpt>
      <trkpt lat="44.33886" lon="2.61042">
        <ele>606.94230153846</ele>
        <time>2018-09-12T15:23:04.000Z</time>
      </trkpt>
      <trkpt lat="44.33883" lon="2.61044">
        <ele>606</ele>
        <time>2018-09-12T15:23:05.000Z</time>
      </trkpt>
      <trkpt lat="44.3388" lon="2.61047">
        <ele>606</ele>
        <time>2018-09-12T15:23:06.000Z</time>
      </trkpt>
      <trkpt lat="44.33878" lon="2.61049">
        <ele>606</ele>
        <time>2018-09-12T15:23:07.000Z</time>
      </trkpt>
      <trkpt lat="44.33875" lon="2.61051">
        <ele>605.93999436807</ele>
        <time>2018-09-12T15:23:08.000Z</time>
      </trkpt>
      <trkpt lat="44.33872" lon="2.61054">
        <ele>605</ele>
        <time>2018-09-12T15:23:09.000Z</time>
      </trkpt>
      <trkpt lat="44.3387" lon="2.61056">
        <ele>605</ele>
        <time>2018-09-12T15:23:10.000Z</time>
      </trkpt>
      <trkpt lat="44.33867" lon="2.61059">
        <ele>605</ele>
        <time>2018-09-12T15:23:11.000Z</time>
      </trkpt>
      <trkpt lat="44.33864" lon="2.61061">
        <ele>605</ele>
        <time>2018-09-12T15:23:12.000Z</time>
      </trkpt>
      <trkpt lat="44.33861" lon="2.61063">
        <ele>604.94000563207</ele>
        <time>2018-09-12T15:23:13.000Z</time>
      </trkpt>
      <trkpt lat="44.33859" lon="2.61066">
        <ele>604</ele>
        <time>2018-09-12T15:23:14.000Z</time>
      </trkpt>
      <trkpt lat="44.33856" lon="2.61068">
        <ele>604</ele>
        <time>2018-09-12T15:23:15.000Z</time>
      </trkpt>
      <trkpt lat="44.33854" lon="2.61071">
        <ele>604</ele>
        <time>2018-09-12T15:23:16.000Z</time>
      </trkpt>
      <trkpt lat="44.33851" lon="2.61074">
        <ele>604</ele>
        <time>2018-09-12T15:23:17.000Z</time>
      </trkpt>
      <trkpt lat="44.33849" lon="2.61077">
        <ele>603.95419369968</ele>
        <time>2018-09-12T15:23:18.000Z</time>
      </trkpt>
      <trkpt lat="44.33847" lon="2.61079">
        <ele>603.19083678574</ele>
        <time>2018-09-12T15:23:19.000Z</time>
      </trkpt>
      <trkpt lat="44.33844" lon="2.61082">
        <ele>603</ele>
        <time>2018-09-12T15:23:20.000Z</time>
      </trkpt>
      <trkpt lat="44.33842" lon="2.61085">
        <ele>603</ele>
        <time>2018-09-12T15:23:21.000Z</time>
      </trkpt>
      <trkpt lat="44.3384" lon="2.61087">
        <ele>603</ele>
        <time>2018-09-12T15:23:22.000Z</time>
      </trkpt>
      <trkpt lat="44.33837" lon="2.61089">
        <ele>603</ele>
        <time>2018-09-12T15:23:23.000Z</time>
      </trkpt>
      <trkpt lat="44.33835" lon="2.61092">
        <ele>603</ele>
        <time>2018-09-12T15:23:24.000Z</time>
      </trkpt>
      <trkpt lat="44.33833" lon="2.61095">
        <ele>602.9494976921</ele>
        <time>2018-09-12T15:23:25.000Z</time>
      </trkpt>
      <trkpt lat="44.33831" lon="2.61098">
        <ele>602</ele>
        <time>2018-09-12T15:23:26.000Z</time>
      </trkpt>
      <trkpt lat="44.33828" lon="2.611">
        <ele>602</ele>
        <time>2018-09-12T15:23:27.000Z</time>
      </trkpt>
      <trkpt lat="44.33826" lon="2.61103">
        <ele>602</ele>
        <time>2018-09-12T15:23:28.000Z</time>
      </trkpt>
      <trkpt lat="44.33823" lon="2.61105">
        <ele>602</ele>
        <time>2018-09-12T15:23:29.000Z</time>
      </trkpt>
      <trkpt lat="44.3382" lon="2.61108">
        <ele>601.93999436807</ele>
        <time>2018-09-12T15:23:30.000Z</time>
      </trkpt>
      <trkpt lat="44.33818" lon="2.6111">
        <ele>601</ele>
        <time>2018-09-12T15:23:31.000Z</time>
      </trkpt>
      <trkpt lat="44.33816" lon="2.61112">
        <ele>601</ele>
        <time>2018-09-12T15:23:32.000Z</time>
      </trkpt>
      <trkpt lat="44.33814" lon="2.61115">
        <ele>601</ele>
        <time>2018-09-12T15:23:33.000Z</time>
      </trkpt>
      <trkpt lat="44.33814" lon="2.61118">
        <ele>601</ele>
        <time>2018-09-12T15:23:34.000Z</time>
      </trkpt>
      <trkpt lat="44.33816" lon="2.6112">
        <ele>600.94595124426</ele>
        <time>2018-09-12T15:23:35.000Z</time>
      </trkpt>
      <trkpt lat="44.33818" lon="2.61121">
        <ele>600.04504255172</ele>
        <time>2018-09-12T15:23:36.000Z</time>
      </trkpt>
      <trkpt lat="44.3382" lon="2.61122">
        <ele>600</ele>
        <time>2018-09-12T15:23:37.000Z</time>
      </trkpt>
      <trkpt lat="44.33822" lon="2.61123">
        <ele>599.95555092018</ele>
        <time>2018-09-12T15:23:38.000Z</time>
      </trkpt>
      <trkpt lat="44.33824" lon="2.61124">
        <ele>599.21481193526</ele>
        <time>2018-09-12T15:23:39.000Z</time>
      </trkpt>
      <trkpt lat="44.33827" lon="2.61126">
        <ele>599</ele>
        <time>2018-09-12T15:23:40.000Z</time>
      </trkpt>
      <trkpt lat="44.33829" lon="2.61127">
        <ele>599</ele>
        <time>2018-09-12T15:23:41.000Z</time>
      </trkpt>
      <trkpt lat="44.33831" lon="2.61129">
        <ele>599</ele>
        <time>2018-09-12T15:23:42.000Z</time>
      </trkpt>
      <trkpt lat="44.33833" lon="2.61131">
        <ele>599</ele>
        <time>2018-09-12T15:23:43.000Z</time>
      </trkpt>
      <trkpt lat="44.33836" lon="2.61132">
        <ele>599</ele>
        <time>2018-09-12T15:23:44.000Z</time>
      </trkpt>
      <trkpt lat="44.33838" lon="2.61133">
        <ele>599</ele>
        <time>2018-09-12T15:23:45.000Z</time>
      </trkpt>
      <trkpt lat="44.3384" lon="2.61134">
        <ele>599</ele>
        <time>2018-09-12T15:23:46.000Z</time>
      </trkpt>
      <trkpt lat="44.33843" lon="2.61135">
        <ele>598.97916</ele>
        <time>2018-09-12T15:23:47.000Z</time>
      </trkpt>
      <trkpt lat="44.33846" lon="2.61136">
        <ele>598</ele>
        <time>2018-09-12T15:23:48.000Z</time>
      </trkpt>
      <trkpt lat="44.33848" lon="2.61138">
        <ele>598</ele>
        <time>2018-09-12T15:23:49.000Z</time>
      </trkpt>
      <trkpt lat="44.3385" lon="2.61139">
        <ele>598</ele>
        <time>2018-09-12T15:23:50.000Z</time>
      </trkpt>
      <trkpt lat="44.33852" lon="2.61141">
        <ele>598.05824675648</ele>
        <time>2018-09-12T15:23:51.000Z</time>
      </trkpt>
      <trkpt lat="44.33854" lon="2.61143">
        <ele>599</ele>
        <time>2018-09-12T15:23:52.000Z</time>
      </trkpt>
      <trkpt lat="44.33856" lon="2.61144">
        <ele>599</ele>
        <time>2018-09-12T15:23:53.000Z</time>
      </trkpt>
      <trkpt lat="44.33859" lon="2.61145">
        <ele>599</ele>
        <time>2018-09-12T15:23:54.000Z</time>
      </trkpt>
      <trkpt lat="44.33861" lon="2.61146">
        <ele>599</ele>
        <time>2018-09-12T15:23:55.000Z</time>
      </trkpt>
      <trkpt lat="44.33862" lon="2.61147">
        <ele>599</ele>
        <time>2018-09-12T15:23:56.000Z</time>
      </trkpt>
      <trkpt lat="44.33864" lon="2.61147">
        <ele>599</ele>
        <time>2018-09-12T15:23:57.000Z</time>
      </trkpt>
      <trkpt lat="44.33867" lon="2.61148">
        <ele>599</ele>
        <time>2018-09-12T15:23:58.000Z</time>
      </trkpt>
      <trkpt lat="44.33869" lon="2.61148">
        <ele>599</ele>
        <time>2018-09-12T15:23:59.000Z</time>
      </trkpt>
      <trkpt lat="44.33872" lon="2.61148">
        <ele>599</ele>
        <time>2018-09-12T15:24:00.000Z</time>
      </trkpt>
      <trkpt lat="44.33874" lon="2.61148">
        <ele>599</ele>
        <time>2018-09-12T15:24:01.000Z</time>
      </trkpt>
      <trkpt lat="44.33876" lon="2.61148">
        <ele>599</ele>
        <time>2018-09-12T15:24:02.000Z</time>
      </trkpt>
      <trkpt lat="44.33878" lon="2.61148">
        <ele>599.05999436793</ele>
        <time>2018-09-12T15:24:03.000Z</time>
      </trkpt>
      <trkpt lat="44.3388" lon="2.61148">
        <ele>600</ele>
        <time>2018-09-12T15:24:04.000Z</time>
      </trkpt>
      <trkpt lat="44.33882" lon="2.61148">
        <ele>600</ele>
        <time>2018-09-12T15:24:05.000Z</time>
      </trkpt>
      <trkpt lat="44.33884" lon="2.61148">
        <ele>600</ele>
        <time>2018-09-12T15:24:06.000Z</time>
      </trkpt>
      <trkpt lat="44.33886" lon="2.61148">
        <ele>600</ele>
        <time>2018-09-12T15:24:07.000Z</time>
      </trkpt>
      <trkpt lat="44.33888" lon="2.61148">
        <ele>600</ele>
        <time>2018-09-12T15:24:08.000Z</time>
      </trkpt>
      <trkpt lat="44.33891" lon="2.61148">
        <ele>600.05768615385</ele>
        <time>2018-09-12T15:24:09.000Z</time>
      </trkpt>
      <trkpt lat="44.33893" lon="2.61148">
        <ele>601</ele>
        <time>2018-09-12T15:24:10.000Z</time>
      </trkpt>
      <trkpt lat="44.33895" lon="2.61149">
        <ele>601</ele>
        <time>2018-09-12T15:24:11.000Z</time>
      </trkpt>
      <trkpt lat="44.33898" lon="2.61149">
        <ele>601</ele>
        <time>2018-09-12T15:24:12.000Z</time>
      </trkpt>
      <trkpt lat="44.33901" lon="2.61149">
        <ele>601</ele>
        <time>2018-09-12T15:24:13.000Z</time>
      </trkpt>
      <trkpt lat="44.33904" lon="2.61149">
        <ele>601</ele>
        <time>2018-09-12T15:24:14.000Z</time>
      </trkpt>
      <trkpt lat="44.33905" lon="2.6115">
        <ele>601</ele>
        <time>2018-09-12T15:24:15.000Z</time>
      </trkpt>
      <trkpt lat="44.33909" lon="2.6115">
        <ele>601</ele>
        <time>2018-09-12T15:24:17.000Z</time>
      </trkpt>
      <trkpt lat="44.33911" lon="2.6115">
        <ele>601.05357714286</ele>
        <time>2018-09-12T15:24:18.000Z</time>
      </trkpt>
      <trkpt lat="44.33913" lon="2.6115">
        <ele>601.94643428571</ele>
        <time>2018-09-12T15:24:19.000Z</time>
      </trkpt>
      <trkpt lat="44.33915" lon="2.6115">
        <ele>602</ele>
        <time>2018-09-12T15:24:20.000Z</time>
      </trkpt>
      <trkpt lat="44.33918" lon="2.6115">
        <ele>602</ele>
        <time>2018-09-12T15:24:21.000Z</time>
      </trkpt>
      <trkpt lat="44.3392" lon="2.6115">
        <ele>602</ele>
        <time>2018-09-12T15:24:22.000Z</time>
      </trkpt>
      <trkpt lat="44.33922" lon="2.6115">
        <ele>602</ele>
        <time>2018-09-12T15:24:23.000Z</time>
      </trkpt>
      <trkpt lat="44.33924" lon="2.6115">
        <ele>602</ele>
        <time>2018-09-12T15:24:24.000Z</time>
      </trkpt>
      <trkpt lat="44.33926" lon="2.6115">
        <ele>602</ele>
        <time>2018-09-12T15:24:25.000Z</time>
      </trkpt>
      <trkpt lat="44.3393" lon="2.6115">
        <ele>602</ele>
        <time>2018-09-12T15:24:27.000Z</time>
      </trkpt>
      <trkpt lat="44.33933" lon="2.6115">
        <ele>602</ele>
        <time>2018-09-12T15:24:29.000Z</time>
      </trkpt>
      <trkpt lat="44.33937" lon="2.61151">
        <ele>602</ele>
        <time>2018-09-12T15:24:31.000Z</time>
      </trkpt>
      <trkpt lat="44.3394" lon="2.61152">
        <ele>602</ele>
        <time>2018-09-12T15:24:32.000Z</time>
      </trkpt>
      <trkpt lat="44.33942" lon="2.61152">
        <ele>602</ele>
        <time>2018-09-12T15:24:33.000Z</time>
      </trkpt>
      <trkpt lat="44.33945" lon="2.61153">
        <ele>602.06000563193</ele>
        <time>2018-09-12T15:24:34.000Z</time>
      </trkpt>
      <trkpt lat="44.33947" lon="2.61154">
        <ele>603</ele>
        <time>2018-09-12T15:24:35.000Z</time>
      </trkpt>
      <trkpt lat="44.3395" lon="2.61154">
        <ele>603</ele>
        <time>2018-09-12T15:24:36.000Z</time>
      </trkpt>
      <trkpt lat="44.33953" lon="2.61154">
        <ele>603</ele>
        <time>2018-09-12T15:24:37.000Z</time>
      </trkpt>
      <trkpt lat="44.33956" lon="2.61155">
        <ele>603</ele>
        <time>2018-09-12T15:24:38.000Z</time>
      </trkpt>
      <trkpt lat="44.33959" lon="2.61156">
        <ele>603</ele>
        <time>2018-09-12T15:24:39.000Z</time>
      </trkpt>
      <trkpt lat="44.33962" lon="2.61156">
        <ele>603</ele>
        <time>2018-09-12T15:24:40.000Z</time>
      </trkpt>
      <trkpt lat="44.33964" lon="2.61155">
        <ele>603</ele>
        <time>2018-09-12T15:24:41.000Z</time>
      </trkpt>
      <trkpt lat="44.33966" lon="2.61156">
        <ele>603</ele>
        <time>2018-09-12T15:24:42.000Z</time>
      </trkpt>
      <trkpt lat="44.33968" lon="2.61156">
        <ele>603</ele>
        <time>2018-09-12T15:24:43.000Z</time>
      </trkpt>
      <trkpt lat="44.3397" lon="2.61156">
        <ele>603</ele>
        <time>2018-09-12T15:24:44.000Z</time>
      </trkpt>
      <trkpt lat="44.33973" lon="2.61155">
        <ele>603</ele>
        <time>2018-09-12T15:24:45.000Z</time>
      </trkpt>
      <trkpt lat="44.33975" lon="2.61155">
        <ele>603</ele>
        <time>2018-09-12T15:24:46.000Z</time>
      </trkpt>
      <trkpt lat="44.33977" lon="2.61155">
        <ele>603.05768615385</ele>
        <time>2018-09-12T15:24:47.000Z</time>
      </trkpt>
      <trkpt lat="44.33979" lon="2.61155">
        <ele>604</ele>
        <time>2018-09-12T15:24:48.000Z</time>
      </trkpt>
      <trkpt lat="44.33982" lon="2.61155">
        <ele>604</ele>
        <time>2018-09-12T15:24:49.000Z</time>
      </trkpt>
      <trkpt lat="44.33985" lon="2.61155">
        <ele>604</ele>
        <time>2018-09-12T15:24:50.000Z</time>
      </trkpt>
      <trkpt lat="44.33987" lon="2.61155">
        <ele>604</ele>
        <time>2018-09-12T15:24:51.000Z</time>
      </trkpt>
      <trkpt lat="44.3399" lon="2.61155">
        <ele>604</ele>
        <time>2018-09-12T15:24:52.000Z</time>
      </trkpt>
      <trkpt lat="44.33992" lon="2.61154">
        <ele>604</ele>
        <time>2018-09-12T15:24:53.000Z</time>
      </trkpt>
      <trkpt lat="44.33995" lon="2.61154">
        <ele>604.04196242358</ele>
        <time>2018-09-12T15:24:54.000Z</time>
      </trkpt>
      <trkpt lat="44.33998" lon="2.61154">
        <ele>604.74126155802</ele>
        <time>2018-09-12T15:24:55.000Z</time>
      </trkpt>
      <trkpt lat="44.34002" lon="2.61154">
        <ele>605</ele>
        <time>2018-09-12T15:24:56.000Z</time>
      </trkpt>
      <trkpt lat="44.34005" lon="2.61154">
        <ele>605</ele>
        <time>2018-09-12T15:24:57.000Z</time>
      </trkpt>
      <trkpt lat="44.34008" lon="2.61154">
        <ele>605</ele>
        <time>2018-09-12T15:24:58.000Z</time>
      </trkpt>
      <trkpt lat="44.34012" lon="2.61153">
        <ele>605.0422492045</ele>
        <time>2018-09-12T15:24:59.000Z</time>
      </trkpt>
      <trkpt lat="44.34014" lon="2.61153">
        <ele>605.7464777306</ele>
        <time>2018-09-12T15:25:00.000Z</time>
      </trkpt>
      <trkpt lat="44.34017" lon="2.61153">
        <ele>606</ele>
        <time>2018-09-12T15:25:01.000Z</time>
      </trkpt>
      <trkpt lat="44.34019" lon="2.61153">
        <ele>606</ele>
        <time>2018-09-12T15:25:02.000Z</time>
      </trkpt>
      <trkpt lat="44.34021" lon="2.61153">
        <ele>606</ele>
        <time>2018-09-12T15:25:03.000Z</time>
      </trkpt>
      <trkpt lat="44.34023" lon="2.61153">
        <ele>606.05505125826</ele>
        <time>2018-09-12T15:25:04.000Z</time>
      </trkpt>
      <trkpt lat="44.34026" lon="2.61153">
        <ele>606.97247437087</ele>
        <time>2018-09-12T15:25:05.000Z</time>
      </trkpt>
      <trkpt lat="44.34028" lon="2.61154">
        <ele>607</ele>
        <time>2018-09-12T15:25:06.000Z</time>
      </trkpt>
      <trkpt lat="44.3403" lon="2.61154">
        <ele>607</ele>
        <time>2018-09-12T15:25:07.000Z</time>
      </trkpt>
      <trkpt lat="44.34032" lon="2.61154">
        <ele>607</ele>
        <time>2018-09-12T15:25:08.000Z</time>
      </trkpt>
      <trkpt lat="44.34034" lon="2.61154">
        <ele>607</ele>
        <time>2018-09-12T15:25:09.000Z</time>
      </trkpt>
      <trkpt lat="44.34036" lon="2.61154">
        <ele>607</ele>
        <time>2018-09-12T15:25:10.000Z</time>
      </trkpt>
      <trkpt lat="44.34039" lon="2.61154">
        <ele>608</ele>
        <time>2018-09-12T15:25:11.000Z</time>
      </trkpt>
      <trkpt lat="44.34041" lon="2.61154">
        <ele>608</ele>
        <time>2018-09-12T15:25:12.000Z</time>
      </trkpt>
      <trkpt lat="44.34043" lon="2.61154">
        <ele>608</ele>
        <time>2018-09-12T15:25:13.000Z</time>
      </trkpt>
      <trkpt lat="44.34046" lon="2.61154">
        <ele>608</ele>
        <time>2018-09-12T15:25:14.000Z</time>
      </trkpt>
      <trkpt lat="44.34048" lon="2.61154">
        <ele>608</ele>
        <time>2018-09-12T15:25:15.000Z</time>
      </trkpt>
      <trkpt lat="44.34051" lon="2.61154">
        <ele>608.01052291192</ele>
        <time>2018-09-12T15:25:16.000Z</time>
      </trkpt>
      <trkpt lat="44.34054" lon="2.61154">
        <ele>609</ele>
        <time>2018-09-12T15:25:17.000Z</time>
      </trkpt>
      <trkpt lat="44.34057" lon="2.61154">
        <ele>609</ele>
        <time>2018-09-12T15:25:18.000Z</time>
      </trkpt>
      <trkpt lat="44.34059" lon="2.61154">
        <ele>609</ele>
        <time>2018-09-12T15:25:19.000Z</time>
      </trkpt>
      <trkpt lat="44.34062" lon="2.61154">
        <ele>609</ele>
        <time>2018-09-12T15:25:20.000Z</time>
      </trkpt>
      <trkpt lat="44.34065" lon="2.61154">
        <ele>609</ele>
        <time>2018-09-12T15:25:21.000Z</time>
      </trkpt>
      <trkpt lat="44.34068" lon="2.61154">
        <ele>610</ele>
        <time>2018-09-12T15:25:22.000Z</time>
      </trkpt>
      <trkpt lat="44.34071" lon="2.61154">
        <ele>610</ele>
        <time>2018-09-12T15:25:23.000Z</time>
      </trkpt>
      <trkpt lat="44.34074" lon="2.61154">
        <ele>610</ele>
        <time>2018-09-12T15:25:24.000Z</time>
      </trkpt>
      <trkpt lat="44.34076" lon="2.61155">
        <ele>610</ele>
        <time>2018-09-12T15:25:25.000Z</time>
      </trkpt>
      <trkpt lat="44.34079" lon="2.61155">
        <ele>610</ele>
        <time>2018-09-12T15:25:26.000Z</time>
      </trkpt>
      <trkpt lat="44.34082" lon="2.61155">
        <ele>610</ele>
        <time>2018-09-12T15:25:27.000Z</time>
      </trkpt>
      <trkpt lat="44.34085" lon="2.61154">
        <ele>610.06000563193</ele>
        <time>2018-09-12T15:25:28.000Z</time>
      </trkpt>
      <trkpt lat="44.34088" lon="2.61155">
        <ele>611</ele>
        <time>2018-09-12T15:25:29.000Z</time>
      </trkpt>
      <trkpt lat="44.34091" lon="2.61155">
        <ele>611</ele>
        <time>2018-09-12T15:25:30.000Z</time>
      </trkpt>
      <trkpt lat="44.34093" lon="2.61155">
        <ele>611</ele>
        <time>2018-09-12T15:25:31.000Z</time>
      </trkpt>
      <trkpt lat="44.34095" lon="2.61155">
        <ele>611</ele>
        <time>2018-09-12T15:25:32.000Z</time>
      </trkpt>
      <trkpt lat="44.34097" lon="2.61154">
        <ele>611</ele>
        <time>2018-09-12T15:25:33.000Z</time>
      </trkpt>
      <trkpt lat="44.341" lon="2.61154">
        <ele>611</ele>
        <time>2018-09-12T15:25:34.000Z</time>
      </trkpt>
      <trkpt lat="44.34102" lon="2.61154">
        <ele>611</ele>
        <time>2018-09-12T15:25:35.000Z</time>
      </trkpt>
      <trkpt lat="44.34105" lon="2.61154">
        <ele>611.05455095534</ele>
        <time>2018-09-12T15:25:36.000Z</time>
      </trkpt>
      <trkpt lat="44.34108" lon="2.61154">
        <ele>611.9636365752</ele>
        <time>2018-09-12T15:25:37.000Z</time>
      </trkpt>
      <trkpt lat="44.34111" lon="2.61154">
        <ele>612</ele>
        <time>2018-09-12T15:25:38.000Z</time>
      </trkpt>
      <trkpt lat="44.34112" lon="2.61154">
        <ele>612</ele>
        <time>2018-09-12T15:25:39.000Z</time>
      </trkpt>
      <trkpt lat="44.34115" lon="2.61154">
        <ele>612</ele>
        <time>2018-09-12T15:25:40.000Z</time>
      </trkpt>
      <trkpt lat="44.34118" lon="2.61153">
        <ele>612.0560692881</ele>
        <time>2018-09-12T15:25:41.000Z</time>
      </trkpt>
      <trkpt lat="44.34121" lon="2.61152">
        <ele>612.99065711244</ele>
        <time>2018-09-12T15:25:42.000Z</time>
      </trkpt>
      <trkpt lat="44.34124" lon="2.61151">
        <ele>613</ele>
        <time>2018-09-12T15:25:43.000Z</time>
      </trkpt>
      <trkpt lat="44.34127" lon="2.61151">
        <ele>613</ele>
        <time>2018-09-12T15:25:44.000Z</time>
      </trkpt>
      <trkpt lat="44.3413" lon="2.6115">
        <ele>613</ele>
        <time>2018-09-12T15:25:45.000Z</time>
      </trkpt>
      <trkpt lat="44.34133" lon="2.6115">
        <ele>613</ele>
        <time>2018-09-12T15:25:46.000Z</time>
      </trkpt>
      <trkpt lat="44.34136" lon="2.61149">
        <ele>613.05262626036</ele>
        <time>2018-09-12T15:25:47.000Z</time>
      </trkpt>
      <trkpt lat="44.34138" lon="2.61148">
        <ele>613.92982416743</ele>
        <time>2018-09-12T15:25:48.000Z</time>
      </trkpt>
      <trkpt lat="44.34141" lon="2.61147">
        <ele>614</ele>
        <time>2018-09-12T15:25:49.000Z</time>
      </trkpt>
      <trkpt lat="44.34144" lon="2.61146">
        <ele>614</ele>
        <time>2018-09-12T15:25:50.000Z</time>
      </trkpt>
      <trkpt lat="44.34147" lon="2.61144">
        <ele>614</ele>
        <time>2018-09-12T15:25:51.000Z</time>
      </trkpt>
      <trkpt lat="44.3415" lon="2.61143">
        <ele>614</ele>
        <time>2018-09-12T15:25:52.000Z</time>
      </trkpt>
      <trkpt lat="44.34152" lon="2.61141">
        <ele>615</ele>
        <time>2018-09-12T15:25:53.000Z</time>
      </trkpt>
      <trkpt lat="44.34155" lon="2.61139">
        <ele>615</ele>
        <time>2018-09-12T15:25:54.000Z</time>
      </trkpt>
      <trkpt lat="44.34158" lon="2.61138">
        <ele>615</ele>
        <time>2018-09-12T15:25:55.000Z</time>
      </trkpt>
      <trkpt lat="44.34161" lon="2.61136">
        <ele>615</ele>
        <time>2018-09-12T15:25:56.000Z</time>
      </trkpt>
      <trkpt lat="44.34163" lon="2.61134">
        <ele>615</ele>
        <time>2018-09-12T15:25:57.000Z</time>
      </trkpt>
      <trkpt lat="44.34165" lon="2.61132">
        <ele>615</ele>
        <time>2018-09-12T15:25:58.000Z</time>
      </trkpt>
      <trkpt lat="44.34168" lon="2.61131">
        <ele>615</ele>
        <time>2018-09-12T15:25:59.000Z</time>
      </trkpt>
      <trkpt lat="44.34171" lon="2.61129">
        <ele>615</ele>
        <time>2018-09-12T15:26:00.000Z</time>
      </trkpt>
      <trkpt lat="44.34175" lon="2.61127">
        <ele>615</ele>
        <time>2018-09-12T15:26:01.000Z</time>
      </trkpt>
      <trkpt lat="44.34177" lon="2.61125">
        <ele>616</ele>
        <time>2018-09-12T15:26:02.000Z</time>
      </trkpt>
      <trkpt lat="44.34181" lon="2.61123">
        <ele>616</ele>
        <time>2018-09-12T15:26:03.000Z</time>
      </trkpt>
      <trkpt lat="44.34184" lon="2.61121">
        <ele>616</ele>
        <time>2018-09-12T15:26:04.000Z</time>
      </trkpt>
      <trkpt lat="44.34186" lon="2.61119">
        <ele>616</ele>
        <time>2018-09-12T15:26:05.000Z</time>
      </trkpt>
      <trkpt lat="44.34188" lon="2.61117">
        <ele>616</ele>
        <time>2018-09-12T15:26:06.000Z</time>
      </trkpt>
      <trkpt lat="44.3419" lon="2.61116">
        <ele>616</ele>
        <time>2018-09-12T15:26:07.000Z</time>
      </trkpt>
      <trkpt lat="44.34193" lon="2.61115">
        <ele>616</ele>
        <time>2018-09-12T15:26:08.000Z</time>
      </trkpt>
      <trkpt lat="44.34196" lon="2.61113">
        <ele>616.0505023079</ele>
        <time>2018-09-12T15:26:09.000Z</time>
      </trkpt>
      <trkpt lat="44.34198" lon="2.61111">
        <ele>617</ele>
        <time>2018-09-12T15:26:10.000Z</time>
      </trkpt>
      <trkpt lat="44.342" lon="2.6111">
        <ele>617</ele>
        <time>2018-09-12T15:26:11.000Z</time>
      </trkpt>
      <trkpt lat="44.34203" lon="2.61109">
        <ele>617</ele>
        <time>2018-09-12T15:26:12.000Z</time>
      </trkpt>
      <trkpt lat="44.34205" lon="2.61107">
        <ele>617</ele>
        <time>2018-09-12T15:26:13.000Z</time>
      </trkpt>
      <trkpt lat="44.34208" lon="2.61105">
        <ele>617</ele>
        <time>2018-09-12T15:26:14.000Z</time>
      </trkpt>
      <trkpt lat="44.3421" lon="2.61102">
        <ele>617</ele>
        <time>2018-09-12T15:26:15.000Z</time>
      </trkpt>
      <trkpt lat="44.34213" lon="2.611">
        <ele>617</ele>
        <time>2018-09-12T15:26:16.000Z</time>
      </trkpt>
      <trkpt lat="44.34216" lon="2.61099">
        <ele>618</ele>
        <time>2018-09-12T15:26:17.000Z</time>
      </trkpt>
      <trkpt lat="44.34218" lon="2.61097">
        <ele>618</ele>
        <time>2018-09-12T15:26:18.000Z</time>
      </trkpt>
      <trkpt lat="44.34221" lon="2.61095">
        <ele>618</ele>
        <time>2018-09-12T15:26:19.000Z</time>
      </trkpt>
      <trkpt lat="44.34224" lon="2.61092">
        <ele>618</ele>
        <time>2018-09-12T15:26:20.000Z</time>
      </trkpt>
      <trkpt lat="44.34226" lon="2.6109">
        <ele>618</ele>
        <time>2018-09-12T15:26:21.000Z</time>
      </trkpt>
      <trkpt lat="44.34229" lon="2.61089">
        <ele>618</ele>
        <time>2018-09-12T15:26:22.000Z</time>
      </trkpt>
      <trkpt lat="44.34231" lon="2.61087">
        <ele>618</ele>
        <time>2018-09-12T15:26:23.000Z</time>
      </trkpt>
      <trkpt lat="44.34233" lon="2.61085">
        <ele>618.06000563193</ele>
        <time>2018-09-12T15:26:24.000Z</time>
      </trkpt>
      <trkpt lat="44.34236" lon="2.61083">
        <ele>619</ele>
        <time>2018-09-12T15:26:25.000Z</time>
      </trkpt>
      <trkpt lat="44.34238" lon="2.61081">
        <ele>619</ele>
        <time>2018-09-12T15:26:26.000Z</time>
      </trkpt>
      <trkpt lat="44.34241" lon="2.61079">
        <ele>619</ele>
        <time>2018-09-12T15:26:27.000Z</time>
      </trkpt>
      <trkpt lat="44.34244" lon="2.61077">
        <ele>619</ele>
        <time>2018-09-12T15:26:28.000Z</time>
      </trkpt>
      <trkpt lat="44.34246" lon="2.61075">
        <ele>619</ele>
        <time>2018-09-12T15:26:29.000Z</time>
      </trkpt>
      <trkpt lat="44.34249" lon="2.61073">
        <ele>619</ele>
        <time>2018-09-12T15:26:30.000Z</time>
      </trkpt>
      <trkpt lat="44.34251" lon="2.61071">
        <ele>619</ele>
        <time>2018-09-12T15:26:31.000Z</time>
      </trkpt>
      <trkpt lat="44.34253" lon="2.61069">
        <ele>619</ele>
        <time>2018-09-12T15:26:32.000Z</time>
      </trkpt>
      <trkpt lat="44.34259" lon="2.61065">
        <ele>620</ele>
        <time>2018-09-12T15:26:34.000Z</time>
      </trkpt>
      <trkpt lat="44.34262" lon="2.61063">
        <ele>620</ele>
        <time>2018-09-12T15:26:35.000Z</time>
      </trkpt>
      <trkpt lat="44.34265" lon="2.61061">
        <ele>620</ele>
        <time>2018-09-12T15:26:36.000Z</time>
      </trkpt>
      <trkpt lat="44.34268" lon="2.61059">
        <ele>620</ele>
        <time>2018-09-12T15:26:37.000Z</time>
      </trkpt>
      <trkpt lat="44.3427" lon="2.61058">
        <ele>620</ele>
        <time>2018-09-12T15:26:38.000Z</time>
      </trkpt>
      <trkpt lat="44.34272" lon="2.61057">
        <ele>620</ele>
        <time>2018-09-12T15:26:39.000Z</time>
      </trkpt>
      <trkpt lat="44.34274" lon="2.61055">
        <ele>620</ele>
        <time>2018-09-12T15:26:40.000Z</time>
      </trkpt>
      <trkpt lat="44.34276" lon="2.61054">
        <ele>620</ele>
        <time>2018-09-12T15:26:41.000Z</time>
      </trkpt>
      <trkpt lat="44.34281" lon="2.61052">
        <ele>620</ele>
        <time>2018-09-12T15:26:43.000Z</time>
      </trkpt>
      <trkpt lat="44.34283" lon="2.61049">
        <ele>620</ele>
        <time>2018-09-12T15:26:44.000Z</time>
      </trkpt>
      <trkpt lat="44.34286" lon="2.61048">
        <ele>620</ele>
        <time>2018-09-12T15:26:45.000Z</time>
      </trkpt>
      <trkpt lat="44.34288" lon="2.61046">
        <ele>621</ele>
        <time>2018-09-12T15:26:46.000Z</time>
      </trkpt>
      <trkpt lat="44.34291" lon="2.61045">
        <ele>621</ele>
        <time>2018-09-12T15:26:47.000Z</time>
      </trkpt>
      <trkpt lat="44.34293" lon="2.61043">
        <ele>621</ele>
        <time>2018-09-12T15:26:48.000Z</time>
      </trkpt>
      <trkpt lat="44.34295" lon="2.61041">
        <ele>621</ele>
        <time>2018-09-12T15:26:49.000Z</time>
      </trkpt>
      <trkpt lat="44.34298" lon="2.61038">
        <ele>621</ele>
        <time>2018-09-12T15:26:50.000Z</time>
      </trkpt>
      <trkpt lat="44.343" lon="2.61036">
        <ele>621.05999436793</ele>
        <time>2018-09-12T15:26:51.000Z</time>
      </trkpt>
      <trkpt lat="44.34302" lon="2.61034">
        <ele>622</ele>
        <time>2018-09-12T15:26:52.000Z</time>
      </trkpt>
      <trkpt lat="44.34305" lon="2.61032">
        <ele>622</ele>
        <time>2018-09-12T15:26:53.000Z</time>
      </trkpt>
      <trkpt lat="44.34308" lon="2.61031">
        <ele>622</ele>
        <time>2018-09-12T15:26:54.000Z</time>
      </trkpt>
      <trkpt lat="44.34311" lon="2.61029">
        <ele>622</ele>
        <time>2018-09-12T15:26:55.000Z</time>
      </trkpt>
      <trkpt lat="44.34313" lon="2.61027">
        <ele>622.06000563193</ele>
        <time>2018-09-12T15:26:56.000Z</time>
      </trkpt>
      <trkpt lat="44.34316" lon="2.61025">
        <ele>623</ele>
        <time>2018-09-12T15:26:57.000Z</time>
      </trkpt>
      <trkpt lat="44.34318" lon="2.61023">
        <ele>623</ele>
        <time>2018-09-12T15:26:58.000Z</time>
      </trkpt>
      <trkpt lat="44.3432" lon="2.61021">
        <ele>623</ele>
        <time>2018-09-12T15:26:59.000Z</time>
      </trkpt>
      <trkpt lat="44.34323" lon="2.6102">
        <ele>623</ele>
        <time>2018-09-12T15:27:00.000Z</time>
      </trkpt>
      <trkpt lat="44.34325" lon="2.61018">
        <ele>624</ele>
        <time>2018-09-12T15:27:01.000Z</time>
      </trkpt>
      <trkpt lat="44.34328" lon="2.61016">
        <ele>624</ele>
        <time>2018-09-12T15:27:02.000Z</time>
      </trkpt>
      <trkpt lat="44.34331" lon="2.61014">
        <ele>624</ele>
        <time>2018-09-12T15:27:03.000Z</time>
      </trkpt>
      <trkpt lat="44.34334" lon="2.61013">
        <ele>624</ele>
        <time>2018-09-12T15:27:04.000Z</time>
      </trkpt>
      <trkpt lat="44.34337" lon="2.61011">
        <ele>624</ele>
        <time>2018-09-12T15:27:05.000Z</time>
      </trkpt>
      <trkpt lat="44.34341" lon="2.61009">
        <ele>624</ele>
        <time>2018-09-12T15:27:06.000Z</time>
      </trkpt>
      <trkpt lat="44.34343" lon="2.61007">
        <ele>624.04411294118</ele>
        <time>2018-09-12T15:27:07.000Z</time>
      </trkpt>
      <trkpt lat="44.34346" lon="2.61006">
        <ele>624.77940705882</ele>
        <time>2018-09-12T15:27:08.000Z</time>
      </trkpt>
      <trkpt lat="44.34348" lon="2.61005">
        <ele>625</ele>
        <time>2018-09-12T15:27:09.000Z</time>
      </trkpt>
      <trkpt lat="44.3435" lon="2.61004">
        <ele>625</ele>
        <time>2018-09-12T15:27:10.000Z</time>
      </trkpt>
      <trkpt lat="44.34353" lon="2.61003">
        <ele>625</ele>
        <time>2018-09-12T15:27:11.000Z</time>
      </trkpt>
      <trkpt lat="44.34355" lon="2.61001">
        <ele>625</ele>
        <time>2018-09-12T15:27:12.000Z</time>
      </trkpt>
      <trkpt lat="44.34358" lon="2.60999">
        <ele>625.05999436793</ele>
        <time>2018-09-12T15:27:13.000Z</time>
      </trkpt>
      <trkpt lat="44.34362" lon="2.60999">
        <ele>626</ele>
        <time>2018-09-12T15:27:14.000Z</time>
      </trkpt>
      <trkpt lat="44.34365" lon="2.60999">
        <ele>626</ele>
        <time>2018-09-12T15:27:15.000Z</time>
      </trkpt>
      <trkpt lat="44.34368" lon="2.60998">
        <ele>626</ele>
        <time>2018-09-12T15:27:16.000Z</time>
      </trkpt>
      <trkpt lat="44.3437" lon="2.60996">
        <ele>626</ele>
        <time>2018-09-12T15:27:17.000Z</time>
      </trkpt>
      <trkpt lat="44.34374" lon="2.60994">
        <ele>626.0588294348</ele>
        <time>2018-09-12T15:27:18.000Z</time>
      </trkpt>
      <trkpt lat="44.34377" lon="2.60993">
        <ele>627</ele>
        <time>2018-09-12T15:27:19.000Z</time>
      </trkpt>
      <trkpt lat="44.3438" lon="2.60991">
        <ele>627</ele>
        <time>2018-09-12T15:27:20.000Z</time>
      </trkpt>
      <trkpt lat="44.34382" lon="2.60989">
        <ele>627</ele>
        <time>2018-09-12T15:27:21.000Z</time>
      </trkpt>
      <trkpt lat="44.34385" lon="2.60987">
        <ele>627</ele>
        <time>2018-09-12T15:27:22.000Z</time>
      </trkpt>
      <trkpt lat="44.34388" lon="2.60986">
        <ele>627</ele>
        <time>2018-09-12T15:27:23.000Z</time>
      </trkpt>
      <trkpt lat="44.34391" lon="2.60984">
        <ele>628</ele>
        <time>2018-09-12T15:27:24.000Z</time>
      </trkpt>
      <trkpt lat="44.34394" lon="2.60983">
        <ele>628</ele>
        <time>2018-09-12T15:27:25.000Z</time>
      </trkpt>
      <trkpt lat="44.34397" lon="2.60981">
        <ele>628</ele>
        <time>2018-09-12T15:27:26.000Z</time>
      </trkpt>
      <trkpt lat="44.344" lon="2.60979">
        <ele>628</ele>
        <time>2018-09-12T15:27:27.000Z</time>
      </trkpt>
      <trkpt lat="44.34403" lon="2.60979">
        <ele>628</ele>
        <time>2018-09-12T15:27:28.000Z</time>
      </trkpt>
      <trkpt lat="44.34406" lon="2.60978">
        <ele>628</ele>
        <time>2018-09-12T15:27:29.000Z</time>
      </trkpt>
      <trkpt lat="44.34408" lon="2.60976">
        <ele>628</ele>
        <time>2018-09-12T15:27:30.000Z</time>
      </trkpt>
      <trkpt lat="44.34411" lon="2.60975">
        <ele>628</ele>
        <time>2018-09-12T15:27:31.000Z</time>
      </trkpt>
      <trkpt lat="44.34413" lon="2.60974">
        <ele>628</ele>
        <time>2018-09-12T15:27:32.000Z</time>
      </trkpt>
      <trkpt lat="44.34416" lon="2.60972">
        <ele>628</ele>
        <time>2018-09-12T15:27:33.000Z</time>
      </trkpt>
      <trkpt lat="44.34419" lon="2.60971">
        <ele>628.06000563193</ele>
        <time>2018-09-12T15:27:34.000Z</time>
      </trkpt>
      <trkpt lat="44.34422" lon="2.60969">
        <ele>629</ele>
        <time>2018-09-12T15:27:35.000Z</time>
      </trkpt>
      <trkpt lat="44.34425" lon="2.60968">
        <ele>629</ele>
        <time>2018-09-12T15:27:36.000Z</time>
      </trkpt>
      <trkpt lat="44.34427" lon="2.60966">
        <ele>629</ele>
        <time>2018-09-12T15:27:37.000Z</time>
      </trkpt>
      <trkpt lat="44.34428" lon="2.60962">
        <ele>629</ele>
        <time>2018-09-12T15:27:38.000Z</time>
      </trkpt>
      <trkpt lat="44.34429" lon="2.60959">
        <ele>629</ele>
        <time>2018-09-12T15:27:39.000Z</time>
      </trkpt>
      <trkpt lat="44.3443" lon="2.60955">
        <ele>629</ele>
        <time>2018-09-12T15:27:40.000Z</time>
      </trkpt>
      <trkpt lat="44.34431" lon="2.60952">
        <ele>629</ele>
        <time>2018-09-12T15:27:41.000Z</time>
      </trkpt>
      <trkpt lat="44.34432" lon="2.60948">
        <ele>629</ele>
        <time>2018-09-12T15:27:42.000Z</time>
      </trkpt>
      <trkpt lat="44.34433" lon="2.60945">
        <ele>629</ele>
        <time>2018-09-12T15:27:43.000Z</time>
      </trkpt>
      <trkpt lat="44.34433" lon="2.60941">
        <ele>629</ele>
        <time>2018-09-12T15:27:44.000Z</time>
      </trkpt>
      <trkpt lat="44.34434" lon="2.60937">
        <ele>629</ele>
        <time>2018-09-12T15:27:45.000Z</time>
      </trkpt>
      <trkpt lat="44.34434" lon="2.60934">
        <ele>629</ele>
        <time>2018-09-12T15:27:46.000Z</time>
      </trkpt>
      <trkpt lat="44.34435" lon="2.6093">
        <ele>629</ele>
        <time>2018-09-12T15:27:47.000Z</time>
      </trkpt>
      <trkpt lat="44.34436" lon="2.60926">
        <ele>629</ele>
        <time>2018-09-12T15:27:48.000Z</time>
      </trkpt>
      <trkpt lat="44.34437" lon="2.60922">
        <ele>629</ele>
        <time>2018-09-12T15:27:49.000Z</time>
      </trkpt>
      <trkpt lat="44.34438" lon="2.60918">
        <ele>629</ele>
        <time>2018-09-12T15:27:50.000Z</time>
      </trkpt>
      <trkpt lat="44.34439" lon="2.60914">
        <ele>630</ele>
        <time>2018-09-12T15:27:51.000Z</time>
      </trkpt>
      <trkpt lat="44.34439" lon="2.60909">
        <ele>630</ele>
        <time>2018-09-12T15:27:52.000Z</time>
      </trkpt>
      <trkpt lat="44.34441" lon="2.60905">
        <ele>630</ele>
        <time>2018-09-12T15:27:53.000Z</time>
      </trkpt>
      <trkpt lat="44.34442" lon="2.60901">
        <ele>630</ele>
        <time>2018-09-12T15:27:54.000Z</time>
      </trkpt>
      <trkpt lat="44.34444" lon="2.60897">
        <ele>630</ele>
        <time>2018-09-12T15:27:55.000Z</time>
      </trkpt>
      <trkpt lat="44.34445" lon="2.60892">
        <ele>630</ele>
        <time>2018-09-12T15:27:56.000Z</time>
      </trkpt>
      <trkpt lat="44.34446" lon="2.60888">
        <ele>630</ele>
        <time>2018-09-12T15:27:57.000Z</time>
      </trkpt>
      <trkpt lat="44.34447" lon="2.60883">
        <ele>630</ele>
        <time>2018-09-12T15:27:58.000Z</time>
      </trkpt>
      <trkpt lat="44.34448" lon="2.60879">
        <ele>630</ele>
        <time>2018-09-12T15:27:59.000Z</time>
      </trkpt>
      <trkpt lat="44.34449" lon="2.60875">
        <ele>630</ele>
        <time>2018-09-12T15:28:00.000Z</time>
      </trkpt>
      <trkpt lat="44.3445" lon="2.60871">
        <ele>630</ele>
        <time>2018-09-12T15:28:01.000Z</time>
      </trkpt>
      <trkpt lat="44.3445" lon="2.60867">
        <ele>630.05608057995</ele>
        <time>2018-09-12T15:28:02.000Z</time>
      </trkpt>
      <trkpt lat="44.34451" lon="2.60863">
        <ele>630.9906572242</ele>
        <time>2018-09-12T15:28:03.000Z</time>
      </trkpt>
      <trkpt lat="44.34452" lon="2.60859">
        <ele>631</ele>
        <time>2018-09-12T15:28:04.000Z</time>
      </trkpt>
      <trkpt lat="44.34453" lon="2.60855">
        <ele>631</ele>
        <time>2018-09-12T15:28:05.000Z</time>
      </trkpt>
      <trkpt lat="44.34455" lon="2.6085">
        <ele>631</ele>
        <time>2018-09-12T15:28:06.000Z</time>
      </trkpt>
      <trkpt lat="44.34456" lon="2.60846">
        <ele>631</ele>
        <time>2018-09-12T15:28:07.000Z</time>
      </trkpt>
      <trkpt lat="44.34457" lon="2.60842">
        <ele>631</ele>
        <time>2018-09-12T15:28:08.000Z</time>
      </trkpt>
      <trkpt lat="44.34457" lon="2.60838">
        <ele>631</ele>
        <time>2018-09-12T15:28:09.000Z</time>
      </trkpt>
      <trkpt lat="44.34458" lon="2.60833">
        <ele>632</ele>
        <time>2018-09-12T15:28:10.000Z</time>
      </trkpt>
      <trkpt lat="44.3446" lon="2.60829">
        <ele>632</ele>
        <time>2018-09-12T15:28:11.000Z</time>
      </trkpt>
      <trkpt lat="44.34461" lon="2.60825">
        <ele>632</ele>
        <time>2018-09-12T15:28:12.000Z</time>
      </trkpt>
      <trkpt lat="44.34463" lon="2.60821">
        <ele>632</ele>
        <time>2018-09-12T15:28:13.000Z</time>
      </trkpt>
      <trkpt lat="44.34464" lon="2.60817">
        <ele>632</ele>
        <time>2018-09-12T15:28:14.000Z</time>
      </trkpt>
      <trkpt lat="44.34465" lon="2.60813">
        <ele>632.05999436793</ele>
        <time>2018-09-12T15:28:15.000Z</time>
      </trkpt>
      <trkpt lat="44.34467" lon="2.60809">
        <ele>633</ele>
        <time>2018-09-12T15:28:16.000Z</time>
      </trkpt>
      <trkpt lat="44.34468" lon="2.60805">
        <ele>633</ele>
        <time>2018-09-12T15:28:17.000Z</time>
      </trkpt>
      <trkpt lat="44.34469" lon="2.60802">
        <ele>633</ele>
        <time>2018-09-12T15:28:18.000Z</time>
      </trkpt>
      <trkpt lat="44.3447" lon="2.60798">
        <ele>633</ele>
        <time>2018-09-12T15:28:19.000Z</time>
      </trkpt>
      <trkpt lat="44.34471" lon="2.60794">
        <ele>634</ele>
        <time>2018-09-12T15:28:20.000Z</time>
      </trkpt>
      <trkpt lat="44.34472" lon="2.6079">
        <ele>634</ele>
        <time>2018-09-12T15:28:21.000Z</time>
      </trkpt>
      <trkpt lat="44.34474" lon="2.60786">
        <ele>634</ele>
        <time>2018-09-12T15:28:22.000Z</time>
      </trkpt>
      <trkpt lat="44.34475" lon="2.60782">
        <ele>634</ele>
        <time>2018-09-12T15:28:23.000Z</time>
      </trkpt>
      <trkpt lat="44.34477" lon="2.60777">
        <ele>634</ele>
        <time>2018-09-12T15:28:24.000Z</time>
      </trkpt>
      <trkpt lat="44.34478" lon="2.60773">
        <ele>634.05999436793</ele>
        <time>2018-09-12T15:28:25.000Z</time>
      </trkpt>
      <trkpt lat="44.34479" lon="2.60769">
        <ele>634.94058828748</ele>
        <time>2018-09-12T15:28:26.000Z</time>
      </trkpt>
      <trkpt lat="44.3448" lon="2.60765">
        <ele>634.03787636364</ele>
        <time>2018-09-12T15:28:27.000Z</time>
      </trkpt>
      <trkpt lat="44.34481" lon="2.60761">
        <ele>634.79545212121</ele>
        <time>2018-09-12T15:28:28.000Z</time>
      </trkpt>
      <trkpt lat="44.34483" lon="2.60757">
        <ele>635</ele>
        <time>2018-09-12T15:28:29.000Z</time>
      </trkpt>
      <trkpt lat="44.34485" lon="2.60753">
        <ele>635</ele>
        <time>2018-09-12T15:28:30.000Z</time>
      </trkpt>
      <trkpt lat="44.34486" lon="2.60748">
        <ele>635</ele>
        <time>2018-09-12T15:28:31.000Z</time>
      </trkpt>
      <trkpt lat="44.34488" lon="2.60744">
        <ele>635.05505125826</ele>
        <time>2018-09-12T15:28:32.000Z</time>
      </trkpt>
      <trkpt lat="44.34489" lon="2.6074">
        <ele>635.97247437087</ele>
        <time>2018-09-12T15:28:33.000Z</time>
      </trkpt>
      <trkpt lat="44.34491" lon="2.60735">
        <ele>636</ele>
        <time>2018-09-12T15:28:34.000Z</time>
      </trkpt>
      <trkpt lat="44.34493" lon="2.60731">
        <ele>636.05939979216</ele>
        <time>2018-09-12T15:28:35.000Z</time>
      </trkpt>
      <trkpt lat="44.34495" lon="2.60727">
        <ele>637</ele>
        <time>2018-09-12T15:28:36.000Z</time>
      </trkpt>
      <trkpt lat="44.34497" lon="2.60724">
        <ele>637</ele>
        <time>2018-09-12T15:28:37.000Z</time>
      </trkpt>
      <trkpt lat="44.34499" lon="2.6072">
        <ele>637</ele>
        <time>2018-09-12T15:28:38.000Z</time>
      </trkpt>
      <trkpt lat="44.34502" lon="2.60717">
        <ele>637</ele>
        <time>2018-09-12T15:28:39.000Z</time>
      </trkpt>
      <trkpt lat="44.34504" lon="2.60714">
        <ele>637</ele>
        <time>2018-09-12T15:28:40.000Z</time>
      </trkpt>
      <trkpt lat="44.34506" lon="2.60711">
        <ele>637.04081659309</ele>
        <time>2018-09-12T15:28:41.000Z</time>
      </trkpt>
      <trkpt lat="44.34509" lon="2.60707">
        <ele>638</ele>
        <time>2018-09-12T15:28:42.000Z</time>
      </trkpt>
      <trkpt lat="44.34512" lon="2.60704">
        <ele>638</ele>
        <time>2018-09-12T15:28:43.000Z</time>
      </trkpt>
      <trkpt lat="44.34514" lon="2.60702">
        <ele>638</ele>
        <time>2018-09-12T15:28:44.000Z</time>
      </trkpt>
      <trkpt lat="44.34517" lon="2.60699">
        <ele>637.94000563207</ele>
        <time>2018-09-12T15:28:45.000Z</time>
      </trkpt>
      <trkpt lat="44.3452" lon="2.60696">
        <ele>637</ele>
        <time>2018-09-12T15:28:46.000Z</time>
      </trkpt>
      <trkpt lat="44.34522" lon="2.60693">
        <ele>637</ele>
        <time>2018-09-12T15:28:47.000Z</time>
      </trkpt>
      <trkpt lat="44.34525" lon="2.6069">
        <ele>637</ele>
        <time>2018-09-12T15:28:48.000Z</time>
      </trkpt>
      <trkpt lat="44.34527" lon="2.60687">
        <ele>637</ele>
        <time>2018-09-12T15:28:49.000Z</time>
      </trkpt>
      <trkpt lat="44.3453" lon="2.60684">
        <ele>637.06000563193</ele>
        <time>2018-09-12T15:28:50.000Z</time>
      </trkpt>
      <trkpt lat="44.34532" lon="2.60681">
        <ele>638</ele>
        <time>2018-09-12T15:28:51.000Z</time>
      </trkpt>
      <trkpt lat="44.34534" lon="2.60678">
        <ele>638</ele>
        <time>2018-09-12T15:28:52.000Z</time>
      </trkpt>
      <trkpt lat="44.34536" lon="2.60674">
        <ele>638</ele>
        <time>2018-09-12T15:28:53.000Z</time>
      </trkpt>
      <trkpt lat="44.34538" lon="2.60671">
        <ele>638</ele>
        <time>2018-09-12T15:28:54.000Z</time>
      </trkpt>
      <trkpt lat="44.3454" lon="2.60667">
        <ele>638</ele>
        <time>2018-09-12T15:28:55.000Z</time>
      </trkpt>
      <trkpt lat="44.34541" lon="2.60663">
        <ele>638</ele>
        <time>2018-09-12T15:28:56.000Z</time>
      </trkpt>
      <trkpt lat="44.34543" lon="2.60659">
        <ele>638</ele>
        <time>2018-09-12T15:28:57.000Z</time>
      </trkpt>
      <trkpt lat="44.34545" lon="2.60655">
        <ele>638</ele>
        <time>2018-09-12T15:28:58.000Z</time>
      </trkpt>
      <trkpt lat="44.34547" lon="2.60652">
        <ele>638</ele>
        <time>2018-09-12T15:28:59.000Z</time>
      </trkpt>
      <trkpt lat="44.34548" lon="2.60648">
        <ele>638</ele>
        <time>2018-09-12T15:29:00.000Z</time>
      </trkpt>
      <trkpt lat="44.34548" lon="2.60645">
        <ele>638</ele>
        <time>2018-09-12T15:29:01.000Z</time>
      </trkpt>
      <trkpt lat="44.34548" lon="2.6064">
        <ele>638</ele>
        <time>2018-09-12T15:29:02.000Z</time>
      </trkpt>
      <trkpt lat="44.34548" lon="2.60636">
        <ele>638</ele>
        <time>2018-09-12T15:29:03.000Z</time>
      </trkpt>
      <trkpt lat="44.34547" lon="2.60631">
        <ele>638.0588294348</ele>
        <time>2018-09-12T15:29:04.000Z</time>
      </trkpt>
      <trkpt lat="44.34546" lon="2.60627">
        <ele>639</ele>
        <time>2018-09-12T15:29:05.000Z</time>
      </trkpt>
      <trkpt lat="44.34545" lon="2.60622">
        <ele>639</ele>
        <time>2018-09-12T15:29:06.000Z</time>
      </trkpt>
      <trkpt lat="44.34544" lon="2.60618">
        <ele>639</ele>
        <time>2018-09-12T15:29:07.000Z</time>
      </trkpt>
      <trkpt lat="44.34543" lon="2.60614">
        <ele>639</ele>
        <time>2018-09-12T15:29:08.000Z</time>
      </trkpt>
      <trkpt lat="44.34542" lon="2.60609">
        <ele>639</ele>
        <time>2018-09-12T15:29:09.000Z</time>
      </trkpt>
      <trkpt lat="44.34541" lon="2.60605">
        <ele>639</ele>
        <time>2018-09-12T15:29:10.000Z</time>
      </trkpt>
      <trkpt lat="44.3454" lon="2.606">
        <ele>639</ele>
        <time>2018-09-12T15:29:11.000Z</time>
      </trkpt>
      <trkpt lat="44.34539" lon="2.60595">
        <ele>639</ele>
        <time>2018-09-12T15:29:12.000Z</time>
      </trkpt>
      <trkpt lat="44.34538" lon="2.6059">
        <ele>639</ele>
        <time>2018-09-12T15:29:13.000Z</time>
      </trkpt>
      <trkpt lat="44.34537" lon="2.60586">
        <ele>639</ele>
        <time>2018-09-12T15:29:14.000Z</time>
      </trkpt>
      <trkpt lat="44.34536" lon="2.60581">
        <ele>639</ele>
        <time>2018-09-12T15:29:15.000Z</time>
      </trkpt>
      <trkpt lat="44.34535" lon="2.60576">
        <ele>639</ele>
        <time>2018-09-12T15:29:16.000Z</time>
      </trkpt>
      <trkpt lat="44.34534" lon="2.60571">
        <ele>639</ele>
        <time>2018-09-12T15:29:17.000Z</time>
      </trkpt>
      <trkpt lat="44.34532" lon="2.60566">
        <ele>639</ele>
        <time>2018-09-12T15:29:18.000Z</time>
      </trkpt>
      <trkpt lat="44.34531" lon="2.60562">
        <ele>639</ele>
        <time>2018-09-12T15:29:19.000Z</time>
      </trkpt>
      <trkpt lat="44.3453" lon="2.60557">
        <ele>639</ele>
        <time>2018-09-12T15:29:20.000Z</time>
      </trkpt>
      <trkpt lat="44.34529" lon="2.60553">
        <ele>639</ele>
        <time>2018-09-12T15:29:21.000Z</time>
      </trkpt>
      <trkpt lat="44.34528" lon="2.60548">
        <ele>639</ele>
        <time>2018-09-12T15:29:22.000Z</time>
      </trkpt>
      <trkpt lat="44.34527" lon="2.60544">
        <ele>639</ele>
        <time>2018-09-12T15:29:23.000Z</time>
      </trkpt>
      <trkpt lat="44.34526" lon="2.60539">
        <ele>639</ele>
        <time>2018-09-12T15:29:24.000Z</time>
      </trkpt>
      <trkpt lat="44.34525" lon="2.60534">
        <ele>639</ele>
        <time>2018-09-12T15:29:25.000Z</time>
      </trkpt>
      <trkpt lat="44.34524" lon="2.6053">
        <ele>639</ele>
        <time>2018-09-12T15:29:26.000Z</time>
      </trkpt>
      <trkpt lat="44.34523" lon="2.60527">
        <ele>639</ele>
        <time>2018-09-12T15:29:27.000Z</time>
      </trkpt>
      <trkpt lat="44.34522" lon="2.60522">
        <ele>639</ele>
        <time>2018-09-12T15:29:28.000Z</time>
      </trkpt>
      <trkpt lat="44.34521" lon="2.60518">
        <ele>639</ele>
        <time>2018-09-12T15:29:29.000Z</time>
      </trkpt>
      <trkpt lat="44.34519" lon="2.60513">
        <ele>639</ele>
        <time>2018-09-12T15:29:30.000Z</time>
      </trkpt>
      <trkpt lat="44.34518" lon="2.60509">
        <ele>639</ele>
        <time>2018-09-12T15:29:31.000Z</time>
      </trkpt>
      <trkpt lat="44.34518" lon="2.60505">
        <ele>639</ele>
        <time>2018-09-12T15:29:32.000Z</time>
      </trkpt>
      <trkpt lat="44.34516" lon="2.605">
        <ele>639</ele>
        <time>2018-09-12T15:29:33.000Z</time>
      </trkpt>
      <trkpt lat="44.34515" lon="2.60496">
        <ele>639</ele>
        <time>2018-09-12T15:29:34.000Z</time>
      </trkpt>
      <trkpt lat="44.34514" lon="2.60491">
        <ele>639</ele>
        <time>2018-09-12T15:29:35.000Z</time>
      </trkpt>
      <trkpt lat="44.34513" lon="2.60487">
        <ele>639</ele>
        <time>2018-09-12T15:29:36.000Z</time>
      </trkpt>
      <trkpt lat="44.34512" lon="2.60482">
        <ele>639</ele>
        <time>2018-09-12T15:29:37.000Z</time>
      </trkpt>
      <trkpt lat="44.34511" lon="2.60478">
        <ele>639</ele>
        <time>2018-09-12T15:29:38.000Z</time>
      </trkpt>
      <trkpt lat="44.3451" lon="2.60473">
        <ele>639</ele>
        <time>2018-09-12T15:29:39.000Z</time>
      </trkpt>
      <trkpt lat="44.34508" lon="2.60467">
        <ele>639</ele>
        <time>2018-09-12T15:29:40.000Z</time>
      </trkpt>
      <trkpt lat="44.34508" lon="2.60463">
        <ele>639</ele>
        <time>2018-09-12T15:29:41.000Z</time>
      </trkpt>
      <trkpt lat="44.34507" lon="2.60459">
        <ele>639</ele>
        <time>2018-09-12T15:29:42.000Z</time>
      </trkpt>
      <trkpt lat="44.34506" lon="2.60454">
        <ele>639</ele>
        <time>2018-09-12T15:29:43.000Z</time>
      </trkpt>
      <trkpt lat="44.34505" lon="2.60449">
        <ele>639</ele>
        <time>2018-09-12T15:29:44.000Z</time>
      </trkpt>
      <trkpt lat="44.34505" lon="2.60444">
        <ele>639</ele>
        <time>2018-09-12T15:29:45.000Z</time>
      </trkpt>
      <trkpt lat="44.34504" lon="2.6044">
        <ele>639</ele>
        <time>2018-09-12T15:29:46.000Z</time>
      </trkpt>
      <trkpt lat="44.34503" lon="2.60435">
        <ele>638.94000563207</ele>
        <time>2018-09-12T15:29:47.000Z</time>
      </trkpt>
      <trkpt lat="44.34502" lon="2.60431">
        <ele>638</ele>
        <time>2018-09-12T15:29:48.000Z</time>
      </trkpt>
      <trkpt lat="44.34502" lon="2.60427">
        <ele>638</ele>
        <time>2018-09-12T15:29:49.000Z</time>
      </trkpt>
      <trkpt lat="44.34502" lon="2.60422">
        <ele>638</ele>
        <time>2018-09-12T15:29:50.000Z</time>
      </trkpt>
      <trkpt lat="44.34501" lon="2.60418">
        <ele>638</ele>
        <time>2018-09-12T15:29:51.000Z</time>
      </trkpt>
      <trkpt lat="44.345" lon="2.60413">
        <ele>638</ele>
        <time>2018-09-12T15:29:52.000Z</time>
      </trkpt>
      <trkpt lat="44.345" lon="2.60409">
        <ele>638</ele>
        <time>2018-09-12T15:29:53.000Z</time>
      </trkpt>
      <trkpt lat="44.34499" lon="2.60404">
        <ele>638</ele>
        <time>2018-09-12T15:29:54.000Z</time>
      </trkpt>
      <trkpt lat="44.34498" lon="2.60399">
        <ele>638</ele>
        <time>2018-09-12T15:29:55.000Z</time>
      </trkpt>
      <trkpt lat="44.34497" lon="2.60394">
        <ele>638</ele>
        <time>2018-09-12T15:29:56.000Z</time>
      </trkpt>
      <trkpt lat="44.34496" lon="2.60389">
        <ele>638</ele>
        <time>2018-09-12T15:29:57.000Z</time>
      </trkpt>
      <trkpt lat="44.34495" lon="2.60385">
        <ele>638</ele>
        <time>2018-09-12T15:29:58.000Z</time>
      </trkpt>
      <trkpt lat="44.34494" lon="2.60381">
        <ele>638</ele>
        <time>2018-09-12T15:29:59.000Z</time>
      </trkpt>
      <trkpt lat="44.34493" lon="2.60376">
        <ele>638</ele>
        <time>2018-09-12T15:30:00.000Z</time>
      </trkpt>
      <trkpt lat="44.34493" lon="2.60372">
        <ele>638</ele>
        <time>2018-09-12T15:30:01.000Z</time>
      </trkpt>
      <trkpt lat="44.34492" lon="2.60368">
        <ele>638</ele>
        <time>2018-09-12T15:30:02.000Z</time>
      </trkpt>
      <trkpt lat="44.34491" lon="2.60363">
        <ele>637</ele>
        <time>2018-09-12T15:30:03.000Z</time>
      </trkpt>
      <trkpt lat="44.3449" lon="2.60359">
        <ele>637</ele>
        <time>2018-09-12T15:30:04.000Z</time>
      </trkpt>
      <trkpt lat="44.34489" lon="2.60355">
        <ele>637</ele>
        <time>2018-09-12T15:30:05.000Z</time>
      </trkpt>
      <trkpt lat="44.34488" lon="2.6035">
        <ele>637</ele>
        <time>2018-09-12T15:30:06.000Z</time>
      </trkpt>
      <trkpt lat="44.34487" lon="2.60346">
        <ele>637</ele>
        <time>2018-09-12T15:30:07.000Z</time>
      </trkpt>
      <trkpt lat="44.34486" lon="2.60342">
        <ele>637</ele>
        <time>2018-09-12T15:30:08.000Z</time>
      </trkpt>
      <trkpt lat="44.34485" lon="2.60337">
        <ele>637</ele>
        <time>2018-09-12T15:30:09.000Z</time>
      </trkpt>
      <trkpt lat="44.34484" lon="2.60333">
        <ele>637</ele>
        <time>2018-09-12T15:30:10.000Z</time>
      </trkpt>
      <trkpt lat="44.34483" lon="2.60329">
        <ele>637</ele>
        <time>2018-09-12T15:30:11.000Z</time>
      </trkpt>
      <trkpt lat="44.34483" lon="2.60324">
        <ele>637</ele>
        <time>2018-09-12T15:30:12.000Z</time>
      </trkpt>
      <trkpt lat="44.34482" lon="2.60319">
        <ele>637</ele>
        <time>2018-09-12T15:30:13.000Z</time>
      </trkpt>
      <trkpt lat="44.34482" lon="2.60314">
        <ele>636</ele>
        <time>2018-09-12T15:30:14.000Z</time>
      </trkpt>
      <trkpt lat="44.34481" lon="2.60309">
        <ele>636</ele>
        <time>2018-09-12T15:30:15.000Z</time>
      </trkpt>
      <trkpt lat="44.34481" lon="2.60305">
        <ele>636</ele>
        <time>2018-09-12T15:30:16.000Z</time>
      </trkpt>
      <trkpt lat="44.3448" lon="2.603">
        <ele>636</ele>
        <time>2018-09-12T15:30:17.000Z</time>
      </trkpt>
      <trkpt lat="44.34479" lon="2.60295">
        <ele>636</ele>
        <time>2018-09-12T15:30:18.000Z</time>
      </trkpt>
      <trkpt lat="44.34478" lon="2.60291">
        <ele>636</ele>
        <time>2018-09-12T15:30:19.000Z</time>
      </trkpt>
      <trkpt lat="44.34478" lon="2.60287">
        <ele>636</ele>
        <time>2018-09-12T15:30:20.000Z</time>
      </trkpt>
      <trkpt lat="44.34478" lon="2.60283">
        <ele>636</ele>
        <time>2018-09-12T15:30:21.000Z</time>
      </trkpt>
      <trkpt lat="44.34477" lon="2.60278">
        <ele>636</ele>
        <time>2018-09-12T15:30:22.000Z</time>
      </trkpt>
      <trkpt lat="44.34477" lon="2.60274">
        <ele>636</ele>
        <time>2018-09-12T15:30:23.000Z</time>
      </trkpt>
      <trkpt lat="44.34476" lon="2.6027">
        <ele>636</ele>
        <time>2018-09-12T15:30:24.000Z</time>
      </trkpt>
      <trkpt lat="44.34476" lon="2.60266">
        <ele>636</ele>
        <time>2018-09-12T15:30:25.000Z</time>
      </trkpt>
      <trkpt lat="44.34475" lon="2.60261">
        <ele>636</ele>
        <time>2018-09-12T15:30:26.000Z</time>
      </trkpt>
      <trkpt lat="44.34475" lon="2.60257">
        <ele>636</ele>
        <time>2018-09-12T15:30:27.000Z</time>
      </trkpt>
      <trkpt lat="44.34475" lon="2.60252">
        <ele>636</ele>
        <time>2018-09-12T15:30:28.000Z</time>
      </trkpt>
      <trkpt lat="44.34475" lon="2.60248">
        <ele>636</ele>
        <time>2018-09-12T15:30:29.000Z</time>
      </trkpt>
      <trkpt lat="44.34475" lon="2.60244">
        <ele>636</ele>
        <time>2018-09-12T15:30:30.000Z</time>
      </trkpt>
      <trkpt lat="44.34476" lon="2.6024">
        <ele>636</ele>
        <time>2018-09-12T15:30:31.000Z</time>
      </trkpt>
      <trkpt lat="44.34476" lon="2.60236">
        <ele>636</ele>
        <time>2018-09-12T15:30:32.000Z</time>
      </trkpt>
      <trkpt lat="44.34477" lon="2.60232">
        <ele>636</ele>
        <time>2018-09-12T15:30:33.000Z</time>
      </trkpt>
      <trkpt lat="44.34478" lon="2.60226">
        <ele>636</ele>
        <time>2018-09-12T15:30:34.000Z</time>
      </trkpt>
      <trkpt lat="44.34478" lon="2.60221">
        <ele>636</ele>
        <time>2018-09-12T15:30:35.000Z</time>
      </trkpt>
      <trkpt lat="44.34479" lon="2.60216">
        <ele>636</ele>
        <time>2018-09-12T15:30:36.000Z</time>
      </trkpt>
      <trkpt lat="44.34481" lon="2.60211">
        <ele>636</ele>
        <time>2018-09-12T15:30:37.000Z</time>
      </trkpt>
      <trkpt lat="44.34482" lon="2.60206">
        <ele>636</ele>
        <time>2018-09-12T15:30:38.000Z</time>
      </trkpt>
      <trkpt lat="44.34483" lon="2.60202">
        <ele>636</ele>
        <time>2018-09-12T15:30:39.000Z</time>
      </trkpt>
      <trkpt lat="44.34484" lon="2.60197">
        <ele>636</ele>
        <time>2018-09-12T15:30:40.000Z</time>
      </trkpt>
      <trkpt lat="44.34486" lon="2.60193">
        <ele>636</ele>
        <time>2018-09-12T15:30:41.000Z</time>
      </trkpt>
      <trkpt lat="44.34488" lon="2.6019">
        <ele>636</ele>
        <time>2018-09-12T15:30:42.000Z</time>
      </trkpt>
      <trkpt lat="44.34489" lon="2.60186">
        <ele>636</ele>
        <time>2018-09-12T15:30:43.000Z</time>
      </trkpt>
      <trkpt lat="44.34491" lon="2.60182">
        <ele>636</ele>
        <time>2018-09-12T15:30:44.000Z</time>
      </trkpt>
      <trkpt lat="44.34492" lon="2.60178">
        <ele>636</ele>
        <time>2018-09-12T15:30:45.000Z</time>
      </trkpt>
      <trkpt lat="44.34493" lon="2.60174">
        <ele>636</ele>
        <time>2018-09-12T15:30:46.000Z</time>
      </trkpt>
      <trkpt lat="44.34494" lon="2.6017">
        <ele>636</ele>
        <time>2018-09-12T15:30:47.000Z</time>
      </trkpt>
      <trkpt lat="44.34496" lon="2.60166">
        <ele>636</ele>
        <time>2018-09-12T15:30:48.000Z</time>
      </trkpt>
      <trkpt lat="44.34498" lon="2.60162">
        <ele>636</ele>
        <time>2018-09-12T15:30:49.000Z</time>
      </trkpt>
      <trkpt lat="44.34499" lon="2.60158">
        <ele>636</ele>
        <time>2018-09-12T15:30:50.000Z</time>
      </trkpt>
      <trkpt lat="44.345" lon="2.60154">
        <ele>636</ele>
        <time>2018-09-12T15:30:51.000Z</time>
      </trkpt>
      <trkpt lat="44.34502" lon="2.6015">
        <ele>636</ele>
        <time>2018-09-12T15:30:52.000Z</time>
      </trkpt>
      <trkpt lat="44.34503" lon="2.60146">
        <ele>636</ele>
        <time>2018-09-12T15:30:53.000Z</time>
      </trkpt>
      <trkpt lat="44.34505" lon="2.60141">
        <ele>636</ele>
        <time>2018-09-12T15:30:54.000Z</time>
      </trkpt>
      <trkpt lat="44.34506" lon="2.60137">
        <ele>636</ele>
        <time>2018-09-12T15:30:55.000Z</time>
      </trkpt>
      <trkpt lat="44.34507" lon="2.60133">
        <ele>636</ele>
        <time>2018-09-12T15:30:56.000Z</time>
      </trkpt>
      <trkpt lat="44.34508" lon="2.60129">
        <ele>636</ele>
        <time>2018-09-12T15:30:57.000Z</time>
      </trkpt>
      <trkpt lat="44.34509" lon="2.60124">
        <ele>636</ele>
        <time>2018-09-12T15:30:58.000Z</time>
      </trkpt>
      <trkpt lat="44.3451" lon="2.60121">
        <ele>636</ele>
        <time>2018-09-12T15:30:59.000Z</time>
      </trkpt>
      <trkpt lat="44.34512" lon="2.60117">
        <ele>636</ele>
        <time>2018-09-12T15:31:00.000Z</time>
      </trkpt>
      <trkpt lat="44.34513" lon="2.60112">
        <ele>636</ele>
        <time>2018-09-12T15:31:01.000Z</time>
      </trkpt>
      <trkpt lat="44.34514" lon="2.60108">
        <ele>636</ele>
        <time>2018-09-12T15:31:02.000Z</time>
      </trkpt>
      <trkpt lat="44.34515" lon="2.60104">
        <ele>636</ele>
        <time>2018-09-12T15:31:03.000Z</time>
      </trkpt>
      <trkpt lat="44.34516" lon="2.601">
        <ele>636</ele>
        <time>2018-09-12T15:31:04.000Z</time>
      </trkpt>
      <trkpt lat="44.34517" lon="2.60096">
        <ele>636</ele>
        <time>2018-09-12T15:31:05.000Z</time>
      </trkpt>
      <trkpt lat="44.34518" lon="2.60091">
        <ele>636</ele>
        <time>2018-09-12T15:31:06.000Z</time>
      </trkpt>
      <trkpt lat="44.34519" lon="2.60087">
        <ele>636</ele>
        <time>2018-09-12T15:31:07.000Z</time>
      </trkpt>
      <trkpt lat="44.3452" lon="2.60082">
        <ele>636</ele>
        <time>2018-09-12T15:31:08.000Z</time>
      </trkpt>
      <trkpt lat="44.34521" lon="2.60078">
        <ele>636</ele>
        <time>2018-09-12T15:31:09.000Z</time>
      </trkpt>
      <trkpt lat="44.34521" lon="2.60073">
        <ele>636</ele>
        <time>2018-09-12T15:31:10.000Z</time>
      </trkpt>
      <trkpt lat="44.34522" lon="2.60069">
        <ele>636</ele>
        <time>2018-09-12T15:31:11.000Z</time>
      </trkpt>
      <trkpt lat="44.34523" lon="2.60064">
        <ele>636</ele>
        <time>2018-09-12T15:31:12.000Z</time>
      </trkpt>
      <trkpt lat="44.34524" lon="2.60061">
        <ele>636</ele>
        <time>2018-09-12T15:31:13.000Z</time>
      </trkpt>
      <trkpt lat="44.34525" lon="2.60057">
        <ele>636</ele>
        <time>2018-09-12T15:31:14.000Z</time>
      </trkpt>
      <trkpt lat="44.34526" lon="2.60053">
        <ele>636</ele>
        <time>2018-09-12T15:31:15.000Z</time>
      </trkpt>
      <trkpt lat="44.34529" lon="2.60044">
        <ele>636</ele>
        <time>2018-09-12T15:31:17.000Z</time>
      </trkpt>
      <trkpt lat="44.3453" lon="2.60039">
        <ele>636</ele>
        <time>2018-09-12T15:31:18.000Z</time>
      </trkpt>
      <trkpt lat="44.34532" lon="2.60035">
        <ele>636</ele>
        <time>2018-09-12T15:31:19.000Z</time>
      </trkpt>
      <trkpt lat="44.34533" lon="2.60032">
        <ele>636</ele>
        <time>2018-09-12T15:31:20.000Z</time>
      </trkpt>
      <trkpt lat="44.34535" lon="2.60027">
        <ele>636</ele>
        <time>2018-09-12T15:31:21.000Z</time>
      </trkpt>
      <trkpt lat="44.34537" lon="2.60023">
        <ele>636</ele>
        <time>2018-09-12T15:31:22.000Z</time>
      </trkpt>
      <trkpt lat="44.34538" lon="2.60019">
        <ele>636</ele>
        <time>2018-09-12T15:31:23.000Z</time>
      </trkpt>
      <trkpt lat="44.3454" lon="2.60015">
        <ele>636</ele>
        <time>2018-09-12T15:31:24.000Z</time>
      </trkpt>
      <trkpt lat="44.34541" lon="2.60011">
        <ele>636</ele>
        <time>2018-09-12T15:31:25.000Z</time>
      </trkpt>
      <trkpt lat="44.34543" lon="2.60007">
        <ele>636</ele>
        <time>2018-09-12T15:31:26.000Z</time>
      </trkpt>
      <trkpt lat="44.34544" lon="2.60003">
        <ele>636</ele>
        <time>2018-09-12T15:31:27.000Z</time>
      </trkpt>
      <trkpt lat="44.34546" lon="2.6">
        <ele>636</ele>
        <time>2018-09-12T15:31:28.000Z</time>
      </trkpt>
      <trkpt lat="44.34547" lon="2.59996">
        <ele>636</ele>
        <time>2018-09-12T15:31:29.000Z</time>
      </trkpt>
      <trkpt lat="44.34549" lon="2.59992">
        <ele>636</ele>
        <time>2018-09-12T15:31:30.000Z</time>
      </trkpt>
      <trkpt lat="44.3455" lon="2.59988">
        <ele>636</ele>
        <time>2018-09-12T15:31:31.000Z</time>
      </trkpt>
      <trkpt lat="44.34551" lon="2.59984">
        <ele>636</ele>
        <time>2018-09-12T15:31:32.000Z</time>
      </trkpt>
      <trkpt lat="44.34553" lon="2.5998">
        <ele>636</ele>
        <time>2018-09-12T15:31:33.000Z</time>
      </trkpt>
      <trkpt lat="44.34554" lon="2.59977">
        <ele>636</ele>
        <time>2018-09-12T15:31:34.000Z</time>
      </trkpt>
      <trkpt lat="44.34556" lon="2.59973">
        <ele>636</ele>
        <time>2018-09-12T15:31:35.000Z</time>
      </trkpt>
      <trkpt lat="44.34557" lon="2.59969">
        <ele>636</ele>
        <time>2018-09-12T15:31:36.000Z</time>
      </trkpt>
      <trkpt lat="44.34559" lon="2.59966">
        <ele>636</ele>
        <time>2018-09-12T15:31:37.000Z</time>
      </trkpt>
      <trkpt lat="44.34561" lon="2.59962">
        <ele>636</ele>
        <time>2018-09-12T15:31:38.000Z</time>
      </trkpt>
      <trkpt lat="44.34562" lon="2.59959">
        <ele>636</ele>
        <time>2018-09-12T15:31:39.000Z</time>
      </trkpt>
      <trkpt lat="44.34563" lon="2.59955">
        <ele>636</ele>
        <time>2018-09-12T15:31:40.000Z</time>
      </trkpt>
      <trkpt lat="44.34565" lon="2.59951">
        <ele>636</ele>
        <time>2018-09-12T15:31:41.000Z</time>
      </trkpt>
      <trkpt lat="44.34567" lon="2.59947">
        <ele>636</ele>
        <time>2018-09-12T15:31:42.000Z</time>
      </trkpt>
      <trkpt lat="44.34568" lon="2.59944">
        <ele>636</ele>
        <time>2018-09-12T15:31:43.000Z</time>
      </trkpt>
      <trkpt lat="44.3457" lon="2.5994">
        <ele>636</ele>
        <time>2018-09-12T15:31:44.000Z</time>
      </trkpt>
      <trkpt lat="44.34571" lon="2.59936">
        <ele>636</ele>
        <time>2018-09-12T15:31:45.000Z</time>
      </trkpt>
      <trkpt lat="44.34573" lon="2.59932">
        <ele>636</ele>
        <time>2018-09-12T15:31:46.000Z</time>
      </trkpt>
      <trkpt lat="44.34574" lon="2.59928">
        <ele>636</ele>
        <time>2018-09-12T15:31:47.000Z</time>
      </trkpt>
      <trkpt lat="44.34576" lon="2.59925">
        <ele>636</ele>
        <time>2018-09-12T15:31:48.000Z</time>
      </trkpt>
      <trkpt lat="44.34577" lon="2.59921">
        <ele>636</ele>
        <time>2018-09-12T15:31:49.000Z</time>
      </trkpt>
      <trkpt lat="44.34579" lon="2.59918">
        <ele>636.06000563193</ele>
        <time>2018-09-12T15:31:50.000Z</time>
      </trkpt>
      <trkpt lat="44.3458" lon="2.59914">
        <ele>637</ele>
        <time>2018-09-12T15:31:51.000Z</time>
      </trkpt>
      <trkpt lat="44.34582" lon="2.5991">
        <ele>637</ele>
        <time>2018-09-12T15:31:52.000Z</time>
      </trkpt>
      <trkpt lat="44.34584" lon="2.59906">
        <ele>637</ele>
        <time>2018-09-12T15:31:53.000Z</time>
      </trkpt>
      <trkpt lat="44.34585" lon="2.59902">
        <ele>637</ele>
        <time>2018-09-12T15:31:54.000Z</time>
      </trkpt>
      <trkpt lat="44.34587" lon="2.59897">
        <ele>637</ele>
        <time>2018-09-12T15:31:55.000Z</time>
      </trkpt>
      <trkpt lat="44.34588" lon="2.59894">
        <ele>637</ele>
        <time>2018-09-12T15:31:56.000Z</time>
      </trkpt>
      <trkpt lat="44.3459" lon="2.5989">
        <ele>637</ele>
        <time>2018-09-12T15:31:57.000Z</time>
      </trkpt>
      <trkpt lat="44.34591" lon="2.59886">
        <ele>637</ele>
        <time>2018-09-12T15:31:58.000Z</time>
      </trkpt>
      <trkpt lat="44.34593" lon="2.59882">
        <ele>637</ele>
        <time>2018-09-12T15:31:59.000Z</time>
      </trkpt>
      <trkpt lat="44.34594" lon="2.59878">
        <ele>637</ele>
        <time>2018-09-12T15:32:00.000Z</time>
      </trkpt>
      <trkpt lat="44.34596" lon="2.59874">
        <ele>637</ele>
        <time>2018-09-12T15:32:01.000Z</time>
      </trkpt>
      <trkpt lat="44.34598" lon="2.5987">
        <ele>637</ele>
        <time>2018-09-12T15:32:02.000Z</time>
      </trkpt>
      <trkpt lat="44.34599" lon="2.59866">
        <ele>637</ele>
        <time>2018-09-12T15:32:03.000Z</time>
      </trkpt>
      <trkpt lat="44.34601" lon="2.59861">
        <ele>637</ele>
        <time>2018-09-12T15:32:04.000Z</time>
      </trkpt>
      <trkpt lat="44.34602" lon="2.59857">
        <ele>637</ele>
        <time>2018-09-12T15:32:05.000Z</time>
      </trkpt>
      <trkpt lat="44.34603" lon="2.59853">
        <ele>637</ele>
        <time>2018-09-12T15:32:06.000Z</time>
      </trkpt>
      <trkpt lat="44.34605" lon="2.59849">
        <ele>637</ele>
        <time>2018-09-12T15:32:07.000Z</time>
      </trkpt>
      <trkpt lat="44.34606" lon="2.59846">
        <ele>637</ele>
        <time>2018-09-12T15:32:08.000Z</time>
      </trkpt>
      <trkpt lat="44.34607" lon="2.59842">
        <ele>637</ele>
        <time>2018-09-12T15:32:09.000Z</time>
      </trkpt>
      <trkpt lat="44.34609" lon="2.59838">
        <ele>637</ele>
        <time>2018-09-12T15:32:10.000Z</time>
      </trkpt>
      <trkpt lat="44.3461" lon="2.59834">
        <ele>637</ele>
        <time>2018-09-12T15:32:11.000Z</time>
      </trkpt>
      <trkpt lat="44.34611" lon="2.59831">
        <ele>637</ele>
        <time>2018-09-12T15:32:12.000Z</time>
      </trkpt>
      <trkpt lat="44.34612" lon="2.59827">
        <ele>637</ele>
        <time>2018-09-12T15:32:13.000Z</time>
      </trkpt>
      <trkpt lat="44.34613" lon="2.59823">
        <ele>637</ele>
        <time>2018-09-12T15:32:14.000Z</time>
      </trkpt>
      <trkpt lat="44.34614" lon="2.59819">
        <ele>637</ele>
        <time>2018-09-12T15:32:15.000Z</time>
      </trkpt>
      <trkpt lat="44.34616" lon="2.59814">
        <ele>637</ele>
        <time>2018-09-12T15:32:16.000Z</time>
      </trkpt>
      <trkpt lat="44.34617" lon="2.5981">
        <ele>637</ele>
        <time>2018-09-12T15:32:17.000Z</time>
      </trkpt>
      <trkpt lat="44.34618" lon="2.59807">
        <ele>637</ele>
        <time>2018-09-12T15:32:18.000Z</time>
      </trkpt>
      <trkpt lat="44.34619" lon="2.59803">
        <ele>637</ele>
        <time>2018-09-12T15:32:19.000Z</time>
      </trkpt>
      <trkpt lat="44.34621" lon="2.59799">
        <ele>637</ele>
        <time>2018-09-12T15:32:20.000Z</time>
      </trkpt>
      <trkpt lat="44.34622" lon="2.59796">
        <ele>637</ele>
        <time>2018-09-12T15:32:21.000Z</time>
      </trkpt>
      <trkpt lat="44.34623" lon="2.59792">
        <ele>637</ele>
        <time>2018-09-12T15:32:22.000Z</time>
      </trkpt>
      <trkpt lat="44.34625" lon="2.59788">
        <ele>637</ele>
        <time>2018-09-12T15:32:23.000Z</time>
      </trkpt>
      <trkpt lat="44.34626" lon="2.59784">
        <ele>637</ele>
        <time>2018-09-12T15:32:24.000Z</time>
      </trkpt>
      <trkpt lat="44.34628" lon="2.5978">
        <ele>637</ele>
        <time>2018-09-12T15:32:25.000Z</time>
      </trkpt>
      <trkpt lat="44.34629" lon="2.59776">
        <ele>637</ele>
        <time>2018-09-12T15:32:26.000Z</time>
      </trkpt>
      <trkpt lat="44.3463" lon="2.59772">
        <ele>637</ele>
        <time>2018-09-12T15:32:27.000Z</time>
      </trkpt>
      <trkpt lat="44.34632" lon="2.59768">
        <ele>637</ele>
        <time>2018-09-12T15:32:28.000Z</time>
      </trkpt>
      <trkpt lat="44.34633" lon="2.59763">
        <ele>637</ele>
        <time>2018-09-12T15:32:29.000Z</time>
      </trkpt>
      <trkpt lat="44.34635" lon="2.59759">
        <ele>637</ele>
        <time>2018-09-12T15:32:30.000Z</time>
      </trkpt>
      <trkpt lat="44.34636" lon="2.59755">
        <ele>637</ele>
        <time>2018-09-12T15:32:31.000Z</time>
      </trkpt>
      <trkpt lat="44.34637" lon="2.59751">
        <ele>637.04348269689</ele>
        <time>2018-09-12T15:32:32.000Z</time>
      </trkpt>
      <trkpt lat="44.34638" lon="2.59747">
        <ele>637.76811701743</ele>
        <time>2018-09-12T15:32:33.000Z</time>
      </trkpt>
      <trkpt lat="44.3464" lon="2.59743">
        <ele>638</ele>
        <time>2018-09-12T15:32:34.000Z</time>
      </trkpt>
      <trkpt lat="44.34641" lon="2.59739">
        <ele>638</ele>
        <time>2018-09-12T15:32:35.000Z</time>
      </trkpt>
      <trkpt lat="44.34641" lon="2.59735">
        <ele>638</ele>
        <time>2018-09-12T15:32:36.000Z</time>
      </trkpt>
      <trkpt lat="44.34642" lon="2.5973">
        <ele>638</ele>
        <time>2018-09-12T15:32:37.000Z</time>
      </trkpt>
      <trkpt lat="44.34642" lon="2.59725">
        <ele>638</ele>
        <time>2018-09-12T15:32:38.000Z</time>
      </trkpt>
      <trkpt lat="44.34643" lon="2.59722">
        <ele>638</ele>
        <time>2018-09-12T15:32:39.000Z</time>
      </trkpt>
      <trkpt lat="44.34644" lon="2.59719">
        <ele>638</ele>
        <time>2018-09-12T15:32:40.000Z</time>
      </trkpt>
      <trkpt lat="44.34644" lon="2.59716">
        <ele>638</ele>
        <time>2018-09-12T15:32:42.000Z</time>
      </trkpt>
      <trkpt lat="44.34641" lon="2.59712">
        <ele>638</ele>
        <time>2018-09-12T15:32:44.000Z</time>
      </trkpt>
      <trkpt lat="44.34641" lon="2.59708">
        <ele>638</ele>
        <time>2018-09-12T15:32:45.000Z</time>
      </trkpt>
      <trkpt lat="44.3464" lon="2.59704">
        <ele>638</ele>
        <time>2018-09-12T15:32:46.000Z</time>
      </trkpt>
      <trkpt lat="44.3464" lon="2.597">
        <ele>638</ele>
        <time>2018-09-12T15:32:47.000Z</time>
      </trkpt>
      <trkpt lat="44.34639" lon="2.59696">
        <ele>638</ele>
        <time>2018-09-12T15:32:48.000Z</time>
      </trkpt>
      <trkpt lat="44.34639" lon="2.59692">
        <ele>638</ele>
        <time>2018-09-12T15:32:49.000Z</time>
      </trkpt>
      <trkpt lat="44.34638" lon="2.59688">
        <ele>638</ele>
        <time>2018-09-12T15:32:50.000Z</time>
      </trkpt>
      <trkpt lat="44.34638" lon="2.59684">
        <ele>638</ele>
        <time>2018-09-12T15:32:51.000Z</time>
      </trkpt>
      <trkpt lat="44.34637" lon="2.59679">
        <ele>638</ele>
        <time>2018-09-12T15:32:52.000Z</time>
      </trkpt>
      <trkpt lat="44.34636" lon="2.59675">
        <ele>638</ele>
        <time>2018-09-12T15:32:53.000Z</time>
      </trkpt>
      <trkpt lat="44.34635" lon="2.59671">
        <ele>638</ele>
        <time>2018-09-12T15:32:54.000Z</time>
      </trkpt>
      <trkpt lat="44.34635" lon="2.59666">
        <ele>638</ele>
        <time>2018-09-12T15:32:55.000Z</time>
      </trkpt>
      <trkpt lat="44.34634" lon="2.59662">
        <ele>638</ele>
        <time>2018-09-12T15:32:56.000Z</time>
      </trkpt>
      <trkpt lat="44.34633" lon="2.59657">
        <ele>638</ele>
        <time>2018-09-12T15:32:57.000Z</time>
      </trkpt>
      <trkpt lat="44.34632" lon="2.59652">
        <ele>638</ele>
        <time>2018-09-12T15:32:58.000Z</time>
      </trkpt>
      <trkpt lat="44.34631" lon="2.59648">
        <ele>638</ele>
        <time>2018-09-12T15:32:59.000Z</time>
      </trkpt>
      <trkpt lat="44.3463" lon="2.59644">
        <ele>638</ele>
        <time>2018-09-12T15:33:00.000Z</time>
      </trkpt>
      <trkpt lat="44.3463" lon="2.5964">
        <ele>638</ele>
        <time>2018-09-12T15:33:01.000Z</time>
      </trkpt>
      <trkpt lat="44.3463" lon="2.59636">
        <ele>638</ele>
        <time>2018-09-12T15:33:02.000Z</time>
      </trkpt>
      <trkpt lat="44.3463" lon="2.59632">
        <ele>638</ele>
        <time>2018-09-12T15:33:03.000Z</time>
      </trkpt>
      <trkpt lat="44.34629" lon="2.59627">
        <ele>638</ele>
        <time>2018-09-12T15:33:04.000Z</time>
      </trkpt>
      <trkpt lat="44.34627" lon="2.59622">
        <ele>638</ele>
        <time>2018-09-12T15:33:05.000Z</time>
      </trkpt>
      <trkpt lat="44.34627" lon="2.59618">
        <ele>638</ele>
        <time>2018-09-12T15:33:06.000Z</time>
      </trkpt>
      <trkpt lat="44.34626" lon="2.59613">
        <ele>638</ele>
        <time>2018-09-12T15:33:07.000Z</time>
      </trkpt>
      <trkpt lat="44.34625" lon="2.59609">
        <ele>638</ele>
        <time>2018-09-12T15:33:08.000Z</time>
      </trkpt>
      <trkpt lat="44.34625" lon="2.59604">
        <ele>638</ele>
        <time>2018-09-12T15:33:09.000Z</time>
      </trkpt>
      <trkpt lat="44.34624" lon="2.596">
        <ele>638</ele>
        <time>2018-09-12T15:33:10.000Z</time>
      </trkpt>
      <trkpt lat="44.34623" lon="2.59595">
        <ele>638</ele>
        <time>2018-09-12T15:33:11.000Z</time>
      </trkpt>
      <trkpt lat="44.34623" lon="2.59591">
        <ele>638</ele>
        <time>2018-09-12T15:33:12.000Z</time>
      </trkpt>
      <trkpt lat="44.34622" lon="2.59586">
        <ele>638</ele>
        <time>2018-09-12T15:33:13.000Z</time>
      </trkpt>
      <trkpt lat="44.34621" lon="2.59582">
        <ele>638</ele>
        <time>2018-09-12T15:33:14.000Z</time>
      </trkpt>
      <trkpt lat="44.3462" lon="2.59578">
        <ele>638</ele>
        <time>2018-09-12T15:33:15.000Z</time>
      </trkpt>
      <trkpt lat="44.3462" lon="2.59574">
        <ele>638</ele>
        <time>2018-09-12T15:33:16.000Z</time>
      </trkpt>
      <trkpt lat="44.34619" lon="2.59569">
        <ele>638</ele>
        <time>2018-09-12T15:33:17.000Z</time>
      </trkpt>
      <trkpt lat="44.34619" lon="2.59565">
        <ele>638</ele>
        <time>2018-09-12T15:33:18.000Z</time>
      </trkpt>
      <trkpt lat="44.34618" lon="2.59561">
        <ele>638</ele>
        <time>2018-09-12T15:33:19.000Z</time>
      </trkpt>
      <trkpt lat="44.34617" lon="2.59557">
        <ele>638</ele>
        <time>2018-09-12T15:33:20.000Z</time>
      </trkpt>
      <trkpt lat="44.34616" lon="2.59553">
        <ele>638</ele>
        <time>2018-09-12T15:33:21.000Z</time>
      </trkpt>
      <trkpt lat="44.34615" lon="2.59549">
        <ele>638</ele>
        <time>2018-09-12T15:33:22.000Z</time>
      </trkpt>
      <trkpt lat="44.34615" lon="2.59544">
        <ele>638</ele>
        <time>2018-09-12T15:33:23.000Z</time>
      </trkpt>
      <trkpt lat="44.34614" lon="2.59541">
        <ele>638</ele>
        <time>2018-09-12T15:33:24.000Z</time>
      </trkpt>
      <trkpt lat="44.34613" lon="2.59537">
        <ele>638</ele>
        <time>2018-09-12T15:33:25.000Z</time>
      </trkpt>
      <trkpt lat="44.34613" lon="2.59532">
        <ele>638</ele>
        <time>2018-09-12T15:33:26.000Z</time>
      </trkpt>
      <trkpt lat="44.34612" lon="2.59528">
        <ele>638</ele>
        <time>2018-09-12T15:33:27.000Z</time>
      </trkpt>
      <trkpt lat="44.34611" lon="2.59524">
        <ele>638</ele>
        <time>2018-09-12T15:33:28.000Z</time>
      </trkpt>
      <trkpt lat="44.3461" lon="2.5952">
        <ele>638</ele>
        <time>2018-09-12T15:33:29.000Z</time>
      </trkpt>
      <trkpt lat="44.3461" lon="2.59516">
        <ele>638</ele>
        <time>2018-09-12T15:33:30.000Z</time>
      </trkpt>
      <trkpt lat="44.34609" lon="2.59513">
        <ele>638</ele>
        <time>2018-09-12T15:33:31.000Z</time>
      </trkpt>
      <trkpt lat="44.34608" lon="2.59509">
        <ele>638</ele>
        <time>2018-09-12T15:33:32.000Z</time>
      </trkpt>
      <trkpt lat="44.34607" lon="2.59504">
        <ele>638</ele>
        <time>2018-09-12T15:33:33.000Z</time>
      </trkpt>
      <trkpt lat="44.34606" lon="2.595">
        <ele>638</ele>
        <time>2018-09-12T15:33:34.000Z</time>
      </trkpt>
      <trkpt lat="44.34605" lon="2.59496">
        <ele>638</ele>
        <time>2018-09-12T15:33:35.000Z</time>
      </trkpt>
      <trkpt lat="44.34605" lon="2.59491">
        <ele>638</ele>
        <time>2018-09-12T15:33:36.000Z</time>
      </trkpt>
      <trkpt lat="44.34604" lon="2.59487">
        <ele>638</ele>
        <time>2018-09-12T15:33:37.000Z</time>
      </trkpt>
      <trkpt lat="44.34603" lon="2.59482">
        <ele>638</ele>
        <time>2018-09-12T15:33:38.000Z</time>
      </trkpt>
      <trkpt lat="44.34602" lon="2.59478">
        <ele>638</ele>
        <time>2018-09-12T15:33:39.000Z</time>
      </trkpt>
      <trkpt lat="44.34601" lon="2.59474">
        <ele>638</ele>
        <time>2018-09-12T15:33:40.000Z</time>
      </trkpt>
      <trkpt lat="44.346" lon="2.5947">
        <ele>638</ele>
        <time>2018-09-12T15:33:41.000Z</time>
      </trkpt>
      <trkpt lat="44.346" lon="2.59466">
        <ele>638</ele>
        <time>2018-09-12T15:33:42.000Z</time>
      </trkpt>
      <trkpt lat="44.34599" lon="2.59462">
        <ele>638</ele>
        <time>2018-09-12T15:33:43.000Z</time>
      </trkpt>
      <trkpt lat="44.34598" lon="2.59458">
        <ele>638</ele>
        <time>2018-09-12T15:33:44.000Z</time>
      </trkpt>
      <trkpt lat="44.34598" lon="2.59453">
        <ele>638</ele>
        <time>2018-09-12T15:33:45.000Z</time>
      </trkpt>
      <trkpt lat="44.34597" lon="2.59449">
        <ele>638</ele>
        <time>2018-09-12T15:33:46.000Z</time>
      </trkpt>
      <trkpt lat="44.34597" lon="2.59444">
        <ele>638</ele>
        <time>2018-09-12T15:33:47.000Z</time>
      </trkpt>
      <trkpt lat="44.34597" lon="2.59439">
        <ele>638</ele>
        <time>2018-09-12T15:33:48.000Z</time>
      </trkpt>
      <trkpt lat="44.34596" lon="2.59435">
        <ele>638</ele>
        <time>2018-09-12T15:33:49.000Z</time>
      </trkpt>
      <trkpt lat="44.34596" lon="2.59431">
        <ele>638</ele>
        <time>2018-09-12T15:33:50.000Z</time>
      </trkpt>
      <trkpt lat="44.34595" lon="2.59427">
        <ele>638</ele>
        <time>2018-09-12T15:33:51.000Z</time>
      </trkpt>
      <trkpt lat="44.34595" lon="2.59423">
        <ele>638</ele>
        <time>2018-09-12T15:33:52.000Z</time>
      </trkpt>
      <trkpt lat="44.34594" lon="2.59419">
        <ele>638</ele>
        <time>2018-09-12T15:33:53.000Z</time>
      </trkpt>
      <trkpt lat="44.34593" lon="2.59416">
        <ele>638</ele>
        <time>2018-09-12T15:33:54.000Z</time>
      </trkpt>
      <trkpt lat="44.34593" lon="2.59411">
        <ele>638</ele>
        <time>2018-09-12T15:33:55.000Z</time>
      </trkpt>
      <trkpt lat="44.34592" lon="2.59407">
        <ele>638</ele>
        <time>2018-09-12T15:33:56.000Z</time>
      </trkpt>
      <trkpt lat="44.34592" lon="2.59403">
        <ele>638</ele>
        <time>2018-09-12T15:33:57.000Z</time>
      </trkpt>
      <trkpt lat="44.34591" lon="2.59398">
        <ele>638</ele>
        <time>2018-09-12T15:33:58.000Z</time>
      </trkpt>
      <trkpt lat="44.3459" lon="2.59394">
        <ele>638</ele>
        <time>2018-09-12T15:33:59.000Z</time>
      </trkpt>
      <trkpt lat="44.34589" lon="2.5939">
        <ele>638</ele>
        <time>2018-09-12T15:34:00.000Z</time>
      </trkpt>
      <trkpt lat="44.34589" lon="2.59386">
        <ele>638</ele>
        <time>2018-09-12T15:34:01.000Z</time>
      </trkpt>
      <trkpt lat="44.34588" lon="2.59381">
        <ele>638</ele>
        <time>2018-09-12T15:34:02.000Z</time>
      </trkpt>
      <trkpt lat="44.34587" lon="2.59377">
        <ele>638</ele>
        <time>2018-09-12T15:34:03.000Z</time>
      </trkpt>
      <trkpt lat="44.34587" lon="2.59372">
        <ele>638</ele>
        <time>2018-09-12T15:34:04.000Z</time>
      </trkpt>
      <trkpt lat="44.34586" lon="2.59368">
        <ele>638</ele>
        <time>2018-09-12T15:34:05.000Z</time>
      </trkpt>
      <trkpt lat="44.34586" lon="2.59364">
        <ele>638</ele>
        <time>2018-09-12T15:34:06.000Z</time>
      </trkpt>
      <trkpt lat="44.34585" lon="2.5936">
        <ele>639</ele>
        <time>2018-09-12T15:34:07.000Z</time>
      </trkpt>
      <trkpt lat="44.34584" lon="2.59356">
        <ele>639</ele>
        <time>2018-09-12T15:34:08.000Z</time>
      </trkpt>
      <trkpt lat="44.34584" lon="2.59352">
        <ele>639</ele>
        <time>2018-09-12T15:34:09.000Z</time>
      </trkpt>
      <trkpt lat="44.34583" lon="2.59348">
        <ele>639</ele>
        <time>2018-09-12T15:34:10.000Z</time>
      </trkpt>
      <trkpt lat="44.34583" lon="2.59344">
        <ele>639</ele>
        <time>2018-09-12T15:34:11.000Z</time>
      </trkpt>
      <trkpt lat="44.34583" lon="2.5934">
        <ele>639</ele>
        <time>2018-09-12T15:34:12.000Z</time>
      </trkpt>
      <trkpt lat="44.34583" lon="2.59335">
        <ele>639</ele>
        <time>2018-09-12T15:34:13.000Z</time>
      </trkpt>
      <trkpt lat="44.34583" lon="2.59331">
        <ele>639</ele>
        <time>2018-09-12T15:34:14.000Z</time>
      </trkpt>
      <trkpt lat="44.34583" lon="2.59327">
        <ele>639</ele>
        <time>2018-09-12T15:34:15.000Z</time>
      </trkpt>
      <trkpt lat="44.34583" lon="2.59323">
        <ele>639</ele>
        <time>2018-09-12T15:34:16.000Z</time>
      </trkpt>
      <trkpt lat="44.34584" lon="2.59319">
        <ele>639</ele>
        <time>2018-09-12T15:34:17.000Z</time>
      </trkpt>
      <trkpt lat="44.34584" lon="2.59314">
        <ele>639</ele>
        <time>2018-09-12T15:34:18.000Z</time>
      </trkpt>
      <trkpt lat="44.34585" lon="2.5931">
        <ele>639</ele>
        <time>2018-09-12T15:34:19.000Z</time>
      </trkpt>
      <trkpt lat="44.34585" lon="2.59305">
        <ele>639</ele>
        <time>2018-09-12T15:34:20.000Z</time>
      </trkpt>
      <trkpt lat="44.34586" lon="2.59301">
        <ele>639</ele>
        <time>2018-09-12T15:34:21.000Z</time>
      </trkpt>
      <trkpt lat="44.34586" lon="2.59297">
        <ele>639</ele>
        <time>2018-09-12T15:34:22.000Z</time>
      </trkpt>
      <trkpt lat="44.34587" lon="2.59293">
        <ele>639</ele>
        <time>2018-09-12T15:34:23.000Z</time>
      </trkpt>
      <trkpt lat="44.34588" lon="2.59289">
        <ele>639.04545895313</ele>
        <time>2018-09-12T15:34:24.000Z</time>
      </trkpt>
      <trkpt lat="44.34589" lon="2.59285">
        <ele>639.80302736458</ele>
        <time>2018-09-12T15:34:25.000Z</time>
      </trkpt>
      <trkpt lat="44.3459" lon="2.59282">
        <ele>640</ele>
        <time>2018-09-12T15:34:26.000Z</time>
      </trkpt>
      <trkpt lat="44.34591" lon="2.59278">
        <ele>640</ele>
        <time>2018-09-12T15:34:27.000Z</time>
      </trkpt>
      <trkpt lat="44.34592" lon="2.59273">
        <ele>640</ele>
        <time>2018-09-12T15:34:28.000Z</time>
      </trkpt>
      <trkpt lat="44.34593" lon="2.59269">
        <ele>640</ele>
        <time>2018-09-12T15:34:29.000Z</time>
      </trkpt>
      <trkpt lat="44.34595" lon="2.59265">
        <ele>640</ele>
        <time>2018-09-12T15:34:30.000Z</time>
      </trkpt>
      <trkpt lat="44.34596" lon="2.59261">
        <ele>640</ele>
        <time>2018-09-12T15:34:31.000Z</time>
      </trkpt>
      <trkpt lat="44.34597" lon="2.59257">
        <ele>640</ele>
        <time>2018-09-12T15:34:32.000Z</time>
      </trkpt>
      <trkpt lat="44.34598" lon="2.59254">
        <ele>640</ele>
        <time>2018-09-12T15:34:33.000Z</time>
      </trkpt>
      <trkpt lat="44.34599" lon="2.59249">
        <ele>640</ele>
        <time>2018-09-12T15:34:34.000Z</time>
      </trkpt>
      <trkpt lat="44.346" lon="2.59246">
        <ele>640.05999436793</ele>
        <time>2018-09-12T15:34:35.000Z</time>
      </trkpt>
      <trkpt lat="44.34601" lon="2.59242">
        <ele>641</ele>
        <time>2018-09-12T15:34:36.000Z</time>
      </trkpt>
      <trkpt lat="44.34602" lon="2.59238">
        <ele>641</ele>
        <time>2018-09-12T15:34:37.000Z</time>
      </trkpt>
      <trkpt lat="44.34604" lon="2.59234">
        <ele>641</ele>
        <time>2018-09-12T15:34:38.000Z</time>
      </trkpt>
      <trkpt lat="44.34605" lon="2.5923">
        <ele>641</ele>
        <time>2018-09-12T15:34:39.000Z</time>
      </trkpt>
      <trkpt lat="44.34607" lon="2.59226">
        <ele>641</ele>
        <time>2018-09-12T15:34:40.000Z</time>
      </trkpt>
      <trkpt lat="44.34609" lon="2.59221">
        <ele>641</ele>
        <time>2018-09-12T15:34:41.000Z</time>
      </trkpt>
      <trkpt lat="44.3461" lon="2.59217">
        <ele>641</ele>
        <time>2018-09-12T15:34:42.000Z</time>
      </trkpt>
      <trkpt lat="44.34612" lon="2.59213">
        <ele>641</ele>
        <time>2018-09-12T15:34:43.000Z</time>
      </trkpt>
      <trkpt lat="44.34614" lon="2.5921">
        <ele>641</ele>
        <time>2018-09-12T15:34:44.000Z</time>
      </trkpt>
      <trkpt lat="44.34615" lon="2.59206">
        <ele>641</ele>
        <time>2018-09-12T15:34:45.000Z</time>
      </trkpt>
      <trkpt lat="44.34617" lon="2.59202">
        <ele>641</ele>
        <time>2018-09-12T15:34:46.000Z</time>
      </trkpt>
      <trkpt lat="44.34619" lon="2.59198">
        <ele>641</ele>
        <time>2018-09-12T15:34:47.000Z</time>
      </trkpt>
      <trkpt lat="44.34621" lon="2.59193">
        <ele>641</ele>
        <time>2018-09-12T15:34:48.000Z</time>
      </trkpt>
      <trkpt lat="44.34622" lon="2.59189">
        <ele>641</ele>
        <time>2018-09-12T15:34:49.000Z</time>
      </trkpt>
      <trkpt lat="44.34624" lon="2.59185">
        <ele>641</ele>
        <time>2018-09-12T15:34:50.000Z</time>
      </trkpt>
      <trkpt lat="44.34625" lon="2.59181">
        <ele>641</ele>
        <time>2018-09-12T15:34:51.000Z</time>
      </trkpt>
      <trkpt lat="44.34627" lon="2.59178">
        <ele>641</ele>
        <time>2018-09-12T15:34:52.000Z</time>
      </trkpt>
      <trkpt lat="44.34629" lon="2.59174">
        <ele>641</ele>
        <time>2018-09-12T15:34:53.000Z</time>
      </trkpt>
      <trkpt lat="44.3463" lon="2.59171">
        <ele>641</ele>
        <time>2018-09-12T15:34:54.000Z</time>
      </trkpt>
      <trkpt lat="44.34632" lon="2.59167">
        <ele>641</ele>
        <time>2018-09-12T15:34:55.000Z</time>
      </trkpt>
      <trkpt lat="44.34633" lon="2.59163">
        <ele>641</ele>
        <time>2018-09-12T15:34:56.000Z</time>
      </trkpt>
      <trkpt lat="44.34635" lon="2.59159">
        <ele>641</ele>
        <time>2018-09-12T15:34:57.000Z</time>
      </trkpt>
      <trkpt lat="44.34636" lon="2.59156">
        <ele>641</ele>
        <time>2018-09-12T15:34:58.000Z</time>
      </trkpt>
      <trkpt lat="44.34638" lon="2.59152">
        <ele>641</ele>
        <time>2018-09-12T15:34:59.000Z</time>
      </trkpt>
      <trkpt lat="44.3464" lon="2.59148">
        <ele>641</ele>
        <time>2018-09-12T15:35:00.000Z</time>
      </trkpt>
      <trkpt lat="44.34641" lon="2.59144">
        <ele>641</ele>
        <time>2018-09-12T15:35:01.000Z</time>
      </trkpt>
      <trkpt lat="44.34642" lon="2.5914">
        <ele>641</ele>
        <time>2018-09-12T15:35:02.000Z</time>
      </trkpt>
      <trkpt lat="44.34643" lon="2.59136">
        <ele>641</ele>
        <time>2018-09-12T15:35:03.000Z</time>
      </trkpt>
      <trkpt lat="44.34645" lon="2.59132">
        <ele>641</ele>
        <time>2018-09-12T15:35:04.000Z</time>
      </trkpt>
      <trkpt lat="44.34646" lon="2.59128">
        <ele>641</ele>
        <time>2018-09-12T15:35:05.000Z</time>
      </trkpt>
      <trkpt lat="44.34648" lon="2.59124">
        <ele>641</ele>
        <time>2018-09-12T15:35:06.000Z</time>
      </trkpt>
      <trkpt lat="44.34649" lon="2.5912">
        <ele>641</ele>
        <time>2018-09-12T15:35:07.000Z</time>
      </trkpt>
      <trkpt lat="44.34651" lon="2.59116">
        <ele>641</ele>
        <time>2018-09-12T15:35:08.000Z</time>
      </trkpt>
      <trkpt lat="44.34653" lon="2.59112">
        <ele>641</ele>
        <time>2018-09-12T15:35:09.000Z</time>
      </trkpt>
      <trkpt lat="44.34654" lon="2.59107">
        <ele>641</ele>
        <time>2018-09-12T15:35:10.000Z</time>
      </trkpt>
      <trkpt lat="44.34656" lon="2.59103">
        <ele>641</ele>
        <time>2018-09-12T15:35:11.000Z</time>
      </trkpt>
      <trkpt lat="44.34658" lon="2.59099">
        <ele>641</ele>
        <time>2018-09-12T15:35:12.000Z</time>
      </trkpt>
      <trkpt lat="44.34659" lon="2.59095">
        <ele>641</ele>
        <time>2018-09-12T15:35:13.000Z</time>
      </trkpt>
      <trkpt lat="44.34661" lon="2.59091">
        <ele>641</ele>
        <time>2018-09-12T15:35:14.000Z</time>
      </trkpt>
      <trkpt lat="44.34662" lon="2.59087">
        <ele>641</ele>
        <time>2018-09-12T15:35:15.000Z</time>
      </trkpt>
      <trkpt lat="44.34664" lon="2.59083">
        <ele>641</ele>
        <time>2018-09-12T15:35:16.000Z</time>
      </trkpt>
      <trkpt lat="44.34665" lon="2.59078">
        <ele>641</ele>
        <time>2018-09-12T15:35:17.000Z</time>
      </trkpt>
      <trkpt lat="44.34667" lon="2.59074">
        <ele>641</ele>
        <time>2018-09-12T15:35:18.000Z</time>
      </trkpt>
      <trkpt lat="44.34668" lon="2.5907">
        <ele>641</ele>
        <time>2018-09-12T15:35:19.000Z</time>
      </trkpt>
      <trkpt lat="44.34669" lon="2.59066">
        <ele>641</ele>
        <time>2018-09-12T15:35:20.000Z</time>
      </trkpt>
      <trkpt lat="44.3467" lon="2.59061">
        <ele>641</ele>
        <time>2018-09-12T15:35:21.000Z</time>
      </trkpt>
      <trkpt lat="44.34671" lon="2.59057">
        <ele>641</ele>
        <time>2018-09-12T15:35:22.000Z</time>
      </trkpt>
      <trkpt lat="44.34673" lon="2.59053">
        <ele>641</ele>
        <time>2018-09-12T15:35:23.000Z</time>
      </trkpt>
      <trkpt lat="44.34675" lon="2.59049">
        <ele>641</ele>
        <time>2018-09-12T15:35:24.000Z</time>
      </trkpt>
      <trkpt lat="44.34676" lon="2.59045">
        <ele>641</ele>
        <time>2018-09-12T15:35:25.000Z</time>
      </trkpt>
      <trkpt lat="44.34678" lon="2.59041">
        <ele>641</ele>
        <time>2018-09-12T15:35:26.000Z</time>
      </trkpt>
      <trkpt lat="44.34679" lon="2.59037">
        <ele>641</ele>
        <time>2018-09-12T15:35:27.000Z</time>
      </trkpt>
      <trkpt lat="44.34681" lon="2.59033">
        <ele>641</ele>
        <time>2018-09-12T15:35:28.000Z</time>
      </trkpt>
      <trkpt lat="44.34682" lon="2.59029">
        <ele>641</ele>
        <time>2018-09-12T15:35:29.000Z</time>
      </trkpt>
      <trkpt lat="44.34684" lon="2.59025">
        <ele>641</ele>
        <time>2018-09-12T15:35:30.000Z</time>
      </trkpt>
      <trkpt lat="44.34685" lon="2.59022">
        <ele>641</ele>
        <time>2018-09-12T15:35:31.000Z</time>
      </trkpt>
      <trkpt lat="44.34686" lon="2.59018">
        <ele>641</ele>
        <time>2018-09-12T15:35:32.000Z</time>
      </trkpt>
      <trkpt lat="44.34688" lon="2.59014">
        <ele>641</ele>
        <time>2018-09-12T15:35:33.000Z</time>
      </trkpt>
      <trkpt lat="44.3469" lon="2.5901">
        <ele>641</ele>
        <time>2018-09-12T15:35:34.000Z</time>
      </trkpt>
      <trkpt lat="44.34691" lon="2.59006">
        <ele>641</ele>
        <time>2018-09-12T15:35:35.000Z</time>
      </trkpt>
      <trkpt lat="44.34693" lon="2.59002">
        <ele>641</ele>
        <time>2018-09-12T15:35:36.000Z</time>
      </trkpt>
      <trkpt lat="44.34694" lon="2.58998">
        <ele>641</ele>
        <time>2018-09-12T15:35:37.000Z</time>
      </trkpt>
      <trkpt lat="44.34696" lon="2.58995">
        <ele>641</ele>
        <time>2018-09-12T15:35:38.000Z</time>
      </trkpt>
      <trkpt lat="44.34697" lon="2.58991">
        <ele>641</ele>
        <time>2018-09-12T15:35:39.000Z</time>
      </trkpt>
      <trkpt lat="44.34699" lon="2.58987">
        <ele>641</ele>
        <time>2018-09-12T15:35:40.000Z</time>
      </trkpt>
      <trkpt lat="44.347" lon="2.58983">
        <ele>641</ele>
        <time>2018-09-12T15:35:41.000Z</time>
      </trkpt>
      <trkpt lat="44.34702" lon="2.5898">
        <ele>641</ele>
        <time>2018-09-12T15:35:42.000Z</time>
      </trkpt>
      <trkpt lat="44.34703" lon="2.58977">
        <ele>641</ele>
        <time>2018-09-12T15:35:43.000Z</time>
      </trkpt>
      <trkpt lat="44.34705" lon="2.58973">
        <ele>641</ele>
        <time>2018-09-12T15:35:44.000Z</time>
      </trkpt>
      <trkpt lat="44.34706" lon="2.5897">
        <ele>641</ele>
        <time>2018-09-12T15:35:45.000Z</time>
      </trkpt>
      <trkpt lat="44.34707" lon="2.58967">
        <ele>641</ele>
        <time>2018-09-12T15:35:46.000Z</time>
      </trkpt>
      <trkpt lat="44.34709" lon="2.58963">
        <ele>641</ele>
        <time>2018-09-12T15:35:47.000Z</time>
      </trkpt>
      <trkpt lat="44.3471" lon="2.58959">
        <ele>641</ele>
        <time>2018-09-12T15:35:48.000Z</time>
      </trkpt>
      <trkpt lat="44.34712" lon="2.58956">
        <ele>640.94000563207</ele>
        <time>2018-09-12T15:35:49.000Z</time>
      </trkpt>
      <trkpt lat="44.34713" lon="2.58952">
        <ele>640.06000563193</ele>
        <time>2018-09-12T15:35:50.000Z</time>
      </trkpt>
      <trkpt lat="44.34714" lon="2.58948">
        <ele>641</ele>
        <time>2018-09-12T15:35:51.000Z</time>
      </trkpt>
      <trkpt lat="44.34715" lon="2.58944">
        <ele>641</ele>
        <time>2018-09-12T15:35:52.000Z</time>
      </trkpt>
      <trkpt lat="44.34716" lon="2.5894">
        <ele>641</ele>
        <time>2018-09-12T15:35:53.000Z</time>
      </trkpt>
      <trkpt lat="44.34717" lon="2.58936">
        <ele>641</ele>
        <time>2018-09-12T15:35:54.000Z</time>
      </trkpt>
      <trkpt lat="44.34719" lon="2.58932">
        <ele>641</ele>
        <time>2018-09-12T15:35:55.000Z</time>
      </trkpt>
      <trkpt lat="44.34721" lon="2.58929">
        <ele>641.05608057995</ele>
        <time>2018-09-12T15:35:56.000Z</time>
      </trkpt>
      <trkpt lat="44.34723" lon="2.58925">
        <ele>641.9906572242</ele>
        <time>2018-09-12T15:35:57.000Z</time>
      </trkpt>
      <trkpt lat="44.34725" lon="2.58922">
        <ele>642</ele>
        <time>2018-09-12T15:35:58.000Z</time>
      </trkpt>
      <trkpt lat="44.34726" lon="2.58918">
        <ele>642</ele>
        <time>2018-09-12T15:35:59.000Z</time>
      </trkpt>
      <trkpt lat="44.34728" lon="2.58914">
        <ele>642</ele>
        <time>2018-09-12T15:36:00.000Z</time>
      </trkpt>
      <trkpt lat="44.34729" lon="2.5891">
        <ele>642</ele>
        <time>2018-09-12T15:36:01.000Z</time>
      </trkpt>
      <trkpt lat="44.3473" lon="2.58905">
        <ele>642</ele>
        <time>2018-09-12T15:36:02.000Z</time>
      </trkpt>
      <trkpt lat="44.34731" lon="2.58901">
        <ele>642</ele>
        <time>2018-09-12T15:36:03.000Z</time>
      </trkpt>
      <trkpt lat="44.34733" lon="2.58897">
        <ele>642</ele>
        <time>2018-09-12T15:36:04.000Z</time>
      </trkpt>
      <trkpt lat="44.34734" lon="2.58893">
        <ele>642.05939979216</ele>
        <time>2018-09-12T15:36:05.000Z</time>
      </trkpt>
      <trkpt lat="44.34736" lon="2.58889">
        <ele>643</ele>
        <time>2018-09-12T15:36:06.000Z</time>
      </trkpt>
      <trkpt lat="44.34738" lon="2.58885">
        <ele>643</ele>
        <time>2018-09-12T15:36:07.000Z</time>
      </trkpt>
      <trkpt lat="44.34739" lon="2.58881">
        <ele>643</ele>
        <time>2018-09-12T15:36:08.000Z</time>
      </trkpt>
      <trkpt lat="44.34741" lon="2.58877">
        <ele>643</ele>
        <time>2018-09-12T15:36:09.000Z</time>
      </trkpt>
      <trkpt lat="44.34743" lon="2.58874">
        <ele>643</ele>
        <time>2018-09-12T15:36:10.000Z</time>
      </trkpt>
      <trkpt lat="44.34745" lon="2.5887">
        <ele>643</ele>
        <time>2018-09-12T15:36:11.000Z</time>
      </trkpt>
      <trkpt lat="44.34746" lon="2.58866">
        <ele>643</ele>
        <time>2018-09-12T15:36:12.000Z</time>
      </trkpt>
      <trkpt lat="44.34747" lon="2.58862">
        <ele>643</ele>
        <time>2018-09-12T15:36:13.000Z</time>
      </trkpt>
      <trkpt lat="44.34749" lon="2.58858">
        <ele>643</ele>
        <time>2018-09-12T15:36:14.000Z</time>
      </trkpt>
      <trkpt lat="44.3475" lon="2.58854">
        <ele>643</ele>
        <time>2018-09-12T15:36:15.000Z</time>
      </trkpt>
      <trkpt lat="44.34751" lon="2.5885">
        <ele>643</ele>
        <time>2018-09-12T15:36:16.000Z</time>
      </trkpt>
      <trkpt lat="44.34752" lon="2.58847">
        <ele>643</ele>
        <time>2018-09-12T15:36:17.000Z</time>
      </trkpt>
      <trkpt lat="44.34754" lon="2.58843">
        <ele>643</ele>
        <time>2018-09-12T15:36:18.000Z</time>
      </trkpt>
      <trkpt lat="44.34755" lon="2.58838">
        <ele>643</ele>
        <time>2018-09-12T15:36:19.000Z</time>
      </trkpt>
      <trkpt lat="44.34756" lon="2.58834">
        <ele>644</ele>
        <time>2018-09-12T15:36:20.000Z</time>
      </trkpt>
      <trkpt lat="44.34758" lon="2.58829">
        <ele>644</ele>
        <time>2018-09-12T15:36:21.000Z</time>
      </trkpt>
      <trkpt lat="44.34759" lon="2.58825">
        <ele>644</ele>
        <time>2018-09-12T15:36:22.000Z</time>
      </trkpt>
      <trkpt lat="44.3476" lon="2.58821">
        <ele>644</ele>
        <time>2018-09-12T15:36:23.000Z</time>
      </trkpt>
      <trkpt lat="44.34761" lon="2.58817">
        <ele>644</ele>
        <time>2018-09-12T15:36:24.000Z</time>
      </trkpt>
      <trkpt lat="44.34763" lon="2.58813">
        <ele>643.9439307119</ele>
        <time>2018-09-12T15:36:25.000Z</time>
      </trkpt>
      <trkpt lat="44.34764" lon="2.58809">
        <ele>643.00934288756</ele>
        <time>2018-09-12T15:36:26.000Z</time>
      </trkpt>
      <trkpt lat="44.34766" lon="2.58805">
        <ele>643</ele>
        <time>2018-09-12T15:36:27.000Z</time>
      </trkpt>
      <trkpt lat="44.34768" lon="2.58802">
        <ele>643</ele>
        <time>2018-09-12T15:36:28.000Z</time>
      </trkpt>
      <trkpt lat="44.3477" lon="2.58798">
        <ele>643</ele>
        <time>2018-09-12T15:36:29.000Z</time>
      </trkpt>
      <trkpt lat="44.34772" lon="2.58795">
        <ele>643</ele>
        <time>2018-09-12T15:36:30.000Z</time>
      </trkpt>
      <trkpt lat="44.34774" lon="2.58791">
        <ele>643</ele>
        <time>2018-09-12T15:36:31.000Z</time>
      </trkpt>
      <trkpt lat="44.34776" lon="2.58788">
        <ele>643</ele>
        <time>2018-09-12T15:36:32.000Z</time>
      </trkpt>
      <trkpt lat="44.34778" lon="2.58784">
        <ele>643</ele>
        <time>2018-09-12T15:36:33.000Z</time>
      </trkpt>
      <trkpt lat="44.3478" lon="2.5878">
        <ele>643</ele>
        <time>2018-09-12T15:36:34.000Z</time>
      </trkpt>
      <trkpt lat="44.34782" lon="2.58777">
        <ele>643</ele>
        <time>2018-09-12T15:36:35.000Z</time>
      </trkpt>
      <trkpt lat="44.34784" lon="2.58773">
        <ele>643</ele>
        <time>2018-09-12T15:36:36.000Z</time>
      </trkpt>
      <trkpt lat="44.34787" lon="2.5877">
        <ele>643</ele>
        <time>2018-09-12T15:36:37.000Z</time>
      </trkpt>
      <trkpt lat="44.34789" lon="2.58766">
        <ele>643</ele>
        <time>2018-09-12T15:36:38.000Z</time>
      </trkpt>
      <trkpt lat="44.34791" lon="2.58763">
        <ele>643</ele>
        <time>2018-09-12T15:36:39.000Z</time>
      </trkpt>
      <trkpt lat="44.34793" lon="2.5876">
        <ele>643</ele>
        <time>2018-09-12T15:36:40.000Z</time>
      </trkpt>
      <trkpt lat="44.34796" lon="2.58757">
        <ele>643</ele>
        <time>2018-09-12T15:36:41.000Z</time>
      </trkpt>
      <trkpt lat="44.34798" lon="2.58754">
        <ele>643</ele>
        <time>2018-09-12T15:36:42.000Z</time>
      </trkpt>
      <trkpt lat="44.34801" lon="2.5875">
        <ele>643</ele>
        <time>2018-09-12T15:36:43.000Z</time>
      </trkpt>
      <trkpt lat="44.34803" lon="2.58747">
        <ele>642.94230153846</ele>
        <time>2018-09-12T15:36:44.000Z</time>
      </trkpt>
      <trkpt lat="44.34805" lon="2.58744">
        <ele>642</ele>
        <time>2018-09-12T15:36:45.000Z</time>
      </trkpt>
      <trkpt lat="44.34808" lon="2.58741">
        <ele>642</ele>
        <time>2018-09-12T15:36:46.000Z</time>
      </trkpt>
      <trkpt lat="44.3481" lon="2.58738">
        <ele>642</ele>
        <time>2018-09-12T15:36:47.000Z</time>
      </trkpt>
      <trkpt lat="44.34812" lon="2.58734">
        <ele>642</ele>
        <time>2018-09-12T15:36:48.000Z</time>
      </trkpt>
      <trkpt lat="44.34814" lon="2.58731">
        <ele>642</ele>
        <time>2018-09-12T15:36:49.000Z</time>
      </trkpt>
      <trkpt lat="44.34817" lon="2.58727">
        <ele>642</ele>
        <time>2018-09-12T15:36:50.000Z</time>
      </trkpt>
      <trkpt lat="44.34819" lon="2.58724">
        <ele>641.94000563207</ele>
        <time>2018-09-12T15:36:51.000Z</time>
      </trkpt>
      <trkpt lat="44.34821" lon="2.5872">
        <ele>641</ele>
        <time>2018-09-12T15:36:52.000Z</time>
      </trkpt>
      <trkpt lat="44.34823" lon="2.58717">
        <ele>641</ele>
        <time>2018-09-12T15:36:53.000Z</time>
      </trkpt>
      <trkpt lat="44.34825" lon="2.58714">
        <ele>641</ele>
        <time>2018-09-12T15:36:54.000Z</time>
      </trkpt>
      <trkpt lat="44.34827" lon="2.5871">
        <ele>641</ele>
        <time>2018-09-12T15:36:55.000Z</time>
      </trkpt>
      <trkpt lat="44.3483" lon="2.58707">
        <ele>641</ele>
        <time>2018-09-12T15:36:56.000Z</time>
      </trkpt>
      <trkpt lat="44.34832" lon="2.58703">
        <ele>641</ele>
        <time>2018-09-12T15:36:57.000Z</time>
      </trkpt>
      <trkpt lat="44.34834" lon="2.587">
        <ele>641</ele>
        <time>2018-09-12T15:36:58.000Z</time>
      </trkpt>
      <trkpt lat="44.34836" lon="2.58696">
        <ele>641</ele>
        <time>2018-09-12T15:36:59.000Z</time>
      </trkpt>
      <trkpt lat="44.34838" lon="2.58693">
        <ele>640.94544904466</ele>
        <time>2018-09-12T15:37:00.000Z</time>
      </trkpt>
      <trkpt lat="44.3484" lon="2.58689">
        <ele>640.0363634248</ele>
        <time>2018-09-12T15:37:01.000Z</time>
      </trkpt>
      <trkpt lat="44.34843" lon="2.58686">
        <ele>640</ele>
        <time>2018-09-12T15:37:02.000Z</time>
      </trkpt>
      <trkpt lat="44.34845" lon="2.58682">
        <ele>640</ele>
        <time>2018-09-12T15:37:03.000Z</time>
      </trkpt>
      <trkpt lat="44.34847" lon="2.58678">
        <ele>640</ele>
        <time>2018-09-12T15:37:04.000Z</time>
      </trkpt>
      <trkpt lat="44.34849" lon="2.58675">
        <ele>640</ele>
        <time>2018-09-12T15:37:05.000Z</time>
      </trkpt>
      <trkpt lat="44.34851" lon="2.58671">
        <ele>640</ele>
        <time>2018-09-12T15:37:06.000Z</time>
      </trkpt>
      <trkpt lat="44.34853" lon="2.58667">
        <ele>640</ele>
        <time>2018-09-12T15:37:07.000Z</time>
      </trkpt>
      <trkpt lat="44.34856" lon="2.58664">
        <ele>640</ele>
        <time>2018-09-12T15:37:08.000Z</time>
      </trkpt>
      <trkpt lat="44.34858" lon="2.58661">
        <ele>640</ele>
        <time>2018-09-12T15:37:09.000Z</time>
      </trkpt>
      <trkpt lat="44.3486" lon="2.58657">
        <ele>640</ele>
        <time>2018-09-12T15:37:10.000Z</time>
      </trkpt>
      <trkpt lat="44.34862" lon="2.58654">
        <ele>639</ele>
        <time>2018-09-12T15:37:11.000Z</time>
      </trkpt>
      <trkpt lat="44.34865" lon="2.58651">
        <ele>639</ele>
        <time>2018-09-12T15:37:12.000Z</time>
      </trkpt>
      <trkpt lat="44.34867" lon="2.58647">
        <ele>639</ele>
        <time>2018-09-12T15:37:13.000Z</time>
      </trkpt>
      <trkpt lat="44.34869" lon="2.58644">
        <ele>639</ele>
        <time>2018-09-12T15:37:14.000Z</time>
      </trkpt>
      <trkpt lat="44.34871" lon="2.58641">
        <ele>639</ele>
        <time>2018-09-12T15:37:15.000Z</time>
      </trkpt>
      <trkpt lat="44.34874" lon="2.58637">
        <ele>639</ele>
        <time>2018-09-12T15:37:16.000Z</time>
      </trkpt>
      <trkpt lat="44.34876" lon="2.58634">
        <ele>638</ele>
        <time>2018-09-12T15:37:17.000Z</time>
      </trkpt>
      <trkpt lat="44.34879" lon="2.58631">
        <ele>638</ele>
        <time>2018-09-12T15:37:18.000Z</time>
      </trkpt>
      <trkpt lat="44.34882" lon="2.58627">
        <ele>638</ele>
        <time>2018-09-12T15:37:19.000Z</time>
      </trkpt>
      <trkpt lat="44.34884" lon="2.58624">
        <ele>638</ele>
        <time>2018-09-12T15:37:20.000Z</time>
      </trkpt>
      <trkpt lat="44.34887" lon="2.5862">
        <ele>638</ele>
        <time>2018-09-12T15:37:21.000Z</time>
      </trkpt>
      <trkpt lat="44.34889" lon="2.58617">
        <ele>637.93999436807</ele>
        <time>2018-09-12T15:37:22.000Z</time>
      </trkpt>
      <trkpt lat="44.34892" lon="2.58614">
        <ele>637</ele>
        <time>2018-09-12T15:37:23.000Z</time>
      </trkpt>
      <trkpt lat="44.34894" lon="2.58611">
        <ele>637</ele>
        <time>2018-09-12T15:37:24.000Z</time>
      </trkpt>
      <trkpt lat="44.34897" lon="2.58608">
        <ele>637</ele>
        <time>2018-09-12T15:37:25.000Z</time>
      </trkpt>
      <trkpt lat="44.34899" lon="2.58605">
        <ele>637</ele>
        <time>2018-09-12T15:37:26.000Z</time>
      </trkpt>
      <trkpt lat="44.34901" lon="2.58603">
        <ele>637</ele>
        <time>2018-09-12T15:37:27.000Z</time>
      </trkpt>
      <trkpt lat="44.34903" lon="2.586">
        <ele>637</ele>
        <time>2018-09-12T15:37:28.000Z</time>
      </trkpt>
      <trkpt lat="44.34906" lon="2.58598">
        <ele>637</ele>
        <time>2018-09-12T15:37:29.000Z</time>
      </trkpt>
      <trkpt lat="44.34908" lon="2.58596">
        <ele>637</ele>
        <time>2018-09-12T15:37:30.000Z</time>
      </trkpt>
      <trkpt lat="44.34911" lon="2.58593">
        <ele>637</ele>
        <time>2018-09-12T15:37:31.000Z</time>
      </trkpt>
      <trkpt lat="44.34914" lon="2.58591">
        <ele>637</ele>
        <time>2018-09-12T15:37:32.000Z</time>
      </trkpt>
      <trkpt lat="44.34916" lon="2.58588">
        <ele>637</ele>
        <time>2018-09-12T15:37:33.000Z</time>
      </trkpt>
      <trkpt lat="44.34918" lon="2.58586">
        <ele>637</ele>
        <time>2018-09-12T15:37:34.000Z</time>
      </trkpt>
      <trkpt lat="44.3492" lon="2.58583">
        <ele>637</ele>
        <time>2018-09-12T15:37:35.000Z</time>
      </trkpt>
      <trkpt lat="44.34922" lon="2.58581">
        <ele>636</ele>
        <time>2018-09-12T15:37:37.000Z</time>
      </trkpt>
      <trkpt lat="44.34919" lon="2.58583">
        <ele>636</ele>
        <time>2018-09-12T15:37:40.000Z</time>
      </trkpt>
      <trkpt lat="44.34918" lon="2.58585">
        <ele>635.94546004631</ele>
        <time>2018-09-12T15:37:41.000Z</time>
      </trkpt>
      <trkpt lat="44.34917" lon="2.58587">
        <ele>635.03636384794</ele>
        <time>2018-09-12T15:37:42.000Z</time>
      </trkpt>
      <trkpt lat="44.34916" lon="2.5859">
        <ele>635</ele>
        <time>2018-09-12T15:37:43.000Z</time>
      </trkpt>
      <trkpt lat="44.34914" lon="2.58592">
        <ele>634.94058828748</ele>
        <time>2018-09-12T15:37:44.000Z</time>
      </trkpt>
      <trkpt lat="44.34912" lon="2.58595">
        <ele>634</ele>
        <time>2018-09-12T15:37:45.000Z</time>
      </trkpt>
      <trkpt lat="44.3491" lon="2.58598">
        <ele>634</ele>
        <time>2018-09-12T15:37:46.000Z</time>
      </trkpt>
      <trkpt lat="44.34909" lon="2.586">
        <ele>634</ele>
        <time>2018-09-12T15:37:47.000Z</time>
      </trkpt>
      <trkpt lat="44.34906" lon="2.58602">
        <ele>633</ele>
        <time>2018-09-12T15:37:48.000Z</time>
      </trkpt>
      <trkpt lat="44.34904" lon="2.58602">
        <ele>633</ele>
        <time>2018-09-12T15:37:49.000Z</time>
      </trkpt>
      <trkpt lat="44.34902" lon="2.586">
        <ele>633</ele>
        <time>2018-09-12T15:37:51.000Z</time>
      </trkpt>
      <trkpt lat="44.34903" lon="2.58597">
        <ele>633</ele>
        <time>2018-09-12T15:37:52.000Z</time>
      </trkpt>
      <trkpt lat="44.34904" lon="2.58594">
        <ele>632.95420302317</ele>
        <time>2018-09-12T15:37:53.000Z</time>
      </trkpt>
      <trkpt lat="44.34906" lon="2.5859">
        <ele>632.19083865042</ele>
        <time>2018-09-12T15:37:54.000Z</time>
      </trkpt>
      <trkpt lat="44.34907" lon="2.58586">
        <ele>632</ele>
        <time>2018-09-12T15:37:55.000Z</time>
      </trkpt>
      <trkpt lat="44.34909" lon="2.58584">
        <ele>632</ele>
        <time>2018-09-12T15:37:56.000Z</time>
      </trkpt>
      <trkpt lat="44.34911" lon="2.58582">
        <ele>632</ele>
        <time>2018-09-12T15:37:57.000Z</time>
      </trkpt>
      <trkpt lat="44.34913" lon="2.5858">
        <ele>632</ele>
        <time>2018-09-12T15:37:58.000Z</time>
      </trkpt>
      <trkpt lat="44.34915" lon="2.58578">
        <ele>632</ele>
        <time>2018-09-12T15:37:59.000Z</time>
      </trkpt>
      <trkpt lat="44.34918" lon="2.58577">
        <ele>632</ele>
        <time>2018-09-12T15:38:00.000Z</time>
      </trkpt>
      <trkpt lat="44.34921" lon="2.58576">
        <ele>631.93999436807</ele>
        <time>2018-09-12T15:38:02.000Z</time>
      </trkpt>
      <trkpt lat="44.34924" lon="2.58575">
        <ele>631</ele>
        <time>2018-09-12T15:38:03.000Z</time>
      </trkpt>
      <trkpt lat="44.34926" lon="2.58574">
        <ele>631</ele>
        <time>2018-09-12T15:38:04.000Z</time>
      </trkpt>
      <trkpt lat="44.34928" lon="2.58573">
        <ele>631</ele>
        <time>2018-09-12T15:38:05.000Z</time>
      </trkpt>
      <trkpt lat="44.3493" lon="2.58572">
        <ele>631</ele>
        <time>2018-09-12T15:38:06.000Z</time>
      </trkpt>
      <trkpt lat="44.34933" lon="2.58572">
        <ele>631</ele>
        <time>2018-09-12T15:38:07.000Z</time>
      </trkpt>
      <trkpt lat="44.34936" lon="2.58573">
        <ele>631</ele>
        <time>2018-09-12T15:38:08.000Z</time>
      </trkpt>
      <trkpt lat="44.34939" lon="2.58572">
        <ele>631</ele>
        <time>2018-09-12T15:38:09.000Z</time>
      </trkpt>
      <trkpt lat="44.34941" lon="2.58573">
        <ele>630</ele>
        <time>2018-09-12T15:38:10.000Z</time>
      </trkpt>
      <trkpt lat="44.34943" lon="2.58573">
        <ele>630</ele>
        <time>2018-09-12T15:38:11.000Z</time>
      </trkpt>
      <trkpt lat="44.34946" lon="2.58574">
        <ele>629.96899217114</ele>
        <time>2018-09-12T15:38:12.000Z</time>
      </trkpt>
      <trkpt lat="44.34949" lon="2.58574">
        <ele>629.19379644973</ele>
        <time>2018-09-12T15:38:13.000Z</time>
      </trkpt>
      <trkpt lat="44.34951" lon="2.58574">
        <ele>629</ele>
        <time>2018-09-12T15:38:14.000Z</time>
      </trkpt>
      <trkpt lat="44.34954" lon="2.58573">
        <ele>629</ele>
        <time>2018-09-12T15:38:15.000Z</time>
      </trkpt>
      <trkpt lat="44.34956" lon="2.58573">
        <ele>629</ele>
        <time>2018-09-12T15:38:16.000Z</time>
      </trkpt>
      <trkpt lat="44.34959" lon="2.58573">
        <ele>629</ele>
        <time>2018-09-12T15:38:17.000Z</time>
      </trkpt>
      <trkpt lat="44.34961" lon="2.58574">
        <ele>629</ele>
        <time>2018-09-12T15:38:18.000Z</time>
      </trkpt>
      <trkpt lat="44.34963" lon="2.58575">
        <ele>629</ele>
        <time>2018-09-12T15:38:19.000Z</time>
      </trkpt>
      <trkpt lat="44.34965" lon="2.58576">
        <ele>628.94546004631</ele>
        <time>2018-09-12T15:38:21.000Z</time>
      </trkpt>
      <trkpt lat="44.34967" lon="2.58578">
        <ele>628.03636384794</ele>
        <time>2018-09-12T15:38:22.000Z</time>
      </trkpt>
      <trkpt lat="44.3497" lon="2.58578">
        <ele>628</ele>
        <time>2018-09-12T15:38:24.000Z</time>
      </trkpt>
      <trkpt lat="44.34972" lon="2.58577">
        <ele>628</ele>
        <time>2018-09-12T15:38:25.000Z</time>
      </trkpt>
      <trkpt lat="44.34974" lon="2.58576">
        <ele>628</ele>
        <time>2018-09-12T15:38:26.000Z</time>
      </trkpt>
      <trkpt lat="44.34976" lon="2.58575">
        <ele>628</ele>
        <time>2018-09-12T15:38:27.000Z</time>
      </trkpt>
      <trkpt lat="44.34978" lon="2.58574">
        <ele>628</ele>
        <time>2018-09-12T15:38:28.000Z</time>
      </trkpt>
      <trkpt lat="44.3498" lon="2.58572">
        <ele>628</ele>
        <time>2018-09-12T15:38:29.000Z</time>
      </trkpt>
      <trkpt lat="44.34982" lon="2.58568">
        <ele>627</ele>
        <time>2018-09-12T15:38:31.000Z</time>
      </trkpt>
      <trkpt lat="44.34984" lon="2.58565">
        <ele>627</ele>
        <time>2018-09-12T15:38:33.000Z</time>
      </trkpt>
      <trkpt lat="44.34986" lon="2.58565">
        <ele>627</ele>
        <time>2018-09-12T15:38:34.000Z</time>
      </trkpt>
      <trkpt lat="44.34989" lon="2.58562">
        <ele>627</ele>
        <time>2018-09-12T15:38:36.000Z</time>
      </trkpt>
      <trkpt lat="44.3499" lon="2.58559">
        <ele>626</ele>
        <time>2018-09-12T15:38:38.000Z</time>
      </trkpt>
      <trkpt lat="44.34993" lon="2.58555">
        <ele>626</ele>
        <time>2018-09-12T15:38:40.000Z</time>
      </trkpt>
      <trkpt lat="44.34994" lon="2.58554">
        <ele>625.94000563207</ele>
        <time>2018-09-12T15:38:41.000Z</time>
      </trkpt>
      <trkpt lat="44.34996" lon="2.58553">
        <ele>625</ele>
        <time>2018-09-12T15:38:42.000Z</time>
      </trkpt>
      <trkpt lat="44.34998" lon="2.58552">
        <ele>625</ele>
        <time>2018-09-12T15:38:43.000Z</time>
      </trkpt>
      <trkpt lat="44.34999" lon="2.58551">
        <ele>625</ele>
        <time>2018-09-12T15:38:44.000Z</time>
      </trkpt>
      <trkpt lat="44.35001" lon="2.58548">
        <ele>624.94000563207</ele>
        <time>2018-09-12T15:38:45.000Z</time>
      </trkpt>
      <trkpt lat="44.35003" lon="2.58546">
        <ele>624</ele>
        <time>2018-09-12T15:38:46.000Z</time>
      </trkpt>
      <trkpt lat="44.35006" lon="2.58544">
        <ele>624</ele>
        <time>2018-09-12T15:38:47.000Z</time>
      </trkpt>
      <trkpt lat="44.35008" lon="2.58542">
        <ele>623</ele>
        <time>2018-09-12T15:38:48.000Z</time>
      </trkpt>
      <trkpt lat="44.3501" lon="2.58539">
        <ele>623</ele>
        <time>2018-09-12T15:38:49.000Z</time>
      </trkpt>
      <trkpt lat="44.35012" lon="2.58536">
        <ele>622.95419369968</ele>
        <time>2018-09-12T15:38:50.000Z</time>
      </trkpt>
      <trkpt lat="44.35014" lon="2.58535">
        <ele>622.19083678574</ele>
        <time>2018-09-12T15:38:51.000Z</time>
      </trkpt>
      <trkpt lat="44.35016" lon="2.58537">
        <ele>621</ele>
        <time>2018-09-12T15:38:52.000Z</time>
      </trkpt>
      <trkpt lat="44.35017" lon="2.5854">
        <ele>620.96906876394</ele>
        <time>2018-09-12T15:38:53.000Z</time>
      </trkpt>
      <trkpt lat="44.35018" lon="2.58544">
        <ele>620</ele>
        <time>2018-09-12T15:38:54.000Z</time>
      </trkpt>
      <trkpt lat="44.3502" lon="2.58547">
        <ele>620</ele>
        <time>2018-09-12T15:38:55.000Z</time>
      </trkpt>
      <trkpt lat="44.3502" lon="2.58551">
        <ele>619</ele>
        <time>2018-09-12T15:38:56.000Z</time>
      </trkpt>
      <trkpt lat="44.35021" lon="2.58553">
        <ele>618.94118237605</ele>
        <time>2018-09-12T15:38:57.000Z</time>
      </trkpt>
      <trkpt lat="44.35022" lon="2.58557">
        <ele>618</ele>
        <time>2018-09-12T15:38:58.000Z</time>
      </trkpt>
      <trkpt lat="44.35022" lon="2.5856">
        <ele>617.94546004631</ele>
        <time>2018-09-12T15:38:59.000Z</time>
      </trkpt>
      <trkpt lat="44.35022" lon="2.58564">
        <ele>617.03636384794</ele>
        <time>2018-09-12T15:39:00.000Z</time>
      </trkpt>
      <trkpt lat="44.35022" lon="2.58569">
        <ele>617</ele>
        <time>2018-09-12T15:39:01.000Z</time>
      </trkpt>
      <trkpt lat="44.35023" lon="2.58573">
        <ele>616.94058828748</ele>
        <time>2018-09-12T15:39:02.000Z</time>
      </trkpt>
      <trkpt lat="44.35023" lon="2.58576">
        <ele>616</ele>
        <time>2018-09-12T15:39:03.000Z</time>
      </trkpt>
      <trkpt lat="44.35023" lon="2.58579">
        <ele>616</ele>
        <time>2018-09-12T15:39:04.000Z</time>
      </trkpt>
      <trkpt lat="44.35024" lon="2.58583">
        <ele>616</ele>
        <time>2018-09-12T15:39:05.000Z</time>
      </trkpt>
      <trkpt lat="44.35024" lon="2.58587">
        <ele>615</ele>
        <time>2018-09-12T15:39:06.000Z</time>
      </trkpt>
      <trkpt lat="44.35024" lon="2.58591">
        <ele>615</ele>
        <time>2018-09-12T15:39:07.000Z</time>
      </trkpt>
      <trkpt lat="44.35024" lon="2.58595">
        <ele>614</ele>
        <time>2018-09-12T15:39:08.000Z</time>
      </trkpt>
      <trkpt lat="44.35025" lon="2.58599">
        <ele>614</ele>
        <time>2018-09-12T15:39:09.000Z</time>
      </trkpt>
      <trkpt lat="44.35025" lon="2.58604">
        <ele>614</ele>
        <time>2018-09-12T15:39:10.000Z</time>
      </trkpt>
      <trkpt lat="44.35025" lon="2.58607">
        <ele>613</ele>
        <time>2018-09-12T15:39:11.000Z</time>
      </trkpt>
      <trkpt lat="44.35026" lon="2.5861">
        <ele>613</ele>
        <time>2018-09-12T15:39:12.000Z</time>
      </trkpt>
      <trkpt lat="44.35027" lon="2.58613">
        <ele>612.94000563207</ele>
        <time>2018-09-12T15:39:13.000Z</time>
      </trkpt>
      <trkpt lat="44.35027" lon="2.58616">
        <ele>612</ele>
        <time>2018-09-12T15:39:14.000Z</time>
      </trkpt>
      <trkpt lat="44.35027" lon="2.58619">
        <ele>612</ele>
        <time>2018-09-12T15:39:15.000Z</time>
      </trkpt>
      <trkpt lat="44.35026" lon="2.58622">
        <ele>611.94494874174</ele>
        <time>2018-09-12T15:39:16.000Z</time>
      </trkpt>
      <trkpt lat="44.35026" lon="2.58625">
        <ele>611.02752562913</ele>
        <time>2018-09-12T15:39:17.000Z</time>
      </trkpt>
      <trkpt lat="44.35027" lon="2.58629">
        <ele>610.93999436807</ele>
        <time>2018-09-12T15:39:18.000Z</time>
      </trkpt>
      <trkpt lat="44.35026" lon="2.58632">
        <ele>610</ele>
        <time>2018-09-12T15:39:19.000Z</time>
      </trkpt>
      <trkpt lat="44.35025" lon="2.58635">
        <ele>610</ele>
        <time>2018-09-12T15:39:20.000Z</time>
      </trkpt>
      <trkpt lat="44.35025" lon="2.58638">
        <ele>610</ele>
        <time>2018-09-12T15:39:21.000Z</time>
      </trkpt>
      <trkpt lat="44.35025" lon="2.58641">
        <ele>610</ele>
        <time>2018-09-12T15:39:22.000Z</time>
      </trkpt>
      <trkpt lat="44.35025" lon="2.58645">
        <ele>609</ele>
        <time>2018-09-12T15:39:23.000Z</time>
      </trkpt>
      <trkpt lat="44.35025" lon="2.58648">
        <ele>609</ele>
        <time>2018-09-12T15:39:24.000Z</time>
      </trkpt>
      <trkpt lat="44.35025" lon="2.58651">
        <ele>608.94000563207</ele>
        <time>2018-09-12T15:39:25.000Z</time>
      </trkpt>
      <trkpt lat="44.35025" lon="2.58655">
        <ele>608</ele>
        <time>2018-09-12T15:39:26.000Z</time>
      </trkpt>
      <trkpt lat="44.35024" lon="2.58672">
        <ele>607</ele>
        <time>2018-09-12T15:39:30.000Z</time>
      </trkpt>
      <trkpt lat="44.35024" lon="2.58676">
        <ele>607</ele>
        <time>2018-09-12T15:39:31.000Z</time>
      </trkpt>
      <trkpt lat="44.35024" lon="2.58685">
        <ele>606</ele>
        <time>2018-09-12T15:39:34.000Z</time>
      </trkpt>
      <trkpt lat="44.35023" lon="2.58689">
        <ele>605.944449712</ele>
        <time>2018-09-12T15:39:35.000Z</time>
      </trkpt>
      <trkpt lat="44.3502" lon="2.58701">
        <ele>604.93999436807</ele>
        <time>2018-09-12T15:39:38.000Z</time>
      </trkpt>
      <trkpt lat="44.35013" lon="2.58711">
        <ele>602.0185242249</ele>
        <time>2018-09-12T15:39:41.000Z</time>
      </trkpt>
      <trkpt lat="44.35012" lon="2.58714">
        <ele>602</ele>
        <time>2018-09-12T15:39:42.000Z</time>
      </trkpt>
      <trkpt lat="44.35011" lon="2.58715">
        <ele>601.94000563207</ele>
        <time>2018-09-12T15:39:43.000Z</time>
      </trkpt>
      <trkpt lat="44.3501" lon="2.58718">
        <ele>601</ele>
        <time>2018-09-12T15:39:44.000Z</time>
      </trkpt>
      <trkpt lat="44.35008" lon="2.58721">
        <ele>601</ele>
        <time>2018-09-12T15:39:45.000Z</time>
      </trkpt>
      <trkpt lat="44.35006" lon="2.58725">
        <ele>600.93999436807</ele>
        <time>2018-09-12T15:39:46.000Z</time>
      </trkpt>
      <trkpt lat="44.35003" lon="2.58728">
        <ele>600</ele>
        <time>2018-09-12T15:39:47.000Z</time>
      </trkpt>
      <trkpt lat="44.35001" lon="2.58731">
        <ele>600</ele>
        <time>2018-09-12T15:39:48.000Z</time>
      </trkpt>
      <trkpt lat="44.34999" lon="2.58734">
        <ele>599.94286306396</ele>
        <time>2018-09-12T15:39:49.000Z</time>
      </trkpt>
      <trkpt lat="44.34997" lon="2.58737">
        <ele>599</ele>
        <time>2018-09-12T15:39:50.000Z</time>
      </trkpt>
      <trkpt lat="44.34995" lon="2.58741">
        <ele>599</ele>
        <time>2018-09-12T15:39:52.000Z</time>
      </trkpt>
      <trkpt lat="44.34996" lon="2.58744">
        <ele>596.94642285714</ele>
        <time>2018-09-12T15:39:56.000Z</time>
      </trkpt>
      <trkpt lat="44.34994" lon="2.58744">
        <ele>596</ele>
        <time>2018-09-12T15:39:58.000Z</time>
      </trkpt>
      <trkpt lat="44.34992" lon="2.58746">
        <ele>596</ele>
        <time>2018-09-12T15:39:59.000Z</time>
      </trkpt>
      <trkpt lat="44.3499" lon="2.58749">
        <ele>595.94595124426</ele>
        <time>2018-09-12T15:40:01.000Z</time>
      </trkpt>
      <trkpt lat="44.34985" lon="2.58754">
        <ele>595</ele>
        <time>2018-09-12T15:40:04.000Z</time>
      </trkpt>
      <trkpt lat="44.34984" lon="2.58757">
        <ele>595</ele>
        <time>2018-09-12T15:40:05.000Z</time>
      </trkpt>
      <trkpt lat="44.34982" lon="2.5876">
        <ele>595</ele>
        <time>2018-09-12T15:40:07.000Z</time>
      </trkpt>
      <trkpt lat="44.3498" lon="2.58763">
        <ele>595</ele>
        <time>2018-09-12T15:40:10.000Z</time>
      </trkpt>
      <trkpt lat="44.34979" lon="2.58765">
        <ele>595</ele>
        <time>2018-09-12T15:40:17.000Z</time>
      </trkpt>
      <trkpt lat="44.34981" lon="2.58766">
        <ele>594.9439307119</ele>
        <time>2018-09-12T15:40:21.000Z</time>
      </trkpt>
      <trkpt lat="44.34982" lon="2.58768">
        <ele>594.00934288756</ele>
        <time>2018-09-12T15:40:22.000Z</time>
      </trkpt>
      <trkpt lat="44.34984" lon="2.5877">
        <ele>594</ele>
        <time>2018-09-12T15:40:23.000Z</time>
      </trkpt>
      <trkpt lat="44.34985" lon="2.58774">
        <ele>594</ele>
        <time>2018-09-12T15:40:24.000Z</time>
      </trkpt>
      <trkpt lat="44.34987" lon="2.58778">
        <ele>593.19083865042</ele>
        <time>2018-09-12T15:40:26.000Z</time>
      </trkpt>
      <trkpt lat="44.34988" lon="2.58781">
        <ele>593</ele>
        <time>2018-09-12T15:40:28.000Z</time>
      </trkpt>
      <trkpt lat="44.34991" lon="2.58795">
        <ele>592</ele>
        <time>2018-09-12T15:40:34.000Z</time>
      </trkpt>
      <trkpt lat="44.34991" lon="2.58801">
        <ele>591.93999436807</ele>
        <time>2018-09-12T15:40:36.000Z</time>
      </trkpt>
      <trkpt lat="44.34989" lon="2.58816">
        <ele>590</ele>
        <time>2018-09-12T15:40:42.000Z</time>
      </trkpt>
      <trkpt lat="44.34991" lon="2.58829">
        <ele>589</ele>
        <time>2018-09-12T15:40:46.000Z</time>
      </trkpt>
      <trkpt lat="44.34992" lon="2.58835">
        <ele>588.19684737802</ele>
        <time>2018-09-12T15:40:48.000Z</time>
      </trkpt>
      <trkpt lat="44.34991" lon="2.58838">
        <ele>588</ele>
        <time>2018-09-12T15:40:49.000Z</time>
      </trkpt>
      <trkpt lat="44.34991" lon="2.58842">
        <ele>588</ele>
        <time>2018-09-12T15:40:50.000Z</time>
      </trkpt>
      <trkpt lat="44.34991" lon="2.58845">
        <ele>588</ele>
        <time>2018-09-12T15:40:51.000Z</time>
      </trkpt>
      <trkpt lat="44.34991" lon="2.58849">
        <ele>587.94494874174</ele>
        <time>2018-09-12T15:40:52.000Z</time>
      </trkpt>
      <trkpt lat="44.3499" lon="2.58863">
        <ele>586</ele>
        <time>2018-09-12T15:40:57.000Z</time>
      </trkpt>
      <trkpt lat="44.34992" lon="2.5888">
        <ele>585.94000563207</ele>
        <time>2018-09-12T15:41:01.000Z</time>
      </trkpt>
      <trkpt lat="44.34993" lon="2.58885">
        <ele>585</ele>
        <time>2018-09-12T15:41:02.000Z</time>
      </trkpt>
      <trkpt lat="44.34995" lon="2.589">
        <ele>585</ele>
        <time>2018-09-12T15:41:05.000Z</time>
      </trkpt>
      <trkpt lat="44.34996" lon="2.58914">
        <ele>584.93999436807</ele>
        <time>2018-09-12T15:41:08.000Z</time>
      </trkpt>
      <trkpt lat="44.34999" lon="2.58928">
        <ele>584</ele>
        <time>2018-09-12T15:41:11.000Z</time>
      </trkpt>
      <trkpt lat="44.34999" lon="2.58932">
        <ele>584</ele>
        <time>2018-09-12T15:41:12.000Z</time>
      </trkpt>
      <trkpt lat="44.34999" lon="2.58936">
        <ele>583</ele>
        <time>2018-09-12T15:41:14.000Z</time>
      </trkpt>
      <trkpt lat="44.34999" lon="2.5894">
        <ele>583</ele>
        <time>2018-09-12T15:41:16.000Z</time>
      </trkpt>
      <trkpt lat="44.34999" lon="2.58943">
        <ele>583</ele>
        <time>2018-09-12T15:41:17.000Z</time>
      </trkpt>
      <trkpt lat="44.34998" lon="2.58946">
        <ele>582</ele>
        <time>2018-09-12T15:41:18.000Z</time>
      </trkpt>
      <trkpt lat="44.34997" lon="2.58961">
        <ele>580</ele>
        <time>2018-09-12T15:41:22.000Z</time>
      </trkpt>
      <trkpt lat="44.34995" lon="2.58975">
        <ele>578.93999436807</ele>
        <time>2018-09-12T15:41:26.000Z</time>
      </trkpt>
      <trkpt lat="44.34994" lon="2.58982">
        <ele>578</ele>
        <time>2018-09-12T15:41:28.000Z</time>
      </trkpt>
      <trkpt lat="44.34994" lon="2.58988">
        <ele>577.94000563207</ele>
        <time>2018-09-12T15:41:31.000Z</time>
      </trkpt>
      <trkpt lat="44.34994" lon="2.58985">
        <ele>576.94443917702</ele>
        <time>2018-09-12T15:41:34.000Z</time>
      </trkpt>
      <trkpt lat="44.34995" lon="2.58983">
        <ele>576.0185242249</ele>
        <time>2018-09-12T15:41:35.000Z</time>
      </trkpt>
      <trkpt lat="44.35002" lon="2.58971">
        <ele>575</ele>
        <time>2018-09-12T15:41:40.000Z</time>
      </trkpt>
      <trkpt lat="44.35005" lon="2.58969">
        <ele>575</ele>
        <time>2018-09-12T15:41:41.000Z</time>
      </trkpt>
      <trkpt lat="44.35006" lon="2.58967">
        <ele>575</ele>
        <time>2018-09-12T15:41:42.000Z</time>
      </trkpt>
      <trkpt lat="44.35014" lon="2.58957">
        <ele>574</ele>
        <time>2018-09-12T15:41:46.000Z</time>
      </trkpt>
      <trkpt lat="44.35022" lon="2.58946">
        <ele>572</ele>
        <time>2018-09-12T15:41:50.000Z</time>
      </trkpt>
      <trkpt lat="44.35023" lon="2.58944">
        <ele>572</ele>
        <time>2018-09-12T15:41:51.000Z</time>
      </trkpt>
      <trkpt lat="44.35025" lon="2.58941">
        <ele>571.94949834506</ele>
        <time>2018-09-12T15:41:52.000Z</time>
      </trkpt>
      <trkpt lat="44.35027" lon="2.58939">
        <ele>571</ele>
        <time>2018-09-12T15:41:53.000Z</time>
      </trkpt>
      <trkpt lat="44.35031" lon="2.58933">
        <ele>571</ele>
        <time>2018-09-12T15:41:55.000Z</time>
      </trkpt>
      <trkpt lat="44.35032" lon="2.58929">
        <ele>571</ele>
        <time>2018-09-12T15:41:56.000Z</time>
      </trkpt>
      <trkpt lat="44.35034" lon="2.58926">
        <ele>570.94000563207</ele>
        <time>2018-09-12T15:41:57.000Z</time>
      </trkpt>
      <trkpt lat="44.35036" lon="2.58924">
        <ele>570</ele>
        <time>2018-09-12T15:41:58.000Z</time>
      </trkpt>
      <trkpt lat="44.35037" lon="2.58921">
        <ele>570</ele>
        <time>2018-09-12T15:41:59.000Z</time>
      </trkpt>
      <trkpt lat="44.35039" lon="2.58918">
        <ele>570</ele>
        <time>2018-09-12T15:42:00.000Z</time>
      </trkpt>
      <trkpt lat="44.35041" lon="2.58915">
        <ele>570</ele>
        <time>2018-09-12T15:42:01.000Z</time>
      </trkpt>
      <trkpt lat="44.35043" lon="2.58911">
        <ele>569</ele>
        <time>2018-09-12T15:42:02.000Z</time>
      </trkpt>
      <trkpt lat="44.35044" lon="2.58906">
        <ele>569</ele>
        <time>2018-09-12T15:42:03.000Z</time>
      </trkpt>
      <trkpt lat="44.35046" lon="2.58902">
        <ele>569</ele>
        <time>2018-09-12T15:42:04.000Z</time>
      </trkpt>
      <trkpt lat="44.35047" lon="2.58899">
        <ele>569</ele>
        <time>2018-09-12T15:42:05.000Z</time>
      </trkpt>
      <trkpt lat="44.35049" lon="2.58895">
        <ele>568</ele>
        <time>2018-09-12T15:42:06.000Z</time>
      </trkpt>
      <trkpt lat="44.3505" lon="2.58892">
        <ele>568</ele>
        <time>2018-09-12T15:42:07.000Z</time>
      </trkpt>
      <trkpt lat="44.35052" lon="2.58888">
        <ele>567.96694206133</ele>
        <time>2018-09-12T15:42:08.000Z</time>
      </trkpt>
      <trkpt lat="44.35055" lon="2.58884">
        <ele>567.14049359469</ele>
        <time>2018-09-12T15:42:09.000Z</time>
      </trkpt>
      <trkpt lat="44.35057" lon="2.5888">
        <ele>567</ele>
        <time>2018-09-12T15:42:10.000Z</time>
      </trkpt>
      <trkpt lat="44.3506" lon="2.58875">
        <ele>566.94340192243</ele>
        <time>2018-09-12T15:42:11.000Z</time>
      </trkpt>
      <trkpt lat="44.35063" lon="2.58872">
        <ele>566</ele>
        <time>2018-09-12T15:42:12.000Z</time>
      </trkpt>
      <trkpt lat="44.35065" lon="2.58868">
        <ele>566</ele>
        <time>2018-09-12T15:42:13.000Z</time>
      </trkpt>
      <trkpt lat="44.35067" lon="2.58865">
        <ele>566</ele>
        <time>2018-09-12T15:42:14.000Z</time>
      </trkpt>
      <trkpt lat="44.35069" lon="2.58861">
        <ele>566</ele>
        <time>2018-09-12T15:42:15.000Z</time>
      </trkpt>
      <trkpt lat="44.35071" lon="2.58858">
        <ele>566</ele>
        <time>2018-09-12T15:42:16.000Z</time>
      </trkpt>
      <trkpt lat="44.35072" lon="2.58855">
        <ele>565.04054451421</ele>
        <time>2018-09-12T15:42:17.000Z</time>
      </trkpt>
      <trkpt lat="44.35074" lon="2.58851">
        <ele>565</ele>
        <time>2018-09-12T15:42:18.000Z</time>
      </trkpt>
      <trkpt lat="44.35075" lon="2.58848">
        <ele>565</ele>
        <time>2018-09-12T15:42:19.000Z</time>
      </trkpt>
      <trkpt lat="44.35077" lon="2.58844">
        <ele>565</ele>
        <time>2018-09-12T15:42:20.000Z</time>
      </trkpt>
      <trkpt lat="44.35079" lon="2.5884">
        <ele>565</ele>
        <time>2018-09-12T15:42:21.000Z</time>
      </trkpt>
      <trkpt lat="44.35081" lon="2.58836">
        <ele>564</ele>
        <time>2018-09-12T15:42:22.000Z</time>
      </trkpt>
      <trkpt lat="44.35083" lon="2.58832">
        <ele>564</ele>
        <time>2018-09-12T15:42:23.000Z</time>
      </trkpt>
      <trkpt lat="44.35086" lon="2.58828">
        <ele>563.93999436807</ele>
        <time>2018-09-12T15:42:24.000Z</time>
      </trkpt>
      <trkpt lat="44.35088" lon="2.58825">
        <ele>563</ele>
        <time>2018-09-12T15:42:25.000Z</time>
      </trkpt>
      <trkpt lat="44.35089" lon="2.58822">
        <ele>563</ele>
        <time>2018-09-12T15:42:26.000Z</time>
      </trkpt>
      <trkpt lat="44.35091" lon="2.58818">
        <ele>563</ele>
        <time>2018-09-12T15:42:27.000Z</time>
      </trkpt>
      <trkpt lat="44.35093" lon="2.58816">
        <ele>563</ele>
        <time>2018-09-12T15:42:28.000Z</time>
      </trkpt>
      <trkpt lat="44.35095" lon="2.58815">
        <ele>562.94000563207</ele>
        <time>2018-09-12T15:42:29.000Z</time>
      </trkpt>
      <trkpt lat="44.35097" lon="2.58814">
        <ele>562</ele>
        <time>2018-09-12T15:42:30.000Z</time>
      </trkpt>
      <trkpt lat="44.35099" lon="2.58814">
        <ele>562</ele>
        <time>2018-09-12T15:42:31.000Z</time>
      </trkpt>
      <trkpt lat="44.35101" lon="2.58813">
        <ele>561</ele>
        <time>2018-09-12T15:42:32.000Z</time>
      </trkpt>
      <trkpt lat="44.35103" lon="2.58814">
        <ele>561</ele>
        <time>2018-09-12T15:42:33.000Z</time>
      </trkpt>
      <trkpt lat="44.35105" lon="2.58814">
        <ele>561</ele>
        <time>2018-09-12T15:42:34.000Z</time>
      </trkpt>
      <trkpt lat="44.35108" lon="2.58814">
        <ele>560.944449712</ele>
        <time>2018-09-12T15:42:35.000Z</time>
      </trkpt>
      <trkpt lat="44.35111" lon="2.58815">
        <ele>560.018512812</ele>
        <time>2018-09-12T15:42:36.000Z</time>
      </trkpt>
      <trkpt lat="44.35113" lon="2.58817">
        <ele>560</ele>
        <time>2018-09-12T15:42:37.000Z</time>
      </trkpt>
      <trkpt lat="44.35116" lon="2.58818">
        <ele>559.95454104687</ele>
        <time>2018-09-12T15:42:38.000Z</time>
      </trkpt>
      <trkpt lat="44.35119" lon="2.5882">
        <ele>559.19697263542</ele>
        <time>2018-09-12T15:42:39.000Z</time>
      </trkpt>
      <trkpt lat="44.35121" lon="2.58821">
        <ele>559</ele>
        <time>2018-09-12T15:42:40.000Z</time>
      </trkpt>
      <trkpt lat="44.35123" lon="2.58822">
        <ele>558.94000563207</ele>
        <time>2018-09-12T15:42:41.000Z</time>
      </trkpt>
      <trkpt lat="44.35126" lon="2.58823">
        <ele>558</ele>
        <time>2018-09-12T15:42:42.000Z</time>
      </trkpt>
      <trkpt lat="44.35129" lon="2.58823">
        <ele>558</ele>
        <time>2018-09-12T15:42:43.000Z</time>
      </trkpt>
      <trkpt lat="44.35131" lon="2.58822">
        <ele>558</ele>
        <time>2018-09-12T15:42:44.000Z</time>
      </trkpt>
      <trkpt lat="44.35133" lon="2.5882">
        <ele>558</ele>
        <time>2018-09-12T15:42:45.000Z</time>
      </trkpt>
      <trkpt lat="44.35135" lon="2.58818">
        <ele>557.93999436807</ele>
        <time>2018-09-12T15:42:46.000Z</time>
      </trkpt>
      <trkpt lat="44.35138" lon="2.58816">
        <ele>557</ele>
        <time>2018-09-12T15:42:47.000Z</time>
      </trkpt>
      <trkpt lat="44.3514" lon="2.58814">
        <ele>557</ele>
        <time>2018-09-12T15:42:48.000Z</time>
      </trkpt>
      <trkpt lat="44.35142" lon="2.58813">
        <ele>557</ele>
        <time>2018-09-12T15:42:49.000Z</time>
      </trkpt>
      <trkpt lat="44.35145" lon="2.58811">
        <ele>557</ele>
        <time>2018-09-12T15:42:50.000Z</time>
      </trkpt>
      <trkpt lat="44.35148" lon="2.58809">
        <ele>556</ele>
        <time>2018-09-12T15:42:51.000Z</time>
      </trkpt>
      <trkpt lat="44.35151" lon="2.58807">
        <ele>555.94058828748</ele>
        <time>2018-09-12T15:42:52.000Z</time>
      </trkpt>
      <trkpt lat="44.35154" lon="2.58805">
        <ele>555</ele>
        <time>2018-09-12T15:42:53.000Z</time>
      </trkpt>
      <trkpt lat="44.35156" lon="2.58803">
        <ele>555</ele>
        <time>2018-09-12T15:42:54.000Z</time>
      </trkpt>
      <trkpt lat="44.35158" lon="2.588">
        <ele>555</ele>
        <time>2018-09-12T15:42:55.000Z</time>
      </trkpt>
      <trkpt lat="44.3516" lon="2.58797">
        <ele>554</ele>
        <time>2018-09-12T15:42:56.000Z</time>
      </trkpt>
      <trkpt lat="44.3516" lon="2.58794">
        <ele>554</ele>
        <time>2018-09-12T15:42:57.000Z</time>
      </trkpt>
      <trkpt lat="44.35161" lon="2.5879">
        <ele>554</ele>
        <time>2018-09-12T15:42:58.000Z</time>
      </trkpt>
      <trkpt lat="44.35162" lon="2.58786">
        <ele>553.9494976921</ele>
        <time>2018-09-12T15:42:59.000Z</time>
      </trkpt>
      <trkpt lat="44.35163" lon="2.58782">
        <ele>553</ele>
        <time>2018-09-12T15:43:00.000Z</time>
      </trkpt>
      <trkpt lat="44.35164" lon="2.58778">
        <ele>553</ele>
        <time>2018-09-12T15:43:01.000Z</time>
      </trkpt>
      <trkpt lat="44.35164" lon="2.58773">
        <ele>553</ele>
        <time>2018-09-12T15:43:02.000Z</time>
      </trkpt>
      <trkpt lat="44.35165" lon="2.58769">
        <ele>553</ele>
        <time>2018-09-12T15:43:03.000Z</time>
      </trkpt>
      <trkpt lat="44.35166" lon="2.58765">
        <ele>553</ele>
        <time>2018-09-12T15:43:04.000Z</time>
      </trkpt>
      <trkpt lat="44.35166" lon="2.58761">
        <ele>553</ele>
        <time>2018-09-12T15:43:05.000Z</time>
      </trkpt>
      <trkpt lat="44.35167" lon="2.58757">
        <ele>553</ele>
        <time>2018-09-12T15:43:06.000Z</time>
      </trkpt>
      <trkpt lat="44.35168" lon="2.58753">
        <ele>552.94000563207</ele>
        <time>2018-09-12T15:43:07.000Z</time>
      </trkpt>
      <trkpt lat="44.35169" lon="2.5875">
        <ele>552</ele>
        <time>2018-09-12T15:43:08.000Z</time>
      </trkpt>
      <trkpt lat="44.3517" lon="2.58746">
        <ele>552</ele>
        <time>2018-09-12T15:43:09.000Z</time>
      </trkpt>
      <trkpt lat="44.35172" lon="2.58742">
        <ele>552</ele>
        <time>2018-09-12T15:43:10.000Z</time>
      </trkpt>
      <trkpt lat="44.35173" lon="2.58738">
        <ele>552</ele>
        <time>2018-09-12T15:43:11.000Z</time>
      </trkpt>
      <trkpt lat="44.35174" lon="2.58733">
        <ele>552</ele>
        <time>2018-09-12T15:43:12.000Z</time>
      </trkpt>
      <trkpt lat="44.35175" lon="2.58729">
        <ele>552</ele>
        <time>2018-09-12T15:43:13.000Z</time>
      </trkpt>
      <trkpt lat="44.35176" lon="2.58725">
        <ele>552</ele>
        <time>2018-09-12T15:43:14.000Z</time>
      </trkpt>
      <trkpt lat="44.35177" lon="2.58722">
        <ele>552</ele>
        <time>2018-09-12T15:43:15.000Z</time>
      </trkpt>
      <trkpt lat="44.35177" lon="2.58718">
        <ele>551</ele>
        <time>2018-09-12T15:43:16.000Z</time>
      </trkpt>
      <trkpt lat="44.35178" lon="2.58713">
        <ele>551</ele>
        <time>2018-09-12T15:43:17.000Z</time>
      </trkpt>
      <trkpt lat="44.35179" lon="2.58709">
        <ele>551</ele>
        <time>2018-09-12T15:43:18.000Z</time>
      </trkpt>
      <trkpt lat="44.35181" lon="2.58704">
        <ele>550.97916</ele>
        <time>2018-09-12T15:43:19.000Z</time>
      </trkpt>
      <trkpt lat="44.35182" lon="2.587">
        <ele>550</ele>
        <time>2018-09-12T15:43:20.000Z</time>
      </trkpt>
      <trkpt lat="44.35184" lon="2.58696">
        <ele>550</ele>
        <time>2018-09-12T15:43:21.000Z</time>
      </trkpt>
      <trkpt lat="44.35185" lon="2.58691">
        <ele>550</ele>
        <time>2018-09-12T15:43:22.000Z</time>
      </trkpt>
      <trkpt lat="44.35186" lon="2.58686">
        <ele>549.94175324352</ele>
        <time>2018-09-12T15:43:23.000Z</time>
      </trkpt>
      <trkpt lat="44.35187" lon="2.58681">
        <ele>549</ele>
        <time>2018-09-12T15:43:24.000Z</time>
      </trkpt>
      <trkpt lat="44.35187" lon="2.58676">
        <ele>549</ele>
        <time>2018-09-12T15:43:25.000Z</time>
      </trkpt>
      <trkpt lat="44.35188" lon="2.58672">
        <ele>549</ele>
        <time>2018-09-12T15:43:26.000Z</time>
      </trkpt>
      <trkpt lat="44.35188" lon="2.58667">
        <ele>549</ele>
        <time>2018-09-12T15:43:27.000Z</time>
      </trkpt>
      <trkpt lat="44.35189" lon="2.58663">
        <ele>549</ele>
        <time>2018-09-12T15:43:28.000Z</time>
      </trkpt>
      <trkpt lat="44.35189" lon="2.58658">
        <ele>549</ele>
        <time>2018-09-12T15:43:29.000Z</time>
      </trkpt>
      <trkpt lat="44.35189" lon="2.58654">
        <ele>549</ele>
        <time>2018-09-12T15:43:30.000Z</time>
      </trkpt>
      <trkpt lat="44.3519" lon="2.5865">
        <ele>548.94000563207</ele>
        <time>2018-09-12T15:43:31.000Z</time>
      </trkpt>
      <trkpt lat="44.35192" lon="2.58645">
        <ele>548</ele>
        <time>2018-09-12T15:43:32.000Z</time>
      </trkpt>
      <trkpt lat="44.35194" lon="2.58641">
        <ele>548</ele>
        <time>2018-09-12T15:43:33.000Z</time>
      </trkpt>
      <trkpt lat="44.35197" lon="2.58637">
        <ele>548</ele>
        <time>2018-09-12T15:43:34.000Z</time>
      </trkpt>
      <trkpt lat="44.35199" lon="2.58633">
        <ele>548</ele>
        <time>2018-09-12T15:43:35.000Z</time>
      </trkpt>
      <trkpt lat="44.35202" lon="2.58629">
        <ele>548</ele>
        <time>2018-09-12T15:43:36.000Z</time>
      </trkpt>
      <trkpt lat="44.35204" lon="2.58626">
        <ele>547.94340192243</ele>
        <time>2018-09-12T15:43:37.000Z</time>
      </trkpt>
      <trkpt lat="44.35207" lon="2.58623">
        <ele>547</ele>
        <time>2018-09-12T15:43:38.000Z</time>
      </trkpt>
      <trkpt lat="44.3521" lon="2.58621">
        <ele>547</ele>
        <time>2018-09-12T15:43:39.000Z</time>
      </trkpt>
      <trkpt lat="44.35212" lon="2.58619">
        <ele>546.94058828748</ele>
        <time>2018-09-12T15:43:40.000Z</time>
      </trkpt>
      <trkpt lat="44.35215" lon="2.58617">
        <ele>546</ele>
        <time>2018-09-12T15:43:41.000Z</time>
      </trkpt>
      <trkpt lat="44.35217" lon="2.58615">
        <ele>546</ele>
        <time>2018-09-12T15:43:42.000Z</time>
      </trkpt>
      <trkpt lat="44.3522" lon="2.58612">
        <ele>546</ele>
        <time>2018-09-12T15:43:43.000Z</time>
      </trkpt>
      <trkpt lat="44.35223" lon="2.5861">
        <ele>545.95419369968</ele>
        <time>2018-09-12T15:43:44.000Z</time>
      </trkpt>
      <trkpt lat="44.35225" lon="2.58608">
        <ele>545.19083678574</ele>
        <time>2018-09-12T15:43:45.000Z</time>
      </trkpt>
      <trkpt lat="44.35228" lon="2.58606">
        <ele>545</ele>
        <time>2018-09-12T15:43:46.000Z</time>
      </trkpt>
      <trkpt lat="44.35231" lon="2.58605">
        <ele>545</ele>
        <time>2018-09-12T15:43:47.000Z</time>
      </trkpt>
      <trkpt lat="44.35233" lon="2.58604">
        <ele>544.94949834506</ele>
        <time>2018-09-12T15:43:48.000Z</time>
      </trkpt>
      <trkpt lat="44.35236" lon="2.58603">
        <ele>544</ele>
        <time>2018-09-12T15:43:49.000Z</time>
      </trkpt>
      <trkpt lat="44.35239" lon="2.58602">
        <ele>544</ele>
        <time>2018-09-12T15:43:50.000Z</time>
      </trkpt>
      <trkpt lat="44.35241" lon="2.58601">
        <ele>544</ele>
        <time>2018-09-12T15:43:51.000Z</time>
      </trkpt>
      <trkpt lat="44.35243" lon="2.58598">
        <ele>544</ele>
        <time>2018-09-12T15:43:52.000Z</time>
      </trkpt>
      <trkpt lat="44.35244" lon="2.58596">
        <ele>544</ele>
        <time>2018-09-12T15:43:53.000Z</time>
      </trkpt>
      <trkpt lat="44.35245" lon="2.58593">
        <ele>544</ele>
        <time>2018-09-12T15:43:54.000Z</time>
      </trkpt>
      <trkpt lat="44.35245" lon="2.58588">
        <ele>544</ele>
        <time>2018-09-12T15:43:55.000Z</time>
      </trkpt>
      <trkpt lat="44.35246" lon="2.58585">
        <ele>543</ele>
        <time>2018-09-12T15:43:56.000Z</time>
      </trkpt>
      <trkpt lat="44.35247" lon="2.58581">
        <ele>543</ele>
        <time>2018-09-12T15:43:57.000Z</time>
      </trkpt>
      <trkpt lat="44.35249" lon="2.58577">
        <ele>543</ele>
        <time>2018-09-12T15:43:58.000Z</time>
      </trkpt>
      <trkpt lat="44.3525" lon="2.58573">
        <ele>542.9439307119</ele>
        <time>2018-09-12T15:43:59.000Z</time>
      </trkpt>
      <trkpt lat="44.35251" lon="2.58568">
        <ele>542.00934288756</ele>
        <time>2018-09-12T15:44:00.000Z</time>
      </trkpt>
      <trkpt lat="44.35252" lon="2.58565">
        <ele>542</ele>
        <time>2018-09-12T15:44:01.000Z</time>
      </trkpt>
      <trkpt lat="44.35253" lon="2.5856">
        <ele>542</ele>
        <time>2018-09-12T15:44:02.000Z</time>
      </trkpt>
      <trkpt lat="44.35254" lon="2.58556">
        <ele>542</ele>
        <time>2018-09-12T15:44:03.000Z</time>
      </trkpt>
      <trkpt lat="44.35255" lon="2.58552">
        <ele>542</ele>
        <time>2018-09-12T15:44:04.000Z</time>
      </trkpt>
      <trkpt lat="44.35256" lon="2.58547">
        <ele>542</ele>
        <time>2018-09-12T15:44:05.000Z</time>
      </trkpt>
      <trkpt lat="44.35257" lon="2.58543">
        <ele>542</ele>
        <time>2018-09-12T15:44:06.000Z</time>
      </trkpt>
      <trkpt lat="44.35258" lon="2.58539">
        <ele>542</ele>
        <time>2018-09-12T15:44:07.000Z</time>
      </trkpt>
      <trkpt lat="44.35258" lon="2.58534">
        <ele>541</ele>
        <time>2018-09-12T15:44:08.000Z</time>
      </trkpt>
      <trkpt lat="44.35259" lon="2.5853">
        <ele>541</ele>
        <time>2018-09-12T15:44:09.000Z</time>
      </trkpt>
      <trkpt lat="44.3526" lon="2.58527">
        <ele>541</ele>
        <time>2018-09-12T15:44:10.000Z</time>
      </trkpt>
      <trkpt lat="44.35261" lon="2.58523">
        <ele>541</ele>
        <time>2018-09-12T15:44:11.000Z</time>
      </trkpt>
      <trkpt lat="44.35262" lon="2.5852">
        <ele>541</ele>
        <time>2018-09-12T15:44:12.000Z</time>
      </trkpt>
      <trkpt lat="44.35263" lon="2.58517">
        <ele>540.96154073374</ele>
        <time>2018-09-12T15:44:13.000Z</time>
      </trkpt>
      <trkpt lat="44.35264" lon="2.58513">
        <ele>540.19230617751</ele>
        <time>2018-09-12T15:44:14.000Z</time>
      </trkpt>
      <trkpt lat="44.35266" lon="2.5851">
        <ele>540</ele>
        <time>2018-09-12T15:44:15.000Z</time>
      </trkpt>
      <trkpt lat="44.35267" lon="2.58506">
        <ele>540</ele>
        <time>2018-09-12T15:44:16.000Z</time>
      </trkpt>
      <trkpt lat="44.35268" lon="2.58503">
        <ele>540</ele>
        <time>2018-09-12T15:44:17.000Z</time>
      </trkpt>
      <trkpt lat="44.35269" lon="2.585">
        <ele>540</ele>
        <time>2018-09-12T15:44:18.000Z</time>
      </trkpt>
      <trkpt lat="44.3527" lon="2.58496">
        <ele>540</ele>
        <time>2018-09-12T15:44:19.000Z</time>
      </trkpt>
      <trkpt lat="44.35271" lon="2.58492">
        <ele>540</ele>
        <time>2018-09-12T15:44:20.000Z</time>
      </trkpt>
      <trkpt lat="44.35272" lon="2.58487">
        <ele>540</ele>
        <time>2018-09-12T15:44:21.000Z</time>
      </trkpt>
      <trkpt lat="44.35273" lon="2.58482">
        <ele>539.93999436807</ele>
        <time>2018-09-12T15:44:22.000Z</time>
      </trkpt>
      <trkpt lat="44.35275" lon="2.58477">
        <ele>539</ele>
        <time>2018-09-12T15:44:23.000Z</time>
      </trkpt>
      <trkpt lat="44.35276" lon="2.58472">
        <ele>539</ele>
        <time>2018-09-12T15:44:24.000Z</time>
      </trkpt>
      <trkpt lat="44.35277" lon="2.58467">
        <ele>539</ele>
        <time>2018-09-12T15:44:25.000Z</time>
      </trkpt>
      <trkpt lat="44.35278" lon="2.58463">
        <ele>539</ele>
        <time>2018-09-12T15:44:26.000Z</time>
      </trkpt>
      <trkpt lat="44.35279" lon="2.58459">
        <ele>539</ele>
        <time>2018-09-12T15:44:27.000Z</time>
      </trkpt>
      <trkpt lat="44.35281" lon="2.58455">
        <ele>539</ele>
        <time>2018-09-12T15:44:28.000Z</time>
      </trkpt>
      <trkpt lat="44.35282" lon="2.5845">
        <ele>539</ele>
        <time>2018-09-12T15:44:29.000Z</time>
      </trkpt>
      <trkpt lat="44.35283" lon="2.58446">
        <ele>539</ele>
        <time>2018-09-12T15:44:30.000Z</time>
      </trkpt>
      <trkpt lat="44.35284" lon="2.58441">
        <ele>538.94060020784</ele>
        <time>2018-09-12T15:44:31.000Z</time>
      </trkpt>
      <trkpt lat="44.35285" lon="2.58437">
        <ele>538</ele>
        <time>2018-09-12T15:44:32.000Z</time>
      </trkpt>
      <trkpt lat="44.35286" lon="2.58433">
        <ele>538</ele>
        <time>2018-09-12T15:44:33.000Z</time>
      </trkpt>
      <trkpt lat="44.35287" lon="2.58429">
        <ele>538</ele>
        <time>2018-09-12T15:44:34.000Z</time>
      </trkpt>
      <trkpt lat="44.35289" lon="2.58425">
        <ele>538</ele>
        <time>2018-09-12T15:44:35.000Z</time>
      </trkpt>
      <trkpt lat="44.3529" lon="2.58421">
        <ele>538</ele>
        <time>2018-09-12T15:44:36.000Z</time>
      </trkpt>
      <trkpt lat="44.35291" lon="2.58417">
        <ele>538</ele>
        <time>2018-09-12T15:44:37.000Z</time>
      </trkpt>
      <trkpt lat="44.35291" lon="2.58413">
        <ele>538</ele>
        <time>2018-09-12T15:44:38.000Z</time>
      </trkpt>
      <trkpt lat="44.35292" lon="2.58409">
        <ele>538</ele>
        <time>2018-09-12T15:44:39.000Z</time>
      </trkpt>
      <trkpt lat="44.35292" lon="2.58405">
        <ele>537</ele>
        <time>2018-09-12T15:44:40.000Z</time>
      </trkpt>
      <trkpt lat="44.35293" lon="2.58401">
        <ele>537</ele>
        <time>2018-09-12T15:44:41.000Z</time>
      </trkpt>
      <trkpt lat="44.35293" lon="2.58397">
        <ele>537</ele>
        <time>2018-09-12T15:44:42.000Z</time>
      </trkpt>
      <trkpt lat="44.35292" lon="2.58394">
        <ele>537</ele>
        <time>2018-09-12T15:44:43.000Z</time>
      </trkpt>
      <trkpt lat="44.3529" lon="2.5839">
        <ele>537</ele>
        <time>2018-09-12T15:44:44.000Z</time>
      </trkpt>
      <trkpt lat="44.35289" lon="2.58386">
        <ele>537</ele>
        <time>2018-09-12T15:44:45.000Z</time>
      </trkpt>
      <trkpt lat="44.35287" lon="2.58383">
        <ele>537</ele>
        <time>2018-09-12T15:44:46.000Z</time>
      </trkpt>
      <trkpt lat="44.35284" lon="2.58379">
        <ele>537</ele>
        <time>2018-09-12T15:44:47.000Z</time>
      </trkpt>
      <trkpt lat="44.35282" lon="2.58375">
        <ele>537</ele>
        <time>2018-09-12T15:44:48.000Z</time>
      </trkpt>
      <trkpt lat="44.3528" lon="2.58371">
        <ele>537</ele>
        <time>2018-09-12T15:44:49.000Z</time>
      </trkpt>
      <trkpt lat="44.35279" lon="2.58367">
        <ele>537</ele>
        <time>2018-09-12T15:44:50.000Z</time>
      </trkpt>
      <trkpt lat="44.35278" lon="2.58362">
        <ele>537</ele>
        <time>2018-09-12T15:44:51.000Z</time>
      </trkpt>
      <trkpt lat="44.35278" lon="2.58357">
        <ele>537</ele>
        <time>2018-09-12T15:44:52.000Z</time>
      </trkpt>
      <trkpt lat="44.35277" lon="2.58351">
        <ele>536</ele>
        <time>2018-09-12T15:44:53.000Z</time>
      </trkpt>
      <trkpt lat="44.35277" lon="2.58346">
        <ele>536</ele>
        <time>2018-09-12T15:44:54.000Z</time>
      </trkpt>
      <trkpt lat="44.35278" lon="2.58341">
        <ele>536</ele>
        <time>2018-09-12T15:44:55.000Z</time>
      </trkpt>
      <trkpt lat="44.35279" lon="2.58336">
        <ele>536</ele>
        <time>2018-09-12T15:44:56.000Z</time>
      </trkpt>
      <trkpt lat="44.35279" lon="2.58332">
        <ele>536</ele>
        <time>2018-09-12T15:44:57.000Z</time>
      </trkpt>
      <trkpt lat="44.3528" lon="2.58328">
        <ele>536</ele>
        <time>2018-09-12T15:44:58.000Z</time>
      </trkpt>
      <trkpt lat="44.35282" lon="2.58323">
        <ele>536</ele>
        <time>2018-09-12T15:44:59.000Z</time>
      </trkpt>
      <trkpt lat="44.35282" lon="2.58319">
        <ele>536</ele>
        <time>2018-09-12T15:45:00.000Z</time>
      </trkpt>
      <trkpt lat="44.35283" lon="2.58315">
        <ele>536</ele>
        <time>2018-09-12T15:45:01.000Z</time>
      </trkpt>
      <trkpt lat="44.35283" lon="2.58311">
        <ele>537</ele>
        <time>2018-09-12T15:45:02.000Z</time>
      </trkpt>
      <trkpt lat="44.35284" lon="2.58307">
        <ele>537</ele>
        <time>2018-09-12T15:45:03.000Z</time>
      </trkpt>
      <trkpt lat="44.35284" lon="2.58302">
        <ele>537</ele>
        <time>2018-09-12T15:45:04.000Z</time>
      </trkpt>
      <trkpt lat="44.35285" lon="2.58298">
        <ele>537</ele>
        <time>2018-09-12T15:45:05.000Z</time>
      </trkpt>
      <trkpt lat="44.35286" lon="2.58294">
        <ele>537</ele>
        <time>2018-09-12T15:45:06.000Z</time>
      </trkpt>
      <trkpt lat="44.35286" lon="2.5829">
        <ele>537</ele>
        <time>2018-09-12T15:45:07.000Z</time>
      </trkpt>
      <trkpt lat="44.35287" lon="2.58286">
        <ele>537.06000563193</ele>
        <time>2018-09-12T15:45:08.000Z</time>
      </trkpt>
      <trkpt lat="44.35288" lon="2.58283">
        <ele>538</ele>
        <time>2018-09-12T15:45:09.000Z</time>
      </trkpt>
      <trkpt lat="44.35289" lon="2.58279">
        <ele>538</ele>
        <time>2018-09-12T15:45:10.000Z</time>
      </trkpt>
      <trkpt lat="44.35289" lon="2.58275">
        <ele>538</ele>
        <time>2018-09-12T15:45:11.000Z</time>
      </trkpt>
      <trkpt lat="44.3529" lon="2.58271">
        <ele>538</ele>
        <time>2018-09-12T15:45:12.000Z</time>
      </trkpt>
      <trkpt lat="44.35291" lon="2.58267">
        <ele>538</ele>
        <time>2018-09-12T15:45:13.000Z</time>
      </trkpt>
      <trkpt lat="44.35292" lon="2.58263">
        <ele>538</ele>
        <time>2018-09-12T15:45:14.000Z</time>
      </trkpt>
      <trkpt lat="44.35294" lon="2.58259">
        <ele>538</ele>
        <time>2018-09-12T15:45:15.000Z</time>
      </trkpt>
      <trkpt lat="44.35296" lon="2.58256">
        <ele>538</ele>
        <time>2018-09-12T15:45:16.000Z</time>
      </trkpt>
      <trkpt lat="44.35299" lon="2.58252">
        <ele>538</ele>
        <time>2018-09-12T15:45:17.000Z</time>
      </trkpt>
      <trkpt lat="44.353" lon="2.58248">
        <ele>538</ele>
        <time>2018-09-12T15:45:18.000Z</time>
      </trkpt>
      <trkpt lat="44.35301" lon="2.58244">
        <ele>538</ele>
        <time>2018-09-12T15:45:19.000Z</time>
      </trkpt>
      <trkpt lat="44.35303" lon="2.5824">
        <ele>538</ele>
        <time>2018-09-12T15:45:20.000Z</time>
      </trkpt>
      <trkpt lat="44.35304" lon="2.58236">
        <ele>538</ele>
        <time>2018-09-12T15:45:21.000Z</time>
      </trkpt>
      <trkpt lat="44.35306" lon="2.58233">
        <ele>538</ele>
        <time>2018-09-12T15:45:22.000Z</time>
      </trkpt>
      <trkpt lat="44.35308" lon="2.58229">
        <ele>538</ele>
        <time>2018-09-12T15:45:23.000Z</time>
      </trkpt>
      <trkpt lat="44.35309" lon="2.58226">
        <ele>537.93999436807</ele>
        <time>2018-09-12T15:45:24.000Z</time>
      </trkpt>
      <trkpt lat="44.3531" lon="2.58222">
        <ele>537</ele>
        <time>2018-09-12T15:45:25.000Z</time>
      </trkpt>
      <trkpt lat="44.35311" lon="2.58219">
        <ele>537</ele>
        <time>2018-09-12T15:45:26.000Z</time>
      </trkpt>
      <trkpt lat="44.35312" lon="2.58215">
        <ele>537</ele>
        <time>2018-09-12T15:45:27.000Z</time>
      </trkpt>
      <trkpt lat="44.35314" lon="2.58212">
        <ele>537</ele>
        <time>2018-09-12T15:45:28.000Z</time>
      </trkpt>
      <trkpt lat="44.35315" lon="2.58209">
        <ele>537</ele>
        <time>2018-09-12T15:45:29.000Z</time>
      </trkpt>
      <trkpt lat="44.35316" lon="2.58205">
        <ele>537</ele>
        <time>2018-09-12T15:45:30.000Z</time>
      </trkpt>
      <trkpt lat="44.35316" lon="2.58201">
        <ele>537</ele>
        <time>2018-09-12T15:45:31.000Z</time>
      </trkpt>
      <trkpt lat="44.35315" lon="2.58197">
        <ele>537</ele>
        <time>2018-09-12T15:45:32.000Z</time>
      </trkpt>
      <trkpt lat="44.35315" lon="2.58193">
        <ele>537</ele>
        <time>2018-09-12T15:45:33.000Z</time>
      </trkpt>
      <trkpt lat="44.35315" lon="2.58188">
        <ele>537</ele>
        <time>2018-09-12T15:45:34.000Z</time>
      </trkpt>
      <trkpt lat="44.35315" lon="2.58184">
        <ele>537</ele>
        <time>2018-09-12T15:45:35.000Z</time>
      </trkpt>
      <trkpt lat="44.35314" lon="2.58179">
        <ele>537</ele>
        <time>2018-09-12T15:45:36.000Z</time>
      </trkpt>
      <trkpt lat="44.35313" lon="2.58176">
        <ele>537</ele>
        <time>2018-09-12T15:45:37.000Z</time>
      </trkpt>
      <trkpt lat="44.35312" lon="2.58173">
        <ele>537</ele>
        <time>2018-09-12T15:45:38.000Z</time>
      </trkpt>
      <trkpt lat="44.35311" lon="2.58169">
        <ele>537</ele>
        <time>2018-09-12T15:45:39.000Z</time>
      </trkpt>
      <trkpt lat="44.3531" lon="2.58166">
        <ele>537</ele>
        <time>2018-09-12T15:45:40.000Z</time>
      </trkpt>
      <trkpt lat="44.35308" lon="2.58163">
        <ele>537</ele>
        <time>2018-09-12T15:45:41.000Z</time>
      </trkpt>
      <trkpt lat="44.35307" lon="2.58159">
        <ele>537</ele>
        <time>2018-09-12T15:45:42.000Z</time>
      </trkpt>
      <trkpt lat="44.35305" lon="2.58156">
        <ele>537</ele>
        <time>2018-09-12T15:45:43.000Z</time>
      </trkpt>
      <trkpt lat="44.35302" lon="2.58151">
        <ele>537</ele>
        <time>2018-09-12T15:45:44.000Z</time>
      </trkpt>
      <trkpt lat="44.35301" lon="2.58146">
        <ele>537</ele>
        <time>2018-09-12T15:45:45.000Z</time>
      </trkpt>
      <trkpt lat="44.353" lon="2.58141">
        <ele>537</ele>
        <time>2018-09-12T15:45:46.000Z</time>
      </trkpt>
      <trkpt lat="44.35301" lon="2.58137">
        <ele>537</ele>
        <time>2018-09-12T15:45:48.000Z</time>
      </trkpt>
      <trkpt lat="44.35304" lon="2.58135">
        <ele>537</ele>
        <time>2018-09-12T15:45:49.000Z</time>
      </trkpt>
      <trkpt lat="44.35307" lon="2.58132">
        <ele>537</ele>
        <time>2018-09-12T15:45:50.000Z</time>
      </trkpt>
      <trkpt lat="44.35308" lon="2.5813">
        <ele>537</ele>
        <time>2018-09-12T15:45:51.000Z</time>
      </trkpt>
      <trkpt lat="44.3531" lon="2.58128">
        <ele>537</ele>
        <time>2018-09-12T15:45:52.000Z</time>
      </trkpt>
      <trkpt lat="44.35312" lon="2.58126">
        <ele>537</ele>
        <time>2018-09-12T15:45:53.000Z</time>
      </trkpt>
      <trkpt lat="44.35315" lon="2.58123">
        <ele>537</ele>
        <time>2018-09-12T15:45:54.000Z</time>
      </trkpt>
      <trkpt lat="44.35318" lon="2.58121">
        <ele>537</ele>
        <time>2018-09-12T15:45:55.000Z</time>
      </trkpt>
      <trkpt lat="44.35321" lon="2.58119">
        <ele>537</ele>
        <time>2018-09-12T15:45:56.000Z</time>
      </trkpt>
      <trkpt lat="44.35324" lon="2.58118">
        <ele>537</ele>
        <time>2018-09-12T15:45:57.000Z</time>
      </trkpt>
      <trkpt lat="44.35327" lon="2.58117">
        <ele>537</ele>
        <time>2018-09-12T15:45:58.000Z</time>
      </trkpt>
      <trkpt lat="44.3533" lon="2.58116">
        <ele>537</ele>
        <time>2018-09-12T15:45:59.000Z</time>
      </trkpt>
      <trkpt lat="44.35333" lon="2.58115">
        <ele>537</ele>
        <time>2018-09-12T15:46:00.000Z</time>
      </trkpt>
      <trkpt lat="44.35336" lon="2.58114">
        <ele>537</ele>
        <time>2018-09-12T15:46:01.000Z</time>
      </trkpt>
      <trkpt lat="44.35339" lon="2.58112">
        <ele>537</ele>
        <time>2018-09-12T15:46:02.000Z</time>
      </trkpt>
      <trkpt lat="44.35342" lon="2.58111">
        <ele>537</ele>
        <time>2018-09-12T15:46:03.000Z</time>
      </trkpt>
      <trkpt lat="44.35345" lon="2.5811">
        <ele>536.94544904466</ele>
        <time>2018-09-12T15:46:04.000Z</time>
      </trkpt>
      <trkpt lat="44.35348" lon="2.58108">
        <ele>536.0363634248</ele>
        <time>2018-09-12T15:46:05.000Z</time>
      </trkpt>
      <trkpt lat="44.35351" lon="2.58107">
        <ele>536</ele>
        <time>2018-09-12T15:46:06.000Z</time>
      </trkpt>
      <trkpt lat="44.35354" lon="2.58106">
        <ele>536</ele>
        <time>2018-09-12T15:46:07.000Z</time>
      </trkpt>
      <trkpt lat="44.35357" lon="2.58106">
        <ele>536</ele>
        <time>2018-09-12T15:46:08.000Z</time>
      </trkpt>
      <trkpt lat="44.3536" lon="2.58106">
        <ele>535.94286306396</ele>
        <time>2018-09-12T15:46:09.000Z</time>
      </trkpt>
      <trkpt lat="44.35363" lon="2.58107">
        <ele>535</ele>
        <time>2018-09-12T15:46:10.000Z</time>
      </trkpt>
      <trkpt lat="44.35365" lon="2.58111">
        <ele>535</ele>
        <time>2018-09-12T15:46:11.000Z</time>
      </trkpt>
      <trkpt lat="44.35365" lon="2.58116">
        <ele>535</ele>
        <time>2018-09-12T15:46:12.000Z</time>
      </trkpt>
      <trkpt lat="44.35366" lon="2.5812">
        <ele>534</ele>
        <time>2018-09-12T15:46:13.000Z</time>
      </trkpt>
      <trkpt lat="44.35365" lon="2.58125">
        <ele>534</ele>
        <time>2018-09-12T15:46:14.000Z</time>
      </trkpt>
      <trkpt lat="44.35365" lon="2.58131">
        <ele>534</ele>
        <time>2018-09-12T15:46:15.000Z</time>
      </trkpt>
      <trkpt lat="44.35364" lon="2.58136">
        <ele>534</ele>
        <time>2018-09-12T15:46:16.000Z</time>
      </trkpt>
      <trkpt lat="44.35364" lon="2.5814">
        <ele>534</ele>
        <time>2018-09-12T15:46:17.000Z</time>
      </trkpt>
      <trkpt lat="44.35363" lon="2.58145">
        <ele>533.93999436807</ele>
        <time>2018-09-12T15:46:18.000Z</time>
      </trkpt>
      <trkpt lat="44.35362" lon="2.58149">
        <ele>533</ele>
        <time>2018-09-12T15:46:19.000Z</time>
      </trkpt>
      <trkpt lat="44.35362" lon="2.58153">
        <ele>533</ele>
        <time>2018-09-12T15:46:20.000Z</time>
      </trkpt>
      <trkpt lat="44.35361" lon="2.58157">
        <ele>533</ele>
        <time>2018-09-12T15:46:21.000Z</time>
      </trkpt>
      <trkpt lat="44.35361" lon="2.58161">
        <ele>533</ele>
        <time>2018-09-12T15:46:22.000Z</time>
      </trkpt>
      <trkpt lat="44.3536" lon="2.58166">
        <ele>533</ele>
        <time>2018-09-12T15:46:23.000Z</time>
      </trkpt>
      <trkpt lat="44.35359" lon="2.5817">
        <ele>533</ele>
        <time>2018-09-12T15:46:24.000Z</time>
      </trkpt>
      <trkpt lat="44.35358" lon="2.58175">
        <ele>532.94000563207</ele>
        <time>2018-09-12T15:46:25.000Z</time>
      </trkpt>
      <trkpt lat="44.35357" lon="2.58179">
        <ele>532.03468558787</ele>
        <time>2018-09-12T15:46:26.000Z</time>
      </trkpt>
      <trkpt lat="44.35357" lon="2.58183">
        <ele>532.61271706238</ele>
        <time>2018-09-12T15:46:27.000Z</time>
      </trkpt>
      <trkpt lat="44.35356" lon="2.58187">
        <ele>532.95918394002</ele>
        <time>2018-09-12T15:46:28.000Z</time>
      </trkpt>
      <trkpt lat="44.35356" lon="2.58191">
        <ele>532</ele>
        <time>2018-09-12T15:46:29.000Z</time>
      </trkpt>
      <trkpt lat="44.35355" lon="2.58195">
        <ele>532</ele>
        <time>2018-09-12T15:46:30.000Z</time>
      </trkpt>
      <trkpt lat="44.35355" lon="2.58199">
        <ele>532</ele>
        <time>2018-09-12T15:46:31.000Z</time>
      </trkpt>
      <trkpt lat="44.35354" lon="2.58203">
        <ele>532</ele>
        <time>2018-09-12T15:46:32.000Z</time>
      </trkpt>
      <trkpt lat="44.35354" lon="2.58207">
        <ele>532</ele>
        <time>2018-09-12T15:46:33.000Z</time>
      </trkpt>
      <trkpt lat="44.35353" lon="2.58211">
        <ele>532</ele>
        <time>2018-09-12T15:46:34.000Z</time>
      </trkpt>
      <trkpt lat="44.35352" lon="2.58216">
        <ele>532</ele>
        <time>2018-09-12T15:46:35.000Z</time>
      </trkpt>
      <trkpt lat="44.35351" lon="2.5822">
        <ele>532</ele>
        <time>2018-09-12T15:46:36.000Z</time>
      </trkpt>
      <trkpt lat="44.35351" lon="2.58225">
        <ele>532</ele>
        <time>2018-09-12T15:46:37.000Z</time>
      </trkpt>
      <trkpt lat="44.35351" lon="2.58229">
        <ele>532</ele>
        <time>2018-09-12T15:46:38.000Z</time>
      </trkpt>
      <trkpt lat="44.35351" lon="2.58234">
        <ele>532</ele>
        <time>2018-09-12T15:46:39.000Z</time>
      </trkpt>
      <trkpt lat="44.35351" lon="2.58238">
        <ele>532</ele>
        <time>2018-09-12T15:46:40.000Z</time>
      </trkpt>
      <trkpt lat="44.35351" lon="2.58242">
        <ele>532</ele>
        <time>2018-09-12T15:46:41.000Z</time>
      </trkpt>
      <trkpt lat="44.3535" lon="2.58247">
        <ele>532</ele>
        <time>2018-09-12T15:46:42.000Z</time>
      </trkpt>
      <trkpt lat="44.3535" lon="2.58252">
        <ele>532</ele>
        <time>2018-09-12T15:46:43.000Z</time>
      </trkpt>
      <trkpt lat="44.3535" lon="2.58256">
        <ele>532</ele>
        <time>2018-09-12T15:46:44.000Z</time>
      </trkpt>
      <trkpt lat="44.3535" lon="2.58259">
        <ele>532.04579697683</ele>
        <time>2018-09-12T15:46:45.000Z</time>
      </trkpt>
      <trkpt lat="44.3535" lon="2.58264">
        <ele>532.80916134958</ele>
        <time>2018-09-12T15:46:46.000Z</time>
      </trkpt>
      <trkpt lat="44.35351" lon="2.58269">
        <ele>533</ele>
        <time>2018-09-12T15:46:47.000Z</time>
      </trkpt>
      <trkpt lat="44.35351" lon="2.58272">
        <ele>533</ele>
        <time>2018-09-12T15:46:48.000Z</time>
      </trkpt>
      <trkpt lat="44.35351" lon="2.58277">
        <ele>533</ele>
        <time>2018-09-12T15:46:49.000Z</time>
      </trkpt>
      <trkpt lat="44.35351" lon="2.58282">
        <ele>533</ele>
        <time>2018-09-12T15:46:50.000Z</time>
      </trkpt>
      <trkpt lat="44.35351" lon="2.58286">
        <ele>533</ele>
        <time>2018-09-12T15:46:51.000Z</time>
      </trkpt>
      <trkpt lat="44.35351" lon="2.58291">
        <ele>533</ele>
        <time>2018-09-12T15:46:52.000Z</time>
      </trkpt>
      <trkpt lat="44.35351" lon="2.58295">
        <ele>533</ele>
        <time>2018-09-12T15:46:53.000Z</time>
      </trkpt>
      <trkpt lat="44.35352" lon="2.58299">
        <ele>533</ele>
        <time>2018-09-12T15:46:54.000Z</time>
      </trkpt>
      <trkpt lat="44.35352" lon="2.58303">
        <ele>533</ele>
        <time>2018-09-12T15:46:55.000Z</time>
      </trkpt>
      <trkpt lat="44.35352" lon="2.58308">
        <ele>533</ele>
        <time>2018-09-12T15:46:56.000Z</time>
      </trkpt>
      <trkpt lat="44.35353" lon="2.58312">
        <ele>533</ele>
        <time>2018-09-12T15:46:57.000Z</time>
      </trkpt>
      <trkpt lat="44.35354" lon="2.58316">
        <ele>533</ele>
        <time>2018-09-12T15:46:58.000Z</time>
      </trkpt>
      <trkpt lat="44.35355" lon="2.5832">
        <ele>533</ele>
        <time>2018-09-12T15:46:59.000Z</time>
      </trkpt>
      <trkpt lat="44.35355" lon="2.58324">
        <ele>533</ele>
        <time>2018-09-12T15:47:00.000Z</time>
      </trkpt>
      <trkpt lat="44.35355" lon="2.58328">
        <ele>533</ele>
        <time>2018-09-12T15:47:01.000Z</time>
      </trkpt>
      <trkpt lat="44.35356" lon="2.58332">
        <ele>532.97917333333</ele>
        <time>2018-09-12T15:47:02.000Z</time>
      </trkpt>
      <trkpt lat="44.35356" lon="2.58336">
        <ele>532</ele>
        <time>2018-09-12T15:47:03.000Z</time>
      </trkpt>
      <trkpt lat="44.35357" lon="2.58341">
        <ele>532</ele>
        <time>2018-09-12T15:47:04.000Z</time>
      </trkpt>
      <trkpt lat="44.35358" lon="2.58345">
        <ele>532.80341553071</ele>
        <time>2018-09-12T15:47:05.000Z</time>
      </trkpt>
      <trkpt lat="44.35358" lon="2.5835">
        <ele>533</ele>
        <time>2018-09-12T15:47:06.000Z</time>
      </trkpt>
      <trkpt lat="44.35359" lon="2.58354">
        <ele>533</ele>
        <time>2018-09-12T15:47:07.000Z</time>
      </trkpt>
      <trkpt lat="44.3536" lon="2.58358">
        <ele>533</ele>
        <time>2018-09-12T15:47:08.000Z</time>
      </trkpt>
      <trkpt lat="44.35361" lon="2.58362">
        <ele>533</ele>
        <time>2018-09-12T15:47:09.000Z</time>
      </trkpt>
      <trkpt lat="44.35362" lon="2.58367">
        <ele>533</ele>
        <time>2018-09-12T15:47:10.000Z</time>
      </trkpt>
      <trkpt lat="44.35362" lon="2.58371">
        <ele>532.94060020784</ele>
        <time>2018-09-12T15:47:11.000Z</time>
      </trkpt>
      <trkpt lat="44.35364" lon="2.58375">
        <ele>532.05050165494</ele>
        <time>2018-09-12T15:47:12.000Z</time>
      </trkpt>
      <trkpt lat="44.35365" lon="2.58379">
        <ele>533</ele>
        <time>2018-09-12T15:47:13.000Z</time>
      </trkpt>
      <trkpt lat="44.35365" lon="2.58383">
        <ele>533</ele>
        <time>2018-09-12T15:47:14.000Z</time>
      </trkpt>
      <trkpt lat="44.35366" lon="2.58388">
        <ele>533</ele>
        <time>2018-09-12T15:47:15.000Z</time>
      </trkpt>
      <trkpt lat="44.35367" lon="2.58392">
        <ele>533</ele>
        <time>2018-09-12T15:47:16.000Z</time>
      </trkpt>
      <trkpt lat="44.35368" lon="2.58395">
        <ele>533</ele>
        <time>2018-09-12T15:47:17.000Z</time>
      </trkpt>
      <trkpt lat="44.35369" lon="2.58398">
        <ele>533</ele>
        <time>2018-09-12T15:47:18.000Z</time>
      </trkpt>
      <trkpt lat="44.3537" lon="2.58402">
        <ele>533</ele>
        <time>2018-09-12T15:47:19.000Z</time>
      </trkpt>
      <trkpt lat="44.35371" lon="2.58406">
        <ele>533</ele>
        <time>2018-09-12T15:47:20.000Z</time>
      </trkpt>
      <trkpt lat="44.35371" lon="2.5841">
        <ele>534</ele>
        <time>2018-09-12T15:47:21.000Z</time>
      </trkpt>
      <trkpt lat="44.35372" lon="2.58414">
        <ele>534</ele>
        <time>2018-09-12T15:47:22.000Z</time>
      </trkpt>
      <trkpt lat="44.35372" lon="2.58418">
        <ele>534</ele>
        <time>2018-09-12T15:47:23.000Z</time>
      </trkpt>
      <trkpt lat="44.35373" lon="2.58423">
        <ele>534</ele>
        <time>2018-09-12T15:47:24.000Z</time>
      </trkpt>
      <trkpt lat="44.35374" lon="2.58427">
        <ele>534</ele>
        <time>2018-09-12T15:47:25.000Z</time>
      </trkpt>
      <trkpt lat="44.35375" lon="2.58432">
        <ele>534</ele>
        <time>2018-09-12T15:47:26.000Z</time>
      </trkpt>
      <trkpt lat="44.35375" lon="2.58436">
        <ele>534</ele>
        <time>2018-09-12T15:47:27.000Z</time>
      </trkpt>
      <trkpt lat="44.35376" lon="2.5844">
        <ele>534</ele>
        <time>2018-09-12T15:47:28.000Z</time>
      </trkpt>
      <trkpt lat="44.35376" lon="2.58444">
        <ele>534</ele>
        <time>2018-09-12T15:47:29.000Z</time>
      </trkpt>
      <trkpt lat="44.35377" lon="2.58448">
        <ele>534</ele>
        <time>2018-09-12T15:47:30.000Z</time>
      </trkpt>
      <trkpt lat="44.35378" lon="2.58451">
        <ele>534</ele>
        <time>2018-09-12T15:47:31.000Z</time>
      </trkpt>
      <trkpt lat="44.35378" lon="2.58455">
        <ele>534</ele>
        <time>2018-09-12T15:47:32.000Z</time>
      </trkpt>
      <trkpt lat="44.35379" lon="2.58459">
        <ele>534</ele>
        <time>2018-09-12T15:47:33.000Z</time>
      </trkpt>
      <trkpt lat="44.3538" lon="2.58463">
        <ele>534</ele>
        <time>2018-09-12T15:47:34.000Z</time>
      </trkpt>
      <trkpt lat="44.35381" lon="2.58466">
        <ele>534</ele>
        <time>2018-09-12T15:47:35.000Z</time>
      </trkpt>
      <trkpt lat="44.35382" lon="2.5847">
        <ele>534</ele>
        <time>2018-09-12T15:47:36.000Z</time>
      </trkpt>
      <trkpt lat="44.35382" lon="2.58474">
        <ele>534</ele>
        <time>2018-09-12T15:47:37.000Z</time>
      </trkpt>
      <trkpt lat="44.35381" lon="2.58478">
        <ele>534.06000563193</ele>
        <time>2018-09-12T15:47:38.000Z</time>
      </trkpt>
      <trkpt lat="44.35381" lon="2.58481">
        <ele>535</ele>
        <time>2018-09-12T15:47:39.000Z</time>
      </trkpt>
      <trkpt lat="44.35381" lon="2.58485">
        <ele>535</ele>
        <time>2018-09-12T15:47:40.000Z</time>
      </trkpt>
      <trkpt lat="44.35381" lon="2.5849">
        <ele>535</ele>
        <time>2018-09-12T15:47:41.000Z</time>
      </trkpt>
      <trkpt lat="44.35381" lon="2.58494">
        <ele>535</ele>
        <time>2018-09-12T15:47:42.000Z</time>
      </trkpt>
      <trkpt lat="44.35381" lon="2.58499">
        <ele>535</ele>
        <time>2018-09-12T15:47:43.000Z</time>
      </trkpt>
      <trkpt lat="44.35381" lon="2.58503">
        <ele>536</ele>
        <time>2018-09-12T15:47:44.000Z</time>
      </trkpt>
      <trkpt lat="44.3538" lon="2.58508">
        <ele>536</ele>
        <time>2018-09-12T15:47:45.000Z</time>
      </trkpt>
      <trkpt lat="44.3538" lon="2.58512">
        <ele>536</ele>
        <time>2018-09-12T15:47:46.000Z</time>
      </trkpt>
      <trkpt lat="44.3538" lon="2.58516">
        <ele>536</ele>
        <time>2018-09-12T15:47:47.000Z</time>
      </trkpt>
      <trkpt lat="44.3538" lon="2.5852">
        <ele>536</ele>
        <time>2018-09-12T15:47:48.000Z</time>
      </trkpt>
      <trkpt lat="44.35379" lon="2.58523">
        <ele>536</ele>
        <time>2018-09-12T15:47:49.000Z</time>
      </trkpt>
      <trkpt lat="44.35379" lon="2.58527">
        <ele>536</ele>
        <time>2018-09-12T15:47:50.000Z</time>
      </trkpt>
      <trkpt lat="44.35378" lon="2.5853">
        <ele>536</ele>
        <time>2018-09-12T15:47:51.000Z</time>
      </trkpt>
      <trkpt lat="44.35377" lon="2.58533">
        <ele>536</ele>
        <time>2018-09-12T15:47:52.000Z</time>
      </trkpt>
      <trkpt lat="44.35375" lon="2.58537">
        <ele>536</ele>
        <time>2018-09-12T15:47:53.000Z</time>
      </trkpt>
      <trkpt lat="44.35374" lon="2.58541">
        <ele>536</ele>
        <time>2018-09-12T15:47:54.000Z</time>
      </trkpt>
      <trkpt lat="44.35372" lon="2.58545">
        <ele>536</ele>
        <time>2018-09-12T15:47:55.000Z</time>
      </trkpt>
      <trkpt lat="44.35369" lon="2.58548">
        <ele>536</ele>
        <time>2018-09-12T15:47:56.000Z</time>
      </trkpt>
      <trkpt lat="44.35367" lon="2.58551">
        <ele>536</ele>
        <time>2018-09-12T15:47:57.000Z</time>
      </trkpt>
      <trkpt lat="44.35363" lon="2.58554">
        <ele>535.93999436807</ele>
        <time>2018-09-12T15:47:58.000Z</time>
      </trkpt>
      <trkpt lat="44.3536" lon="2.58555">
        <ele>535</ele>
        <time>2018-09-12T15:47:59.000Z</time>
      </trkpt>
      <trkpt lat="44.35357" lon="2.58557">
        <ele>535</ele>
        <time>2018-09-12T15:48:00.000Z</time>
      </trkpt>
      <trkpt lat="44.35354" lon="2.58558">
        <ele>535</ele>
        <time>2018-09-12T15:48:01.000Z</time>
      </trkpt>
      <trkpt lat="44.35351" lon="2.5856">
        <ele>535</ele>
        <time>2018-09-12T15:48:02.000Z</time>
      </trkpt>
      <trkpt lat="44.35349" lon="2.58563">
        <ele>535</ele>
        <time>2018-09-12T15:48:03.000Z</time>
      </trkpt>
      <trkpt lat="44.35347" lon="2.58565">
        <ele>535</ele>
        <time>2018-09-12T15:48:04.000Z</time>
      </trkpt>
      <trkpt lat="44.35345" lon="2.58568">
        <ele>535</ele>
        <time>2018-09-12T15:48:05.000Z</time>
      </trkpt>
      <trkpt lat="44.35342" lon="2.58569">
        <ele>535.06000563193</ele>
        <time>2018-09-12T15:48:06.000Z</time>
      </trkpt>
      <trkpt lat="44.35335" lon="2.58581">
        <ele>535</ele>
        <time>2018-09-12T15:48:10.000Z</time>
      </trkpt>
      <trkpt lat="44.3533" lon="2.58593">
        <ele>535</ele>
        <time>2018-09-12T15:48:13.000Z</time>
      </trkpt>
      <trkpt lat="44.35325" lon="2.58604">
        <ele>535</ele>
        <time>2018-09-12T15:48:16.000Z</time>
      </trkpt>
      <trkpt lat="44.35319" lon="2.58615">
        <ele>535</ele>
        <time>2018-09-12T15:48:19.000Z</time>
      </trkpt>
      <trkpt lat="44.35315" lon="2.58627">
        <ele>535</ele>
        <time>2018-09-12T15:48:22.000Z</time>
      </trkpt>
      <trkpt lat="44.35312" lon="2.58639">
        <ele>535</ele>
        <time>2018-09-12T15:48:25.000Z</time>
      </trkpt>
      <trkpt lat="44.35311" lon="2.58643">
        <ele>535</ele>
        <time>2018-09-12T15:48:26.000Z</time>
      </trkpt>
      <trkpt lat="44.3531" lon="2.58647">
        <ele>535</ele>
        <time>2018-09-12T15:48:27.000Z</time>
      </trkpt>
      <trkpt lat="44.3531" lon="2.58652">
        <ele>535</ele>
        <time>2018-09-12T15:48:28.000Z</time>
      </trkpt>
      <trkpt lat="44.3531" lon="2.58656">
        <ele>535</ele>
        <time>2018-09-12T15:48:29.000Z</time>
      </trkpt>
      <trkpt lat="44.35308" lon="2.5866">
        <ele>535</ele>
        <time>2018-09-12T15:48:30.000Z</time>
      </trkpt>
      <trkpt lat="44.35307" lon="2.58665">
        <ele>535</ele>
        <time>2018-09-12T15:48:31.000Z</time>
      </trkpt>
      <trkpt lat="44.35305" lon="2.58669">
        <ele>535</ele>
        <time>2018-09-12T15:48:32.000Z</time>
      </trkpt>
      <trkpt lat="44.35304" lon="2.58673">
        <ele>535</ele>
        <time>2018-09-12T15:48:33.000Z</time>
      </trkpt>
      <trkpt lat="44.35303" lon="2.58677">
        <ele>535</ele>
        <time>2018-09-12T15:48:34.000Z</time>
      </trkpt>
      <trkpt lat="44.35302" lon="2.58682">
        <ele>535.05999436793</ele>
        <time>2018-09-12T15:48:35.000Z</time>
      </trkpt>
      <trkpt lat="44.353" lon="2.58685">
        <ele>536</ele>
        <time>2018-09-12T15:48:36.000Z</time>
      </trkpt>
      <trkpt lat="44.35299" lon="2.58689">
        <ele>536</ele>
        <time>2018-09-12T15:48:37.000Z</time>
      </trkpt>
      <trkpt lat="44.35297" lon="2.58693">
        <ele>536</ele>
        <time>2018-09-12T15:48:38.000Z</time>
      </trkpt>
      <trkpt lat="44.35296" lon="2.58697">
        <ele>536</ele>
        <time>2018-09-12T15:48:39.000Z</time>
      </trkpt>
      <trkpt lat="44.35294" lon="2.58701">
        <ele>536</ele>
        <time>2018-09-12T15:48:40.000Z</time>
      </trkpt>
      <trkpt lat="44.35293" lon="2.58705">
        <ele>536</ele>
        <time>2018-09-12T15:48:41.000Z</time>
      </trkpt>
      <trkpt lat="44.35291" lon="2.58709">
        <ele>536</ele>
        <time>2018-09-12T15:48:42.000Z</time>
      </trkpt>
      <trkpt lat="44.35289" lon="2.58712">
        <ele>536</ele>
        <time>2018-09-12T15:48:43.000Z</time>
      </trkpt>
      <trkpt lat="44.35287" lon="2.58716">
        <ele>536</ele>
        <time>2018-09-12T15:48:44.000Z</time>
      </trkpt>
      <trkpt lat="44.35286" lon="2.58719">
        <ele>536</ele>
        <time>2018-09-12T15:48:45.000Z</time>
      </trkpt>
      <trkpt lat="44.35284" lon="2.58723">
        <ele>536</ele>
        <time>2018-09-12T15:48:46.000Z</time>
      </trkpt>
      <trkpt lat="44.35283" lon="2.58727">
        <ele>536</ele>
        <time>2018-09-12T15:48:47.000Z</time>
      </trkpt>
      <trkpt lat="44.35281" lon="2.58731">
        <ele>536</ele>
        <time>2018-09-12T15:48:48.000Z</time>
      </trkpt>
      <trkpt lat="44.3528" lon="2.58735">
        <ele>536</ele>
        <time>2018-09-12T15:48:49.000Z</time>
      </trkpt>
      <trkpt lat="44.35278" lon="2.58739">
        <ele>536</ele>
        <time>2018-09-12T15:48:50.000Z</time>
      </trkpt>
      <trkpt lat="44.35277" lon="2.58743">
        <ele>536</ele>
        <time>2018-09-12T15:48:51.000Z</time>
      </trkpt>
      <trkpt lat="44.35276" lon="2.58747">
        <ele>536</ele>
        <time>2018-09-12T15:48:52.000Z</time>
      </trkpt>
      <trkpt lat="44.35275" lon="2.58751">
        <ele>536</ele>
        <time>2018-09-12T15:48:53.000Z</time>
      </trkpt>
      <trkpt lat="44.35273" lon="2.58755">
        <ele>536</ele>
        <time>2018-09-12T15:48:54.000Z</time>
      </trkpt>
      <trkpt lat="44.35271" lon="2.58759">
        <ele>536</ele>
        <time>2018-09-12T15:48:55.000Z</time>
      </trkpt>
      <trkpt lat="44.3527" lon="2.58763">
        <ele>536</ele>
        <time>2018-09-12T15:48:56.000Z</time>
      </trkpt>
      <trkpt lat="44.35268" lon="2.58766">
        <ele>536</ele>
        <time>2018-09-12T15:48:57.000Z</time>
      </trkpt>
      <trkpt lat="44.35267" lon="2.5877">
        <ele>536</ele>
        <time>2018-09-12T15:48:58.000Z</time>
      </trkpt>
      <trkpt lat="44.35266" lon="2.58774">
        <ele>536</ele>
        <time>2018-09-12T15:48:59.000Z</time>
      </trkpt>
      <trkpt lat="44.35265" lon="2.58778">
        <ele>536</ele>
        <time>2018-09-12T15:49:00.000Z</time>
      </trkpt>
      <trkpt lat="44.35264" lon="2.58782">
        <ele>536</ele>
        <time>2018-09-12T15:49:01.000Z</time>
      </trkpt>
      <trkpt lat="44.35263" lon="2.58786">
        <ele>536</ele>
        <time>2018-09-12T15:49:02.000Z</time>
      </trkpt>
      <trkpt lat="44.35262" lon="2.5879">
        <ele>536</ele>
        <time>2018-09-12T15:49:03.000Z</time>
      </trkpt>
      <trkpt lat="44.35261" lon="2.58794">
        <ele>536</ele>
        <time>2018-09-12T15:49:04.000Z</time>
      </trkpt>
      <trkpt lat="44.3526" lon="2.58798">
        <ele>536</ele>
        <time>2018-09-12T15:49:05.000Z</time>
      </trkpt>
      <trkpt lat="44.35259" lon="2.58802">
        <ele>536</ele>
        <time>2018-09-12T15:49:06.000Z</time>
      </trkpt>
      <trkpt lat="44.35258" lon="2.58806">
        <ele>536</ele>
        <time>2018-09-12T15:49:07.000Z</time>
      </trkpt>
      <trkpt lat="44.35257" lon="2.5881">
        <ele>536</ele>
        <time>2018-09-12T15:49:08.000Z</time>
      </trkpt>
      <trkpt lat="44.35256" lon="2.58814">
        <ele>536</ele>
        <time>2018-09-12T15:49:09.000Z</time>
      </trkpt>
      <trkpt lat="44.35254" lon="2.58818">
        <ele>536</ele>
        <time>2018-09-12T15:49:10.000Z</time>
      </trkpt>
      <trkpt lat="44.35253" lon="2.58821">
        <ele>536.05999436793</ele>
        <time>2018-09-12T15:49:11.000Z</time>
      </trkpt>
      <trkpt lat="44.35251" lon="2.58825">
        <ele>537</ele>
        <time>2018-09-12T15:49:12.000Z</time>
      </trkpt>
      <trkpt lat="44.35249" lon="2.58828">
        <ele>536.9494976921</ele>
        <time>2018-09-12T15:49:13.000Z</time>
      </trkpt>
      <trkpt lat="44.35247" lon="2.58831">
        <ele>536</ele>
        <time>2018-09-12T15:49:14.000Z</time>
      </trkpt>
      <trkpt lat="44.35245" lon="2.58835">
        <ele>536</ele>
        <time>2018-09-12T15:49:15.000Z</time>
      </trkpt>
      <trkpt lat="44.35243" lon="2.58838">
        <ele>536</ele>
        <time>2018-09-12T15:49:16.000Z</time>
      </trkpt>
      <trkpt lat="44.35241" lon="2.58842">
        <ele>536</ele>
        <time>2018-09-12T15:49:17.000Z</time>
      </trkpt>
      <trkpt lat="44.35239" lon="2.58845">
        <ele>536</ele>
        <time>2018-09-12T15:49:18.000Z</time>
      </trkpt>
      <trkpt lat="44.35237" lon="2.58848">
        <ele>536</ele>
        <time>2018-09-12T15:49:19.000Z</time>
      </trkpt>
      <trkpt lat="44.35235" lon="2.58851">
        <ele>536</ele>
        <time>2018-09-12T15:49:20.000Z</time>
      </trkpt>
      <trkpt lat="44.35233" lon="2.58854">
        <ele>536</ele>
        <time>2018-09-12T15:49:21.000Z</time>
      </trkpt>
      <trkpt lat="44.35231" lon="2.58857">
        <ele>536</ele>
        <time>2018-09-12T15:49:22.000Z</time>
      </trkpt>
      <trkpt lat="44.35229" lon="2.5886">
        <ele>536</ele>
        <time>2018-09-12T15:49:23.000Z</time>
      </trkpt>
      <trkpt lat="44.35227" lon="2.58863">
        <ele>536</ele>
        <time>2018-09-12T15:49:24.000Z</time>
      </trkpt>
      <trkpt lat="44.35225" lon="2.58866">
        <ele>536</ele>
        <time>2018-09-12T15:49:25.000Z</time>
      </trkpt>
      <trkpt lat="44.35223" lon="2.58869">
        <ele>536</ele>
        <time>2018-09-12T15:49:26.000Z</time>
      </trkpt>
      <trkpt lat="44.35221" lon="2.58872">
        <ele>536</ele>
        <time>2018-09-12T15:49:27.000Z</time>
      </trkpt>
      <trkpt lat="44.35219" lon="2.58875">
        <ele>536</ele>
        <time>2018-09-12T15:49:28.000Z</time>
      </trkpt>
      <trkpt lat="44.35218" lon="2.58878">
        <ele>536</ele>
        <time>2018-09-12T15:49:29.000Z</time>
      </trkpt>
      <trkpt lat="44.35216" lon="2.58881">
        <ele>536</ele>
        <time>2018-09-12T15:49:30.000Z</time>
      </trkpt>
      <trkpt lat="44.35215" lon="2.58884">
        <ele>536</ele>
        <time>2018-09-12T15:49:31.000Z</time>
      </trkpt>
      <trkpt lat="44.35213" lon="2.58887">
        <ele>536</ele>
        <time>2018-09-12T15:49:32.000Z</time>
      </trkpt>
      <trkpt lat="44.35211" lon="2.5889">
        <ele>536</ele>
        <time>2018-09-12T15:49:33.000Z</time>
      </trkpt>
      <trkpt lat="44.3521" lon="2.58893">
        <ele>536</ele>
        <time>2018-09-12T15:49:34.000Z</time>
      </trkpt>
      <trkpt lat="44.35209" lon="2.58897">
        <ele>535.94495983841</ele>
        <time>2018-09-12T15:49:35.000Z</time>
      </trkpt>
      <trkpt lat="44.35207" lon="2.58901">
        <ele>535.02752595237</ele>
        <time>2018-09-12T15:49:36.000Z</time>
      </trkpt>
      <trkpt lat="44.35206" lon="2.58904">
        <ele>535</ele>
        <time>2018-09-12T15:49:37.000Z</time>
      </trkpt>
      <trkpt lat="44.35204" lon="2.58908">
        <ele>535</ele>
        <time>2018-09-12T15:49:38.000Z</time>
      </trkpt>
      <trkpt lat="44.35202" lon="2.58912">
        <ele>535</ele>
        <time>2018-09-12T15:49:39.000Z</time>
      </trkpt>
      <trkpt lat="44.35201" lon="2.58915">
        <ele>535</ele>
        <time>2018-09-12T15:49:40.000Z</time>
      </trkpt>
      <trkpt lat="44.352" lon="2.58919">
        <ele>535</ele>
        <time>2018-09-12T15:49:41.000Z</time>
      </trkpt>
      <trkpt lat="44.35198" lon="2.58923">
        <ele>535.02344</ele>
        <time>2018-09-12T15:49:42.000Z</time>
      </trkpt>
      <trkpt lat="44.35197" lon="2.58927">
        <ele>535.80469</ele>
        <time>2018-09-12T15:49:43.000Z</time>
      </trkpt>
      <trkpt lat="44.35195" lon="2.5893">
        <ele>536</ele>
        <time>2018-09-12T15:49:44.000Z</time>
      </trkpt>
      <trkpt lat="44.35194" lon="2.58934">
        <ele>536</ele>
        <time>2018-09-12T15:49:45.000Z</time>
      </trkpt>
      <trkpt lat="44.35192" lon="2.58937">
        <ele>536</ele>
        <time>2018-09-12T15:49:46.000Z</time>
      </trkpt>
      <trkpt lat="44.35191" lon="2.58941">
        <ele>536</ele>
        <time>2018-09-12T15:49:47.000Z</time>
      </trkpt>
      <trkpt lat="44.3519" lon="2.58945">
        <ele>536</ele>
        <time>2018-09-12T15:49:48.000Z</time>
      </trkpt>
      <trkpt lat="44.35188" lon="2.58949">
        <ele>536</ele>
        <time>2018-09-12T15:49:49.000Z</time>
      </trkpt>
      <trkpt lat="44.35187" lon="2.58952">
        <ele>536</ele>
        <time>2018-09-12T15:49:50.000Z</time>
      </trkpt>
      <trkpt lat="44.35185" lon="2.58956">
        <ele>536</ele>
        <time>2018-09-12T15:49:51.000Z</time>
      </trkpt>
      <trkpt lat="44.35184" lon="2.5896">
        <ele>536</ele>
        <time>2018-09-12T15:49:52.000Z</time>
      </trkpt>
      <trkpt lat="44.35182" lon="2.58963">
        <ele>536</ele>
        <time>2018-09-12T15:49:53.000Z</time>
      </trkpt>
      <trkpt lat="44.3518" lon="2.58967">
        <ele>536.06000563193</ele>
        <time>2018-09-12T15:49:54.000Z</time>
      </trkpt>
      <trkpt lat="44.35179" lon="2.5897">
        <ele>537</ele>
        <time>2018-09-12T15:49:55.000Z</time>
      </trkpt>
      <trkpt lat="44.35177" lon="2.58974">
        <ele>537</ele>
        <time>2018-09-12T15:49:56.000Z</time>
      </trkpt>
      <trkpt lat="44.35176" lon="2.58977">
        <ele>537</ele>
        <time>2018-09-12T15:49:57.000Z</time>
      </trkpt>
      <trkpt lat="44.35174" lon="2.58981">
        <ele>537</ele>
        <time>2018-09-12T15:49:58.000Z</time>
      </trkpt>
      <trkpt lat="44.35173" lon="2.58984">
        <ele>537</ele>
        <time>2018-09-12T15:49:59.000Z</time>
      </trkpt>
      <trkpt lat="44.35171" lon="2.58988">
        <ele>537</ele>
        <time>2018-09-12T15:50:00.000Z</time>
      </trkpt>
      <trkpt lat="44.35169" lon="2.58991">
        <ele>537.94000563207</ele>
        <time>2018-09-12T15:50:01.000Z</time>
      </trkpt>
      <trkpt lat="44.35167" lon="2.58995">
        <ele>537.05941171252</ele>
        <time>2018-09-12T15:50:02.000Z</time>
      </trkpt>
      <trkpt lat="44.35166" lon="2.58998">
        <ele>537.9494976921</ele>
        <time>2018-09-12T15:50:03.000Z</time>
      </trkpt>
      <trkpt lat="44.35164" lon="2.59001">
        <ele>537</ele>
        <time>2018-09-12T15:50:04.000Z</time>
      </trkpt>
      <trkpt lat="44.35162" lon="2.59004">
        <ele>537</ele>
        <time>2018-09-12T15:50:05.000Z</time>
      </trkpt>
      <trkpt lat="44.3516" lon="2.59007">
        <ele>538</ele>
        <time>2018-09-12T15:50:06.000Z</time>
      </trkpt>
      <trkpt lat="44.35159" lon="2.59011">
        <ele>538</ele>
        <time>2018-09-12T15:50:07.000Z</time>
      </trkpt>
      <trkpt lat="44.35157" lon="2.59014">
        <ele>538</ele>
        <time>2018-09-12T15:50:08.000Z</time>
      </trkpt>
      <trkpt lat="44.35156" lon="2.59018">
        <ele>538</ele>
        <time>2018-09-12T15:50:09.000Z</time>
      </trkpt>
      <trkpt lat="44.35154" lon="2.59022">
        <ele>538</ele>
        <time>2018-09-12T15:50:10.000Z</time>
      </trkpt>
      <trkpt lat="44.35152" lon="2.59025">
        <ele>538</ele>
        <time>2018-09-12T15:50:11.000Z</time>
      </trkpt>
      <trkpt lat="44.3515" lon="2.59029">
        <ele>538</ele>
        <time>2018-09-12T15:50:12.000Z</time>
      </trkpt>
      <trkpt lat="44.35149" lon="2.59032">
        <ele>538</ele>
        <time>2018-09-12T15:50:13.000Z</time>
      </trkpt>
      <trkpt lat="44.35147" lon="2.59035">
        <ele>538</ele>
        <time>2018-09-12T15:50:14.000Z</time>
      </trkpt>
      <trkpt lat="44.35145" lon="2.59038">
        <ele>538</ele>
        <time>2018-09-12T15:50:15.000Z</time>
      </trkpt>
      <trkpt lat="44.35143" lon="2.59042">
        <ele>538</ele>
        <time>2018-09-12T15:50:16.000Z</time>
      </trkpt>
      <trkpt lat="44.35141" lon="2.59045">
        <ele>538</ele>
        <time>2018-09-12T15:50:17.000Z</time>
      </trkpt>
      <trkpt lat="44.3514" lon="2.59048">
        <ele>538</ele>
        <time>2018-09-12T15:50:18.000Z</time>
      </trkpt>
      <trkpt lat="44.35138" lon="2.59051">
        <ele>538</ele>
        <time>2018-09-12T15:50:19.000Z</time>
      </trkpt>
      <trkpt lat="44.35136" lon="2.59055">
        <ele>538</ele>
        <time>2018-09-12T15:50:20.000Z</time>
      </trkpt>
      <trkpt lat="44.35134" lon="2.59058">
        <ele>537</ele>
        <time>2018-09-12T15:50:21.000Z</time>
      </trkpt>
      <trkpt lat="44.35132" lon="2.59061">
        <ele>537</ele>
        <time>2018-09-12T15:50:22.000Z</time>
      </trkpt>
      <trkpt lat="44.35131" lon="2.59065">
        <ele>537</ele>
        <time>2018-09-12T15:50:23.000Z</time>
      </trkpt>
      <trkpt lat="44.35129" lon="2.59068">
        <ele>537</ele>
        <time>2018-09-12T15:50:24.000Z</time>
      </trkpt>
      <trkpt lat="44.35128" lon="2.59072">
        <ele>537</ele>
        <time>2018-09-12T15:50:25.000Z</time>
      </trkpt>
      <trkpt lat="44.35127" lon="2.59075">
        <ele>537</ele>
        <time>2018-09-12T15:50:26.000Z</time>
      </trkpt>
      <trkpt lat="44.35125" lon="2.59079">
        <ele>537</ele>
        <time>2018-09-12T15:50:27.000Z</time>
      </trkpt>
      <trkpt lat="44.35124" lon="2.59082">
        <ele>537</ele>
        <time>2018-09-12T15:50:28.000Z</time>
      </trkpt>
      <trkpt lat="44.35122" lon="2.59085">
        <ele>537</ele>
        <time>2018-09-12T15:50:29.000Z</time>
      </trkpt>
      <trkpt lat="44.35121" lon="2.59089">
        <ele>537</ele>
        <time>2018-09-12T15:50:30.000Z</time>
      </trkpt>
      <trkpt lat="44.3512" lon="2.59092">
        <ele>537</ele>
        <time>2018-09-12T15:50:31.000Z</time>
      </trkpt>
      <trkpt lat="44.35119" lon="2.59095">
        <ele>537</ele>
        <time>2018-09-12T15:50:32.000Z</time>
      </trkpt>
      <trkpt lat="44.35121" lon="2.591">
        <ele>537</ele>
        <time>2018-09-12T15:50:34.000Z</time>
      </trkpt>
      <trkpt lat="44.35122" lon="2.59101">
        <ele>537.05659807757</ele>
        <time>2018-09-12T15:50:35.000Z</time>
      </trkpt>
      <trkpt lat="44.35125" lon="2.59104">
        <ele>538</ele>
        <time>2018-09-12T15:50:37.000Z</time>
      </trkpt>
      <trkpt lat="44.35125" lon="2.59109">
        <ele>538</ele>
        <time>2018-09-12T15:50:39.000Z</time>
      </trkpt>
      <trkpt lat="44.35126" lon="2.59112">
        <ele>538</ele>
        <time>2018-09-12T15:50:40.000Z</time>
      </trkpt>
      <trkpt lat="44.35127" lon="2.59115">
        <ele>538</ele>
        <time>2018-09-12T15:50:41.000Z</time>
      </trkpt>
      <trkpt lat="44.35128" lon="2.59118">
        <ele>538</ele>
        <time>2018-09-12T15:50:42.000Z</time>
      </trkpt>
      <trkpt lat="44.35129" lon="2.5912">
        <ele>538</ele>
        <time>2018-09-12T15:50:43.000Z</time>
      </trkpt>
      <trkpt lat="44.35131" lon="2.59124">
        <ele>538</ele>
        <time>2018-09-12T15:50:45.000Z</time>
      </trkpt>
      <trkpt lat="44.35132" lon="2.59126">
        <ele>538</ele>
        <time>2018-09-12T15:50:46.000Z</time>
      </trkpt>
      <trkpt lat="44.35133" lon="2.59128">
        <ele>538</ele>
        <time>2018-09-12T15:50:47.000Z</time>
      </trkpt>
      <trkpt lat="44.35134" lon="2.59131">
        <ele>538</ele>
        <time>2018-09-12T15:50:48.000Z</time>
      </trkpt>
      <trkpt lat="44.35135" lon="2.59134">
        <ele>538</ele>
        <time>2018-09-12T15:50:49.000Z</time>
      </trkpt>
      <trkpt lat="44.35136" lon="2.59136">
        <ele>539</ele>
        <time>2018-09-12T15:50:51.000Z</time>
      </trkpt>
      <trkpt lat="44.35137" lon="2.59139">
        <ele>539</ele>
        <time>2018-09-12T15:50:54.000Z</time>
      </trkpt>
      <trkpt lat="44.35136" lon="2.59142">
        <ele>539.06000563193</ele>
        <time>2018-09-12T15:50:56.000Z</time>
      </trkpt>
      <trkpt lat="44.35137" lon="2.59144">
        <ele>540</ele>
        <time>2018-09-12T15:50:58.000Z</time>
      </trkpt>
      <trkpt lat="44.35138" lon="2.59147">
        <ele>540</ele>
        <time>2018-09-12T15:51:00.000Z</time>
      </trkpt>
      <trkpt lat="44.35139" lon="2.59149">
        <ele>541</ele>
        <time>2018-09-12T15:51:02.000Z</time>
      </trkpt>
      <trkpt lat="44.35142" lon="2.59152">
        <ele>541.05405966397</ele>
        <time>2018-09-12T15:51:04.000Z</time>
      </trkpt>
      <trkpt lat="44.35144" lon="2.59154">
        <ele>541.95495796769</ele>
        <time>2018-09-12T15:51:05.000Z</time>
      </trkpt>
      <trkpt lat="44.35146" lon="2.59156">
        <ele>542.01049147827</ele>
        <time>2018-09-12T15:51:06.000Z</time>
      </trkpt>
      <trkpt lat="44.35148" lon="2.59157">
        <ele>542.10586577891</ele>
        <time>2018-09-12T15:51:07.000Z</time>
      </trkpt>
      <trkpt lat="44.35152" lon="2.59159">
        <ele>544</ele>
        <time>2018-09-12T15:51:28.000Z</time>
      </trkpt>
      <trkpt lat="44.35153" lon="2.5916">
        <ele>544</ele>
        <time>2018-09-12T15:51:29.000Z</time>
      </trkpt>
      <trkpt lat="44.35154" lon="2.59163">
        <ele>545</ele>
        <time>2018-09-12T15:51:31.000Z</time>
      </trkpt>
      <trkpt lat="44.35155" lon="2.59166">
        <ele>545</ele>
        <time>2018-09-12T15:51:32.000Z</time>
      </trkpt>
      <trkpt lat="44.35156" lon="2.59169">
        <ele>545</ele>
        <time>2018-09-12T15:51:33.000Z</time>
      </trkpt>
      <trkpt lat="44.35156" lon="2.59172">
        <ele>545</ele>
        <time>2018-09-12T15:51:34.000Z</time>
      </trkpt>
      <trkpt lat="44.35156" lon="2.59175">
        <ele>545</ele>
        <time>2018-09-12T15:51:35.000Z</time>
      </trkpt>
      <trkpt lat="44.35156" lon="2.59178">
        <ele>545</ele>
        <time>2018-09-12T15:51:36.000Z</time>
      </trkpt>
      <trkpt lat="44.35155" lon="2.59182">
        <ele>545</ele>
        <time>2018-09-12T15:51:37.000Z</time>
      </trkpt>
      <trkpt lat="44.35154" lon="2.59185">
        <ele>545</ele>
        <time>2018-09-12T15:51:38.000Z</time>
      </trkpt>
      <trkpt lat="44.35153" lon="2.59188">
        <ele>545</ele>
        <time>2018-09-12T15:51:39.000Z</time>
      </trkpt>
      <trkpt lat="44.35152" lon="2.59191">
        <ele>545</ele>
        <time>2018-09-12T15:51:40.000Z</time>
      </trkpt>
      <trkpt lat="44.35151" lon="2.59194">
        <ele>545.05999436793</ele>
        <time>2018-09-12T15:51:41.000Z</time>
      </trkpt>
      <trkpt lat="44.3515" lon="2.59197">
        <ele>546</ele>
        <time>2018-09-12T15:51:42.000Z</time>
      </trkpt>
      <trkpt lat="44.35148" lon="2.59199">
        <ele>546</ele>
        <time>2018-09-12T15:51:43.000Z</time>
      </trkpt>
      <trkpt lat="44.35147" lon="2.59202">
        <ele>546</ele>
        <time>2018-09-12T15:51:44.000Z</time>
      </trkpt>
      <trkpt lat="44.35146" lon="2.59205">
        <ele>546</ele>
        <time>2018-09-12T15:51:45.000Z</time>
      </trkpt>
      <trkpt lat="44.35144" lon="2.59207">
        <ele>546</ele>
        <time>2018-09-12T15:51:46.000Z</time>
      </trkpt>
      <trkpt lat="44.35143" lon="2.5921">
        <ele>546</ele>
        <time>2018-09-12T15:51:47.000Z</time>
      </trkpt>
      <trkpt lat="44.35142" lon="2.59212">
        <ele>546</ele>
        <time>2018-09-12T15:51:48.000Z</time>
      </trkpt>
      <trkpt lat="44.3514" lon="2.59215">
        <ele>546</ele>
        <time>2018-09-12T15:51:49.000Z</time>
      </trkpt>
      <trkpt lat="44.35139" lon="2.59217">
        <ele>546</ele>
        <time>2018-09-12T15:51:50.000Z</time>
      </trkpt>
      <trkpt lat="44.35137" lon="2.59219">
        <ele>546</ele>
        <time>2018-09-12T15:51:51.000Z</time>
      </trkpt>
      <trkpt lat="44.35136" lon="2.59222">
        <ele>547</ele>
        <time>2018-09-12T15:51:52.000Z</time>
      </trkpt>
      <trkpt lat="44.35134" lon="2.59225">
        <ele>547</ele>
        <time>2018-09-12T15:51:53.000Z</time>
      </trkpt>
      <trkpt lat="44.35132" lon="2.59227">
        <ele>547</ele>
        <time>2018-09-12T15:51:54.000Z</time>
      </trkpt>
      <trkpt lat="44.35131" lon="2.59229">
        <ele>547</ele>
        <time>2018-09-12T15:51:55.000Z</time>
      </trkpt>
      <trkpt lat="44.35129" lon="2.59231">
        <ele>547.05941171252</ele>
        <time>2018-09-12T15:51:56.000Z</time>
      </trkpt>
      <trkpt lat="44.35127" lon="2.59233">
        <ele>548</ele>
        <time>2018-09-12T15:51:57.000Z</time>
      </trkpt>
      <trkpt lat="44.35125" lon="2.59236">
        <ele>548</ele>
        <time>2018-09-12T15:51:58.000Z</time>
      </trkpt>
      <trkpt lat="44.35123" lon="2.59238">
        <ele>548</ele>
        <time>2018-09-12T15:51:59.000Z</time>
      </trkpt>
      <trkpt lat="44.35121" lon="2.5924">
        <ele>548</ele>
        <time>2018-09-12T15:52:00.000Z</time>
      </trkpt>
      <trkpt lat="44.3512" lon="2.59243">
        <ele>548</ele>
        <time>2018-09-12T15:52:01.000Z</time>
      </trkpt>
      <trkpt lat="44.35118" lon="2.59245">
        <ele>548</ele>
        <time>2018-09-12T15:52:02.000Z</time>
      </trkpt>
      <trkpt lat="44.35116" lon="2.59247">
        <ele>548.055550288</ele>
        <time>2018-09-12T15:52:03.000Z</time>
      </trkpt>
      <trkpt lat="44.35115" lon="2.59249">
        <ele>548.981487188</ele>
        <time>2018-09-12T15:52:04.000Z</time>
      </trkpt>
      <trkpt lat="44.35113" lon="2.59252">
        <ele>549</ele>
        <time>2018-09-12T15:52:05.000Z</time>
      </trkpt>
      <trkpt lat="44.35112" lon="2.59255">
        <ele>549</ele>
        <time>2018-09-12T15:52:06.000Z</time>
      </trkpt>
      <trkpt lat="44.35111" lon="2.59257">
        <ele>549</ele>
        <time>2018-09-12T15:52:07.000Z</time>
      </trkpt>
      <trkpt lat="44.3511" lon="2.59261">
        <ele>549.05405966397</ele>
        <time>2018-09-12T15:52:08.000Z</time>
      </trkpt>
      <trkpt lat="44.3511" lon="2.59264">
        <ele>549.95495796769</ele>
        <time>2018-09-12T15:52:09.000Z</time>
      </trkpt>
      <trkpt lat="44.3511" lon="2.59268">
        <ele>550</ele>
        <time>2018-09-12T15:52:10.000Z</time>
      </trkpt>
      <trkpt lat="44.35111" lon="2.59271">
        <ele>550</ele>
        <time>2018-09-12T15:52:11.000Z</time>
      </trkpt>
      <trkpt lat="44.35112" lon="2.59274">
        <ele>550</ele>
        <time>2018-09-12T15:52:12.000Z</time>
      </trkpt>
      <trkpt lat="44.35113" lon="2.59277">
        <ele>551</ele>
        <time>2018-09-12T15:52:13.000Z</time>
      </trkpt>
      <trkpt lat="44.35114" lon="2.5928">
        <ele>551</ele>
        <time>2018-09-12T15:52:14.000Z</time>
      </trkpt>
      <trkpt lat="44.35116" lon="2.59282">
        <ele>551</ele>
        <time>2018-09-12T15:52:15.000Z</time>
      </trkpt>
      <trkpt lat="44.35118" lon="2.59284">
        <ele>551</ele>
        <time>2018-09-12T15:52:16.000Z</time>
      </trkpt>
      <trkpt lat="44.3512" lon="2.59285">
        <ele>551</ele>
        <time>2018-09-12T15:52:17.000Z</time>
      </trkpt>
      <trkpt lat="44.35122" lon="2.59286">
        <ele>551.06000563193</ele>
        <time>2018-09-12T15:52:18.000Z</time>
      </trkpt>
      <trkpt lat="44.35124" lon="2.59286">
        <ele>552</ele>
        <time>2018-09-12T15:52:19.000Z</time>
      </trkpt>
      <trkpt lat="44.35127" lon="2.59286">
        <ele>552</ele>
        <time>2018-09-12T15:52:20.000Z</time>
      </trkpt>
      <trkpt lat="44.35129" lon="2.59286">
        <ele>552</ele>
        <time>2018-09-12T15:52:21.000Z</time>
      </trkpt>
      <trkpt lat="44.35131" lon="2.59285">
        <ele>552</ele>
        <time>2018-09-12T15:52:22.000Z</time>
      </trkpt>
      <trkpt lat="44.35134" lon="2.59285">
        <ele>552.04579697683</ele>
        <time>2018-09-12T15:52:23.000Z</time>
      </trkpt>
      <trkpt lat="44.35136" lon="2.59284">
        <ele>552.80916134958</ele>
        <time>2018-09-12T15:52:24.000Z</time>
      </trkpt>
      <trkpt lat="44.35138" lon="2.59284">
        <ele>553</ele>
        <time>2018-09-12T15:52:25.000Z</time>
      </trkpt>
      <trkpt lat="44.35141" lon="2.59283">
        <ele>553</ele>
        <time>2018-09-12T15:52:26.000Z</time>
      </trkpt>
      <trkpt lat="44.35143" lon="2.59282">
        <ele>553.05356571429</ele>
        <time>2018-09-12T15:52:27.000Z</time>
      </trkpt>
      <trkpt lat="44.35145" lon="2.59281">
        <ele>553.94642285714</ele>
        <time>2018-09-12T15:52:28.000Z</time>
      </trkpt>
      <trkpt lat="44.35148" lon="2.5928">
        <ele>554</ele>
        <time>2018-09-12T15:52:29.000Z</time>
      </trkpt>
      <trkpt lat="44.3515" lon="2.59279">
        <ele>554</ele>
        <time>2018-09-12T15:52:30.000Z</time>
      </trkpt>
      <trkpt lat="44.35153" lon="2.59279">
        <ele>554.02084</ele>
        <time>2018-09-12T15:52:31.000Z</time>
      </trkpt>
      <trkpt lat="44.35155" lon="2.59278">
        <ele>555</ele>
        <time>2018-09-12T15:52:32.000Z</time>
      </trkpt>
      <trkpt lat="44.35158" lon="2.59278">
        <ele>555</ele>
        <time>2018-09-12T15:52:33.000Z</time>
      </trkpt>
      <trkpt lat="44.3516" lon="2.5928">
        <ele>555</ele>
        <time>2018-09-12T15:52:34.000Z</time>
      </trkpt>
      <trkpt lat="44.3516" lon="2.59283">
        <ele>555</ele>
        <time>2018-09-12T15:52:35.000Z</time>
      </trkpt>
      <trkpt lat="44.3516" lon="2.59287">
        <ele>555</ele>
        <time>2018-09-12T15:52:36.000Z</time>
      </trkpt>
      <trkpt lat="44.35158" lon="2.59291">
        <ele>555</ele>
        <time>2018-09-12T15:52:37.000Z</time>
      </trkpt>
      <trkpt lat="44.35157" lon="2.59294">
        <ele>555</ele>
        <time>2018-09-12T15:52:38.000Z</time>
      </trkpt>
      <trkpt lat="44.35156" lon="2.59298">
        <ele>555.02084</ele>
        <time>2018-09-12T15:52:39.000Z</time>
      </trkpt>
      <trkpt lat="44.35154" lon="2.59302">
        <ele>556</ele>
        <time>2018-09-12T15:52:40.000Z</time>
      </trkpt>
      <trkpt lat="44.35153" lon="2.59305">
        <ele>556</ele>
        <time>2018-09-12T15:52:41.000Z</time>
      </trkpt>
      <trkpt lat="44.35151" lon="2.59308">
        <ele>556</ele>
        <time>2018-09-12T15:52:42.000Z</time>
      </trkpt>
      <trkpt lat="44.3515" lon="2.59311">
        <ele>556</ele>
        <time>2018-09-12T15:52:43.000Z</time>
      </trkpt>
      <trkpt lat="44.35148" lon="2.59315">
        <ele>556</ele>
        <time>2018-09-12T15:52:44.000Z</time>
      </trkpt>
      <trkpt lat="44.35147" lon="2.59318">
        <ele>556</ele>
        <time>2018-09-12T15:52:45.000Z</time>
      </trkpt>
      <trkpt lat="44.35145" lon="2.59322">
        <ele>556</ele>
        <time>2018-09-12T15:52:46.000Z</time>
      </trkpt>
      <trkpt lat="44.35144" lon="2.59325">
        <ele>556</ele>
        <time>2018-09-12T15:52:47.000Z</time>
      </trkpt>
      <trkpt lat="44.35142" lon="2.59329">
        <ele>556</ele>
        <time>2018-09-12T15:52:48.000Z</time>
      </trkpt>
      <trkpt lat="44.35141" lon="2.59332">
        <ele>556</ele>
        <time>2018-09-12T15:52:49.000Z</time>
      </trkpt>
      <trkpt lat="44.35139" lon="2.59335">
        <ele>556</ele>
        <time>2018-09-12T15:52:50.000Z</time>
      </trkpt>
      <trkpt lat="44.35138" lon="2.59338">
        <ele>556</ele>
        <time>2018-09-12T15:52:51.000Z</time>
      </trkpt>
      <trkpt lat="44.35136" lon="2.59341">
        <ele>556</ele>
        <time>2018-09-12T15:52:52.000Z</time>
      </trkpt>
      <trkpt lat="44.35134" lon="2.59345">
        <ele>556</ele>
        <time>2018-09-12T15:52:53.000Z</time>
      </trkpt>
      <trkpt lat="44.35133" lon="2.59348">
        <ele>556</ele>
        <time>2018-09-12T15:52:54.000Z</time>
      </trkpt>
      <trkpt lat="44.35132" lon="2.59351">
        <ele>556</ele>
        <time>2018-09-12T15:52:55.000Z</time>
      </trkpt>
      <trkpt lat="44.35131" lon="2.59354">
        <ele>556.0744879401</ele>
        <time>2018-09-12T15:52:56.000Z</time>
      </trkpt>
      <trkpt lat="44.35129" lon="2.59356">
        <ele>557</ele>
        <time>2018-09-12T15:53:02.000Z</time>
      </trkpt>
      <trkpt lat="44.35129" lon="2.59353">
        <ele>557</ele>
        <time>2018-09-12T15:53:03.000Z</time>
      </trkpt>
      <trkpt lat="44.3513" lon="2.5935">
        <ele>557</ele>
        <time>2018-09-12T15:53:04.000Z</time>
      </trkpt>
      <trkpt lat="44.35132" lon="2.59346">
        <ele>557</ele>
        <time>2018-09-12T15:53:05.000Z</time>
      </trkpt>
      <trkpt lat="44.35134" lon="2.59342">
        <ele>557</ele>
        <time>2018-09-12T15:53:06.000Z</time>
      </trkpt>
      <trkpt lat="44.35135" lon="2.59339">
        <ele>557.055550288</ele>
        <time>2018-09-12T15:53:07.000Z</time>
      </trkpt>
      <trkpt lat="44.35137" lon="2.59335">
        <ele>557.981487188</ele>
        <time>2018-09-12T15:53:08.000Z</time>
      </trkpt>
      <trkpt lat="44.35138" lon="2.59332">
        <ele>558</ele>
        <time>2018-09-12T15:53:09.000Z</time>
      </trkpt>
      <trkpt lat="44.3514" lon="2.59329">
        <ele>558</ele>
        <time>2018-09-12T15:53:10.000Z</time>
      </trkpt>
      <trkpt lat="44.35142" lon="2.59326">
        <ele>558</ele>
        <time>2018-09-12T15:53:11.000Z</time>
      </trkpt>
      <trkpt lat="44.35144" lon="2.59323">
        <ele>558</ele>
        <time>2018-09-12T15:53:12.000Z</time>
      </trkpt>
      <trkpt lat="44.35146" lon="2.59319">
        <ele>558</ele>
        <time>2018-09-12T15:53:13.000Z</time>
      </trkpt>
      <trkpt lat="44.35147" lon="2.59316">
        <ele>558</ele>
        <time>2018-09-12T15:53:14.000Z</time>
      </trkpt>
      <trkpt lat="44.35149" lon="2.59313">
        <ele>558</ele>
        <time>2018-09-12T15:53:15.000Z</time>
      </trkpt>
      <trkpt lat="44.35151" lon="2.5931">
        <ele>558</ele>
        <time>2018-09-12T15:53:16.000Z</time>
      </trkpt>
      <trkpt lat="44.35152" lon="2.59307">
        <ele>558</ele>
        <time>2018-09-12T15:53:17.000Z</time>
      </trkpt>
      <trkpt lat="44.35154" lon="2.59303">
        <ele>558</ele>
        <time>2018-09-12T15:53:18.000Z</time>
      </trkpt>
      <trkpt lat="44.35156" lon="2.593">
        <ele>558.04347382481</ele>
        <time>2018-09-12T15:53:19.000Z</time>
      </trkpt>
      <trkpt lat="44.35157" lon="2.59297">
        <ele>558.76811486662</ele>
        <time>2018-09-12T15:53:20.000Z</time>
      </trkpt>
      <trkpt lat="44.35159" lon="2.59294">
        <ele>559</ele>
        <time>2018-09-12T15:53:21.000Z</time>
      </trkpt>
      <trkpt lat="44.35161" lon="2.59291">
        <ele>559</ele>
        <time>2018-09-12T15:53:22.000Z</time>
      </trkpt>
      <trkpt lat="44.35162" lon="2.59287">
        <ele>559</ele>
        <time>2018-09-12T15:53:23.000Z</time>
      </trkpt>
      <trkpt lat="44.35163" lon="2.59284">
        <ele>559</ele>
        <time>2018-09-12T15:53:24.000Z</time>
      </trkpt>
      <trkpt lat="44.35165" lon="2.5928">
        <ele>559</ele>
        <time>2018-09-12T15:53:25.000Z</time>
      </trkpt>
      <trkpt lat="44.35167" lon="2.59277">
        <ele>559</ele>
        <time>2018-09-12T15:53:26.000Z</time>
      </trkpt>
      <trkpt lat="44.35169" lon="2.59274">
        <ele>559</ele>
        <time>2018-09-12T15:53:27.000Z</time>
      </trkpt>
      <trkpt lat="44.35171" lon="2.59271">
        <ele>559</ele>
        <time>2018-09-12T15:53:28.000Z</time>
      </trkpt>
      <trkpt lat="44.35173" lon="2.59269">
        <ele>559</ele>
        <time>2018-09-12T15:53:29.000Z</time>
      </trkpt>
      <trkpt lat="44.35175" lon="2.59266">
        <ele>559</ele>
        <time>2018-09-12T15:53:30.000Z</time>
      </trkpt>
      <trkpt lat="44.35177" lon="2.59263">
        <ele>559</ele>
        <time>2018-09-12T15:53:31.000Z</time>
      </trkpt>
      <trkpt lat="44.35179" lon="2.59261">
        <ele>559</ele>
        <time>2018-09-12T15:53:32.000Z</time>
      </trkpt>
      <trkpt lat="44.35181" lon="2.59258">
        <ele>559</ele>
        <time>2018-09-12T15:53:33.000Z</time>
      </trkpt>
      <trkpt lat="44.35183" lon="2.59255">
        <ele>559.06000563193</ele>
        <time>2018-09-12T15:53:34.000Z</time>
      </trkpt>
      <trkpt lat="44.35184" lon="2.59253">
        <ele>560</ele>
        <time>2018-09-12T15:53:35.000Z</time>
      </trkpt>
      <trkpt lat="44.35187" lon="2.5925">
        <ele>560</ele>
        <time>2018-09-12T15:53:36.000Z</time>
      </trkpt>
      <trkpt lat="44.35188" lon="2.59248">
        <ele>560</ele>
        <time>2018-09-12T15:53:37.000Z</time>
      </trkpt>
      <trkpt lat="44.3519" lon="2.59245">
        <ele>560</ele>
        <time>2018-09-12T15:53:38.000Z</time>
      </trkpt>
      <trkpt lat="44.35192" lon="2.59243">
        <ele>560</ele>
        <time>2018-09-12T15:53:39.000Z</time>
      </trkpt>
      <trkpt lat="44.35194" lon="2.5924">
        <ele>560.05660946953</ele>
        <time>2018-09-12T15:53:40.000Z</time>
      </trkpt>
      <trkpt lat="44.35196" lon="2.59237">
        <ele>561</ele>
        <time>2018-09-12T15:53:41.000Z</time>
      </trkpt>
      <trkpt lat="44.35197" lon="2.59234">
        <ele>561</ele>
        <time>2018-09-12T15:53:42.000Z</time>
      </trkpt>
      <trkpt lat="44.35199" lon="2.59231">
        <ele>561</ele>
        <time>2018-09-12T15:53:43.000Z</time>
      </trkpt>
      <trkpt lat="44.35201" lon="2.59228">
        <ele>561</ele>
        <time>2018-09-12T15:53:44.000Z</time>
      </trkpt>
      <trkpt lat="44.35202" lon="2.59225">
        <ele>561</ele>
        <time>2018-09-12T15:53:45.000Z</time>
      </trkpt>
      <trkpt lat="44.35204" lon="2.59223">
        <ele>561</ele>
        <time>2018-09-12T15:53:46.000Z</time>
      </trkpt>
      <trkpt lat="44.35206" lon="2.5922">
        <ele>561.05999436793</ele>
        <time>2018-09-12T15:53:47.000Z</time>
      </trkpt>
      <trkpt lat="44.35208" lon="2.59218">
        <ele>562</ele>
        <time>2018-09-12T15:53:48.000Z</time>
      </trkpt>
      <trkpt lat="44.3521" lon="2.59216">
        <ele>562</ele>
        <time>2018-09-12T15:53:49.000Z</time>
      </trkpt>
      <trkpt lat="44.35213" lon="2.59215">
        <ele>562</ele>
        <time>2018-09-12T15:53:50.000Z</time>
      </trkpt>
      <trkpt lat="44.35215" lon="2.59216">
        <ele>562</ele>
        <time>2018-09-12T15:53:51.000Z</time>
      </trkpt>
      <trkpt lat="44.35216" lon="2.5922">
        <ele>562.05999436793</ele>
        <time>2018-09-12T15:53:53.000Z</time>
      </trkpt>
      <trkpt lat="44.35216" lon="2.59224">
        <ele>563</ele>
        <time>2018-09-12T15:53:54.000Z</time>
      </trkpt>
      <trkpt lat="44.35216" lon="2.59228">
        <ele>563</ele>
        <time>2018-09-12T15:53:55.000Z</time>
      </trkpt>
      <trkpt lat="44.35216" lon="2.59232">
        <ele>563</ele>
        <time>2018-09-12T15:53:56.000Z</time>
      </trkpt>
      <trkpt lat="44.35215" lon="2.59236">
        <ele>563</ele>
        <time>2018-09-12T15:53:57.000Z</time>
      </trkpt>
      <trkpt lat="44.35215" lon="2.59239">
        <ele>563</ele>
        <time>2018-09-12T15:53:58.000Z</time>
      </trkpt>
      <trkpt lat="44.35215" lon="2.59243">
        <ele>563.05659807757</ele>
        <time>2018-09-12T15:53:59.000Z</time>
      </trkpt>
      <trkpt lat="44.35215" lon="2.59247">
        <ele>564</ele>
        <time>2018-09-12T15:54:00.000Z</time>
      </trkpt>
      <trkpt lat="44.35215" lon="2.5925">
        <ele>564</ele>
        <time>2018-09-12T15:54:01.000Z</time>
      </trkpt>
      <trkpt lat="44.35215" lon="2.59254">
        <ele>564</ele>
        <time>2018-09-12T15:54:02.000Z</time>
      </trkpt>
      <trkpt lat="44.35215" lon="2.59258">
        <ele>564</ele>
        <time>2018-09-12T15:54:03.000Z</time>
      </trkpt>
      <trkpt lat="44.35215" lon="2.59261">
        <ele>564</ele>
        <time>2018-09-12T15:54:04.000Z</time>
      </trkpt>
      <trkpt lat="44.35215" lon="2.59265">
        <ele>564.02084</ele>
        <time>2018-09-12T15:54:05.000Z</time>
      </trkpt>
      <trkpt lat="44.35215" lon="2.59269">
        <ele>565</ele>
        <time>2018-09-12T15:54:06.000Z</time>
      </trkpt>
      <trkpt lat="44.35216" lon="2.59272">
        <ele>565</ele>
        <time>2018-09-12T15:54:07.000Z</time>
      </trkpt>
      <trkpt lat="44.35215" lon="2.59276">
        <ele>565</ele>
        <time>2018-09-12T15:54:08.000Z</time>
      </trkpt>
      <trkpt lat="44.35216" lon="2.59279">
        <ele>565</ele>
        <time>2018-09-12T15:54:09.000Z</time>
      </trkpt>
      <trkpt lat="44.35216" lon="2.59283">
        <ele>565</ele>
        <time>2018-09-12T15:54:10.000Z</time>
      </trkpt>
      <trkpt lat="44.35216" lon="2.59287">
        <ele>565</ele>
        <time>2018-09-12T15:54:11.000Z</time>
      </trkpt>
      <trkpt lat="44.35216" lon="2.59291">
        <ele>565</ele>
        <time>2018-09-12T15:54:12.000Z</time>
      </trkpt>
      <trkpt lat="44.35216" lon="2.59294">
        <ele>565.05999436793</ele>
        <time>2018-09-12T15:54:13.000Z</time>
      </trkpt>
      <trkpt lat="44.35216" lon="2.59297">
        <ele>566</ele>
        <time>2018-09-12T15:54:14.000Z</time>
      </trkpt>
      <trkpt lat="44.35217" lon="2.593">
        <ele>566</ele>
        <time>2018-09-12T15:54:15.000Z</time>
      </trkpt>
      <trkpt lat="44.35218" lon="2.59304">
        <ele>566</ele>
        <time>2018-09-12T15:54:16.000Z</time>
      </trkpt>
      <trkpt lat="44.35219" lon="2.59307">
        <ele>566</ele>
        <time>2018-09-12T15:54:17.000Z</time>
      </trkpt>
      <trkpt lat="44.35221" lon="2.59309">
        <ele>566</ele>
        <time>2018-09-12T15:54:18.000Z</time>
      </trkpt>
      <trkpt lat="44.35223" lon="2.59311">
        <ele>566.03093123606</ele>
        <time>2018-09-12T15:54:19.000Z</time>
      </trkpt>
      <trkpt lat="44.35225" lon="2.59313">
        <ele>567</ele>
        <time>2018-09-12T15:54:20.000Z</time>
      </trkpt>
      <trkpt lat="44.35227" lon="2.59315">
        <ele>567</ele>
        <time>2018-09-12T15:54:21.000Z</time>
      </trkpt>
      <trkpt lat="44.35229" lon="2.59316">
        <ele>567</ele>
        <time>2018-09-12T15:54:22.000Z</time>
      </trkpt>
      <trkpt lat="44.35231" lon="2.59316">
        <ele>567</ele>
        <time>2018-09-12T15:54:23.000Z</time>
      </trkpt>
      <trkpt lat="44.35234" lon="2.59316">
        <ele>567</ele>
        <time>2018-09-12T15:54:24.000Z</time>
      </trkpt>
      <trkpt lat="44.35236" lon="2.59315">
        <ele>567.05453995369</ele>
        <time>2018-09-12T15:54:25.000Z</time>
      </trkpt>
      <trkpt lat="44.35238" lon="2.59314">
        <ele>567.96363615206</ele>
        <time>2018-09-12T15:54:26.000Z</time>
      </trkpt>
      <trkpt lat="44.3524" lon="2.59313">
        <ele>568</ele>
        <time>2018-09-12T15:54:27.000Z</time>
      </trkpt>
      <trkpt lat="44.35242" lon="2.59312">
        <ele>568</ele>
        <time>2018-09-12T15:54:28.000Z</time>
      </trkpt>
      <trkpt lat="44.35244" lon="2.5931">
        <ele>568</ele>
        <time>2018-09-12T15:54:29.000Z</time>
      </trkpt>
      <trkpt lat="44.35246" lon="2.59307">
        <ele>568.05505125826</ele>
        <time>2018-09-12T15:54:30.000Z</time>
      </trkpt>
      <trkpt lat="44.35248" lon="2.59305">
        <ele>568.97247437087</ele>
        <time>2018-09-12T15:54:31.000Z</time>
      </trkpt>
      <trkpt lat="44.35249" lon="2.59302">
        <ele>569</ele>
        <time>2018-09-12T15:54:32.000Z</time>
      </trkpt>
      <trkpt lat="44.3525" lon="2.59299">
        <ele>569</ele>
        <time>2018-09-12T15:54:33.000Z</time>
      </trkpt>
      <trkpt lat="44.35252" lon="2.59296">
        <ele>569.05941171252</ele>
        <time>2018-09-12T15:54:34.000Z</time>
      </trkpt>
      <trkpt lat="44.35252" lon="2.59293">
        <ele>570</ele>
        <time>2018-09-12T15:54:35.000Z</time>
      </trkpt>
      <trkpt lat="44.35253" lon="2.59289">
        <ele>570</ele>
        <time>2018-09-12T15:54:36.000Z</time>
      </trkpt>
      <trkpt lat="44.35253" lon="2.59286">
        <ele>570</ele>
        <time>2018-09-12T15:54:37.000Z</time>
      </trkpt>
      <trkpt lat="44.35253" lon="2.59283">
        <ele>570</ele>
        <time>2018-09-12T15:54:38.000Z</time>
      </trkpt>
      <trkpt lat="44.35253" lon="2.59279">
        <ele>570.05404875574</ele>
        <time>2018-09-12T15:54:39.000Z</time>
      </trkpt>
      <trkpt lat="44.35253" lon="2.59276">
        <ele>570.95495744828</ele>
        <time>2018-09-12T15:54:40.000Z</time>
      </trkpt>
      <trkpt lat="44.35253" lon="2.59272">
        <ele>571</ele>
        <time>2018-09-12T15:54:41.000Z</time>
      </trkpt>
      <trkpt lat="44.35253" lon="2.59269">
        <ele>571</ele>
        <time>2018-09-12T15:54:42.000Z</time>
      </trkpt>
      <trkpt lat="44.35253" lon="2.59266">
        <ele>571</ele>
        <time>2018-09-12T15:54:43.000Z</time>
      </trkpt>
      <trkpt lat="44.35253" lon="2.59262">
        <ele>571</ele>
        <time>2018-09-12T15:54:44.000Z</time>
      </trkpt>
      <trkpt lat="44.35253" lon="2.59259">
        <ele>571</ele>
        <time>2018-09-12T15:54:45.000Z</time>
      </trkpt>
      <trkpt lat="44.35253" lon="2.59256">
        <ele>572</ele>
        <time>2018-09-12T15:54:46.000Z</time>
      </trkpt>
      <trkpt lat="44.35253" lon="2.59252">
        <ele>572</ele>
        <time>2018-09-12T15:54:47.000Z</time>
      </trkpt>
      <trkpt lat="44.35253" lon="2.59249">
        <ele>572</ele>
        <time>2018-09-12T15:54:48.000Z</time>
      </trkpt>
      <trkpt lat="44.35254" lon="2.59245">
        <ele>572.05504016159</ele>
        <time>2018-09-12T15:54:49.000Z</time>
      </trkpt>
      <trkpt lat="44.35255" lon="2.59242">
        <ele>572.97247404763</ele>
        <time>2018-09-12T15:54:50.000Z</time>
      </trkpt>
      <trkpt lat="44.35255" lon="2.59239">
        <ele>573</ele>
        <time>2018-09-12T15:54:51.000Z</time>
      </trkpt>
      <trkpt lat="44.35256" lon="2.59236">
        <ele>573</ele>
        <time>2018-09-12T15:54:52.000Z</time>
      </trkpt>
      <trkpt lat="44.35258" lon="2.59233">
        <ele>573</ele>
        <time>2018-09-12T15:54:53.000Z</time>
      </trkpt>
      <trkpt lat="44.35259" lon="2.5923">
        <ele>574</ele>
        <time>2018-09-12T15:54:54.000Z</time>
      </trkpt>
      <trkpt lat="44.35261" lon="2.59228">
        <ele>574</ele>
        <time>2018-09-12T15:54:55.000Z</time>
      </trkpt>
      <trkpt lat="44.35263" lon="2.59225">
        <ele>574</ele>
        <time>2018-09-12T15:54:56.000Z</time>
      </trkpt>
      <trkpt lat="44.35264" lon="2.59223">
        <ele>574</ele>
        <time>2018-09-12T15:54:57.000Z</time>
      </trkpt>
      <trkpt lat="44.35266" lon="2.5922">
        <ele>574</ele>
        <time>2018-09-12T15:54:58.000Z</time>
      </trkpt>
      <trkpt lat="44.35268" lon="2.59218">
        <ele>574</ele>
        <time>2018-09-12T15:54:59.000Z</time>
      </trkpt>
      <trkpt lat="44.35269" lon="2.59215">
        <ele>575</ele>
        <time>2018-09-12T15:55:00.000Z</time>
      </trkpt>
      <trkpt lat="44.35271" lon="2.59212">
        <ele>575</ele>
        <time>2018-09-12T15:55:01.000Z</time>
      </trkpt>
      <trkpt lat="44.35273" lon="2.5921">
        <ele>575</ele>
        <time>2018-09-12T15:55:02.000Z</time>
      </trkpt>
      <trkpt lat="44.35274" lon="2.59208">
        <ele>575</ele>
        <time>2018-09-12T15:55:03.000Z</time>
      </trkpt>
      <trkpt lat="44.35276" lon="2.59205">
        <ele>575</ele>
        <time>2018-09-12T15:55:04.000Z</time>
      </trkpt>
      <trkpt lat="44.35278" lon="2.59203">
        <ele>575.05999436793</ele>
        <time>2018-09-12T15:55:05.000Z</time>
      </trkpt>
      <trkpt lat="44.3528" lon="2.592">
        <ele>576</ele>
        <time>2018-09-12T15:55:06.000Z</time>
      </trkpt>
      <trkpt lat="44.35282" lon="2.59198">
        <ele>576</ele>
        <time>2018-09-12T15:55:07.000Z</time>
      </trkpt>
      <trkpt lat="44.35284" lon="2.59196">
        <ele>576</ele>
        <time>2018-09-12T15:55:08.000Z</time>
      </trkpt>
      <trkpt lat="44.35285" lon="2.59193">
        <ele>576</ele>
        <time>2018-09-12T15:55:09.000Z</time>
      </trkpt>
      <trkpt lat="44.35287" lon="2.59191">
        <ele>577</ele>
        <time>2018-09-12T15:55:10.000Z</time>
      </trkpt>
      <trkpt lat="44.35289" lon="2.59188">
        <ele>577</ele>
        <time>2018-09-12T15:55:11.000Z</time>
      </trkpt>
      <trkpt lat="44.35291" lon="2.59185">
        <ele>577</ele>
        <time>2018-09-12T15:55:12.000Z</time>
      </trkpt>
      <trkpt lat="44.35293" lon="2.59182">
        <ele>577</ele>
        <time>2018-09-12T15:55:13.000Z</time>
      </trkpt>
      <trkpt lat="44.35295" lon="2.5918">
        <ele>577</ele>
        <time>2018-09-12T15:55:14.000Z</time>
      </trkpt>
      <trkpt lat="44.35297" lon="2.59178">
        <ele>578</ele>
        <time>2018-09-12T15:55:15.000Z</time>
      </trkpt>
      <trkpt lat="44.35299" lon="2.59175">
        <ele>578</ele>
        <time>2018-09-12T15:55:16.000Z</time>
      </trkpt>
      <trkpt lat="44.35301" lon="2.59173">
        <ele>578</ele>
        <time>2018-09-12T15:55:17.000Z</time>
      </trkpt>
      <trkpt lat="44.35303" lon="2.5917">
        <ele>578</ele>
        <time>2018-09-12T15:55:18.000Z</time>
      </trkpt>
      <trkpt lat="44.35305" lon="2.59167">
        <ele>579</ele>
        <time>2018-09-12T15:55:19.000Z</time>
      </trkpt>
      <trkpt lat="44.35307" lon="2.59165">
        <ele>579</ele>
        <time>2018-09-12T15:55:20.000Z</time>
      </trkpt>
      <trkpt lat="44.35309" lon="2.59162">
        <ele>579</ele>
        <time>2018-09-12T15:55:21.000Z</time>
      </trkpt>
      <trkpt lat="44.35311" lon="2.59159">
        <ele>579</ele>
        <time>2018-09-12T15:55:22.000Z</time>
      </trkpt>
      <trkpt lat="44.35312" lon="2.59156">
        <ele>579</ele>
        <time>2018-09-12T15:55:23.000Z</time>
      </trkpt>
      <trkpt lat="44.35314" lon="2.59154">
        <ele>579</ele>
        <time>2018-09-12T15:55:24.000Z</time>
      </trkpt>
      <trkpt lat="44.35316" lon="2.5915">
        <ele>579.05659807757</ele>
        <time>2018-09-12T15:55:25.000Z</time>
      </trkpt>
      <trkpt lat="44.35317" lon="2.59147">
        <ele>580</ele>
        <time>2018-09-12T15:55:26.000Z</time>
      </trkpt>
      <trkpt lat="44.35319" lon="2.59144">
        <ele>580</ele>
        <time>2018-09-12T15:55:27.000Z</time>
      </trkpt>
      <trkpt lat="44.3532" lon="2.59141">
        <ele>580</ele>
        <time>2018-09-12T15:55:28.000Z</time>
      </trkpt>
      <trkpt lat="44.35322" lon="2.59138">
        <ele>580</ele>
        <time>2018-09-12T15:55:29.000Z</time>
      </trkpt>
      <trkpt lat="44.35323" lon="2.59134">
        <ele>580</ele>
        <time>2018-09-12T15:55:30.000Z</time>
      </trkpt>
      <trkpt lat="44.35324" lon="2.59131">
        <ele>580</ele>
        <time>2018-09-12T15:55:31.000Z</time>
      </trkpt>
      <trkpt lat="44.35325" lon="2.59127">
        <ele>581</ele>
        <time>2018-09-12T15:55:32.000Z</time>
      </trkpt>
      <trkpt lat="44.35327" lon="2.59125">
        <ele>581</ele>
        <time>2018-09-12T15:55:33.000Z</time>
      </trkpt>
      <trkpt lat="44.3533" lon="2.59123">
        <ele>581</ele>
        <time>2018-09-12T15:55:34.000Z</time>
      </trkpt>
      <trkpt lat="44.35333" lon="2.59122">
        <ele>581.03093123606</ele>
        <time>2018-09-12T15:55:35.000Z</time>
      </trkpt>
      <trkpt lat="44.35335" lon="2.59123">
        <ele>582</ele>
        <time>2018-09-12T15:55:36.000Z</time>
      </trkpt>
      <trkpt lat="44.35337" lon="2.59123">
        <ele>582</ele>
        <time>2018-09-12T15:55:37.000Z</time>
      </trkpt>
      <trkpt lat="44.35339" lon="2.59124">
        <ele>582</ele>
        <time>2018-09-12T15:55:38.000Z</time>
      </trkpt>
      <trkpt lat="44.35342" lon="2.59125">
        <ele>582.05881762395</ele>
        <time>2018-09-12T15:55:39.000Z</time>
      </trkpt>
      <trkpt lat="44.35344" lon="2.59126">
        <ele>583</ele>
        <time>2018-09-12T15:55:40.000Z</time>
      </trkpt>
      <trkpt lat="44.35347" lon="2.59127">
        <ele>583</ele>
        <time>2018-09-12T15:55:41.000Z</time>
      </trkpt>
      <trkpt lat="44.35349" lon="2.59128">
        <ele>583</ele>
        <time>2018-09-12T15:55:42.000Z</time>
      </trkpt>
      <trkpt lat="44.35352" lon="2.59129">
        <ele>583</ele>
        <time>2018-09-12T15:55:43.000Z</time>
      </trkpt>
      <trkpt lat="44.35355" lon="2.5913">
        <ele>583</ele>
        <time>2018-09-12T15:55:44.000Z</time>
      </trkpt>
      <trkpt lat="44.35358" lon="2.5913">
        <ele>583.05659807757</ele>
        <time>2018-09-12T15:55:45.000Z</time>
      </trkpt>
      <trkpt lat="44.35361" lon="2.59129">
        <ele>584</ele>
        <time>2018-09-12T15:55:46.000Z</time>
      </trkpt>
      <trkpt lat="44.35364" lon="2.59127">
        <ele>584</ele>
        <time>2018-09-12T15:55:47.000Z</time>
      </trkpt>
      <trkpt lat="44.35366" lon="2.59125">
        <ele>584</ele>
        <time>2018-09-12T15:55:48.000Z</time>
      </trkpt>
      <trkpt lat="44.35369" lon="2.59122">
        <ele>584</ele>
        <time>2018-09-12T15:55:49.000Z</time>
      </trkpt>
      <trkpt lat="44.35371" lon="2.59119">
        <ele>584</ele>
        <time>2018-09-12T15:55:50.000Z</time>
      </trkpt>
      <trkpt lat="44.35373" lon="2.59117">
        <ele>584</ele>
        <time>2018-09-12T15:55:51.000Z</time>
      </trkpt>
      <trkpt lat="44.35375" lon="2.59115">
        <ele>584</ele>
        <time>2018-09-12T15:55:52.000Z</time>
      </trkpt>
      <trkpt lat="44.35377" lon="2.59113">
        <ele>585</ele>
        <time>2018-09-12T15:55:54.000Z</time>
      </trkpt>
      <trkpt lat="44.3538" lon="2.59115">
        <ele>584.94391942005</ele>
        <time>2018-09-12T15:55:58.000Z</time>
      </trkpt>
      <trkpt lat="44.35383" lon="2.59116">
        <ele>584.06000563193</ele>
        <time>2018-09-12T15:56:00.000Z</time>
      </trkpt>
      <trkpt lat="44.35385" lon="2.59117">
        <ele>584</ele>
        <time>2018-09-12T15:56:02.000Z</time>
      </trkpt>
      <trkpt lat="44.35388" lon="2.59117">
        <ele>584</ele>
        <time>2018-09-12T15:56:04.000Z</time>
      </trkpt>
      <trkpt lat="44.3539" lon="2.59116">
        <ele>583.9494976921</ele>
        <time>2018-09-12T15:56:07.000Z</time>
      </trkpt>
      <trkpt lat="44.35393" lon="2.59116">
        <ele>583</ele>
        <time>2018-09-12T15:56:09.000Z</time>
      </trkpt>
      <trkpt lat="44.35396" lon="2.59115">
        <ele>583</ele>
        <time>2018-09-12T15:56:10.000Z</time>
      </trkpt>
      <trkpt lat="44.35399" lon="2.59113">
        <ele>583</ele>
        <time>2018-09-12T15:56:11.000Z</time>
      </trkpt>
      <trkpt lat="44.35401" lon="2.59112">
        <ele>583</ele>
        <time>2018-09-12T15:56:12.000Z</time>
      </trkpt>
      <trkpt lat="44.35404" lon="2.5911">
        <ele>583</ele>
        <time>2018-09-12T15:56:13.000Z</time>
      </trkpt>
      <trkpt lat="44.35407" lon="2.59109">
        <ele>583</ele>
        <time>2018-09-12T15:56:14.000Z</time>
      </trkpt>
      <trkpt lat="44.3541" lon="2.59108">
        <ele>583</ele>
        <time>2018-09-12T15:56:15.000Z</time>
      </trkpt>
      <trkpt lat="44.35413" lon="2.59107">
        <ele>583</ele>
        <time>2018-09-12T15:56:16.000Z</time>
      </trkpt>
      <trkpt lat="44.35416" lon="2.59106">
        <ele>583</ele>
        <time>2018-09-12T15:56:17.000Z</time>
      </trkpt>
      <trkpt lat="44.35419" lon="2.59104">
        <ele>583</ele>
        <time>2018-09-12T15:56:18.000Z</time>
      </trkpt>
      <trkpt lat="44.35421" lon="2.59102">
        <ele>583</ele>
        <time>2018-09-12T15:56:19.000Z</time>
      </trkpt>
      <trkpt lat="44.35423" lon="2.591">
        <ele>583</ele>
        <time>2018-09-12T15:56:20.000Z</time>
      </trkpt>
      <trkpt lat="44.35425" lon="2.59098">
        <ele>583</ele>
        <time>2018-09-12T15:56:21.000Z</time>
      </trkpt>
      <trkpt lat="44.35426" lon="2.59095">
        <ele>583</ele>
        <time>2018-09-12T15:56:22.000Z</time>
      </trkpt>
      <trkpt lat="44.35428" lon="2.59093">
        <ele>582.94000563207</ele>
        <time>2018-09-12T15:56:23.000Z</time>
      </trkpt>
      <trkpt lat="44.35429" lon="2.59091">
        <ele>582</ele>
        <time>2018-09-12T15:56:24.000Z</time>
      </trkpt>
      <trkpt lat="44.35431" lon="2.59089">
        <ele>582</ele>
        <time>2018-09-12T15:56:25.000Z</time>
      </trkpt>
      <trkpt lat="44.35433" lon="2.59087">
        <ele>582</ele>
        <time>2018-09-12T15:56:26.000Z</time>
      </trkpt>
      <trkpt lat="44.35435" lon="2.59083">
        <ele>582</ele>
        <time>2018-09-12T15:56:27.000Z</time>
      </trkpt>
      <trkpt lat="44.35437" lon="2.59079">
        <ele>582</ele>
        <time>2018-09-12T15:56:28.000Z</time>
      </trkpt>
      <trkpt lat="44.35438" lon="2.59075">
        <ele>582</ele>
        <time>2018-09-12T15:56:29.000Z</time>
      </trkpt>
      <trkpt lat="44.35439" lon="2.59071">
        <ele>582</ele>
        <time>2018-09-12T15:56:30.000Z</time>
      </trkpt>
      <trkpt lat="44.35439" lon="2.59068">
        <ele>582</ele>
        <time>2018-09-12T15:56:31.000Z</time>
      </trkpt>
      <trkpt lat="44.35439" lon="2.59065">
        <ele>582</ele>
        <time>2018-09-12T15:56:32.000Z</time>
      </trkpt>
      <trkpt lat="44.35439" lon="2.59061">
        <ele>582</ele>
        <time>2018-09-12T15:56:33.000Z</time>
      </trkpt>
      <trkpt lat="44.35439" lon="2.59057">
        <ele>581.9411705652</ele>
        <time>2018-09-12T15:56:34.000Z</time>
      </trkpt>
      <trkpt lat="44.35439" lon="2.59053">
        <ele>581</ele>
        <time>2018-09-12T15:56:35.000Z</time>
      </trkpt>
      <trkpt lat="44.3544" lon="2.59049">
        <ele>581</ele>
        <time>2018-09-12T15:56:36.000Z</time>
      </trkpt>
      <trkpt lat="44.35441" lon="2.59045">
        <ele>580.94000563207</ele>
        <time>2018-09-12T15:56:37.000Z</time>
      </trkpt>
      <trkpt lat="44.35442" lon="2.59041">
        <ele>580</ele>
        <time>2018-09-12T15:56:38.000Z</time>
      </trkpt>
      <trkpt lat="44.35444" lon="2.59038">
        <ele>580</ele>
        <time>2018-09-12T15:56:39.000Z</time>
      </trkpt>
      <trkpt lat="44.35445" lon="2.59034">
        <ele>579.94544904466</ele>
        <time>2018-09-12T15:56:40.000Z</time>
      </trkpt>
      <trkpt lat="44.35448" lon="2.59031">
        <ele>579.0363634248</ele>
        <time>2018-09-12T15:56:41.000Z</time>
      </trkpt>
      <trkpt lat="44.3545" lon="2.59027">
        <ele>579</ele>
        <time>2018-09-12T15:56:42.000Z</time>
      </trkpt>
      <trkpt lat="44.35451" lon="2.59023">
        <ele>579</ele>
        <time>2018-09-12T15:56:43.000Z</time>
      </trkpt>
      <trkpt lat="44.35452" lon="2.59018">
        <ele>579</ele>
        <time>2018-09-12T15:56:44.000Z</time>
      </trkpt>
      <trkpt lat="44.35453" lon="2.59013">
        <ele>579</ele>
        <time>2018-09-12T15:56:45.000Z</time>
      </trkpt>
      <trkpt lat="44.35454" lon="2.59007">
        <ele>579</ele>
        <time>2018-09-12T15:56:46.000Z</time>
      </trkpt>
      <trkpt lat="44.35455" lon="2.59002">
        <ele>579</ele>
        <time>2018-09-12T15:56:47.000Z</time>
      </trkpt>
      <trkpt lat="44.35456" lon="2.58997">
        <ele>578.95521931836</ele>
        <time>2018-09-12T15:56:48.000Z</time>
      </trkpt>
      <trkpt lat="44.35457" lon="2.58993">
        <ele>578.20895422589</ele>
        <time>2018-09-12T15:56:49.000Z</time>
      </trkpt>
      <trkpt lat="44.35457" lon="2.58988">
        <ele>578</ele>
        <time>2018-09-12T15:56:50.000Z</time>
      </trkpt>
      <trkpt lat="44.35458" lon="2.58984">
        <ele>578</ele>
        <time>2018-09-12T15:56:51.000Z</time>
      </trkpt>
      <trkpt lat="44.35459" lon="2.58981">
        <ele>578</ele>
        <time>2018-09-12T15:56:52.000Z</time>
      </trkpt>
      <trkpt lat="44.3546" lon="2.58978">
        <ele>578</ele>
        <time>2018-09-12T15:56:53.000Z</time>
      </trkpt>
      <trkpt lat="44.35462" lon="2.58977">
        <ele>577.94544904466</ele>
        <time>2018-09-12T15:56:54.000Z</time>
      </trkpt>
      <trkpt lat="44.35463" lon="2.58975">
        <ele>577.0363634248</ele>
        <time>2018-09-12T15:56:55.000Z</time>
      </trkpt>
      <trkpt lat="44.35465" lon="2.58974">
        <ele>577</ele>
        <time>2018-09-12T15:56:56.000Z</time>
      </trkpt>
      <trkpt lat="44.35468" lon="2.58973">
        <ele>576.94060020784</ele>
        <time>2018-09-12T15:56:57.000Z</time>
      </trkpt>
      <trkpt lat="44.3547" lon="2.58972">
        <ele>576</ele>
        <time>2018-09-12T15:56:58.000Z</time>
      </trkpt>
      <trkpt lat="44.35472" lon="2.58973">
        <ele>576</ele>
        <time>2018-09-12T15:56:59.000Z</time>
      </trkpt>
      <trkpt lat="44.35474" lon="2.58976">
        <ele>576</ele>
        <time>2018-09-12T15:57:00.000Z</time>
      </trkpt>
      <trkpt lat="44.35476" lon="2.58979">
        <ele>575</ele>
        <time>2018-09-12T15:57:01.000Z</time>
      </trkpt>
      <trkpt lat="44.35478" lon="2.58982">
        <ele>574.94058828748</ele>
        <time>2018-09-12T15:57:02.000Z</time>
      </trkpt>
      <trkpt lat="44.3548" lon="2.58986">
        <ele>574</ele>
        <time>2018-09-12T15:57:03.000Z</time>
      </trkpt>
      <trkpt lat="44.35482" lon="2.58989">
        <ele>574</ele>
        <time>2018-09-12T15:57:04.000Z</time>
      </trkpt>
      <trkpt lat="44.35484" lon="2.58992">
        <ele>574</ele>
        <time>2018-09-12T15:57:05.000Z</time>
      </trkpt>
      <trkpt lat="44.35485" lon="2.58995">
        <ele>573.93999436807</ele>
        <time>2018-09-12T15:57:06.000Z</time>
      </trkpt>
      <trkpt lat="44.35487" lon="2.58998">
        <ele>573</ele>
        <time>2018-09-12T15:57:07.000Z</time>
      </trkpt>
      <trkpt lat="44.35488" lon="2.59001">
        <ele>573</ele>
        <time>2018-09-12T15:57:08.000Z</time>
      </trkpt>
      <trkpt lat="44.3549" lon="2.59004">
        <ele>572</ele>
        <time>2018-09-12T15:57:09.000Z</time>
      </trkpt>
      <trkpt lat="44.35491" lon="2.59006">
        <ele>572</ele>
        <time>2018-09-12T15:57:10.000Z</time>
      </trkpt>
      <trkpt lat="44.35493" lon="2.59009">
        <ele>571.94000563207</ele>
        <time>2018-09-12T15:57:11.000Z</time>
      </trkpt>
      <trkpt lat="44.35494" lon="2.59011">
        <ele>571</ele>
        <time>2018-09-12T15:57:12.000Z</time>
      </trkpt>
      <trkpt lat="44.35495" lon="2.59015">
        <ele>571</ele>
        <time>2018-09-12T15:57:13.000Z</time>
      </trkpt>
      <trkpt lat="44.35497" lon="2.5902">
        <ele>570.94494874174</ele>
        <time>2018-09-12T15:57:14.000Z</time>
      </trkpt>
      <trkpt lat="44.35498" lon="2.59024">
        <ele>570.02752562913</ele>
        <time>2018-09-12T15:57:15.000Z</time>
      </trkpt>
      <trkpt lat="44.35499" lon="2.59028">
        <ele>570</ele>
        <time>2018-09-12T15:57:16.000Z</time>
      </trkpt>
      <trkpt lat="44.35501" lon="2.59032">
        <ele>569.94000563207</ele>
        <time>2018-09-12T15:57:17.000Z</time>
      </trkpt>
      <trkpt lat="44.35502" lon="2.59037">
        <ele>569</ele>
        <time>2018-09-12T15:57:18.000Z</time>
      </trkpt>
      <trkpt lat="44.35503" lon="2.59041">
        <ele>569</ele>
        <time>2018-09-12T15:57:19.000Z</time>
      </trkpt>
      <trkpt lat="44.35504" lon="2.59045">
        <ele>569</ele>
        <time>2018-09-12T15:57:20.000Z</time>
      </trkpt>
      <trkpt lat="44.35504" lon="2.59049">
        <ele>568.96906876394</ele>
        <time>2018-09-12T15:57:21.000Z</time>
      </trkpt>
      <trkpt lat="44.35504" lon="2.59053">
        <ele>568</ele>
        <time>2018-09-12T15:57:22.000Z</time>
      </trkpt>
      <trkpt lat="44.35505" lon="2.59057">
        <ele>568</ele>
        <time>2018-09-12T15:57:23.000Z</time>
      </trkpt>
      <trkpt lat="44.35505" lon="2.5906">
        <ele>567.93999436807</ele>
        <time>2018-09-12T15:57:24.000Z</time>
      </trkpt>
      <trkpt lat="44.35505" lon="2.59062">
        <ele>567</ele>
        <time>2018-09-12T15:57:25.000Z</time>
      </trkpt>
      <trkpt lat="44.35506" lon="2.59068">
        <ele>567</ele>
        <time>2018-09-12T15:57:27.000Z</time>
      </trkpt>
      <trkpt lat="44.35506" lon="2.59071">
        <ele>566.26213821472</ele>
        <time>2018-09-12T15:57:28.000Z</time>
      </trkpt>
      <trkpt lat="44.35507" lon="2.59074">
        <ele>565.94000563207</ele>
        <time>2018-09-12T15:57:29.000Z</time>
      </trkpt>
      <trkpt lat="44.35508" lon="2.59077">
        <ele>565</ele>
        <time>2018-09-12T15:57:30.000Z</time>
      </trkpt>
      <trkpt lat="44.35509" lon="2.5908">
        <ele>565</ele>
        <time>2018-09-12T15:57:31.000Z</time>
      </trkpt>
      <trkpt lat="44.3551" lon="2.59082">
        <ele>564.94494874174</ele>
        <time>2018-09-12T15:57:32.000Z</time>
      </trkpt>
      <trkpt lat="44.35512" lon="2.59084">
        <ele>563.93999436807</ele>
        <time>2018-09-12T15:57:34.000Z</time>
      </trkpt>
      <trkpt lat="44.35516" lon="2.59086">
        <ele>562.93999436807</ele>
        <time>2018-09-12T15:57:36.000Z</time>
      </trkpt>
      <trkpt lat="44.35517" lon="2.59087">
        <ele>562</ele>
        <time>2018-09-12T15:57:37.000Z</time>
      </trkpt>
      <trkpt lat="44.3552" lon="2.59088">
        <ele>562</ele>
        <time>2018-09-12T15:57:38.000Z</time>
      </trkpt>
      <trkpt lat="44.35523" lon="2.59089">
        <ele>561.94000563207</ele>
        <time>2018-09-12T15:57:39.000Z</time>
      </trkpt>
      <trkpt lat="44.35526" lon="2.5909">
        <ele>561</ele>
        <time>2018-09-12T15:57:40.000Z</time>
      </trkpt>
      <trkpt lat="44.35529" lon="2.59091">
        <ele>560.9494976921</ele>
        <time>2018-09-12T15:57:41.000Z</time>
      </trkpt>
      <trkpt lat="44.35531" lon="2.59091">
        <ele>560</ele>
        <time>2018-09-12T15:57:42.000Z</time>
      </trkpt>
      <trkpt lat="44.35532" lon="2.59091">
        <ele>560</ele>
        <time>2018-09-12T15:57:43.000Z</time>
      </trkpt>
      <trkpt lat="44.35534" lon="2.5909">
        <ele>560</ele>
        <time>2018-09-12T15:57:44.000Z</time>
      </trkpt>
      <trkpt lat="44.35537" lon="2.59089">
        <ele>559.95420302317</ele>
        <time>2018-09-12T15:57:45.000Z</time>
      </trkpt>
      <trkpt lat="44.35539" lon="2.59089">
        <ele>559.19083865042</ele>
        <time>2018-09-12T15:57:46.000Z</time>
      </trkpt>
      <trkpt lat="44.35541" lon="2.59088">
        <ele>558.94340192243</ele>
        <time>2018-09-12T15:57:47.000Z</time>
      </trkpt>
      <trkpt lat="44.35544" lon="2.59087">
        <ele>558</ele>
        <time>2018-09-12T15:57:48.000Z</time>
      </trkpt>
      <trkpt lat="44.35546" lon="2.59086">
        <ele>558</ele>
        <time>2018-09-12T15:57:49.000Z</time>
      </trkpt>
      <trkpt lat="44.35549" lon="2.59085">
        <ele>558</ele>
        <time>2018-09-12T15:57:50.000Z</time>
      </trkpt>
      <trkpt lat="44.35552" lon="2.59084">
        <ele>557</ele>
        <time>2018-09-12T15:57:51.000Z</time>
      </trkpt>
      <trkpt lat="44.35555" lon="2.59082">
        <ele>556.94058828748</ele>
        <time>2018-09-12T15:57:52.000Z</time>
      </trkpt>
      <trkpt lat="44.35557" lon="2.59081">
        <ele>556</ele>
        <time>2018-09-12T15:57:53.000Z</time>
      </trkpt>
      <trkpt lat="44.3556" lon="2.5908">
        <ele>555.94494874174</ele>
        <time>2018-09-12T15:57:54.000Z</time>
      </trkpt>
      <trkpt lat="44.35563" lon="2.59079">
        <ele>555.02752562913</ele>
        <time>2018-09-12T15:57:55.000Z</time>
      </trkpt>
      <trkpt lat="44.35566" lon="2.5908">
        <ele>555</ele>
        <time>2018-09-12T15:57:56.000Z</time>
      </trkpt>
      <trkpt lat="44.3557" lon="2.5908">
        <ele>554.94000563207</ele>
        <time>2018-09-12T15:57:57.000Z</time>
      </trkpt>
      <trkpt lat="44.35573" lon="2.5908">
        <ele>554</ele>
        <time>2018-09-12T15:57:58.000Z</time>
      </trkpt>
      <trkpt lat="44.35576" lon="2.5908">
        <ele>553.944449712</ele>
        <time>2018-09-12T15:57:59.000Z</time>
      </trkpt>
      <trkpt lat="44.35579" lon="2.59082">
        <ele>553.018512812</ele>
        <time>2018-09-12T15:58:00.000Z</time>
      </trkpt>
      <trkpt lat="44.35582" lon="2.59084">
        <ele>552</ele>
        <time>2018-09-12T15:58:01.000Z</time>
      </trkpt>
      <trkpt lat="44.35585" lon="2.59086">
        <ele>551.94058828748</ele>
        <time>2018-09-12T15:58:02.000Z</time>
      </trkpt>
      <trkpt lat="44.35589" lon="2.5909">
        <ele>551</ele>
        <time>2018-09-12T15:58:03.000Z</time>
      </trkpt>
      <trkpt lat="44.35592" lon="2.59092">
        <ele>550.96511281776</ele>
        <time>2018-09-12T15:58:04.000Z</time>
      </trkpt>
      <trkpt lat="44.35595" lon="2.59095">
        <ele>550.38372179556</ele>
        <time>2018-09-12T15:58:05.000Z</time>
      </trkpt>
      <trkpt lat="44.35598" lon="2.59098">
        <ele>548.95918394002</ele>
        <time>2018-09-12T15:58:06.000Z</time>
      </trkpt>
      <trkpt lat="44.356" lon="2.59101">
        <ele>548</ele>
        <time>2018-09-12T15:58:07.000Z</time>
      </trkpt>
      <trkpt lat="44.35603" lon="2.59103">
        <ele>547.93999436807</ele>
        <time>2018-09-12T15:58:08.000Z</time>
      </trkpt>
      <trkpt lat="44.35605" lon="2.59105">
        <ele>547</ele>
        <time>2018-09-12T15:58:09.000Z</time>
      </trkpt>
      <trkpt lat="44.35608" lon="2.59108">
        <ele>547</ele>
        <time>2018-09-12T15:58:10.000Z</time>
      </trkpt>
      <trkpt lat="44.35611" lon="2.59111">
        <ele>546</ele>
        <time>2018-09-12T15:58:11.000Z</time>
      </trkpt>
      <trkpt lat="44.35614" lon="2.59114">
        <ele>545.94058828748</ele>
        <time>2018-09-12T15:58:12.000Z</time>
      </trkpt>
      <trkpt lat="44.35616" lon="2.59116">
        <ele>545</ele>
        <time>2018-09-12T15:58:13.000Z</time>
      </trkpt>
      <trkpt lat="44.35619" lon="2.59119">
        <ele>544.94494874174</ele>
        <time>2018-09-12T15:58:14.000Z</time>
      </trkpt>
      <trkpt lat="44.35622" lon="2.59122">
        <ele>544.02752562913</ele>
        <time>2018-09-12T15:58:15.000Z</time>
      </trkpt>
      <trkpt lat="44.35624" lon="2.59125">
        <ele>543.93999436807</ele>
        <time>2018-09-12T15:58:16.000Z</time>
      </trkpt>
      <trkpt lat="44.35626" lon="2.59128">
        <ele>543</ele>
        <time>2018-09-12T15:58:17.000Z</time>
      </trkpt>
      <trkpt lat="44.35628" lon="2.59131">
        <ele>543</ele>
        <time>2018-09-12T15:58:18.000Z</time>
      </trkpt>
      <trkpt lat="44.3563" lon="2.59135">
        <ele>542.94495983841</ele>
        <time>2018-09-12T15:58:19.000Z</time>
      </trkpt>
      <trkpt lat="44.35632" lon="2.59138">
        <ele>542.02752595237</ele>
        <time>2018-09-12T15:58:20.000Z</time>
      </trkpt>
      <trkpt lat="44.35634" lon="2.59142">
        <ele>542</ele>
        <time>2018-09-12T15:58:21.000Z</time>
      </trkpt>
      <trkpt lat="44.35636" lon="2.59146">
        <ele>541.93999436807</ele>
        <time>2018-09-12T15:58:22.000Z</time>
      </trkpt>
      <trkpt lat="44.35637" lon="2.5915">
        <ele>541</ele>
        <time>2018-09-12T15:58:23.000Z</time>
      </trkpt>
      <trkpt lat="44.35639" lon="2.59153">
        <ele>541</ele>
        <time>2018-09-12T15:58:24.000Z</time>
      </trkpt>
      <trkpt lat="44.35641" lon="2.59158">
        <ele>541</ele>
        <time>2018-09-12T15:58:25.000Z</time>
      </trkpt>
      <trkpt lat="44.35643" lon="2.59162">
        <ele>540.98947708808</ele>
        <time>2018-09-12T15:58:26.000Z</time>
      </trkpt>
      <trkpt lat="44.35644" lon="2.59165">
        <ele>540</ele>
        <time>2018-09-12T15:58:27.000Z</time>
      </trkpt>
      <trkpt lat="44.35645" lon="2.59169">
        <ele>540</ele>
        <time>2018-09-12T15:58:28.000Z</time>
      </trkpt>
      <trkpt lat="44.35647" lon="2.59172">
        <ele>540</ele>
        <time>2018-09-12T15:58:29.000Z</time>
      </trkpt>
      <trkpt lat="44.35649" lon="2.59175">
        <ele>539.94230153846</ele>
        <time>2018-09-12T15:58:30.000Z</time>
      </trkpt>
      <trkpt lat="44.35651" lon="2.59179">
        <ele>539</ele>
        <time>2018-09-12T15:58:31.000Z</time>
      </trkpt>
      <trkpt lat="44.35652" lon="2.59182">
        <ele>539</ele>
        <time>2018-09-12T15:58:32.000Z</time>
      </trkpt>
      <trkpt lat="44.35654" lon="2.59185">
        <ele>539</ele>
        <time>2018-09-12T15:58:33.000Z</time>
      </trkpt>
      <trkpt lat="44.35657" lon="2.59188">
        <ele>539</ele>
        <time>2018-09-12T15:58:34.000Z</time>
      </trkpt>
      <trkpt lat="44.35658" lon="2.59192">
        <ele>539</ele>
        <time>2018-09-12T15:58:35.000Z</time>
      </trkpt>
      <trkpt lat="44.3566" lon="2.59195">
        <ele>538.98170536585</ele>
        <time>2018-09-12T15:58:36.000Z</time>
      </trkpt>
      <trkpt lat="44.35662" lon="2.59198">
        <ele>538.37194926829</ele>
        <time>2018-09-12T15:58:37.000Z</time>
      </trkpt>
      <trkpt lat="44.35665" lon="2.59202">
        <ele>538</ele>
        <time>2018-09-12T15:58:38.000Z</time>
      </trkpt>
      <trkpt lat="44.35667" lon="2.59205">
        <ele>538</ele>
        <time>2018-09-12T15:58:39.000Z</time>
      </trkpt>
      <trkpt lat="44.35669" lon="2.59208">
        <ele>538</ele>
        <time>2018-09-12T15:58:40.000Z</time>
      </trkpt>
      <trkpt lat="44.35671" lon="2.59212">
        <ele>538</ele>
        <time>2018-09-12T15:58:41.000Z</time>
      </trkpt>
      <trkpt lat="44.35674" lon="2.59215">
        <ele>538</ele>
        <time>2018-09-12T15:58:42.000Z</time>
      </trkpt>
      <trkpt lat="44.35675" lon="2.59218">
        <ele>538</ele>
        <time>2018-09-12T15:58:43.000Z</time>
      </trkpt>
      <trkpt lat="44.35677" lon="2.59221">
        <ele>537</ele>
        <time>2018-09-12T15:58:44.000Z</time>
      </trkpt>
      <trkpt lat="44.35679" lon="2.59225">
        <ele>537</ele>
        <time>2018-09-12T15:58:45.000Z</time>
      </trkpt>
      <trkpt lat="44.35681" lon="2.59228">
        <ele>537</ele>
        <time>2018-09-12T15:58:46.000Z</time>
      </trkpt>
      <trkpt lat="44.35683" lon="2.59232">
        <ele>537</ele>
        <time>2018-09-12T15:58:47.000Z</time>
      </trkpt>
      <trkpt lat="44.35685" lon="2.59235">
        <ele>537</ele>
        <time>2018-09-12T15:58:48.000Z</time>
      </trkpt>
      <trkpt lat="44.35687" lon="2.59238">
        <ele>537</ele>
        <time>2018-09-12T15:58:49.000Z</time>
      </trkpt>
      <trkpt lat="44.3569" lon="2.59242">
        <ele>537</ele>
        <time>2018-09-12T15:58:50.000Z</time>
      </trkpt>
      <trkpt lat="44.35692" lon="2.59244">
        <ele>537</ele>
        <time>2018-09-12T15:58:51.000Z</time>
      </trkpt>
      <trkpt lat="44.35694" lon="2.59248">
        <ele>537</ele>
        <time>2018-09-12T15:58:52.000Z</time>
      </trkpt>
      <trkpt lat="44.35696" lon="2.59251">
        <ele>537</ele>
        <time>2018-09-12T15:58:53.000Z</time>
      </trkpt>
      <trkpt lat="44.35698" lon="2.59255">
        <ele>537</ele>
        <time>2018-09-12T15:58:54.000Z</time>
      </trkpt>
      <trkpt lat="44.357" lon="2.59258">
        <ele>536.94000563207</ele>
        <time>2018-09-12T15:58:55.000Z</time>
      </trkpt>
      <trkpt lat="44.35702" lon="2.59262">
        <ele>536</ele>
        <time>2018-09-12T15:58:56.000Z</time>
      </trkpt>
      <trkpt lat="44.35703" lon="2.59266">
        <ele>536</ele>
        <time>2018-09-12T15:58:57.000Z</time>
      </trkpt>
      <trkpt lat="44.35704" lon="2.5927">
        <ele>536</ele>
        <time>2018-09-12T15:58:58.000Z</time>
      </trkpt>
      <trkpt lat="44.35705" lon="2.59274">
        <ele>536</ele>
        <time>2018-09-12T15:58:59.000Z</time>
      </trkpt>
      <trkpt lat="44.35706" lon="2.59278">
        <ele>536</ele>
        <time>2018-09-12T15:59:00.000Z</time>
      </trkpt>
      <trkpt lat="44.35707" lon="2.5928">
        <ele>536</ele>
        <time>2018-09-12T15:59:01.000Z</time>
      </trkpt>
      <trkpt lat="44.35709" lon="2.59282">
        <ele>536</ele>
        <time>2018-09-12T15:59:02.000Z</time>
      </trkpt>
      <trkpt lat="44.35711" lon="2.59283">
        <ele>536</ele>
        <time>2018-09-12T15:59:03.000Z</time>
      </trkpt>
      <trkpt lat="44.35714" lon="2.59286">
        <ele>536</ele>
        <time>2018-09-12T15:59:04.000Z</time>
      </trkpt>
      <trkpt lat="44.35716" lon="2.59288">
        <ele>536</ele>
        <time>2018-09-12T15:59:05.000Z</time>
      </trkpt>
      <trkpt lat="44.35718" lon="2.59291">
        <ele>536</ele>
        <time>2018-09-12T15:59:06.000Z</time>
      </trkpt>
      <trkpt lat="44.35719" lon="2.59295">
        <ele>536</ele>
        <time>2018-09-12T15:59:07.000Z</time>
      </trkpt>
      <trkpt lat="44.3572" lon="2.59299">
        <ele>536</ele>
        <time>2018-09-12T15:59:08.000Z</time>
      </trkpt>
      <trkpt lat="44.35721" lon="2.59303">
        <ele>536</ele>
        <time>2018-09-12T15:59:09.000Z</time>
      </trkpt>
      <trkpt lat="44.35722" lon="2.59307">
        <ele>536</ele>
        <time>2018-09-12T15:59:10.000Z</time>
      </trkpt>
      <trkpt lat="44.35723" lon="2.59311">
        <ele>536</ele>
        <time>2018-09-12T15:59:11.000Z</time>
      </trkpt>
      <trkpt lat="44.35724" lon="2.59315">
        <ele>536</ele>
        <time>2018-09-12T15:59:12.000Z</time>
      </trkpt>
      <trkpt lat="44.35724" lon="2.59319">
        <ele>536</ele>
        <time>2018-09-12T15:59:13.000Z</time>
      </trkpt>
      <trkpt lat="44.35725" lon="2.59323">
        <ele>536</ele>
        <time>2018-09-12T15:59:14.000Z</time>
      </trkpt>
      <trkpt lat="44.35727" lon="2.59326">
        <ele>536</ele>
        <time>2018-09-12T15:59:15.000Z</time>
      </trkpt>
      <trkpt lat="44.35728" lon="2.5933">
        <ele>536</ele>
        <time>2018-09-12T15:59:16.000Z</time>
      </trkpt>
      <trkpt lat="44.3573" lon="2.59333">
        <ele>536</ele>
        <time>2018-09-12T15:59:17.000Z</time>
      </trkpt>
      <trkpt lat="44.35731" lon="2.59337">
        <ele>536</ele>
        <time>2018-09-12T15:59:18.000Z</time>
      </trkpt>
      <trkpt lat="44.35733" lon="2.5934">
        <ele>536</ele>
        <time>2018-09-12T15:59:19.000Z</time>
      </trkpt>
      <trkpt lat="44.35735" lon="2.59344">
        <ele>536</ele>
        <time>2018-09-12T15:59:20.000Z</time>
      </trkpt>
      <trkpt lat="44.35737" lon="2.59348">
        <ele>536</ele>
        <time>2018-09-12T15:59:21.000Z</time>
      </trkpt>
      <trkpt lat="44.35739" lon="2.59351">
        <ele>536</ele>
        <time>2018-09-12T15:59:22.000Z</time>
      </trkpt>
      <trkpt lat="44.35741" lon="2.59355">
        <ele>536</ele>
        <time>2018-09-12T15:59:23.000Z</time>
      </trkpt>
      <trkpt lat="44.35743" lon="2.59358">
        <ele>536</ele>
        <time>2018-09-12T15:59:24.000Z</time>
      </trkpt>
      <trkpt lat="44.35745" lon="2.59361">
        <ele>536</ele>
        <time>2018-09-12T15:59:25.000Z</time>
      </trkpt>
      <trkpt lat="44.35748" lon="2.59364">
        <ele>536</ele>
        <time>2018-09-12T15:59:26.000Z</time>
      </trkpt>
      <trkpt lat="44.3575" lon="2.59367">
        <ele>536</ele>
        <time>2018-09-12T15:59:27.000Z</time>
      </trkpt>
      <trkpt lat="44.35752" lon="2.5937">
        <ele>536</ele>
        <time>2018-09-12T15:59:28.000Z</time>
      </trkpt>
      <trkpt lat="44.35755" lon="2.59372">
        <ele>536</ele>
        <time>2018-09-12T15:59:29.000Z</time>
      </trkpt>
      <trkpt lat="44.35757" lon="2.59375">
        <ele>536</ele>
        <time>2018-09-12T15:59:30.000Z</time>
      </trkpt>
      <trkpt lat="44.3576" lon="2.59378">
        <ele>536</ele>
        <time>2018-09-12T15:59:31.000Z</time>
      </trkpt>
      <trkpt lat="44.35762" lon="2.59381">
        <ele>536</ele>
        <time>2018-09-12T15:59:32.000Z</time>
      </trkpt>
      <trkpt lat="44.35765" lon="2.59383">
        <ele>536</ele>
        <time>2018-09-12T15:59:33.000Z</time>
      </trkpt>
      <trkpt lat="44.35768" lon="2.59385">
        <ele>536</ele>
        <time>2018-09-12T15:59:34.000Z</time>
      </trkpt>
      <trkpt lat="44.3577" lon="2.59387">
        <ele>536</ele>
        <time>2018-09-12T15:59:35.000Z</time>
      </trkpt>
      <trkpt lat="44.35773" lon="2.59388">
        <ele>536</ele>
        <time>2018-09-12T15:59:36.000Z</time>
      </trkpt>
      <trkpt lat="44.35776" lon="2.5939">
        <ele>536</ele>
        <time>2018-09-12T15:59:37.000Z</time>
      </trkpt>
      <trkpt lat="44.35779" lon="2.59391">
        <ele>536</ele>
        <time>2018-09-12T15:59:38.000Z</time>
      </trkpt>
      <trkpt lat="44.35782" lon="2.59393">
        <ele>535.95420302317</ele>
        <time>2018-09-12T15:59:39.000Z</time>
      </trkpt>
      <trkpt lat="44.35784" lon="2.59395">
        <ele>535.19083865042</ele>
        <time>2018-09-12T15:59:40.000Z</time>
      </trkpt>
      <trkpt lat="44.35787" lon="2.59396">
        <ele>535</ele>
        <time>2018-09-12T15:59:41.000Z</time>
      </trkpt>
      <trkpt lat="44.35789" lon="2.59399">
        <ele>535</ele>
        <time>2018-09-12T15:59:42.000Z</time>
      </trkpt>
      <trkpt lat="44.35792" lon="2.59401">
        <ele>535</ele>
        <time>2018-09-12T15:59:43.000Z</time>
      </trkpt>
      <trkpt lat="44.35794" lon="2.59404">
        <ele>535</ele>
        <time>2018-09-12T15:59:44.000Z</time>
      </trkpt>
      <trkpt lat="44.35795" lon="2.59408">
        <ele>535</ele>
        <time>2018-09-12T15:59:45.000Z</time>
      </trkpt>
      <trkpt lat="44.35796" lon="2.59411">
        <ele>535</ele>
        <time>2018-09-12T15:59:46.000Z</time>
      </trkpt>
      <trkpt lat="44.35797" lon="2.59415">
        <ele>535</ele>
        <time>2018-09-12T15:59:47.000Z</time>
      </trkpt>
      <trkpt lat="44.35796" lon="2.59418">
        <ele>535</ele>
        <time>2018-09-12T15:59:48.000Z</time>
      </trkpt>
      <trkpt lat="44.35796" lon="2.59423">
        <ele>535</ele>
        <time>2018-09-12T15:59:49.000Z</time>
      </trkpt>
      <trkpt lat="44.35796" lon="2.59427">
        <ele>535</ele>
        <time>2018-09-12T15:59:50.000Z</time>
      </trkpt>
      <trkpt lat="44.35795" lon="2.59432">
        <ele>535</ele>
        <time>2018-09-12T15:59:51.000Z</time>
      </trkpt>
      <trkpt lat="44.35794" lon="2.59437">
        <ele>535</ele>
        <time>2018-09-12T15:59:52.000Z</time>
      </trkpt>
      <trkpt lat="44.35793" lon="2.59441">
        <ele>535</ele>
        <time>2018-09-12T15:59:53.000Z</time>
      </trkpt>
      <trkpt lat="44.35791" lon="2.59446">
        <ele>535</ele>
        <time>2018-09-12T15:59:54.000Z</time>
      </trkpt>
      <trkpt lat="44.3579" lon="2.59449">
        <ele>535</ele>
        <time>2018-09-12T15:59:55.000Z</time>
      </trkpt>
      <trkpt lat="44.35789" lon="2.59454">
        <ele>535</ele>
        <time>2018-09-12T15:59:56.000Z</time>
      </trkpt>
      <trkpt lat="44.35787" lon="2.59458">
        <ele>535</ele>
        <time>2018-09-12T15:59:57.000Z</time>
      </trkpt>
      <trkpt lat="44.35786" lon="2.59463">
        <ele>535</ele>
        <time>2018-09-12T15:59:58.000Z</time>
      </trkpt>
      <trkpt lat="44.35785" lon="2.59467">
        <ele>534.25252120397</ele>
        <time>2018-09-12T15:59:59.000Z</time>
      </trkpt>
      <trkpt lat="44.35784" lon="2.59472">
        <ele>535</ele>
        <time>2018-09-12T16:00:00.000Z</time>
      </trkpt>
      <trkpt lat="44.35783" lon="2.59476">
        <ele>535</ele>
        <time>2018-09-12T16:00:01.000Z</time>
      </trkpt>
      <trkpt lat="44.35783" lon="2.5948">
        <ele>535</ele>
        <time>2018-09-12T16:00:02.000Z</time>
      </trkpt>
      <trkpt lat="44.35782" lon="2.59489">
        <ele>535</ele>
        <time>2018-09-12T16:00:04.000Z</time>
      </trkpt>
      <trkpt lat="44.35782" lon="2.59492">
        <ele>535</ele>
        <time>2018-09-12T16:00:05.000Z</time>
      </trkpt>
      <trkpt lat="44.35781" lon="2.59497">
        <ele>535</ele>
        <time>2018-09-12T16:00:06.000Z</time>
      </trkpt>
      <trkpt lat="44.35781" lon="2.59501">
        <ele>535</ele>
        <time>2018-09-12T16:00:07.000Z</time>
      </trkpt>
      <trkpt lat="44.35781" lon="2.59505">
        <ele>535</ele>
        <time>2018-09-12T16:00:08.000Z</time>
      </trkpt>
      <trkpt lat="44.35782" lon="2.59509">
        <ele>535</ele>
        <time>2018-09-12T16:00:09.000Z</time>
      </trkpt>
      <trkpt lat="44.35782" lon="2.59513">
        <ele>535</ele>
        <time>2018-09-12T16:00:10.000Z</time>
      </trkpt>
      <trkpt lat="44.35782" lon="2.59518">
        <ele>535</ele>
        <time>2018-09-12T16:00:11.000Z</time>
      </trkpt>
      <trkpt lat="44.35782" lon="2.59522">
        <ele>535</ele>
        <time>2018-09-12T16:00:12.000Z</time>
      </trkpt>
      <trkpt lat="44.35783" lon="2.59526">
        <ele>535</ele>
        <time>2018-09-12T16:00:13.000Z</time>
      </trkpt>
      <trkpt lat="44.35783" lon="2.59531">
        <ele>535</ele>
        <time>2018-09-12T16:00:14.000Z</time>
      </trkpt>
      <trkpt lat="44.35783" lon="2.59535">
        <ele>535</ele>
        <time>2018-09-12T16:00:15.000Z</time>
      </trkpt>
      <trkpt lat="44.35784" lon="2.59539">
        <ele>535</ele>
        <time>2018-09-12T16:00:16.000Z</time>
      </trkpt>
      <trkpt lat="44.35785" lon="2.59543">
        <ele>535</ele>
        <time>2018-09-12T16:00:17.000Z</time>
      </trkpt>
      <trkpt lat="44.35785" lon="2.59547">
        <ele>535</ele>
        <time>2018-09-12T16:00:18.000Z</time>
      </trkpt>
      <trkpt lat="44.35786" lon="2.59552">
        <ele>535.05824675648</ele>
        <time>2018-09-12T16:00:19.000Z</time>
      </trkpt>
      <trkpt lat="44.35786" lon="2.59556">
        <ele>536</ele>
        <time>2018-09-12T16:00:20.000Z</time>
      </trkpt>
      <trkpt lat="44.35786" lon="2.59559">
        <ele>535.94595124426</ele>
        <time>2018-09-12T16:00:21.000Z</time>
      </trkpt>
      <trkpt lat="44.35786" lon="2.59564">
        <ele>535.04504255172</ele>
        <time>2018-09-12T16:00:22.000Z</time>
      </trkpt>
      <trkpt lat="44.35786" lon="2.59568">
        <ele>535.05999436793</ele>
        <time>2018-09-12T16:00:23.000Z</time>
      </trkpt>
      <trkpt lat="44.35786" lon="2.59573">
        <ele>536</ele>
        <time>2018-09-12T16:00:24.000Z</time>
      </trkpt>
      <trkpt lat="44.35785" lon="2.59578">
        <ele>536</ele>
        <time>2018-09-12T16:00:25.000Z</time>
      </trkpt>
      <trkpt lat="44.35785" lon="2.59582">
        <ele>536</ele>
        <time>2018-09-12T16:00:26.000Z</time>
      </trkpt>
      <trkpt lat="44.35784" lon="2.59586">
        <ele>536</ele>
        <time>2018-09-12T16:00:27.000Z</time>
      </trkpt>
      <trkpt lat="44.35784" lon="2.5959">
        <ele>536</ele>
        <time>2018-09-12T16:00:28.000Z</time>
      </trkpt>
      <trkpt lat="44.35782" lon="2.59595">
        <ele>536</ele>
        <time>2018-09-12T16:00:29.000Z</time>
      </trkpt>
      <trkpt lat="44.35781" lon="2.59598">
        <ele>536</ele>
        <time>2018-09-12T16:00:30.000Z</time>
      </trkpt>
      <trkpt lat="44.35779" lon="2.59602">
        <ele>535.98279007159</ele>
        <time>2018-09-12T16:00:31.000Z</time>
      </trkpt>
      <trkpt lat="44.35778" lon="2.59604">
        <ele>535.94617345193</ele>
        <time>2018-09-12T16:00:32.000Z</time>
      </trkpt>
    </trkseg>
  </trk>
</gpx>